<?xml version='1.0' encoding='UTF-8'?><gpx version="1.1" creator="JPX - https://github.com/jenetics/jpx" xmlns="http://www.topografix.com/GPX/1/1"><trk><trkseg><trkpt lat="44.14510182439362" lon="10.665191425786213"><ele>1383.0</ele><time>2026-04-26T09:33:57.999Z</time></trkpt><trkpt lat="44.14523353828621" lon="10.665173040177228"><ele>1383.0</ele><time>2026-04-26T09:34:31Z</time></trkpt><trkpt lat="44.14517820865034" lon="10.665101278247759"><ele>1383.0</ele><time>2026-04-26T09:34:35Z</time></trkpt><trkpt lat="44.14511416599864" lon="10.665096955300966"><ele>1383.0</ele><time>2026-04-26T09:34:36Z</time></trkpt><trkpt lat="44.14504733184343" lon="10.665117381204775"><ele>1383.0</ele><time>2026-04-26T09:34:37Z</time></trkpt><trkpt lat="44.14498337027624" lon="10.665125839932536"><ele>1383.0</ele><time>2026-04-26T09:34:39Z</time></trkpt><trkpt lat="44.144880057391056" lon="10.665194344560609"><ele>1383.8333333333333</ele><time>2026-04-26T09:36:07.999Z</time></trkpt><trkpt lat="44.14480778879493" lon="10.665218975406484"><ele>1384.6666666666667</ele><time>2026-04-26T09:36:09.999Z</time></trkpt><trkpt lat="44.144740701755" lon="10.665245579841951"><ele>1385.5</ele><time>2026-04-26T09:36:12Z</time></trkpt><trkpt lat="44.144636460067765" lon="10.665276359284091"><ele>1386.3333333333335</ele><time>2026-04-26T09:36:14Z</time></trkpt><trkpt lat="44.14455642656911" lon="10.665284027969061"><ele>1387.1666666666667</ele><time>2026-04-26T09:36:15Z</time></trkpt><trkpt lat="44.14445644999935" lon="10.66529365063202"><ele>1388.0</ele><time>2026-04-26T09:36:16Z</time></trkpt><trkpt lat="44.144358947502155" lon="10.66532199598981"><ele>1387.6000000000001</ele><time>2026-04-26T09:36:17Z</time></trkpt><trkpt lat="44.14426081217489" lon="10.665384921878605"><ele>1387.2</ele><time>2026-04-26T09:36:18Z</time></trkpt><trkpt lat="44.14417991004202" lon="10.665477775694004"><ele>1386.8</ele><time>2026-04-26T09:36:19Z</time></trkpt><trkpt lat="44.14410521987128" lon="10.665578366313776"><ele>1386.4</ele><time>2026-04-26T09:36:20Z</time></trkpt><trkpt lat="44.144009387610005" lon="10.665668849192175"><ele>1386.0</ele><time>2026-04-26T09:36:21Z</time></trkpt><trkpt lat="44.14389866470756" lon="10.665752412382444"><ele>1386.0</ele><time>2026-04-26T09:36:22Z</time></trkpt><trkpt lat="44.14380529045756" lon="10.665802131081927"><ele>1386.0</ele><time>2026-04-26T09:36:23Z</time></trkpt><trkpt lat="44.1437138083613" lon="10.665865151626873"><ele>1386.0</ele><time>2026-04-26T09:36:24Z</time></trkpt><trkpt lat="44.14361459672451" lon="10.665926796034602"><ele>1386.0</ele><time>2026-04-26T09:36:25Z</time></trkpt><trkpt lat="44.14349526898953" lon="10.666014224049562"><ele>1386.0</ele><time>2026-04-26T09:36:26Z</time></trkpt><trkpt lat="44.14339243214207" lon="10.666107066884768"><ele>1384.25</ele><time>2026-04-26T09:36:27Z</time></trkpt><trkpt lat="44.143317812946776" lon="10.666221466197479"><ele>1382.5</ele><time>2026-04-26T09:36:28Z</time></trkpt><trkpt lat="44.14326497681818" lon="10.666377638914906"><ele>1380.75</ele><time>2026-04-26T09:36:29Z</time></trkpt><trkpt lat="44.14324385121847" lon="10.666555811294778"><ele>1379.0</ele><time>2026-04-26T09:36:30Z</time></trkpt><trkpt lat="44.143247967004015" lon="10.666735244545754"><ele>1379.0</ele><time>2026-04-26T09:36:31Z</time></trkpt><trkpt lat="44.143261468155174" lon="10.666891689671523"><ele>1379.0</ele><time>2026-04-26T09:36:32Z</time></trkpt><trkpt lat="44.14326104679682" lon="10.667047505123636"><ele>1379.0</ele><time>2026-04-26T09:36:33Z</time></trkpt><trkpt lat="44.1432364875651" lon="10.667198755093125"><ele>1379.0</ele><time>2026-04-26T09:36:34Z</time></trkpt><trkpt lat="44.14318475783099" lon="10.667345818225016"><ele>1377.75</ele><time>2026-04-26T09:36:35Z</time></trkpt><trkpt lat="44.143122896504444" lon="10.667490427037734"><ele>1376.5</ele><time>2026-04-26T09:36:36Z</time></trkpt><trkpt lat="44.14305117321621" lon="10.667645372310544"><ele>1375.25</ele><time>2026-04-26T09:36:37Z</time></trkpt><trkpt lat="44.14297801764101" lon="10.667794246287405"><ele>1374.0</ele><time>2026-04-26T09:36:38Z</time></trkpt><trkpt lat="44.14291356875733" lon="10.667942627135272"><ele>1374.0</ele><time>2026-04-26T09:36:39Z</time></trkpt><trkpt lat="44.14282049256253" lon="10.668062035530943"><ele>1374.0</ele><time>2026-04-26T09:36:40Z</time></trkpt><trkpt lat="44.1427029403581" lon="10.668138846710997"><ele>1374.0</ele><time>2026-04-26T09:36:41Z</time></trkpt><trkpt lat="44.14256710102287" lon="10.668183504446427"><ele>1374.0</ele><time>2026-04-26T09:36:42Z</time></trkpt><trkpt lat="44.142435752668256" lon="10.668186495946372"><ele>1376.4</ele><time>2026-04-26T09:36:43Z</time></trkpt><trkpt lat="44.14232475432493" lon="10.668167311559166"><ele>1378.8000000000002</ele><time>2026-04-26T09:36:44Z</time></trkpt><trkpt lat="44.142217690867334" lon="10.668154742941258"><ele>1381.1999999999998</ele><time>2026-04-26T09:36:45Z</time></trkpt><trkpt lat="44.142116815896934" lon="10.668171466442601"><ele>1383.6</ele><time>2026-04-26T09:36:46Z</time></trkpt><trkpt lat="44.14203748299738" lon="10.668245020223916"><ele>1386.0</ele><time>2026-04-26T09:36:47Z</time></trkpt><trkpt lat="44.14197025990754" lon="10.668362061717234"><ele>1386.0</ele><time>2026-04-26T09:36:48Z</time></trkpt><trkpt lat="44.141923162052045" lon="10.668514322669601"><ele>1386.0</ele><time>2026-04-26T09:36:49Z</time></trkpt><trkpt lat="44.14190984558671" lon="10.668689481385277"><ele>1386.0</ele><time>2026-04-26T09:36:50Z</time></trkpt><trkpt lat="44.141897259906926" lon="10.668871324164684"><ele>1386.0</ele><time>2026-04-26T09:36:51Z</time></trkpt><trkpt lat="44.141873624359214" lon="10.669036252372027"><ele>1383.0</ele><time>2026-04-26T09:36:52Z</time></trkpt><trkpt lat="44.141863914865056" lon="10.669183302492781"><ele>1380.0</ele><time>2026-04-26T09:36:53Z</time></trkpt><trkpt lat="44.141837677223606" lon="10.669333581400203"><ele>1377.0</ele><time>2026-04-26T09:36:54Z</time></trkpt><trkpt lat="44.14179394727867" lon="10.66948089730533"><ele>1374.0</ele><time>2026-04-26T09:36:55Z</time></trkpt><trkpt lat="44.141711949557845" lon="10.669628891534906"><ele>1371.5</ele><time>2026-04-26T09:36:56Z</time></trkpt><trkpt lat="44.141626059077" lon="10.669774434756691"><ele>1369.0</ele><time>2026-04-26T09:36:57Z</time></trkpt><trkpt lat="44.14152318471881" lon="10.669912291743772"><ele>1366.5</ele><time>2026-04-26T09:36:58Z</time></trkpt><trkpt lat="44.14141053744405" lon="10.670020301672272"><ele>1364.0</ele><time>2026-04-26T09:36:59Z</time></trkpt><trkpt lat="44.141304326404665" lon="10.670114123474963"><ele>1364.25</ele><time>2026-04-26T09:37:00Z</time></trkpt><trkpt lat="44.141215198680776" lon="10.670204661098227"><ele>1364.5</ele><time>2026-04-26T09:37:01Z</time></trkpt><trkpt lat="44.141121477995135" lon="10.670312880389561"><ele>1364.75</ele><time>2026-04-26T09:37:02Z</time></trkpt><trkpt lat="44.14104489981784" lon="10.670444478614446"><ele>1365.0</ele><time>2026-04-26T09:37:03Z</time></trkpt><trkpt lat="44.14098663091128" lon="10.670606860970267"><ele>1365.0</ele><time>2026-04-26T09:37:04Z</time></trkpt><trkpt lat="44.14095721418099" lon="10.670777630717359"><ele>1365.0</ele><time>2026-04-26T09:37:05Z</time></trkpt><trkpt lat="44.140929921265155" lon="10.670921973199272"><ele>1365.0</ele><time>2026-04-26T09:37:06Z</time></trkpt><trkpt lat="44.14089023008682" lon="10.671055581821326"><ele>1365.0</ele><time>2026-04-26T09:37:07Z</time></trkpt><trkpt lat="44.14085332912348" lon="10.671171531720008"><ele>1365.0</ele><time>2026-04-26T09:37:08Z</time></trkpt><trkpt lat="44.140774677968494" lon="10.671229784848792"><ele>1362.6</ele><time>2026-04-26T09:37:09Z</time></trkpt><trkpt lat="44.14068362953134" lon="10.671213741930972"><ele>1360.2</ele><time>2026-04-26T09:37:10Z</time></trkpt><trkpt lat="44.140590942149345" lon="10.67117714124042"><ele>1357.8000000000002</ele><time>2026-04-26T09:37:11Z</time></trkpt><trkpt lat="44.140476190705364" lon="10.671150447532598"><ele>1355.4</ele><time>2026-04-26T09:37:12Z</time></trkpt><trkpt lat="44.14038381226028" lon="10.671164911878282"><ele>1353.0</ele><time>2026-04-26T09:37:13Z</time></trkpt><trkpt lat="44.14030103405517" lon="10.671232496833579"><ele>1353.0</ele><time>2026-04-26T09:37:14Z</time></trkpt><trkpt lat="44.14022528594955" lon="10.671368516442461"><ele>1353.0</ele><time>2026-04-26T09:37:15Z</time></trkpt><trkpt lat="44.140142436428086" lon="10.671519260591019"><ele>1353.0</ele><time>2026-04-26T09:37:16Z</time></trkpt><trkpt lat="44.140041106622625" lon="10.671663381821768"><ele>1353.0</ele><time>2026-04-26T09:37:17Z</time></trkpt><trkpt lat="44.13994707764382" lon="10.671806821575206"><ele>1353.75</ele><time>2026-04-26T09:37:18Z</time></trkpt><trkpt lat="44.13985902315208" lon="10.671943813112453"><ele>1354.5</ele><time>2026-04-26T09:37:19Z</time></trkpt><trkpt lat="44.13976230887039" lon="10.672065794883176"><ele>1355.25</ele><time>2026-04-26T09:37:20Z</time></trkpt><trkpt lat="44.13968275168475" lon="10.672192515204449"><ele>1356.0</ele><time>2026-04-26T09:37:21Z</time></trkpt><trkpt lat="44.139625027702536" lon="10.672306816013974"><ele>1356.0</ele><time>2026-04-26T09:37:22Z</time></trkpt><trkpt lat="44.13959608481464" lon="10.672463628431515"><ele>1356.0</ele><time>2026-04-26T09:37:23Z</time></trkpt><trkpt lat="44.13960169502485" lon="10.672629583918042"><ele>1356.0</ele><time>2026-04-26T09:37:24Z</time></trkpt><trkpt lat="44.1396376871458" lon="10.672793994351025"><ele>1356.0</ele><time>2026-04-26T09:37:25Z</time></trkpt><trkpt lat="44.13965524770535" lon="10.672949313855037"><ele>1353.5</ele><time>2026-04-26T09:37:26Z</time></trkpt><trkpt lat="44.13967618596462" lon="10.673091744845477"><ele>1351.0</ele><time>2026-04-26T09:37:27Z</time></trkpt><trkpt lat="44.13963674800617" lon="10.673251716331986"><ele>1348.5</ele><time>2026-04-26T09:37:28Z</time></trkpt><trkpt lat="44.139572011450646" lon="10.67341567635705"><ele>1346.0</ele><time>2026-04-26T09:37:29Z</time></trkpt><trkpt lat="44.13951633957034" lon="10.673589623356241"><ele>1345.5</ele><time>2026-04-26T09:37:30Z</time></trkpt><trkpt lat="44.13946040610976" lon="10.673768392800222"><ele>1345.0</ele><time>2026-04-26T09:37:31Z</time></trkpt><trkpt lat="44.139400289537996" lon="10.673951277457515"><ele>1344.5</ele><time>2026-04-26T09:37:32Z</time></trkpt><trkpt lat="44.13934090577749" lon="10.674132517929513"><ele>1344.0</ele><time>2026-04-26T09:37:33Z</time></trkpt><trkpt lat="44.13928354701522" lon="10.67431354096707"><ele>1343.25</ele><time>2026-04-26T09:37:34Z</time></trkpt><trkpt lat="44.13922517620262" lon="10.674501381251064"><ele>1342.5</ele><time>2026-04-26T09:37:35Z</time></trkpt><trkpt lat="44.139171328938446" lon="10.674688921936092"><ele>1341.75</ele><time>2026-04-26T09:37:36Z</time></trkpt><trkpt lat="44.13911582260073" lon="10.674870065180835"><ele>1341.0</ele><time>2026-04-26T09:37:37Z</time></trkpt><trkpt lat="44.13905831175919" lon="10.675044175951896"><ele>1340.5</ele><time>2026-04-26T09:37:38Z</time></trkpt><trkpt lat="44.139015370295326" lon="10.675209039390484"><ele>1340.0</ele><time>2026-04-26T09:37:39Z</time></trkpt><trkpt lat="44.13897252306089" lon="10.675369130048901"><ele>1339.5</ele><time>2026-04-26T09:37:40Z</time></trkpt><trkpt lat="44.13892551414744" lon="10.675522779488876"><ele>1339.0</ele><time>2026-04-26T09:37:41Z</time></trkpt><trkpt lat="44.13887718624005" lon="10.675666170915052"><ele>1335.5</ele><time>2026-04-26T09:37:42Z</time></trkpt><trkpt lat="44.13883149256923" lon="10.675807222244096"><ele>1332.0</ele><time>2026-04-26T09:37:43Z</time></trkpt><trkpt lat="44.13876353391315" lon="10.675930043112174"><ele>1328.5</ele><time>2026-04-26T09:37:44Z</time></trkpt><trkpt lat="44.13866195461984" lon="10.676027908724373"><ele>1325.0</ele><time>2026-04-26T09:37:45Z</time></trkpt><trkpt lat="44.138540173357285" lon="10.676104934134745"><ele>1327.25</ele><time>2026-04-26T09:37:46Z</time></trkpt><trkpt lat="44.13842925021509" lon="10.67618545552125"><ele>1329.5</ele><time>2026-04-26T09:37:47.001Z</time></trkpt><trkpt lat="44.1383303228619" lon="10.676277959509175"><ele>1331.75</ele><time>2026-04-26T09:37:48.001Z</time></trkpt><trkpt lat="44.138228174934056" lon="10.676371370992287"><ele>1334.0</ele><time>2026-04-26T09:37:49.001Z</time></trkpt><trkpt lat="44.138128960819486" lon="10.676464849404308"><ele>1334.0</ele><time>2026-04-26T09:37:50.001Z</time></trkpt><trkpt lat="44.13804065256549" lon="10.676565042342542"><ele>1334.0</ele><time>2026-04-26T09:37:51.001Z</time></trkpt><trkpt lat="44.13797031820028" lon="10.67667710649153"><ele>1334.0</ele><time>2026-04-26T09:37:52.001Z</time></trkpt><trkpt lat="44.13791118490023" lon="10.676788441837246"><ele>1334.0</ele><time>2026-04-26T09:37:53.001Z</time></trkpt><trkpt lat="44.13785960901628" lon="10.676899368435238"><ele>1334.0</ele><time>2026-04-26T09:37:54.001Z</time></trkpt><trkpt lat="44.13780515582664" lon="10.677007593036189"><ele>1331.8000000000002</ele><time>2026-04-26T09:37:55.001Z</time></trkpt><trkpt lat="44.137720614274016" lon="10.677092892191583"><ele>1329.6000000000001</ele><time>2026-04-26T09:37:56.001Z</time></trkpt><trkpt lat="44.137622012831244" lon="10.677118710954304"><ele>1327.4</ele><time>2026-04-26T09:37:57.001Z</time></trkpt><trkpt lat="44.13753278497818" lon="10.677153587032798"><ele>1325.2</ele><time>2026-04-26T09:37:58.001Z</time></trkpt><trkpt lat="44.13746078335329" lon="10.677216052839162"><ele>1323.0</ele><time>2026-04-26T09:37:58.999Z</time></trkpt><trkpt lat="44.137411202251414" lon="10.677314965478624"><ele>1327.4</ele><time>2026-04-26T09:37:59.999Z</time></trkpt><trkpt lat="44.13737482749594" lon="10.677424793825741"><ele>1331.8000000000002</ele><time>2026-04-26T09:38:00.999Z</time></trkpt><trkpt lat="44.137347411171426" lon="10.677560474741036"><ele>1336.2</ele><time>2026-04-26T09:38:01.999Z</time></trkpt><trkpt lat="44.13734968471237" lon="10.67769483426801"><ele>1340.6</ele><time>2026-04-26T09:38:02.999Z</time></trkpt><trkpt lat="44.137349220004985" lon="10.67781569674494"><ele>1345.0</ele><time>2026-04-26T09:38:03.999Z</time></trkpt><trkpt lat="44.13735553070405" lon="10.677927752066918"><ele>1345.0</ele><time>2026-04-26T09:38:04.999Z</time></trkpt><trkpt lat="44.13737843279464" lon="10.678037612357285"><ele>1345.0</ele><time>2026-04-26T09:38:05.999Z</time></trkpt><trkpt lat="44.13739817771058" lon="10.67815260355831"><ele>1345.0</ele><time>2026-04-26T09:38:06.999Z</time></trkpt><trkpt lat="44.13741712546231" lon="10.678257744939872"><ele>1345.0</ele><time>2026-04-26T09:38:07.999Z</time></trkpt><trkpt lat="44.137436867557916" lon="10.678366113154144"><ele>1345.0</ele><time>2026-04-26T09:38:08.999Z</time></trkpt><trkpt lat="44.13745845840705" lon="10.678477028055637"><ele>1345.0</ele><time>2026-04-26T09:38:09.999Z</time></trkpt><trkpt lat="44.13748412554597" lon="10.678576122164067"><ele>1339.2</ele><time>2026-04-26T09:38:10.999Z</time></trkpt><trkpt lat="44.13749981597293" lon="10.678680547226211"><ele>1333.4</ele><time>2026-04-26T09:38:11.999Z</time></trkpt><trkpt lat="44.13751990675188" lon="10.678786514782763"><ele>1327.6</ele><time>2026-04-26T09:38:12.999Z</time></trkpt><trkpt lat="44.13752565722568" lon="10.67889958027771"><ele>1321.8</ele><time>2026-04-26T09:38:13.999Z</time></trkpt><trkpt lat="44.13751737419625" lon="10.679002168054824"><ele>1316.0</ele><time>2026-04-26T09:38:14.999Z</time></trkpt><trkpt lat="44.137417045845055" lon="10.679149915454925"><ele>1315.3333333333335</ele><time>2026-04-26T09:38:16.999Z</time></trkpt><trkpt lat="44.13733034956232" lon="10.679212861776023"><ele>1314.6666666666667</ele><time>2026-04-26T09:38:18Z</time></trkpt><trkpt lat="44.13726555116742" lon="10.679269499100778"><ele>1314.0</ele><time>2026-04-26T09:38:19Z</time></trkpt><trkpt lat="44.137193774882384" lon="10.679340106743862"><ele>1313.3333333333333</ele><time>2026-04-26T09:38:20Z</time></trkpt><trkpt lat="44.137121491086766" lon="10.679402465384635"><ele>1312.6666666666665</ele><time>2026-04-26T09:38:21Z</time></trkpt><trkpt lat="44.13705466057531" lon="10.67947016845107"><ele>1312.0</ele><time>2026-04-26T09:38:22Z</time></trkpt><trkpt lat="44.13699103938759" lon="10.679527914035317"><ele>1312.0</ele><time>2026-04-26T09:38:23Z</time></trkpt><trkpt lat="44.13692491167195" lon="10.679586135855446"><ele>1312.0</ele><time>2026-04-26T09:38:24Z</time></trkpt><trkpt lat="44.13685674257057" lon="10.679624443966922"><ele>1312.0</ele><time>2026-04-26T09:38:25Z</time></trkpt><trkpt lat="44.13676679446628" lon="10.679628784192102"><ele>1312.0</ele><time>2026-04-26T09:38:26Z</time></trkpt><trkpt lat="44.136684178099365" lon="10.679590083670014"><ele>1312.0</ele><time>2026-04-26T09:38:27Z</time></trkpt><trkpt lat="44.136613888871246" lon="10.679556148049425"><ele>1312.0</ele><time>2026-04-26T09:38:28Z</time></trkpt><trkpt lat="44.136531892226046" lon="10.679556416483374"><ele>1315.75</ele><time>2026-04-26T09:38:29Z</time></trkpt><trkpt lat="44.13645145571584" lon="10.679604989079028"><ele>1319.5</ele><time>2026-04-26T09:38:30Z</time></trkpt><trkpt lat="44.136370972085054" lon="10.679701685408263"><ele>1323.25</ele><time>2026-04-26T09:38:31Z</time></trkpt><trkpt lat="44.1362867567256" lon="10.679828729349884"><ele>1327.0</ele><time>2026-04-26T09:38:32Z</time></trkpt><trkpt lat="44.13620335445609" lon="10.679970916892247"><ele>1327.0</ele><time>2026-04-26T09:38:33Z</time></trkpt><trkpt lat="44.13610589011909" lon="10.680140555167076"><ele>1327.0</ele><time>2026-04-26T09:38:34Z</time></trkpt><trkpt lat="44.136012741952726" lon="10.680303872487848"><ele>1327.0</ele><time>2026-04-26T09:38:35Z</time></trkpt><trkpt lat="44.135940007385535" lon="10.680453543482127"><ele>1327.0</ele><time>2026-04-26T09:38:36Z</time></trkpt><trkpt lat="44.135870054788604" lon="10.680560097905927"><ele>1326.6</ele><time>2026-04-26T09:38:37Z</time></trkpt><trkpt lat="44.13579536533009" lon="10.680667904489043"><ele>1326.1999999999998</ele><time>2026-04-26T09:38:38Z</time></trkpt><trkpt lat="44.135725054294866" lon="10.68076949889202"><ele>1325.8</ele><time>2026-04-26T09:38:39Z</time></trkpt><trkpt lat="44.13564990649399" lon="10.680865392450176"><ele>1325.4</ele><time>2026-04-26T09:38:40Z</time></trkpt><trkpt lat="44.13558228421082" lon="10.680955876811792"><ele>1325.0</ele><time>2026-04-26T09:38:41Z</time></trkpt><trkpt lat="44.13551117967033" lon="10.681051834255422"><ele>1321.6</ele><time>2026-04-26T09:38:42Z</time></trkpt><trkpt lat="44.13542699966214" lon="10.681124972416601"><ele>1318.2</ele><time>2026-04-26T09:38:43Z</time></trkpt><trkpt lat="44.135347158277" lon="10.681201186327295"><ele>1314.8000000000002</ele><time>2026-04-26T09:38:44Z</time></trkpt><trkpt lat="44.13526122782076" lon="10.681270706339411"><ele>1311.4</ele><time>2026-04-26T09:38:45Z</time></trkpt><trkpt lat="44.13514199151789" lon="10.681365599786938"><ele>1308.0</ele><time>2026-04-26T09:38:46Z</time></trkpt><trkpt lat="44.134978770654875" lon="10.6815106607491"><ele>1308.0</ele><time>2026-04-26T09:38:47Z</time></trkpt><trkpt lat="44.13481697311965" lon="10.681684917621778"><ele>1308.0</ele><time>2026-04-26T09:38:48Z</time></trkpt><trkpt lat="44.134660921766034" lon="10.681864625511409"><ele>1308.0</ele><time>2026-04-26T09:38:49Z</time></trkpt><trkpt lat="44.134531959778855" lon="10.682039294066952"><ele>1308.0</ele><time>2026-04-26T09:38:50Z</time></trkpt><trkpt lat="44.13442203754762" lon="10.682205776544686"><ele>1308.0</ele><time>2026-04-26T09:38:51Z</time></trkpt><trkpt lat="44.13431633545833" lon="10.682397860222988"><ele>1308.0</ele><time>2026-04-26T09:38:52Z</time></trkpt><trkpt lat="44.134228067057" lon="10.682598929455251"><ele>1306.0</ele><time>2026-04-26T09:38:53Z</time></trkpt><trkpt lat="44.1341541980419" lon="10.682775019237438"><ele>1304.0</ele><time>2026-04-26T09:38:54Z</time></trkpt><trkpt lat="44.134084088595415" lon="10.682900147289757"><ele>1302.0</ele><time>2026-04-26T09:38:55Z</time></trkpt><trkpt lat="44.134016780305636" lon="10.68301212402394"><ele>1300.0</ele><time>2026-04-26T09:38:56Z</time></trkpt><trkpt lat="44.13391773598182" lon="10.683101229297922"><ele>1300.0</ele><time>2026-04-26T09:38:57Z</time></trkpt><trkpt lat="44.13378359244593" lon="10.683123117476587"><ele>1300.0</ele><time>2026-04-26T09:38:58Z</time></trkpt><trkpt lat="44.13364022232133" lon="10.683151694875976"><ele>1300.0</ele><time>2026-04-26T09:38:59Z</time></trkpt><trkpt lat="44.13350894875615" lon="10.683197994335575"><ele>1300.0</ele><time>2026-04-26T09:39:00Z</time></trkpt><trkpt lat="44.133385817899814" lon="10.683298559344086"><ele>1300.0</ele><time>2026-04-26T09:39:01Z</time></trkpt><trkpt lat="44.13327466470484" lon="10.68343002265613"><ele>1300.0</ele><time>2026-04-26T09:39:02Z</time></trkpt><trkpt lat="44.13314657558184" lon="10.683589692186382"><ele>1300.0</ele><time>2026-04-26T09:39:03Z</time></trkpt><trkpt lat="44.133024272581665" lon="10.68373669763845"><ele>1298.25</ele><time>2026-04-26T09:39:04Z</time></trkpt><trkpt lat="44.13290663461647" lon="10.683877937040654"><ele>1296.5</ele><time>2026-04-26T09:39:05Z</time></trkpt><trkpt lat="44.1327966910091" lon="10.684006864782647"><ele>1294.75</ele><time>2026-04-26T09:39:06Z</time></trkpt><trkpt lat="44.13270373391046" lon="10.68414154489349"><ele>1293.0</ele><time>2026-04-26T09:39:07Z</time></trkpt><trkpt lat="44.13263183621871" lon="10.684304312999652"><ele>1289.0</ele><time>2026-04-26T09:39:08Z</time></trkpt><trkpt lat="44.132584133289505" lon="10.684502448645768"><ele>1285.0</ele><time>2026-04-26T09:39:09Z</time></trkpt><trkpt lat="44.13254730598832" lon="10.684702040932185"><ele>1281.0</ele><time>2026-04-26T09:39:10Z</time></trkpt><trkpt lat="44.132514739150615" lon="10.684889239988015"><ele>1277.0</ele><time>2026-04-26T09:39:11Z</time></trkpt><trkpt lat="44.13246305966262" lon="10.685051091035984"><ele>1277.0</ele><time>2026-04-26T09:39:12Z</time></trkpt><trkpt lat="44.13242491593001" lon="10.685199077391701"><ele>1277.0</ele><time>2026-04-26T09:39:13Z</time></trkpt><trkpt lat="44.132366570355195" lon="10.685329036632476"><ele>1277.0</ele><time>2026-04-26T09:39:14Z</time></trkpt><trkpt lat="44.132283568039796" lon="10.685435338495306"><ele>1277.0</ele><time>2026-04-26T09:39:15Z</time></trkpt><trkpt lat="44.1321663513449" lon="10.685525356242547"><ele>1274.6666666666667</ele><time>2026-04-26T09:39:16Z</time></trkpt><trkpt lat="44.1320392379369" lon="10.685634720271684"><ele>1272.3333333333333</ele><time>2026-04-26T09:39:17Z</time></trkpt><trkpt lat="44.13189780088103" lon="10.685729791304269"><ele>1270.0</ele><time>2026-04-26T09:39:18Z</time></trkpt><trkpt lat="44.13175787148346" lon="10.685841408432657"><ele>1270.0</ele><time>2026-04-26T09:39:19Z</time></trkpt><trkpt lat="44.13161380382219" lon="10.685973045069963"><ele>1270.0</ele><time>2026-04-26T09:39:20Z</time></trkpt><trkpt lat="44.13147301148799" lon="10.686106109761342"><ele>1270.0</ele><time>2026-04-26T09:39:21Z</time></trkpt><trkpt lat="44.131334473541784" lon="10.686231860526524"><ele>1269.0</ele><time>2026-04-26T09:39:22Z</time></trkpt><trkpt lat="44.13119248820988" lon="10.686358037373404"><ele>1268.0</ele><time>2026-04-26T09:39:23Z</time></trkpt><trkpt lat="44.13104983241907" lon="10.686480422824644"><ele>1267.0</ele><time>2026-04-26T09:39:24Z</time></trkpt><trkpt lat="44.13091165107405" lon="10.686597531155552"><ele>1267.0</ele><time>2026-04-26T09:39:25Z</time></trkpt><trkpt lat="44.13076972045292" lon="10.686717837871115"><ele>1267.0</ele><time>2026-04-26T09:39:26Z</time></trkpt><trkpt lat="44.1306321903584" lon="10.686853809957517"><ele>1267.0</ele><time>2026-04-26T09:39:27Z</time></trkpt><trkpt lat="44.13049828960885" lon="10.68698918186965"><ele>1267.6666666666665</ele><time>2026-04-26T09:39:28Z</time></trkpt><trkpt lat="44.13038740555028" lon="10.687155214018894"><ele>1268.3333333333333</ele><time>2026-04-26T09:39:29Z</time></trkpt><trkpt lat="44.13028069851604" lon="10.687332588591737"><ele>1269.0</ele><time>2026-04-26T09:39:30.001Z</time></trkpt><trkpt lat="44.13018208795879" lon="10.687508619691407"><ele>1269.0</ele><time>2026-04-26T09:39:31.001Z</time></trkpt><trkpt lat="44.130087262145885" lon="10.687673051416986"><ele>1269.0</ele><time>2026-04-26T09:39:32.001Z</time></trkpt><trkpt lat="44.129989971790614" lon="10.687839587269828"><ele>1269.0</ele><time>2026-04-26T09:39:33.001Z</time></trkpt><trkpt lat="44.12988913756579" lon="10.688001702195418"><ele>1269.6666666666667</ele><time>2026-04-26T09:39:34.001Z</time></trkpt><trkpt lat="44.12978992282702" lon="10.688156966617505"><ele>1270.3333333333335</ele><time>2026-04-26T09:39:35.001Z</time></trkpt><trkpt lat="44.12967994853281" lon="10.688309960901922"><ele>1271.0</ele><time>2026-04-26T09:39:36.001Z</time></trkpt><trkpt lat="44.12955188741623" lon="10.688442270797655"><ele>1271.0</ele><time>2026-04-26T09:39:37.001Z</time></trkpt><trkpt lat="44.12940280779988" lon="10.688559761200358"><ele>1271.0</ele><time>2026-04-26T09:39:38.001Z</time></trkpt><trkpt lat="44.12925175348344" lon="10.688673424393654"><ele>1271.0</ele><time>2026-04-26T09:39:39.001Z</time></trkpt><trkpt lat="44.12909656532084" lon="10.688796868546062"><ele>1273.3333333333335</ele><time>2026-04-26T09:39:40.001Z</time></trkpt><trkpt lat="44.12894605205708" lon="10.688918077030397"><ele>1275.6666666666667</ele><time>2026-04-26T09:39:41.001Z</time></trkpt><trkpt lat="44.128809258362" lon="10.689045551512372"><ele>1278.0</ele><time>2026-04-26T09:39:42.001Z</time></trkpt><trkpt lat="44.12869086748615" lon="10.689189648284282"><ele>1278.0</ele><time>2026-04-26T09:39:43.001Z</time></trkpt><trkpt lat="44.128590282405135" lon="10.68934356076292"><ele>1278.0</ele><time>2026-04-26T09:39:44.001Z</time></trkpt><trkpt lat="44.12852167746517" lon="10.689512510882961"><ele>1278.0</ele><time>2026-04-26T09:39:45.001Z</time></trkpt><trkpt lat="44.12848072166566" lon="10.689705091898366"><ele>1278.0</ele><time>2026-04-26T09:39:46.001Z</time></trkpt><trkpt lat="44.12846600767335" lon="10.68991448559638"><ele>1277.25</ele><time>2026-04-26T09:39:47.001Z</time></trkpt><trkpt lat="44.12846799914597" lon="10.690114398662807"><ele>1276.5</ele><time>2026-04-26T09:39:48.001Z</time></trkpt><trkpt lat="44.12848673120117" lon="10.69030886268767"><ele>1275.75</ele><time>2026-04-26T09:39:49.001Z</time></trkpt><trkpt lat="44.12852209950694" lon="10.690495390651055"><ele>1275.0</ele><time>2026-04-26T09:39:50.001Z</time></trkpt><trkpt lat="44.1285453350606" lon="10.690681335128838"><ele>1274.25</ele><time>2026-04-26T09:39:51.001Z</time></trkpt><trkpt lat="44.128555669530996" lon="10.690849932810268"><ele>1273.5</ele><time>2026-04-26T09:39:52.001Z</time></trkpt><trkpt lat="44.128540611522666" lon="10.69100933919043"><ele>1272.75</ele><time>2026-04-26T09:39:53.001Z</time></trkpt><trkpt lat="44.128470707861005" lon="10.691153737367866"><ele>1272.0</ele><time>2026-04-26T09:39:54.001Z</time></trkpt><trkpt lat="44.128370859496854" lon="10.69127416142086"><ele>1270.0</ele><time>2026-04-26T09:39:55.001Z</time></trkpt><trkpt lat="44.128283412404265" lon="10.691366110628291"><ele>1268.0</ele><time>2026-04-26T09:39:56.001Z</time></trkpt><trkpt lat="44.128219946839515" lon="10.691503807094481"><ele>1266.0</ele><time>2026-04-26T09:39:57.001Z</time></trkpt><trkpt lat="44.12818384702365" lon="10.691689372200162"><ele>1264.0</ele><time>2026-04-26T09:39:58.001Z</time></trkpt><trkpt lat="44.12816814669771" lon="10.691887367136584"><ele>1270.0</ele><time>2026-04-26T09:39:59.001Z</time></trkpt><trkpt lat="44.12818165874212" lon="10.692071606138642"><ele>1276.0</ele><time>2026-04-26T09:40:00.001Z</time></trkpt><trkpt lat="44.12819088922118" lon="10.692237063357881"><ele>1282.0</ele><time>2026-04-26T09:40:01.001Z</time></trkpt><trkpt lat="44.12816634687351" lon="10.692385952873426"><ele>1288.0</ele><time>2026-04-26T09:40:02.001Z</time></trkpt><trkpt lat="44.12809650795282" lon="10.692516366768217"><ele>1288.0</ele><time>2026-04-26T09:40:03.001Z</time></trkpt><trkpt lat="44.128015831237136" lon="10.6926331144043"><ele>1288.0</ele><time>2026-04-26T09:40:04.001Z</time></trkpt><trkpt lat="44.12796511150326" lon="10.692795120673619"><ele>1288.0</ele><time>2026-04-26T09:40:04.999Z</time></trkpt><trkpt lat="44.12796700563945" lon="10.692980561989216"><ele>1288.0</ele><time>2026-04-26T09:40:05.999Z</time></trkpt><trkpt lat="44.12800511772864" lon="10.693175376857676"><ele>1286.25</ele><time>2026-04-26T09:40:06.999Z</time></trkpt><trkpt lat="44.128053538494186" lon="10.69337742358271"><ele>1284.5</ele><time>2026-04-26T09:40:07.999Z</time></trkpt><trkpt lat="44.1280633350132" lon="10.693571614155054"><ele>1282.75</ele><time>2026-04-26T09:40:08.999Z</time></trkpt><trkpt lat="44.12806780217174" lon="10.69375656779037"><ele>1281.0</ele><time>2026-04-26T09:40:09.999Z</time></trkpt><trkpt lat="44.12803632723475" lon="10.693935176218353"><ele>1280.6666666666667</ele><time>2026-04-26T09:40:10.999Z</time></trkpt><trkpt lat="44.12797325404282" lon="10.694109013906157"><ele>1280.3333333333335</ele><time>2026-04-26T09:40:11.999Z</time></trkpt><trkpt lat="44.12791202030994" lon="10.694333821652389"><ele>1280.0</ele><time>2026-04-26T09:40:12.999Z</time></trkpt><trkpt lat="44.12783040135273" lon="10.694547655746002"><ele>1277.0</ele><time>2026-04-26T09:40:13.999Z</time></trkpt><trkpt lat="44.12775856289531" lon="10.69476149331814"><ele>1274.0</ele><time>2026-04-26T09:40:14.999Z</time></trkpt><trkpt lat="44.12768428928714" lon="10.694960613982836"><ele>1271.0</ele><time>2026-04-26T09:40:15.999Z</time></trkpt><trkpt lat="44.12759470380371" lon="10.6951459140677"><ele>1267.25</ele><time>2026-04-26T09:40:16.999Z</time></trkpt><trkpt lat="44.12747448233342" lon="10.695302229821497"><ele>1263.5</ele><time>2026-04-26T09:40:17.999Z</time></trkpt><trkpt lat="44.1273835382927" lon="10.695467684566358"><ele>1259.75</ele><time>2026-04-26T09:40:18.999Z</time></trkpt><trkpt lat="44.12728870346098" lon="10.695595180209748"><ele>1256.0</ele><time>2026-04-26T09:40:19.999Z</time></trkpt><trkpt lat="44.127163529503854" lon="10.695673725357594"><ele>1256.0</ele><time>2026-04-26T09:40:20.999Z</time></trkpt><trkpt lat="44.127028295798944" lon="10.695722684977929"><ele>1256.0</ele><time>2026-04-26T09:40:21.999Z</time></trkpt><trkpt lat="44.12687523009511" lon="10.695777508402832"><ele>1256.0</ele><time>2026-04-26T09:40:22.999Z</time></trkpt><trkpt lat="44.12670469221514" lon="10.69580808516085"><ele>1252.6666666666667</ele><time>2026-04-26T09:40:24Z</time></trkpt><trkpt lat="44.12654814220253" lon="10.695858771494562"><ele>1249.3333333333333</ele><time>2026-04-26T09:40:25Z</time></trkpt><trkpt lat="44.12639661453094" lon="10.695889753962359"><ele>1246.0</ele><time>2026-04-26T09:40:26Z</time></trkpt><trkpt lat="44.12625245097911" lon="10.695879384048942"><ele>1246.0</ele><time>2026-04-26T09:40:27Z</time></trkpt><trkpt lat="44.12611350705021" lon="10.69586135969015"><ele>1246.0</ele><time>2026-04-26T09:40:28Z</time></trkpt><trkpt lat="44.126002654567884" lon="10.695884405210931"><ele>1246.0</ele><time>2026-04-26T09:40:29Z</time></trkpt><trkpt lat="44.12590082476644" lon="10.695952865272313"><ele>1246.0</ele><time>2026-04-26T09:40:30Z</time></trkpt><trkpt lat="44.12581655919845" lon="10.696076129839524"><ele>1244.5</ele><time>2026-04-26T09:40:31Z</time></trkpt><trkpt lat="44.12573856161427" lon="10.696241382236037"><ele>1243.0</ele><time>2026-04-26T09:40:32Z</time></trkpt><trkpt lat="44.125654035668134" lon="10.696391981011962"><ele>1241.5</ele><time>2026-04-26T09:40:33Z</time></trkpt><trkpt lat="44.12557363617898" lon="10.696528798024438"><ele>1240.0</ele><time>2026-04-26T09:40:34Z</time></trkpt><trkpt lat="44.12551772519849" lon="10.696685262269135"><ele>1244.6666666666665</ele><time>2026-04-26T09:40:35Z</time></trkpt><trkpt lat="44.12549337839004" lon="10.696888820149885"><ele>1249.3333333333333</ele><time>2026-04-26T09:40:36Z</time></trkpt><trkpt lat="44.12548406865379" lon="10.697124975072805"><ele>1254.0</ele><time>2026-04-26T09:40:37Z</time></trkpt><trkpt lat="44.12547527781568" lon="10.697363868460847"><ele>1254.0</ele><time>2026-04-26T09:40:38Z</time></trkpt><trkpt lat="44.12546523427975" lon="10.697600216604716"><ele>1254.0</ele><time>2026-04-26T09:40:39Z</time></trkpt><trkpt lat="44.125455400754966" lon="10.697829750316906"><ele>1254.0</ele><time>2026-04-26T09:40:40Z</time></trkpt><trkpt lat="44.125444888720544" lon="10.698048428879765"><ele>1251.75</ele><time>2026-04-26T09:40:41Z</time></trkpt><trkpt lat="44.12542236875461" lon="10.698246444193687"><ele>1249.5</ele><time>2026-04-26T09:40:42Z</time></trkpt><trkpt lat="44.125355792347456" lon="10.698425631667972"><ele>1247.25</ele><time>2026-04-26T09:40:43Z</time></trkpt><trkpt lat="44.125269058372595" lon="10.698605318891126"><ele>1245.0</ele><time>2026-04-26T09:40:44Z</time></trkpt><trkpt lat="44.12517567350797" lon="10.698810402430148"><ele>1242.3333333333333</ele><time>2026-04-26T09:40:45Z</time></trkpt><trkpt lat="44.12507656544244" lon="10.69902583053846"><ele>1239.6666666666665</ele><time>2026-04-26T09:40:46Z</time></trkpt><trkpt lat="44.12498422873725" lon="10.699228029481464"><ele>1237.0</ele><time>2026-04-26T09:40:47Z</time></trkpt><trkpt lat="44.124905344497435" lon="10.699426606982536"><ele>1244.3333333333333</ele><time>2026-04-26T09:40:48Z</time></trkpt><trkpt lat="44.12485876500353" lon="10.699642355685127"><ele>1251.6666666666667</ele><time>2026-04-26T09:40:49Z</time></trkpt><trkpt lat="44.12482837250544" lon="10.699847283101935"><ele>1259.0</ele><time>2026-04-26T09:40:50Z</time></trkpt><trkpt lat="44.1248376195111" lon="10.700058405471685"><ele>1257.0</ele><time>2026-04-26T09:40:51Z</time></trkpt><trkpt lat="44.12485640964611" lon="10.700256754576513"><ele>1255.0</ele><time>2026-04-26T09:40:52Z</time></trkpt><trkpt lat="44.124887706699944" lon="10.700446129069405"><ele>1253.0</ele><time>2026-04-26T09:40:53Z</time></trkpt><trkpt lat="44.12498488601356" lon="10.700608895740334"><ele>1251.0</ele><time>2026-04-26T09:40:54Z</time></trkpt><trkpt lat="44.12506523875041" lon="10.700738199616694"><ele>1244.0</ele><time>2026-04-26T09:40:55Z</time></trkpt><trkpt lat="44.125122850852584" lon="10.700878044549695"><ele>1237.0</ele><time>2026-04-26T09:40:56Z</time></trkpt><trkpt lat="44.125140294186345" lon="10.70102745471851"><ele>1230.0</ele><time>2026-04-26T09:40:57Z</time></trkpt><trkpt lat="44.125105404132405" lon="10.701171454817612"><ele>1223.0</ele><time>2026-04-26T09:40:58Z</time></trkpt><trkpt lat="44.12504816131935" lon="10.701376546399139"><ele>1226.0</ele><time>2026-04-26T09:40:59Z</time></trkpt><trkpt lat="44.124989610153705" lon="10.701584758161447"><ele>1229.0</ele><time>2026-04-26T09:41:00Z</time></trkpt><trkpt lat="44.124934732754724" lon="10.701802751779324"><ele>1232.0</ele><time>2026-04-26T09:41:01Z</time></trkpt><trkpt lat="44.124894547750394" lon="10.702023581810655"><ele>1224.3333333333335</ele><time>2026-04-26T09:41:02Z</time></trkpt><trkpt lat="44.12489979352303" lon="10.70224808087573"><ele>1216.6666666666667</ele><time>2026-04-26T09:41:03Z</time></trkpt><trkpt lat="44.12490897171788" lon="10.702455336023743"><ele>1209.0</ele><time>2026-04-26T09:41:04Z</time></trkpt><trkpt lat="44.12490070969774" lon="10.70265983492284"><ele>1211.0</ele><time>2026-04-26T09:41:05Z</time></trkpt><trkpt lat="44.124920749718086" lon="10.702865959772154"><ele>1213.0</ele><time>2026-04-26T09:41:06Z</time></trkpt><trkpt lat="44.124994850122896" lon="10.703057167259608"><ele>1215.0</ele><time>2026-04-26T09:41:07Z</time></trkpt><trkpt lat="44.12507142402201" lon="10.703249519624956"><ele>1215.0</ele><time>2026-04-26T09:41:08Z</time></trkpt><trkpt lat="44.12514577706" lon="10.703446935493854"><ele>1215.0</ele><time>2026-04-26T09:41:09Z</time></trkpt><trkpt lat="44.125224559306666" lon="10.703647888600974"><ele>1215.0</ele><time>2026-04-26T09:41:10Z</time></trkpt><trkpt lat="44.12531739560618" lon="10.70382852872293"><ele>1215.0</ele><time>2026-04-26T09:41:11Z</time></trkpt><trkpt lat="44.12541572514105" lon="10.703984052791737"><ele>1215.0</ele><time>2026-04-26T09:41:12Z</time></trkpt><trkpt lat="44.125524796595606" lon="10.704119313190784"><ele>1215.0</ele><time>2026-04-26T09:41:13Z</time></trkpt><trkpt lat="44.12564361847994" lon="10.70420345269793"><ele>1215.0</ele><time>2026-04-26T09:41:14Z</time></trkpt><trkpt lat="44.12576813800587" lon="10.704255439039912"><ele>1215.0</ele><time>2026-04-26T09:41:15Z</time></trkpt><trkpt lat="44.12591387976729" lon="10.704275902731366"><ele>1215.0</ele><time>2026-04-26T09:41:16Z</time></trkpt><trkpt lat="44.12603849175913" lon="10.704273421475838"><ele>1215.0</ele><time>2026-04-26T09:41:17Z</time></trkpt><trkpt lat="44.12614925754984" lon="10.704264012878006"><ele>1215.0</ele><time>2026-04-26T09:41:18Z</time></trkpt><trkpt lat="44.126258634555214" lon="10.704287196085989"><ele>1215.0</ele><time>2026-04-26T09:41:19Z</time></trkpt><trkpt lat="44.12634142993543" lon="10.704329132318666"><ele>1215.0</ele><time>2026-04-26T09:41:20Z</time></trkpt><trkpt lat="44.126409595753636" lon="10.704443542036019"><ele>1215.0</ele><time>2026-04-26T09:41:21Z</time></trkpt><trkpt lat="44.12639680625409" lon="10.704615548956918"><ele>1215.0</ele><time>2026-04-26T09:41:22Z</time></trkpt><trkpt lat="44.12639014665506" lon="10.704791492396836"><ele>1215.0</ele><time>2026-04-26T09:41:23Z</time></trkpt><trkpt lat="44.12638476148809" lon="10.705019333334103"><ele>1213.6666666666667</ele><time>2026-04-26T09:41:24Z</time></trkpt><trkpt lat="44.126388712768225" lon="10.70525992814525"><ele>1212.3333333333335</ele><time>2026-04-26T09:41:25.001Z</time></trkpt><trkpt lat="44.126369234646965" lon="10.70551490923428"><ele>1211.0</ele><time>2026-04-26T09:41:26.001Z</time></trkpt><trkpt lat="44.12634848358028" lon="10.70575269746038"><ele>1211.0</ele><time>2026-04-26T09:41:27.001Z</time></trkpt><trkpt lat="44.12632539511685" lon="10.705974186027026"><ele>1211.0</ele><time>2026-04-26T09:41:28.001Z</time></trkpt><trkpt lat="44.12629376485689" lon="10.70617324464422"><ele>1211.0</ele><time>2026-04-26T09:41:29.001Z</time></trkpt><trkpt lat="44.12624483170793" lon="10.706328391208308"><ele>1211.0</ele><time>2026-04-26T09:41:30.001Z</time></trkpt><trkpt lat="44.12616552692181" lon="10.706481570943923"><ele>1203.0</ele><time>2026-04-26T09:41:31.001Z</time></trkpt><trkpt lat="44.12605715833818" lon="10.706624515313592"><ele>1195.0</ele><time>2026-04-26T09:41:32.001Z</time></trkpt><trkpt lat="44.12591565667764" lon="10.706729782484029"><ele>1187.0</ele><time>2026-04-26T09:41:33.001Z</time></trkpt><trkpt lat="44.12576931447112" lon="10.706831513293306"><ele>1192.3333333333335</ele><time>2026-04-26T09:41:34.001Z</time></trkpt><trkpt lat="44.12562897554494" lon="10.706924142318288"><ele>1197.6666666666667</ele><time>2026-04-26T09:41:35.001Z</time></trkpt><trkpt lat="44.12552245602059" lon="10.707063714801746"><ele>1203.0</ele><time>2026-04-26T09:41:36.001Z</time></trkpt><trkpt lat="44.12542649300824" lon="10.707236552573791"><ele>1203.0</ele><time>2026-04-26T09:41:37.001Z</time></trkpt><trkpt lat="44.12533700112969" lon="10.70742049130958"><ele>1203.0</ele><time>2026-04-26T09:41:38.001Z</time></trkpt><trkpt lat="44.12524373585043" lon="10.707585686097426"><ele>1203.0</ele><time>2026-04-26T09:41:39.001Z</time></trkpt><trkpt lat="44.12515903989899" lon="10.707745023582225"><ele>1198.75</ele><time>2026-04-26T09:41:40.001Z</time></trkpt><trkpt lat="44.125097770972545" lon="10.707913963613345"><ele>1194.5</ele><time>2026-04-26T09:41:41.001Z</time></trkpt><trkpt lat="44.12506868108532" lon="10.708093695021955"><ele>1190.25</ele><time>2026-04-26T09:41:42.001Z</time></trkpt><trkpt lat="44.12507439986389" lon="10.708270214652249"><ele>1186.0</ele><time>2026-04-26T09:41:43.001Z</time></trkpt><trkpt lat="44.12512013463544" lon="10.708449120177372"><ele>1186.6666666666665</ele><time>2026-04-26T09:41:44.001Z</time></trkpt><trkpt lat="44.1251933400377" lon="10.70864358878951"><ele>1187.3333333333333</ele><time>2026-04-26T09:41:45.001Z</time></trkpt><trkpt lat="44.125273534023464" lon="10.70884987640102"><ele>1188.0</ele><time>2026-04-26T09:41:46.001Z</time></trkpt><trkpt lat="44.12535537137023" lon="10.70903145323233"><ele>1188.0</ele><time>2026-04-26T09:41:47.001Z</time></trkpt><trkpt lat="44.12544609290296" lon="10.709181795930073"><ele>1188.0</ele><time>2026-04-26T09:41:48.001Z</time></trkpt><trkpt lat="44.125573045501966" lon="10.709277378769933"><ele>1188.0</ele><time>2026-04-26T09:41:49.001Z</time></trkpt><trkpt lat="44.12570522932778" lon="10.709342712709077"><ele>1188.0</ele><time>2026-04-26T09:41:50.001Z</time></trkpt><trkpt lat="44.12581830301135" lon="10.70942964572113"><ele>1181.0</ele><time>2026-04-26T09:41:51.001Z</time></trkpt><trkpt lat="44.12588939426513" lon="10.709558635526985"><ele>1174.0</ele><time>2026-04-26T09:41:52.001Z</time></trkpt><trkpt lat="44.12591927919622" lon="10.709710842004029"><ele>1167.0</ele><time>2026-04-26T09:41:53.001Z</time></trkpt><trkpt lat="44.12589804261509" lon="10.709892813876587"><ele>1160.0</ele><time>2026-04-26T09:41:54.001Z</time></trkpt><trkpt lat="44.12585944178573" lon="10.710053056983766"><ele>1160.0</ele><time>2026-04-26T09:41:55.001Z</time></trkpt><trkpt lat="44.12575112879068" lon="10.710159283353722"><ele>1160.0</ele><time>2026-04-26T09:41:56.001Z</time></trkpt><trkpt lat="44.12564794595401" lon="10.710296545699377"><ele>1160.0</ele><time>2026-04-26T09:41:57.001Z</time></trkpt><trkpt lat="44.1255561929055" lon="10.710459668884253"><ele>1160.0</ele><time>2026-04-26T09:41:58.001Z</time></trkpt><trkpt lat="44.12548336595622" lon="10.710629083246287"><ele>1161.25</ele><time>2026-04-26T09:41:59.001Z</time></trkpt><trkpt lat="44.125377422530384" lon="10.710725353053212"><ele>1162.5</ele><time>2026-04-26T09:42:00.001Z</time></trkpt><trkpt lat="44.1252554904275" lon="10.710783744254668"><ele>1163.75</ele><time>2026-04-26T09:42:01.001Z</time></trkpt><trkpt lat="44.1251612112998" lon="10.71088282711558"><ele>1165.0</ele><time>2026-04-26T09:42:02.001Z</time></trkpt><trkpt lat="44.1250910307952" lon="10.71103909570503"><ele>1163.75</ele><time>2026-04-26T09:42:03.001Z</time></trkpt><trkpt lat="44.12502199348315" lon="10.711219537088839"><ele>1162.5</ele><time>2026-04-26T09:42:04.001Z</time></trkpt><trkpt lat="44.12494061545732" lon="10.71135455801506"><ele>1161.25</ele><time>2026-04-26T09:42:05.001Z</time></trkpt><trkpt lat="44.1248487407157" lon="10.711435414284136"><ele>1160.0</ele><time>2026-04-26T09:42:06.001Z</time></trkpt><trkpt lat="44.12473428263229" lon="10.71147571809364"><ele>1160.0</ele><time>2026-04-26T09:42:07.001Z</time></trkpt><trkpt lat="44.12461328641129" lon="10.711420496683637"><ele>1160.0</ele><time>2026-04-26T09:42:08.001Z</time></trkpt><trkpt lat="44.12450718607937" lon="10.711381507699329"><ele>1160.0</ele><time>2026-04-26T09:42:09.001Z</time></trkpt><trkpt lat="44.12441805708078" lon="10.711368663756442"><ele>1160.0</ele><time>2026-04-26T09:42:10.001Z</time></trkpt><trkpt lat="44.12438626051432" lon="10.711456662307047"><ele>1160.0</ele><time>2026-04-26T09:42:11Z</time></trkpt><trkpt lat="44.12435941398696" lon="10.711587324078039"><ele>1160.0</ele><time>2026-04-26T09:42:12Z</time></trkpt><trkpt lat="44.12436267996489" lon="10.711724888876878"><ele>1160.0</ele><time>2026-04-26T09:42:13Z</time></trkpt><trkpt lat="44.124397712618915" lon="10.71187102755093"><ele>1160.0</ele><time>2026-04-26T09:42:14Z</time></trkpt><trkpt lat="44.124417061200376" lon="10.712011218613405"><ele>1160.0</ele><time>2026-04-26T09:42:15Z</time></trkpt><trkpt lat="44.124363953674504" lon="10.712131730463211"><ele>1160.0</ele><time>2026-04-26T09:42:16Z</time></trkpt><trkpt lat="44.124276322127045" lon="10.712305305541827"><ele>1155.25</ele><time>2026-04-26T09:42:17Z</time></trkpt><trkpt lat="44.12421673407442" lon="10.712510254494267"><ele>1150.5</ele><time>2026-04-26T09:42:18Z</time></trkpt><trkpt lat="44.124197967240754" lon="10.712704387184267"><ele>1145.75</ele><time>2026-04-26T09:42:19Z</time></trkpt><trkpt lat="44.12417706304793" lon="10.712877462174479"><ele>1141.0</ele><time>2026-04-26T09:42:20Z</time></trkpt><trkpt lat="44.12412559538802" lon="10.713012273144875"><ele>1143.5</ele><time>2026-04-26T09:42:21Z</time></trkpt><trkpt lat="44.12404910322995" lon="10.713131192143242"><ele>1146.0</ele><time>2026-04-26T09:42:22Z</time></trkpt><trkpt lat="44.12394129382129" lon="10.71319188399098"><ele>1148.5</ele><time>2026-04-26T09:42:23Z</time></trkpt><trkpt lat="44.12384498101281" lon="10.713294391730669"><ele>1151.0</ele><time>2026-04-26T09:42:24Z</time></trkpt><trkpt lat="44.123764460810904" lon="10.713458514556221"><ele>1147.25</ele><time>2026-04-26T09:42:25Z</time></trkpt><trkpt lat="44.123697194239114" lon="10.713630610245062"><ele>1143.5</ele><time>2026-04-26T09:42:26Z</time></trkpt><trkpt lat="44.12366984685155" lon="10.713808433979544"><ele>1139.75</ele><time>2026-04-26T09:42:27Z</time></trkpt><trkpt lat="44.12367607168389" lon="10.71398956468785"><ele>1136.0</ele><time>2026-04-26T09:42:28Z</time></trkpt><trkpt lat="44.12372362551425" lon="10.714158253361093"><ele>1136.0</ele><time>2026-04-26T09:42:29Z</time></trkpt><trkpt lat="44.123763231471855" lon="10.714320212726005"><ele>1136.0</ele><time>2026-04-26T09:42:30Z</time></trkpt><trkpt lat="44.12378623535854" lon="10.714443891517071"><ele>1136.0</ele><time>2026-04-26T09:42:31Z</time></trkpt><trkpt lat="44.12377317121622" lon="10.714535555463435"><ele>1136.0</ele><time>2026-04-26T09:42:32Z</time></trkpt><trkpt lat="44.12371116679875" lon="10.714654436041991"><ele>1136.0</ele><time>2026-04-26T09:42:33Z</time></trkpt><trkpt lat="44.12359867857986" lon="10.714723108969551"><ele>1131.0</ele><time>2026-04-26T09:42:34Z</time></trkpt><trkpt lat="44.123480315814525" lon="10.714821325759251"><ele>1126.0</ele><time>2026-04-26T09:42:35Z</time></trkpt><trkpt lat="44.12336573657328" lon="10.714908796023268"><ele>1121.0</ele><time>2026-04-26T09:42:36Z</time></trkpt><trkpt lat="44.123301756382226" lon="10.715033666674081"><ele>1116.0</ele><time>2026-04-26T09:42:37Z</time></trkpt><trkpt lat="44.123273672105796" lon="10.715213405524295"><ele>1118.25</ele><time>2026-04-26T09:42:38Z</time></trkpt><trkpt lat="44.123228349845505" lon="10.715403514310575"><ele>1120.5</ele><time>2026-04-26T09:42:39Z</time></trkpt><trkpt lat="44.123171809021954" lon="10.71558227116755"><ele>1122.75</ele><time>2026-04-26T09:42:40Z</time></trkpt><trkpt lat="44.12308533828984" lon="10.715760500866045"><ele>1125.0</ele><time>2026-04-26T09:42:41Z</time></trkpt><trkpt lat="44.1229893895385" lon="10.715931763791273"><ele>1121.4</ele><time>2026-04-26T09:42:42Z</time></trkpt><trkpt lat="44.122909283315884" lon="10.716096703789553"><ele>1117.8</ele><time>2026-04-26T09:42:43Z</time></trkpt><trkpt lat="44.122825658161084" lon="10.716220688728114"><ele>1114.2</ele><time>2026-04-26T09:42:44Z</time></trkpt><trkpt lat="44.122759592188785" lon="10.71632566269425"><ele>1110.6</ele><time>2026-04-26T09:42:45Z</time></trkpt><trkpt lat="44.122706227105425" lon="10.716416037820661"><ele>1107.0</ele><time>2026-04-26T09:42:46Z</time></trkpt><trkpt lat="44.1226929972067" lon="10.716520010571758"><ele>1107.0</ele><time>2026-04-26T09:42:47Z</time></trkpt><trkpt lat="44.122707385093406" lon="10.716639746093009"><ele>1107.0</ele><time>2026-04-26T09:42:48Z</time></trkpt><trkpt lat="44.122807986546846" lon="10.716711926442779"><ele>1107.0</ele><time>2026-04-26T09:42:49Z</time></trkpt><trkpt lat="44.12291822706344" lon="10.716722497539987"><ele>1107.0</ele><time>2026-04-26T09:42:50Z</time></trkpt><trkpt lat="44.123022948449055" lon="10.716660955374097"><ele>1107.0</ele><time>2026-04-26T09:42:51Z</time></trkpt><trkpt lat="44.123121129026465" lon="10.716547988327557"><ele>1107.0</ele><time>2026-04-26T09:42:52Z</time></trkpt><trkpt lat="44.123206517723105" lon="10.71638218776756"><ele>1107.0</ele><time>2026-04-26T09:42:53Z</time></trkpt><trkpt lat="44.12329791267524" lon="10.716192538480223"><ele>1107.0</ele><time>2026-04-26T09:42:54Z</time></trkpt><trkpt lat="44.123406746985864" lon="10.71598633140981"><ele>1102.75</ele><time>2026-04-26T09:42:55Z</time></trkpt><trkpt lat="44.12351261996609" lon="10.715808940294712"><ele>1098.5</ele><time>2026-04-26T09:42:56Z</time></trkpt><trkpt lat="44.123591798718564" lon="10.715666673562977"><ele>1094.25</ele><time>2026-04-26T09:42:57Z</time></trkpt><trkpt lat="44.12365570858919" lon="10.71555441332106"><ele>1090.0</ele><time>2026-04-26T09:42:58Z</time></trkpt><trkpt lat="44.123713962142396" lon="10.715458377012915"><ele>1090.0</ele><time>2026-04-26T09:42:59Z</time></trkpt><trkpt lat="44.12377952562484" lon="10.715390696058574"><ele>1090.0</ele><time>2026-04-26T09:43:00Z</time></trkpt><trkpt lat="44.12386238201714" lon="10.715402452594022"><ele>1090.0</ele><time>2026-04-26T09:43:01Z</time></trkpt><trkpt lat="44.123929026148964" lon="10.715434823794356"><ele>1090.0</ele><time>2026-04-26T09:43:02Z</time></trkpt><trkpt lat="44.12397710110749" lon="10.715538374992702"><ele>1090.0</ele><time>2026-04-26T09:43:03Z</time></trkpt><trkpt lat="44.12396199962347" lon="10.715673124858558"><ele>1090.0</ele><time>2026-04-26T09:43:04Z</time></trkpt><trkpt lat="44.12389888386827" lon="10.715797535572678"><ele>1090.0</ele><time>2026-04-26T09:43:05Z</time></trkpt><trkpt lat="44.12378354296825" lon="10.715870781008778"><ele>1090.0</ele><time>2026-04-26T09:43:06Z</time></trkpt><trkpt lat="44.12367492956666" lon="10.715999812810836"><ele>1090.0</ele><time>2026-04-26T09:43:07Z</time></trkpt><trkpt lat="44.123578849337754" lon="10.716168483294473"><ele>1090.0</ele><time>2026-04-26T09:43:08Z</time></trkpt><trkpt lat="44.12349281554363" lon="10.716391358315414"><ele>1089.6666666666665</ele><time>2026-04-26T09:43:09.001Z</time></trkpt><trkpt lat="44.123407351689636" lon="10.716617492395008"><ele>1089.3333333333333</ele><time>2026-04-26T09:43:10.001Z</time></trkpt><trkpt lat="44.12328144795206" lon="10.71681002506479"><ele>1089.0</ele><time>2026-04-26T09:43:11.001Z</time></trkpt><trkpt lat="44.12316343724658" lon="10.71702833827963"><ele>1089.0</ele><time>2026-04-26T09:43:12.001Z</time></trkpt><trkpt lat="44.1230299084297" lon="10.717233203997951"><ele>1089.0</ele><time>2026-04-26T09:43:13.001Z</time></trkpt><trkpt lat="44.12290854718352" lon="10.717441610742881"><ele>1089.0</ele><time>2026-04-26T09:43:14.001Z</time></trkpt><trkpt lat="44.12279824522755" lon="10.717645693408512"><ele>1080.0</ele><time>2026-04-26T09:43:15.001Z</time></trkpt><trkpt lat="44.12267413307719" lon="10.71783584480608"><ele>1071.0</ele><time>2026-04-26T09:43:16.001Z</time></trkpt><trkpt lat="44.12256537847559" lon="10.718027486990371"><ele>1062.0</ele><time>2026-04-26T09:43:17.001Z</time></trkpt><trkpt lat="44.12246954803116" lon="10.718230906118976"><ele>1067.3333333333333</ele><time>2026-04-26T09:43:18.001Z</time></trkpt><trkpt lat="44.122358259262406" lon="10.718426485502263"><ele>1072.6666666666665</ele><time>2026-04-26T09:43:19.001Z</time></trkpt><trkpt lat="44.122252692163414" lon="10.718615889842031"><ele>1078.0</ele><time>2026-04-26T09:43:20.001Z</time></trkpt><trkpt lat="44.122146023795786" lon="10.718803423213586"><ele>1078.0</ele><time>2026-04-26T09:43:21.001Z</time></trkpt><trkpt lat="44.1220491664452" lon="10.718973900758172"><ele>1078.0</ele><time>2026-04-26T09:43:22.001Z</time></trkpt><trkpt lat="44.121965685289574" lon="10.71911235490597"><ele>1078.0</ele><time>2026-04-26T09:43:23.001Z</time></trkpt><trkpt lat="44.12190845518144" lon="10.719234453696009"><ele>1078.0</ele><time>2026-04-26T09:43:24.001Z</time></trkpt><trkpt lat="44.121890201443016" lon="10.71938252251687"><ele>1078.3333333333333</ele><time>2026-04-26T09:43:25.001Z</time></trkpt><trkpt lat="44.12190718969894" lon="10.719564953411373"><ele>1078.6666666666667</ele><time>2026-04-26T09:43:26.001Z</time></trkpt><trkpt lat="44.12195966176888" lon="10.71978790376386"><ele>1079.0</ele><time>2026-04-26T09:43:27.001Z</time></trkpt><trkpt lat="44.122002179140395" lon="10.720048198724358"><ele>1082.75</ele><time>2026-04-26T09:43:28.001Z</time></trkpt><trkpt lat="44.12203569760107" lon="10.72023713116421"><ele>1086.5</ele><time>2026-04-26T09:43:29.001Z</time></trkpt><trkpt lat="44.12206758772724" lon="10.720425987057627"><ele>1090.25</ele><time>2026-04-26T09:43:30.001Z</time></trkpt><trkpt lat="44.12211577249035" lon="10.720614028375278"><ele>1094.0</ele><time>2026-04-26T09:43:31.001Z</time></trkpt><trkpt lat="44.12215550976562" lon="10.720801717362388"><ele>1094.0</ele><time>2026-04-26T09:43:32.001Z</time></trkpt><trkpt lat="44.12223763824429" lon="10.720963136635238"><ele>1094.0</ele><time>2026-04-26T09:43:33.001Z</time></trkpt><trkpt lat="44.122349244876325" lon="10.721129406296344"><ele>1094.0</ele><time>2026-04-26T09:43:34.001Z</time></trkpt><trkpt lat="44.122443741210425" lon="10.721316487680324"><ele>1080.0</ele><time>2026-04-26T09:43:35.001Z</time></trkpt><trkpt lat="44.12255664635891" lon="10.721487284670442"><ele>1066.0</ele><time>2026-04-26T09:43:36.001Z</time></trkpt><trkpt lat="44.12265313554664" lon="10.721660598364467"><ele>1052.0</ele><time>2026-04-26T09:43:37.001Z</time></trkpt><trkpt lat="44.122751238754425" lon="10.721831283346457"><ele>1054.25</ele><time>2026-04-26T09:43:38.001Z</time></trkpt><trkpt lat="44.12284628643145" lon="10.721992101710011"><ele>1056.5</ele><time>2026-04-26T09:43:39.001Z</time></trkpt><trkpt lat="44.122934055758236" lon="10.72215602143525"><ele>1058.75</ele><time>2026-04-26T09:43:40.001Z</time></trkpt><trkpt lat="44.12302030668527" lon="10.722310089127264"><ele>1061.0</ele><time>2026-04-26T09:43:41.001Z</time></trkpt><trkpt lat="44.123092357081546" lon="10.722450438576958"><ele>1061.0</ele><time>2026-04-26T09:43:42.001Z</time></trkpt><trkpt lat="44.1231527215158" lon="10.72257952025976"><ele>1061.0</ele><time>2026-04-26T09:43:43.001Z</time></trkpt><trkpt lat="44.12315648252552" lon="10.722710250418592"><ele>1061.0</ele><time>2026-04-26T09:43:44.001Z</time></trkpt><trkpt lat="44.12311302790072" lon="10.722837464707077"><ele>1061.0</ele><time>2026-04-26T09:43:45.001Z</time></trkpt><trkpt lat="44.123029942152684" lon="10.722970461954054"><ele>1061.0</ele><time>2026-04-26T09:43:46.001Z</time></trkpt><trkpt lat="44.12290429732064" lon="10.72307238796169"><ele>1056.25</ele><time>2026-04-26T09:43:47.001Z</time></trkpt><trkpt lat="44.12280329369583" lon="10.723195773945726"><ele>1051.5</ele><time>2026-04-26T09:43:48.001Z</time></trkpt><trkpt lat="44.12271147983117" lon="10.723372932389942"><ele>1046.75</ele><time>2026-04-26T09:43:49.001Z</time></trkpt><trkpt lat="44.122641408637314" lon="10.72356777284043"><ele>1042.0</ele><time>2026-04-26T09:43:50.001Z</time></trkpt><trkpt lat="44.122511044068666" lon="10.72375862126898"><ele>1046.0</ele><time>2026-04-26T09:43:51.001Z</time></trkpt><trkpt lat="44.122404725498235" lon="10.723888676025243"><ele>1050.0</ele><time>2026-04-26T09:43:52.001Z</time></trkpt><trkpt lat="44.12233006321737" lon="10.72400001818323"><ele>1054.0</ele><time>2026-04-26T09:43:53.001Z</time></trkpt><trkpt lat="44.12226527990687" lon="10.724109279539348"><ele>1058.0</ele><time>2026-04-26T09:43:54.001Z</time></trkpt><trkpt lat="44.12224893917373" lon="10.724273539041743"><ele>1050.5</ele><time>2026-04-26T09:43:55.001Z</time></trkpt><trkpt lat="44.12226416082241" lon="10.72444751940303"><ele>1043.0</ele><time>2026-04-26T09:43:56.001Z</time></trkpt><trkpt lat="44.12229176493277" lon="10.724602344566247"><ele>1035.5</ele><time>2026-04-26T09:43:57.001Z</time></trkpt><trkpt lat="44.12225649069377" lon="10.724731065231762"><ele>1028.0</ele><time>2026-04-26T09:43:58.001Z</time></trkpt><trkpt lat="44.12214129698726" lon="10.724833234706864"><ele>1028.0</ele><time>2026-04-26T09:43:59.001Z</time></trkpt><trkpt lat="44.122031912750664" lon="10.72497827346738"><ele>1028.0</ele><time>2026-04-26T09:44:00.001Z</time></trkpt><trkpt lat="44.12192717208604" lon="10.725101405032506"><ele>1028.0</ele><time>2026-04-26T09:44:01.001Z</time></trkpt><trkpt lat="44.121831024301756" lon="10.725219580468035"><ele>1028.0</ele><time>2026-04-26T09:44:02.001Z</time></trkpt><trkpt lat="44.12176562170425" lon="10.725352221511146"><ele>1022.5</ele><time>2026-04-26T09:44:03.001Z</time></trkpt><trkpt lat="44.121730362442236" lon="10.725496048115627"><ele>1017.0</ele><time>2026-04-26T09:44:04.001Z</time></trkpt><trkpt lat="44.12173679612067" lon="10.725673929644353"><ele>1011.5</ele><time>2026-04-26T09:44:05.001Z</time></trkpt><trkpt lat="44.121794877660264" lon="10.725859474082501"><ele>1006.0</ele><time>2026-04-26T09:44:06.001Z</time></trkpt><trkpt lat="44.1218590135105" lon="10.726029791505498"><ele>1002.4</ele><time>2026-04-26T09:44:07.001Z</time></trkpt><trkpt lat="44.12188955467006" lon="10.726179242102331"><ele>998.8</ele><time>2026-04-26T09:44:08.001Z</time></trkpt><trkpt lat="44.121894817186686" lon="10.726328305060402"><ele>995.1999999999999</ele><time>2026-04-26T09:44:09.001Z</time></trkpt><trkpt lat="44.12188238956242" lon="10.726473771800663"><ele>991.5999999999999</ele><time>2026-04-26T09:44:10.001Z</time></trkpt><trkpt lat="44.12181141743065" lon="10.72659945944021"><ele>988.0</ele><time>2026-04-26T09:44:11.001Z</time></trkpt><trkpt lat="44.12173630813068" lon="10.726714852015343"><ele>988.0</ele><time>2026-04-26T09:44:12.001Z</time></trkpt><trkpt lat="44.121632865919246" lon="10.72676015662485"><ele>988.0</ele><time>2026-04-26T09:44:13.001Z</time></trkpt><trkpt lat="44.1215244263753" lon="10.726710189635119"><ele>988.0</ele><time>2026-04-26T09:44:14.001Z</time></trkpt><trkpt lat="44.121442307925946" lon="10.726613942164214"><ele>988.0</ele><time>2026-04-26T09:44:15.001Z</time></trkpt><trkpt lat="44.12135530942959" lon="10.726490268144612"><ele>985.25</ele><time>2026-04-26T09:44:16.001Z</time></trkpt><trkpt lat="44.12124515688498" lon="10.726372034600457"><ele>982.5</ele><time>2026-04-26T09:44:17Z</time></trkpt><trkpt lat="44.12112822857924" lon="10.726260213552179"><ele>979.75</ele><time>2026-04-26T09:44:18Z</time></trkpt><trkpt lat="44.12097994423807" lon="10.726201093181045"><ele>977.0</ele><time>2026-04-26T09:44:19Z</time></trkpt><trkpt lat="44.12083908189885" lon="10.726170133839327"><ele>977.75</ele><time>2026-04-26T09:44:20Z</time></trkpt><trkpt lat="44.120703835678526" lon="10.726156370814559"><ele>978.5</ele><time>2026-04-26T09:44:21Z</time></trkpt><trkpt lat="44.120567872288625" lon="10.72621367285001"><ele>979.25</ele><time>2026-04-26T09:44:22Z</time></trkpt><trkpt lat="44.120450263858324" lon="10.726288390217531"><ele>980.0</ele><time>2026-04-26T09:44:23Z</time></trkpt><trkpt lat="44.12033892716686" lon="10.726278689540077"><ele>980.0</ele><time>2026-04-26T09:44:24Z</time></trkpt><trkpt lat="44.12024229248447" lon="10.726197952971928"><ele>980.0</ele><time>2026-04-26T09:44:25Z</time></trkpt><trkpt lat="44.120148446282656" lon="10.72619478648055"><ele>980.0</ele><time>2026-04-26T09:44:26Z</time></trkpt><trkpt lat="44.1200632725074" lon="10.726223806844434"><ele>980.0</ele><time>2026-04-26T09:44:27Z</time></trkpt><trkpt lat="44.11997500112203" lon="10.726343251615216"><ele>980.0</ele><time>2026-04-26T09:44:28Z</time></trkpt><trkpt lat="44.11988051052647" lon="10.726517592654831"><ele>986.3333333333334</ele><time>2026-04-26T09:44:29Z</time></trkpt><trkpt lat="44.119779885330445" lon="10.726681633561732"><ele>992.6666666666667</ele><time>2026-04-26T09:44:30Z</time></trkpt><trkpt lat="44.11968663570594" lon="10.726841235713657"><ele>999.0</ele><time>2026-04-26T09:44:31Z</time></trkpt><trkpt lat="44.119620454667015" lon="10.72702578819867"><ele>999.0</ele><time>2026-04-26T09:44:32Z</time></trkpt><trkpt lat="44.11956931934075" lon="10.727214557676964"><ele>999.0</ele><time>2026-04-26T09:44:33Z</time></trkpt><trkpt lat="44.119525991027565" lon="10.727410305509379"><ele>999.0</ele><time>2026-04-26T09:44:34Z</time></trkpt><trkpt lat="44.119506449414196" lon="10.727612094620717"><ele>999.0</ele><time>2026-04-26T09:44:35Z</time></trkpt><trkpt lat="44.1194996395464" lon="10.727801726167783"><ele>994.8000000000001</ele><time>2026-04-26T09:44:36Z</time></trkpt><trkpt lat="44.11948255122236" lon="10.72797663985385"><ele>990.6000000000001</ele><time>2026-04-26T09:44:37Z</time></trkpt><trkpt lat="44.11945840536301" lon="10.728137507306723"><ele>986.4</ele><time>2026-04-26T09:44:38Z</time></trkpt><trkpt lat="44.11943240246146" lon="10.728270868167872"><ele>982.2</ele><time>2026-04-26T09:44:39Z</time></trkpt><trkpt lat="44.119413173358495" lon="10.728377742568016"><ele>978.0</ele><time>2026-04-26T09:44:40Z</time></trkpt><trkpt lat="44.11943736094009" lon="10.728532225583361"><ele>978.0</ele><time>2026-04-26T09:44:42Z</time></trkpt><trkpt lat="44.119565437695904" lon="10.728498560545951"><ele>978.0</ele><time>2026-04-26T09:44:44Z</time></trkpt><trkpt lat="44.11962484015457" lon="10.7283935751765"><ele>978.0</ele><time>2026-04-26T09:44:45Z</time></trkpt><trkpt lat="44.11967731457047" lon="10.72825110149813"><ele>978.0</ele><time>2026-04-26T09:44:46Z</time></trkpt><trkpt lat="44.119706107801946" lon="10.728104153417446"><ele>978.0</ele><time>2026-04-26T09:44:47Z</time></trkpt><trkpt lat="44.11969341159577" lon="10.727946016077377"><ele>978.0</ele><time>2026-04-26T09:44:48Z</time></trkpt><trkpt lat="44.119664000898375" lon="10.727805997974063"><ele>978.0</ele><time>2026-04-26T09:44:49Z</time></trkpt><trkpt lat="44.119669088720414" lon="10.727667754589453"><ele>978.0</ele><time>2026-04-26T09:44:50Z</time></trkpt><trkpt lat="44.11973575198628" lon="10.7275418196708"><ele>978.0</ele><time>2026-04-26T09:44:51Z</time></trkpt><trkpt lat="44.11977254455035" lon="10.727418684402156"><ele>982.2</ele><time>2026-04-26T09:44:52Z</time></trkpt><trkpt lat="44.119823736244854" lon="10.727310866901426"><ele>986.4</ele><time>2026-04-26T09:44:53Z</time></trkpt><trkpt lat="44.119890767461094" lon="10.72721972826214"><ele>990.6000000000001</ele><time>2026-04-26T09:44:54Z</time></trkpt><trkpt lat="44.11998277567858" lon="10.727183608190227"><ele>994.8000000000001</ele><time>2026-04-26T09:44:55Z</time></trkpt><trkpt lat="44.12006423668513" lon="10.72712695760501"><ele>999.0</ele><time>2026-04-26T09:44:56Z</time></trkpt><trkpt lat="44.12014643975175" lon="10.727093122851217"><ele>990.6</ele><time>2026-04-26T09:44:57Z</time></trkpt><trkpt lat="44.1202163226937" lon="10.727091928910001"><ele>982.2</ele><time>2026-04-26T09:44:58Z</time></trkpt><trkpt lat="44.1202579107993" lon="10.727220496134517"><ele>973.8000000000001</ele><time>2026-04-26T09:45:00Z</time></trkpt><trkpt lat="44.120208276891425" lon="10.727310573063942"><ele>965.4000000000001</ele><time>2026-04-26T09:45:01.001Z</time></trkpt><trkpt lat="44.12013571422066" lon="10.727393698237476"><ele>957.0</ele><time>2026-04-26T09:45:02.001Z</time></trkpt><trkpt lat="44.12006784229297" lon="10.727507543938163"><ele>957.0</ele><time>2026-04-26T09:45:03.001Z</time></trkpt><trkpt lat="44.120024768394615" lon="10.727638784592537"><ele>957.0</ele><time>2026-04-26T09:45:04.001Z</time></trkpt><trkpt lat="44.11998600461288" lon="10.727777523665095"><ele>957.0</ele><time>2026-04-26T09:45:05.001Z</time></trkpt><trkpt lat="44.119965327815095" lon="10.727915330606727"><ele>957.0</ele><time>2026-04-26T09:45:06.001Z</time></trkpt><trkpt lat="44.11995725295038" lon="10.728057678416693"><ele>957.0</ele><time>2026-04-26T09:45:07.001Z</time></trkpt><trkpt lat="44.11995302099912" lon="10.728195348047638"><ele>958.0</ele><time>2026-04-26T09:45:08.001Z</time></trkpt><trkpt lat="44.11993147052424" lon="10.728343225261044"><ele>959.0</ele><time>2026-04-26T09:45:09.001Z</time></trkpt><trkpt lat="44.119890109011564" lon="10.728492033185267"><ele>960.0</ele><time>2026-04-26T09:45:10.001Z</time></trkpt><trkpt lat="44.11983975817043" lon="10.728642145847266"><ele>961.0</ele><time>2026-04-26T09:45:11.001Z</time></trkpt><trkpt lat="44.119779932681304" lon="10.728784743694634"><ele>961.0</ele><time>2026-04-26T09:45:12.001Z</time></trkpt><trkpt lat="44.1197210634017" lon="10.728929151980685"><ele>961.0</ele><time>2026-04-26T09:45:13.001Z</time></trkpt><trkpt lat="44.1196621274608" lon="10.729077054535164"><ele>961.0</ele><time>2026-04-26T09:45:14.001Z</time></trkpt><trkpt lat="44.11960140202029" lon="10.72922290657872"><ele>961.0</ele><time>2026-04-26T09:45:15.001Z</time></trkpt><trkpt lat="44.119545940005665" lon="10.729356416949589"><ele>954.4</ele><time>2026-04-26T09:45:16.001Z</time></trkpt><trkpt lat="44.119479225164206" lon="10.729483279060057"><ele>947.8</ele><time>2026-04-26T09:45:17.001Z</time></trkpt><trkpt lat="44.11939395415102" lon="10.729597834273923"><ele>941.1999999999999</ele><time>2026-04-26T09:45:18.001Z</time></trkpt><trkpt lat="44.11932206033061" lon="10.7296954436134"><ele>934.5999999999999</ele><time>2026-04-26T09:45:19.001Z</time></trkpt><trkpt lat="44.11925587274839" lon="10.729802602092928"><ele>928.0</ele><time>2026-04-26T09:45:20.001Z</time></trkpt><trkpt lat="44.11920245656373" lon="10.729896998094617"><ele>928.0</ele><time>2026-04-26T09:45:21.001Z</time></trkpt><trkpt lat="44.11914144889213" lon="10.729986127646216"><ele>928.0</ele><time>2026-04-26T09:45:22.001Z</time></trkpt><trkpt lat="44.11905886122316" lon="10.730040639517604"><ele>928.0</ele><time>2026-04-26T09:45:23.001Z</time></trkpt><trkpt lat="44.11896091910978" lon="10.730036860095343"><ele>928.0</ele><time>2026-04-26T09:45:24.001Z</time></trkpt><trkpt lat="44.11887668049345" lon="10.729926699445281"><ele>928.0</ele><time>2026-04-26T09:45:25.001Z</time></trkpt><trkpt lat="44.11876792684333" lon="10.729859609640204"><ele>928.25</ele><time>2026-04-26T09:45:26.001Z</time></trkpt><trkpt lat="44.118665292550425" lon="10.729778758359775"><ele>928.5</ele><time>2026-04-26T09:45:27.001Z</time></trkpt><trkpt lat="44.11855429405906" lon="10.729734195551591"><ele>928.75</ele><time>2026-04-26T09:45:28.001Z</time></trkpt><trkpt lat="44.11842798141836" lon="10.729753733076143"><ele>929.0</ele><time>2026-04-26T09:45:29.001Z</time></trkpt><trkpt lat="44.11829779343616" lon="10.729796346134023"><ele>933.6666666666667</ele><time>2026-04-26T09:45:30.001Z</time></trkpt><trkpt lat="44.11815901407845" lon="10.72984030914327"><ele>938.3333333333333</ele><time>2026-04-26T09:45:31.001Z</time></trkpt><trkpt lat="44.118010002529154" lon="10.729922765381588"><ele>943.0</ele><time>2026-04-26T09:45:32.001Z</time></trkpt><trkpt lat="44.11787537448331" lon="10.730010048736196"><ele>943.0</ele><time>2026-04-26T09:45:33.001Z</time></trkpt><trkpt lat="44.11774528840504" lon="10.73012712082779"><ele>943.0</ele><time>2026-04-26T09:45:34.001Z</time></trkpt><trkpt lat="44.11762442465959" lon="10.730264390470083"><ele>943.0</ele><time>2026-04-26T09:45:35.001Z</time></trkpt><trkpt lat="44.117511411727044" lon="10.730410836247286"><ele>939.75</ele><time>2026-04-26T09:45:36.001Z</time></trkpt><trkpt lat="44.11740411988109" lon="10.730524108871515"><ele>936.5</ele><time>2026-04-26T09:45:37.001Z</time></trkpt><trkpt lat="44.11727972594637" lon="10.730564080482042"><ele>933.25</ele><time>2026-04-26T09:45:38.001Z</time></trkpt><trkpt lat="44.117172004465026" lon="10.730647637324283"><ele>930.0</ele><time>2026-04-26T09:45:39.001Z</time></trkpt><trkpt lat="44.11707788655433" lon="10.73074361264161"><ele>930.0</ele><time>2026-04-26T09:45:40.001Z</time></trkpt><trkpt lat="44.11703077860483" lon="10.730893010217113"><ele>930.0</ele><time>2026-04-26T09:45:41.001Z</time></trkpt><trkpt lat="44.11698884505946" lon="10.731004585274608"><ele>930.0</ele><time>2026-04-26T09:45:42.001Z</time></trkpt><trkpt lat="44.116873302916034" lon="10.73110836186269"><ele>930.0</ele><time>2026-04-26T09:45:43.001Z</time></trkpt><trkpt lat="44.11674320834843" lon="10.731175291319058"><ele>925.0</ele><time>2026-04-26T09:45:44.001Z</time></trkpt><trkpt lat="44.11660721544748" lon="10.731243538876086"><ele>920.0</ele><time>2026-04-26T09:45:45.001Z</time></trkpt><trkpt lat="44.11646668245824" lon="10.731295248963285"><ele>915.0</ele><time>2026-04-26T09:45:46.001Z</time></trkpt><trkpt lat="44.1163284090016" lon="10.731305230653565"><ele>910.0</ele><time>2026-04-26T09:45:47.001Z</time></trkpt><trkpt lat="44.11620175989275" lon="10.731304317355495"><ele>910.0</ele><time>2026-04-26T09:45:48.001Z</time></trkpt><trkpt lat="44.11608931850138" lon="10.731345002152255"><ele>910.0</ele><time>2026-04-26T09:45:49.001Z</time></trkpt><trkpt lat="44.115995906012365" lon="10.731438409440885"><ele>910.0</ele><time>2026-04-26T09:45:50.001Z</time></trkpt><trkpt lat="44.11592846043876" lon="10.731566752074185"><ele>910.0</ele><time>2026-04-26T09:45:51.001Z</time></trkpt><trkpt lat="44.11586948727314" lon="10.731695437103404"><ele>910.0</ele><time>2026-04-26T09:45:52.001Z</time></trkpt><trkpt lat="44.11575319946518" lon="10.731751443458526"><ele>910.0</ele><time>2026-04-26T09:45:53.001Z</time></trkpt><trkpt lat="44.11561714221801" lon="10.731797745641545"><ele>910.0</ele><time>2026-04-26T09:45:54.001Z</time></trkpt><trkpt lat="44.11550174537256" lon="10.73186725464226"><ele>910.0</ele><time>2026-04-26T09:45:55.001Z</time></trkpt><trkpt lat="44.11542944070946" lon="10.731948240156024"><ele>906.8</ele><time>2026-04-26T09:45:56.001Z</time></trkpt><trkpt lat="44.11538754341224" lon="10.732098394699117"><ele>903.6</ele><time>2026-04-26T09:45:57.001Z</time></trkpt><trkpt lat="44.1153619313711" lon="10.732251004641183"><ele>900.4000000000001</ele><time>2026-04-26T09:45:58.001Z</time></trkpt><trkpt lat="44.11531280650712" lon="10.732369839806521"><ele>897.2</ele><time>2026-04-26T09:45:59.001Z</time></trkpt><trkpt lat="44.11521644805517" lon="10.732427650006814"><ele>894.0</ele><time>2026-04-26T09:46:00.001Z</time></trkpt><trkpt lat="44.115087079924976" lon="10.732420742680066"><ele>894.0</ele><time>2026-04-26T09:46:01.001Z</time></trkpt><trkpt lat="44.11494587726757" lon="10.732427567622032"><ele>894.0000000000001</ele><time>2026-04-26T09:46:02.001Z</time></trkpt><trkpt lat="44.114823662459244" lon="10.73242521250799"><ele>894.0000000000001</ele><time>2026-04-26T09:46:03.001Z</time></trkpt><trkpt lat="44.11473297699877" lon="10.732433822479237"><ele>894.0</ele><time>2026-04-26T09:46:04.001Z</time></trkpt><trkpt lat="44.11467286634158" lon="10.732490915986322"><ele>894.0</ele><time>2026-04-26T09:46:05.001Z</time></trkpt><trkpt lat="44.11465866095485" lon="10.7326007892969"><ele>894.0</ele><time>2026-04-26T09:46:06.001Z</time></trkpt><trkpt lat="44.114691664405676" lon="10.732708774644337"><ele>894.0000000000001</ele><time>2026-04-26T09:46:07.001Z</time></trkpt><trkpt lat="44.114751811732376" lon="10.732799229883751"><ele>894.0000000000001</ele><time>2026-04-26T09:46:08.001Z</time></trkpt><trkpt lat="44.1148693776476" lon="10.732779545930127"><ele>894.0</ele><time>2026-04-26T09:46:09.001Z</time></trkpt><trkpt lat="44.11498275820581" lon="10.732739378809528"><ele>894.0</ele><time>2026-04-26T09:46:10.001Z</time></trkpt><trkpt lat="44.11511970549186" lon="10.732693677481512"><ele>894.0</ele><time>2026-04-26T09:46:11.001Z</time></trkpt><trkpt lat="44.11526558800218" lon="10.732662132397556"><ele>894.0</ele><time>2026-04-26T09:46:12.001Z</time></trkpt><trkpt lat="44.11540792571431" lon="10.732640954372789"><ele>894.0</ele><time>2026-04-26T09:46:13.001Z</time></trkpt><trkpt lat="44.11553872641447" lon="10.732615570440108"><ele>894.0</ele><time>2026-04-26T09:46:14.001Z</time></trkpt><trkpt lat="44.11565799067347" lon="10.732587876781636"><ele>891.2</ele><time>2026-04-26T09:46:15.001Z</time></trkpt><trkpt lat="44.115768448510174" lon="10.732567146547954"><ele>888.4000000000001</ele><time>2026-04-26T09:46:16.001Z</time></trkpt><trkpt lat="44.115873965560276" lon="10.732539809015758"><ele>885.6</ele><time>2026-04-26T09:46:17.001Z</time></trkpt><trkpt lat="44.1159631756877" lon="10.732483760965273"><ele>882.8</ele><time>2026-04-26T09:46:18.001Z</time></trkpt><trkpt lat="44.11602719772919" lon="10.732386633127902"><ele>880.0</ele><time>2026-04-26T09:46:19.001Z</time></trkpt><trkpt lat="44.116081744851265" lon="10.73226576243285"><ele>879.9999999999999</ele><time>2026-04-26T09:46:20.001Z</time></trkpt><trkpt lat="44.11613968025237" lon="10.732150428552544"><ele>880.0</ele><time>2026-04-26T09:46:21.001Z</time></trkpt><trkpt lat="44.11621126353726" lon="10.73206724981635"><ele>880.0</ele><time>2026-04-26T09:46:22.002Z</time></trkpt><trkpt lat="44.1162727926909" lon="10.73199376588255"><ele>880.0</ele><time>2026-04-26T09:46:23Z</time></trkpt><trkpt lat="44.11632920240223" lon="10.731936415706885"><ele>879.9999999999999</ele><time>2026-04-26T09:46:24Z</time></trkpt><trkpt lat="44.116401576021474" lon="10.73196896116737"><ele>880.0</ele><time>2026-04-26T09:46:25Z</time></trkpt><trkpt lat="44.11646010613609" lon="10.732054024473635"><ele>880.0</ele><time>2026-04-26T09:46:26Z</time></trkpt><trkpt lat="44.116482935239105" lon="10.732171276619974"><ele>880.0</ele><time>2026-04-26T09:46:27Z</time></trkpt><trkpt lat="44.11644932819943" lon="10.732289634261925"><ele>880.0</ele><time>2026-04-26T09:46:28Z</time></trkpt><trkpt lat="44.11635265944465" lon="10.732374673659365"><ele>880.0</ele><time>2026-04-26T09:46:29Z</time></trkpt><trkpt lat="44.11624829083046" lon="10.73247594800292"><ele>880.0</ele><time>2026-04-26T09:46:30Z</time></trkpt><trkpt lat="44.11612389083144" lon="10.73258210549518"><ele>880.0</ele><time>2026-04-26T09:46:31Z</time></trkpt><trkpt lat="44.11600367033617" lon="10.732695898476447"><ele>880.0</ele><time>2026-04-26T09:46:32Z</time></trkpt><trkpt lat="44.11589556825561" lon="10.73279149805191"><ele>880.0</ele><time>2026-04-26T09:46:33Z</time></trkpt><trkpt lat="44.11580002291045" lon="10.732873574405643"><ele>880.0</ele><time>2026-04-26T09:46:34Z</time></trkpt><trkpt lat="44.115708081603195" lon="10.732951597765155"><ele>877.4</ele><time>2026-04-26T09:46:35Z</time></trkpt><trkpt lat="44.11562359654585" lon="10.733025339890903"><ele>874.8</ele><time>2026-04-26T09:46:36Z</time></trkpt><trkpt lat="44.11553593076184" lon="10.733079923476382"><ele>872.2</ele><time>2026-04-26T09:46:37Z</time></trkpt><trkpt lat="44.11544482784755" lon="10.733120341300303"><ele>869.6</ele><time>2026-04-26T09:46:38Z</time></trkpt><trkpt lat="44.11535114098233" lon="10.73315979753314"><ele>867.0</ele><time>2026-04-26T09:46:39Z</time></trkpt><trkpt lat="44.115255678491046" lon="10.733203104672011"><ele>867.0</ele><time>2026-04-26T09:46:40Z</time></trkpt><trkpt lat="44.11516009329323" lon="10.733256257371584"><ele>867.0</ele><time>2026-04-26T09:46:41Z</time></trkpt><trkpt lat="44.11506711399887" lon="10.73330910166922"><ele>867.0</ele><time>2026-04-26T09:46:42Z</time></trkpt><trkpt lat="44.11496882926373" lon="10.733360029234454"><ele>867.0</ele><time>2026-04-26T09:46:43Z</time></trkpt><trkpt lat="44.11487205076798" lon="10.733400579028602"><ele>867.0</ele><time>2026-04-26T09:46:44Z</time></trkpt><trkpt lat="44.114773655907385" lon="10.733411026862669"><ele>868.2</ele><time>2026-04-26T09:46:45Z</time></trkpt><trkpt lat="44.11467652166624" lon="10.733368751329628"><ele>869.4000000000001</ele><time>2026-04-26T09:46:46Z</time></trkpt><trkpt lat="44.114593307263746" lon="10.733286658371075"><ele>870.5999999999999</ele><time>2026-04-26T09:46:47Z</time></trkpt><trkpt lat="44.114511106881196" lon="10.733216022401862"><ele>871.8</ele><time>2026-04-26T09:46:48Z</time></trkpt><trkpt lat="44.114413150958775" lon="10.733219057361124"><ele>873.0</ele><time>2026-04-26T09:46:49Z</time></trkpt><trkpt lat="44.11431483722777" lon="10.733285212445349"><ele>873.0</ele><time>2026-04-26T09:46:50Z</time></trkpt><trkpt lat="44.11421212076417" lon="10.73336814926783"><ele>873.0</ele><time>2026-04-26T09:46:51Z</time></trkpt><trkpt lat="44.114099478232134" lon="10.733451502550313"><ele>873.0</ele><time>2026-04-26T09:46:52Z</time></trkpt><trkpt lat="44.1139862225757" lon="10.733518690452742"><ele>873.0</ele><time>2026-04-26T09:46:53Z</time></trkpt><trkpt lat="44.11387911706963" lon="10.73358905152841"><ele>871.2</ele><time>2026-04-26T09:46:54Z</time></trkpt><trkpt lat="44.113784632118126" lon="10.733675971043574"><ele>869.4</ele><time>2026-04-26T09:46:55Z</time></trkpt><trkpt lat="44.1137143689248" lon="10.733801043075163"><ele>867.6000000000001</ele><time>2026-04-26T09:46:56Z</time></trkpt><trkpt lat="44.113659069803624" lon="10.733936946956572"><ele>865.8000000000001</ele><time>2026-04-26T09:46:57Z</time></trkpt><trkpt lat="44.1135947396218" lon="10.73406108738948"><ele>864.0</ele><time>2026-04-26T09:46:58Z</time></trkpt><trkpt lat="44.11350652061889" lon="10.734151338783782"><ele>864.0</ele><time>2026-04-26T09:46:59Z</time></trkpt><trkpt lat="44.11339479575249" lon="10.734211309868662"><ele>864.0</ele><time>2026-04-26T09:47:00Z</time></trkpt><trkpt lat="44.11327064107458" lon="10.734251291590903"><ele>864.0</ele><time>2026-04-26T09:47:01Z</time></trkpt><trkpt lat="44.113150206756735" lon="10.734301109294279"><ele>864.0</ele><time>2026-04-26T09:47:02Z</time></trkpt><trkpt lat="44.113042537883565" lon="10.734348689301708"><ele>860.6</ele><time>2026-04-26T09:47:03Z</time></trkpt><trkpt lat="44.11293888343194" lon="10.734393386663463"><ele>857.2</ele><time>2026-04-26T09:47:04Z</time></trkpt><trkpt lat="44.112859952736265" lon="10.734440254110096"><ele>853.8000000000001</ele><time>2026-04-26T09:47:05.001Z</time></trkpt><trkpt lat="44.11280992303173" lon="10.734524128366166"><ele>850.4000000000001</ele><time>2026-04-26T09:47:06.001Z</time></trkpt><trkpt lat="44.112802930949776" lon="10.734645792644288"><ele>847.0</ele><time>2026-04-26T09:47:07.001Z</time></trkpt><trkpt lat="44.11283457095611" lon="10.73476407610469"><ele>847.0</ele><time>2026-04-26T09:47:08.001Z</time></trkpt><trkpt lat="44.11290047452267" lon="10.734837476609222"><ele>847.0</ele><time>2026-04-26T09:47:09.001Z</time></trkpt><trkpt lat="44.112987882448735" lon="10.734841383818933"><ele>847.0</ele><time>2026-04-26T09:47:10.001Z</time></trkpt><trkpt lat="44.11307578385049" lon="10.73479018229587"><ele>847.0</ele><time>2026-04-26T09:47:11.001Z</time></trkpt><trkpt lat="44.11315705165224" lon="10.734687067310526"><ele>847.0</ele><time>2026-04-26T09:47:12.001Z</time></trkpt><trkpt lat="44.11324237845865" lon="10.734591309568646"><ele>845.6666666666666</ele><time>2026-04-26T09:47:13.001Z</time></trkpt><trkpt lat="44.11332346401862" lon="10.734509966164966"><ele>844.3333333333333</ele><time>2026-04-26T09:47:14.001Z</time></trkpt><trkpt lat="44.11340401870944" lon="10.734439367046177"><ele>843.0</ele><time>2026-04-26T09:47:15.001Z</time></trkpt><trkpt lat="44.11347420493711" lon="10.734414119726049"><ele>841.6666666666667</ele><time>2026-04-26T09:47:16.001Z</time></trkpt><trkpt lat="44.11355006108336" lon="10.734459175269595"><ele>840.3333333333334</ele><time>2026-04-26T09:47:17.001Z</time></trkpt><trkpt lat="44.113593125111656" lon="10.734551176347154"><ele>839.0</ele><time>2026-04-26T09:47:18.001Z</time></trkpt><trkpt lat="44.11358818597709" lon="10.734682577357923"><ele>839.0</ele><time>2026-04-26T09:47:19.001Z</time></trkpt><trkpt lat="44.113527839444075" lon="10.734803890937526"><ele>839.0</ele><time>2026-04-26T09:47:20.001Z</time></trkpt><trkpt lat="44.1134042045119" lon="10.73484916281181"><ele>839.0</ele><time>2026-04-26T09:47:21.001Z</time></trkpt><trkpt lat="44.11329115279947" lon="10.734926354771611"><ele>839.0</ele><time>2026-04-26T09:47:22.001Z</time></trkpt><trkpt lat="44.113160796489005" lon="10.734980219080162"><ele>841.0</ele><time>2026-04-26T09:47:23.001Z</time></trkpt><trkpt lat="44.11302371279485" lon="10.735042765533333"><ele>843.0</ele><time>2026-04-26T09:47:24.001Z</time></trkpt><trkpt lat="44.112902110696474" lon="10.735130193187475"><ele>845.0</ele><time>2026-04-26T09:47:25.001Z</time></trkpt><trkpt lat="44.11280501915941" lon="10.735243384444944"><ele>847.0</ele><time>2026-04-26T09:47:26.001Z</time></trkpt><trkpt lat="44.1127198330743" lon="10.735366164010879"><ele>840.75</ele><time>2026-04-26T09:47:27.001Z</time></trkpt><trkpt lat="44.11263600716273" lon="10.735487366520463"><ele>834.5</ele><time>2026-04-26T09:47:28.001Z</time></trkpt><trkpt lat="44.112548151803374" lon="10.735581937756276"><ele>828.25</ele><time>2026-04-26T09:47:29.001Z</time></trkpt><trkpt lat="44.11243940760146" lon="10.735641319638631"><ele>822.0</ele><time>2026-04-26T09:47:30.001Z</time></trkpt><trkpt lat="44.11231616962813" lon="10.735619146231617"><ele>822.0</ele><time>2026-04-26T09:47:31.001Z</time></trkpt><trkpt lat="44.112193183145614" lon="10.73562734877114"><ele>822.0</ele><time>2026-04-26T09:47:32.001Z</time></trkpt><trkpt lat="44.11207132795657" lon="10.73559508712501"><ele>822.0</ele><time>2026-04-26T09:47:33.001Z</time></trkpt><trkpt lat="44.11195135847174" lon="10.735576625884976"><ele>822.0</ele><time>2026-04-26T09:47:34.001Z</time></trkpt><trkpt lat="44.11183331901681" lon="10.735568089956653"><ele>822.0</ele><time>2026-04-26T09:47:35.001Z</time></trkpt><trkpt lat="44.11171877482164" lon="10.73556522576921"><ele>822.0</ele><time>2026-04-26T09:47:36.001Z</time></trkpt><trkpt lat="44.11159885186301" lon="10.735551326226497"><ele>822.0</ele><time>2026-04-26T09:47:37.001Z</time></trkpt><trkpt lat="44.11148196054549" lon="10.735535890010004"><ele>822.0</ele><time>2026-04-26T09:47:38.001Z</time></trkpt><trkpt lat="44.11136676939171" lon="10.735519435173348"><ele>820.2</ele><time>2026-04-26T09:47:39.001Z</time></trkpt><trkpt lat="44.11125398228407" lon="10.735523636253259"><ele>818.4000000000001</ele><time>2026-04-26T09:47:40.001Z</time></trkpt><trkpt lat="44.111151869795385" lon="10.735597519833847"><ele>816.5999999999999</ele><time>2026-04-26T09:47:41.001Z</time></trkpt><trkpt lat="44.111074753743786" lon="10.735692004529978"><ele>814.8</ele><time>2026-04-26T09:47:42.001Z</time></trkpt><trkpt lat="44.11098793547597" lon="10.735773636781678"><ele>813.0</ele><time>2026-04-26T09:47:43.001Z</time></trkpt><trkpt lat="44.11088602388006" lon="10.735771741319851"><ele>813.0</ele><time>2026-04-26T09:47:44.001Z</time></trkpt><trkpt lat="44.110791481862364" lon="10.735667819794699"><ele>813.0</ele><time>2026-04-26T09:47:45.001Z</time></trkpt><trkpt lat="44.1106658769844" lon="10.735605121805127"><ele>813.0</ele><time>2026-04-26T09:47:46.001Z</time></trkpt><trkpt lat="44.110547173678064" lon="10.735515521401883"><ele>813.0</ele><time>2026-04-26T09:47:47.001Z</time></trkpt><trkpt lat="44.110437740141265" lon="10.735446601720007"><ele>814.5</ele><time>2026-04-26T09:47:48.001Z</time></trkpt><trkpt lat="44.11032787053023" lon="10.73537597224045"><ele>816.0</ele><time>2026-04-26T09:47:49.001Z</time></trkpt><trkpt lat="44.1102374270817" lon="10.735279600044354"><ele>817.5</ele><time>2026-04-26T09:47:50.001Z</time></trkpt><trkpt lat="44.110170158297265" lon="10.735145499067153"><ele>819.0</ele><time>2026-04-26T09:47:51.001Z</time></trkpt><trkpt lat="44.11012103661287" lon="10.735004262521846"><ele>819.0</ele><time>2026-04-26T09:47:52.001Z</time></trkpt><trkpt lat="44.11005786158318" lon="10.734902479276952"><ele>819.0</ele><time>2026-04-26T09:47:53.001Z</time></trkpt><trkpt lat="44.10997595825068" lon="10.73485119896121"><ele>819.0</ele><time>2026-04-26T09:47:54.001Z</time></trkpt><trkpt lat="44.109871943222345" lon="10.734881910027058"><ele>819.0</ele><time>2026-04-26T09:47:55.001Z</time></trkpt><trkpt lat="44.10977194288905" lon="10.73498255573808"><ele>819.0</ele><time>2026-04-26T09:47:56.001Z</time></trkpt><trkpt lat="44.109674966066265" lon="10.735098884516981"><ele>819.5</ele><time>2026-04-26T09:47:57.001Z</time></trkpt><trkpt lat="44.1095696432689" lon="10.735219805045189"><ele>820.0</ele><time>2026-04-26T09:47:58.001Z</time></trkpt><trkpt lat="44.10945779868337" lon="10.73533787600363"><ele>820.5</ele><time>2026-04-26T09:47:59.001Z</time></trkpt><trkpt lat="44.10934724498987" lon="10.735458304995324"><ele>821.0</ele><time>2026-04-26T09:48:00.001Z</time></trkpt><trkpt lat="44.109235388054216" lon="10.735571497795325"><ele>818.25</ele><time>2026-04-26T09:48:01.001Z</time></trkpt><trkpt lat="44.10912743874151" lon="10.735692435619615"><ele>815.5</ele><time>2026-04-26T09:48:02.001Z</time></trkpt><trkpt lat="44.10901962299422" lon="10.735811063751365"><ele>812.75</ele><time>2026-04-26T09:48:03.001Z</time></trkpt><trkpt lat="44.10891144060398" lon="10.735928314198818"><ele>810.0</ele><time>2026-04-26T09:48:04.001Z</time></trkpt><trkpt lat="44.1088041519269" lon="10.7360566274701"><ele>805.0</ele><time>2026-04-26T09:48:05.001Z</time></trkpt><trkpt lat="44.10867925809945" lon="10.736174402483885"><ele>800.0</ele><time>2026-04-26T09:48:06.001Z</time></trkpt><trkpt lat="44.10855540668773" lon="10.736291601287284"><ele>795.0</ele><time>2026-04-26T09:48:07.001Z</time></trkpt><trkpt lat="44.10843036059508" lon="10.736421551215717"><ele>795.0</ele><time>2026-04-26T09:48:08.001Z</time></trkpt><trkpt lat="44.10830948910054" lon="10.736549583227427"><ele>795.0</ele><time>2026-04-26T09:48:09.001Z</time></trkpt><trkpt lat="44.10818943645122" lon="10.73667398822224"><ele>795.0</ele><time>2026-04-26T09:48:10.001Z</time></trkpt><trkpt lat="44.10807822253221" lon="10.736791793704588"><ele>795.0</ele><time>2026-04-26T09:48:11.001Z</time></trkpt><trkpt lat="44.107977033586074" lon="10.736896364140865"><ele>793.8</ele><time>2026-04-26T09:48:12.001Z</time></trkpt><trkpt lat="44.10788775222099" lon="10.736985309382138"><ele>792.6</ele><time>2026-04-26T09:48:13.001Z</time></trkpt><trkpt lat="44.10782583648526" lon="10.737081051994204"><ele>791.4000000000001</ele><time>2026-04-26T09:48:14.001Z</time></trkpt><trkpt lat="44.107808080610184" lon="10.73720777699097"><ele>790.2</ele><time>2026-04-26T09:48:15.001Z</time></trkpt><trkpt lat="44.10783113139878" lon="10.737346548997902"><ele>789.0</ele><time>2026-04-26T09:48:16.001Z</time></trkpt><trkpt lat="44.10788505804227" lon="10.737460496219981"><ele>789.0</ele><time>2026-04-26T09:48:17.001Z</time></trkpt><trkpt lat="44.10799727626356" lon="10.737506183357308"><ele>789.0</ele><time>2026-04-26T09:48:18.001Z</time></trkpt><trkpt lat="44.10811136573289" lon="10.737486061365274"><ele>789.0</ele><time>2026-04-26T09:48:19.001Z</time></trkpt><trkpt lat="44.10821073256297" lon="10.737407380640475"><ele>789.0</ele><time>2026-04-26T09:48:20.001Z</time></trkpt><trkpt lat="44.108313446183296" lon="10.737288019496543"><ele>783.3333333333333</ele><time>2026-04-26T09:48:21.001Z</time></trkpt><trkpt lat="44.10842848160961" lon="10.737165350458469"><ele>777.6666666666666</ele><time>2026-04-26T09:48:22.001Z</time></trkpt><trkpt lat="44.10855949728704" lon="10.737063966149535"><ele>772.0</ele><time>2026-04-26T09:48:23.001Z</time></trkpt><trkpt lat="44.10869402926126" lon="10.73695190409492"><ele>773.6666666666666</ele><time>2026-04-26T09:48:24.001Z</time></trkpt><trkpt lat="44.108834572015134" lon="10.736824516704988"><ele>775.3333333333333</ele><time>2026-04-26T09:48:25.001Z</time></trkpt><trkpt lat="44.10897618820514" lon="10.736698486266212"><ele>777.0</ele><time>2026-04-26T09:48:26.001Z</time></trkpt><trkpt lat="44.1091043961999" lon="10.736577362142647"><ele>777.0</ele><time>2026-04-26T09:48:27.001Z</time></trkpt><trkpt lat="44.1092329074316" lon="10.736465414160932"><ele>777.0</ele><time>2026-04-26T09:48:28.001Z</time></trkpt><trkpt lat="44.109343356875186" lon="10.73635910495917"><ele>777.0</ele><time>2026-04-26T09:48:29Z</time></trkpt><trkpt lat="44.10944045180276" lon="10.736273174271167"><ele>777.0</ele><time>2026-04-26T09:48:30Z</time></trkpt><trkpt lat="44.10953328165963" lon="10.736240923706939"><ele>777.0</ele><time>2026-04-26T09:48:31Z</time></trkpt><trkpt lat="44.10961617713671" lon="10.736241585298208"><ele>777.0</ele><time>2026-04-26T09:48:32Z</time></trkpt><trkpt lat="44.10968935546176" lon="10.736304585136281"><ele>777.0</ele><time>2026-04-26T09:48:33Z</time></trkpt><trkpt lat="44.109735604204886" lon="10.736422286150983"><ele>777.0</ele><time>2026-04-26T09:48:34Z</time></trkpt><trkpt lat="44.10973680358374" lon="10.736565013487429"><ele>777.0</ele><time>2026-04-26T09:48:35Z</time></trkpt><trkpt lat="44.109655127617124" lon="10.73667873236439"><ele>777.0</ele><time>2026-04-26T09:48:36Z</time></trkpt><trkpt lat="44.10957830552807" lon="10.736828771840383"><ele>777.0</ele><time>2026-04-26T09:48:37Z</time></trkpt><trkpt lat="44.109509005067935" lon="10.736994840913832"><ele>777.0</ele><time>2026-04-26T09:48:38Z</time></trkpt><trkpt lat="44.10942044195507" lon="10.737160929500234"><ele>777.0</ele><time>2026-04-26T09:48:39Z</time></trkpt><trkpt lat="44.109339244355596" lon="10.737312392174081"><ele>775.75</ele><time>2026-04-26T09:48:40Z</time></trkpt><trkpt lat="44.109253224872454" lon="10.73744005987647"><ele>774.5</ele><time>2026-04-26T09:48:41Z</time></trkpt><trkpt lat="44.10915375190806" lon="10.73751408629775"><ele>773.25</ele><time>2026-04-26T09:48:42Z</time></trkpt><trkpt lat="44.109046151439834" lon="10.737508831261263"><ele>772.0</ele><time>2026-04-26T09:48:43Z</time></trkpt><trkpt lat="44.10894166636815" lon="10.737442464765312"><ele>772.0</ele><time>2026-04-26T09:48:44Z</time></trkpt><trkpt lat="44.10883691548718" lon="10.737357260030572"><ele>772.0</ele><time>2026-04-26T09:48:45Z</time></trkpt><trkpt lat="44.10873147186463" lon="10.737344153942898"><ele>772.0</ele><time>2026-04-26T09:48:46Z</time></trkpt><trkpt lat="44.10863824456437" lon="10.737426586264009"><ele>772.0</ele><time>2026-04-26T09:48:47Z</time></trkpt><trkpt lat="44.10856420546361" lon="10.73756941132117"><ele>765.5</ele><time>2026-04-26T09:48:48Z</time></trkpt><trkpt lat="44.108491429534155" lon="10.737749277326182"><ele>759.0</ele><time>2026-04-26T09:48:49Z</time></trkpt><trkpt lat="44.10842615153715" lon="10.737926081391548"><ele>752.5</ele><time>2026-04-26T09:48:50Z</time></trkpt><trkpt lat="44.10835537669652" lon="10.738069908593543"><ele>746.0</ele><time>2026-04-26T09:48:51Z</time></trkpt><trkpt lat="44.108262675071586" lon="10.738180933531067"><ele>749.75</ele><time>2026-04-26T09:48:52Z</time></trkpt><trkpt lat="44.10816665624888" lon="10.738293852452635"><ele>753.5</ele><time>2026-04-26T09:48:53Z</time></trkpt><trkpt lat="44.108048665570436" lon="10.738359519519825"><ele>757.25</ele><time>2026-04-26T09:48:54Z</time></trkpt><trkpt lat="44.107923346185935" lon="10.738412351364468"><ele>761.0</ele><time>2026-04-26T09:48:55Z</time></trkpt><trkpt lat="44.10780548506694" lon="10.73848000441761"><ele>753.75</ele><time>2026-04-26T09:48:56Z</time></trkpt><trkpt lat="44.107704593542216" lon="10.73860822875946"><ele>746.5</ele><time>2026-04-26T09:48:57Z</time></trkpt><trkpt lat="44.107637421453674" lon="10.738769102647485"><ele>739.25</ele><time>2026-04-26T09:48:58Z</time></trkpt><trkpt lat="44.1075554086394" lon="10.738917529042634"><ele>732.0</ele><time>2026-04-26T09:48:59Z</time></trkpt><trkpt lat="44.10743788258067" lon="10.7389952774595"><ele>739.5</ele><time>2026-04-26T09:49:00Z</time></trkpt><trkpt lat="44.10732424513897" lon="10.73908913276342"><ele>747.0</ele><time>2026-04-26T09:49:01Z</time></trkpt><trkpt lat="44.1072127568896" lon="10.739136978717513"><ele>754.5</ele><time>2026-04-26T09:49:02Z</time></trkpt><trkpt lat="44.10711744276858" lon="10.739205135125834"><ele>762.0</ele><time>2026-04-26T09:49:03Z</time></trkpt><trkpt lat="44.10705636203583" lon="10.739330442334325"><ele>759.75</ele><time>2026-04-26T09:49:04Z</time></trkpt><trkpt lat="44.10704632866624" lon="10.739485064085553"><ele>757.5</ele><time>2026-04-26T09:49:05Z</time></trkpt><trkpt lat="44.10708100294387" lon="10.739662895575663"><ele>755.25</ele><time>2026-04-26T09:49:06Z</time></trkpt><trkpt lat="44.10711313244985" lon="10.739858519717052"><ele>753.0</ele><time>2026-04-26T09:49:07Z</time></trkpt><trkpt lat="44.107143955863165" lon="10.74004617443633"><ele>753.0</ele><time>2026-04-26T09:49:08Z</time></trkpt><trkpt lat="44.10716878895463" lon="10.740213785195907"><ele>753.0</ele><time>2026-04-26T09:49:09Z</time></trkpt><trkpt lat="44.107171176526315" lon="10.740357571012542"><ele>753.0</ele><time>2026-04-26T09:49:10Z</time></trkpt><trkpt lat="44.10713985427307" lon="10.740491743404043"><ele>753.0</ele><time>2026-04-26T09:49:11Z</time></trkpt><trkpt lat="44.107036740098685" lon="10.740596450738456"><ele>747.75</ele><time>2026-04-26T09:49:12Z</time></trkpt><trkpt lat="44.10691235664651" lon="10.740706174848642"><ele>742.5</ele><time>2026-04-26T09:49:13Z</time></trkpt><trkpt lat="44.10678952498939" lon="10.740818449442498"><ele>737.25</ele><time>2026-04-26T09:49:14Z</time></trkpt><trkpt lat="44.10667092578421" lon="10.7409260463208"><ele>732.0</ele><time>2026-04-26T09:49:15Z</time></trkpt><trkpt lat="44.10656010476119" lon="10.741039213742159"><ele>732.0</ele><time>2026-04-26T09:49:16Z</time></trkpt><trkpt lat="44.10643382108197" lon="10.741085805309577"><ele>732.0</ele><time>2026-04-26T09:49:17Z</time></trkpt><trkpt lat="44.10629636926397" lon="10.741083594286254"><ele>732.0</ele><time>2026-04-26T09:49:18Z</time></trkpt><trkpt lat="44.10616593711263" lon="10.741060760254774"><ele>732.0</ele><time>2026-04-26T09:49:19Z</time></trkpt><trkpt lat="44.10604544469576" lon="10.741013648025179"><ele>732.0</ele><time>2026-04-26T09:49:20.001Z</time></trkpt><trkpt lat="44.10593089266943" lon="10.741008753681744"><ele>732.0</ele><time>2026-04-26T09:49:21.001Z</time></trkpt><trkpt lat="44.10581876339555" lon="10.741049376121657"><ele>732.0</ele><time>2026-04-26T09:49:22.001Z</time></trkpt><trkpt lat="44.10571782516923" lon="10.741194770558973"><ele>732.0</ele><time>2026-04-26T09:49:23.001Z</time></trkpt><trkpt lat="44.10563552464782" lon="10.741315171351214"><ele>724.25</ele><time>2026-04-26T09:49:24.001Z</time></trkpt><trkpt lat="44.1055446142163" lon="10.741406198789273"><ele>716.5</ele><time>2026-04-26T09:49:25.001Z</time></trkpt><trkpt lat="44.10543654627254" lon="10.741427751621767"><ele>708.75</ele><time>2026-04-26T09:49:26.001Z</time></trkpt><trkpt lat="44.105320185538226" lon="10.741375968153603"><ele>701.0</ele><time>2026-04-26T09:49:27.001Z</time></trkpt><trkpt lat="44.105206322272416" lon="10.74126939720971"><ele>701.0</ele><time>2026-04-26T09:49:28.001Z</time></trkpt><trkpt lat="44.10509170096943" lon="10.741182201529945"><ele>701.0</ele><time>2026-04-26T09:49:29.001Z</time></trkpt><trkpt lat="44.104965142352356" lon="10.741139047529574"><ele>701.0</ele><time>2026-04-26T09:49:30.001Z</time></trkpt><trkpt lat="44.10484871225823" lon="10.741165928782033"><ele>701.0</ele><time>2026-04-26T09:49:31.001Z</time></trkpt><trkpt lat="44.10474420230139" lon="10.741236606822469"><ele>702.0</ele><time>2026-04-26T09:49:32.001Z</time></trkpt><trkpt lat="44.104658721243275" lon="10.741353656496534"><ele>703.0</ele><time>2026-04-26T09:49:33.001Z</time></trkpt><trkpt lat="44.10457981798443" lon="10.74149466873187"><ele>704.0</ele><time>2026-04-26T09:49:34.001Z</time></trkpt><trkpt lat="44.1044961080099" lon="10.741611952369198"><ele>705.0</ele><time>2026-04-26T09:49:35.001Z</time></trkpt><trkpt lat="44.104426112874926" lon="10.741715923468853"><ele>705.0</ele><time>2026-04-26T09:49:36.001Z</time></trkpt><trkpt lat="44.10436034968903" lon="10.741811071405026"><ele>705.0</ele><time>2026-04-26T09:49:37.001Z</time></trkpt><trkpt lat="44.10431763474781" lon="10.741896532201384"><ele>705.0</ele><time>2026-04-26T09:49:38.001Z</time></trkpt><trkpt lat="44.10432037077006" lon="10.742008953250586"><ele>705.0</ele><time>2026-04-26T09:49:39.001Z</time></trkpt><trkpt lat="44.10436734565463" lon="10.742096790276692"><ele>705.0</ele><time>2026-04-26T09:49:40.001Z</time></trkpt><trkpt lat="44.10442911966651" lon="10.742174153172789"><ele>705.0</ele><time>2026-04-26T09:49:41.001Z</time></trkpt><trkpt lat="44.10451394141536" lon="10.742171861883925"><ele>705.0</ele><time>2026-04-26T09:49:42.001Z</time></trkpt><trkpt lat="44.104598521300126" lon="10.742125291773808"><ele>705.0</ele><time>2026-04-26T09:49:43.001Z</time></trkpt><trkpt lat="44.104672964188175" lon="10.742061899526488"><ele>705.0</ele><time>2026-04-26T09:49:44.001Z</time></trkpt><trkpt lat="44.104749490847944" lon="10.742007836236484"><ele>705.0</ele><time>2026-04-26T09:49:45.001Z</time></trkpt><trkpt lat="44.104817838429845" lon="10.741955065053608"><ele>705.0</ele><time>2026-04-26T09:49:46.001Z</time></trkpt><trkpt lat="44.10486497711886" lon="10.741863064557691"><ele>705.0</ele><time>2026-04-26T09:49:47.001Z</time></trkpt><trkpt lat="44.104880758792774" lon="10.741770090492222"><ele>704.2</ele><time>2026-04-26T09:49:48.001Z</time></trkpt><trkpt lat="44.10495481580804" lon="10.741667744929352"><ele>703.4</ele><time>2026-04-26T09:49:50.001Z</time></trkpt><trkpt lat="44.10507646050363" lon="10.74164385482251"><ele>702.5999999999999</ele><time>2026-04-26T09:49:52.001Z</time></trkpt><trkpt lat="44.10513599337767" lon="10.741686233675365"><ele>701.8</ele><time>2026-04-26T09:49:53.001Z</time></trkpt><trkpt lat="44.10520554233656" lon="10.74173264738596"><ele>701.0</ele><time>2026-04-26T09:49:54.001Z</time></trkpt><trkpt lat="44.10528969146697" lon="10.741780803026034"><ele>701.0</ele><time>2026-04-26T09:49:55.001Z</time></trkpt><trkpt lat="44.10537113861594" lon="10.74183122928543"><ele>701.0</ele><time>2026-04-26T09:49:56.001Z</time></trkpt><trkpt lat="44.10545227071928" lon="10.74187739703466"><ele>701.0</ele><time>2026-04-26T09:49:57.001Z</time></trkpt><trkpt lat="44.10552962356473" lon="10.741918256593904"><ele>701.0</ele><time>2026-04-26T09:49:58.001Z</time></trkpt><trkpt lat="44.10560532487165" lon="10.741959869143885"><ele>701.0</ele><time>2026-04-26T09:49:59.001Z</time></trkpt><trkpt lat="44.10567727780571" lon="10.741988513348002"><ele>701.0</ele><time>2026-04-26T09:50:00.001Z</time></trkpt><trkpt lat="44.105742757316285" lon="10.741985702319662"><ele>700.6666666666666</ele><time>2026-04-26T09:50:01.001Z</time></trkpt><trkpt lat="44.10580470924686" lon="10.741966722621752"><ele>700.3333333333333</ele><time>2026-04-26T09:50:02.001Z</time></trkpt><trkpt lat="44.1058610443205" lon="10.741927005407993"><ele>700.0</ele><time>2026-04-26T09:50:03.001Z</time></trkpt><trkpt lat="44.10596016379419" lon="10.741856110247863"><ele>699.6666666666666</ele><time>2026-04-26T09:50:05.001Z</time></trkpt><trkpt lat="44.10603682431966" lon="10.741802142958027"><ele>699.3333333333334</ele><time>2026-04-26T09:50:07.001Z</time></trkpt><trkpt lat="44.1061242787177" lon="10.741788421065102"><ele>699.0</ele><time>2026-04-26T09:50:09.001Z</time></trkpt><trkpt lat="44.106187848322904" lon="10.74189003812837"><ele>693.6666666666666</ele><time>2026-04-26T09:50:11.001Z</time></trkpt><trkpt lat="44.106179152355814" lon="10.742038147714158"><ele>688.3333333333334</ele><time>2026-04-26T09:50:13.001Z</time></trkpt><trkpt lat="44.1061247656987" lon="10.74208395719845"><ele>683.0</ele><time>2026-04-26T09:50:14.001Z</time></trkpt><trkpt lat="44.106052474783674" lon="10.742102287216237"><ele>677.6666666666667</ele><time>2026-04-26T09:50:15.001Z</time></trkpt><trkpt lat="44.105974274921685" lon="10.742102353972868"><ele>672.3333333333334</ele><time>2026-04-26T09:50:16.001Z</time></trkpt><trkpt lat="44.10588852482886" lon="10.742115013097433"><ele>667.0</ele><time>2026-04-26T09:50:17.001Z</time></trkpt><trkpt lat="44.105799116166" lon="10.742134373995777"><ele>668.6666666666667</ele><time>2026-04-26T09:50:18.001Z</time></trkpt><trkpt lat="44.10570041670937" lon="10.742162722182801"><ele>670.3333333333334</ele><time>2026-04-26T09:50:19.001Z</time></trkpt><trkpt lat="44.10560796806407" lon="10.742178282318424"><ele>672.0</ele><time>2026-04-26T09:50:20.001Z</time></trkpt><trkpt lat="44.105519667282515" lon="10.742195956970008"><ele>673.6666666666666</ele><time>2026-04-26T09:50:21.001Z</time></trkpt><trkpt lat="44.105435662212976" lon="10.742216656925489"><ele>675.3333333333333</ele><time>2026-04-26T09:50:22.001Z</time></trkpt><trkpt lat="44.1053589057173" lon="10.742240504941234"><ele>677.0</ele><time>2026-04-26T09:50:23.001Z</time></trkpt><trkpt lat="44.10529181536231" lon="10.74229406696959"><ele>677.0</ele><time>2026-04-26T09:50:24.001Z</time></trkpt><trkpt lat="44.105232956937904" lon="10.74236404895859"><ele>677.0</ele><time>2026-04-26T09:50:25.001Z</time></trkpt><trkpt lat="44.105189407592775" lon="10.74243659869267"><ele>677.0</ele><time>2026-04-26T09:50:26.001Z</time></trkpt><trkpt lat="44.10512415280981" lon="10.7425653246436"><ele>677.0</ele><time>2026-04-26T09:50:28.001Z</time></trkpt><trkpt lat="44.105044605565226" lon="10.742653854776913"><ele>677.0</ele><time>2026-04-26T09:50:30.001Z</time></trkpt><trkpt lat="44.10492718749628" lon="10.742671308867358"><ele>677.25</ele><time>2026-04-26T09:50:32.001Z</time></trkpt><trkpt lat="44.10484833532704" lon="10.74267164912204"><ele>677.5</ele><time>2026-04-26T09:50:33.001Z</time></trkpt><trkpt lat="44.104737285980434" lon="10.742669911588763"><ele>677.75</ele><time>2026-04-26T09:50:34.001Z</time></trkpt><trkpt lat="44.104582192599125" lon="10.742629741904972"><ele>678.0</ele><time>2026-04-26T09:50:35Z</time></trkpt><trkpt lat="44.104414939365135" lon="10.742607399788119"><ele>678.0</ele><time>2026-04-26T09:50:36Z</time></trkpt><trkpt lat="44.10426916119878" lon="10.742592825473254"><ele>678.0</ele><time>2026-04-26T09:50:37Z</time></trkpt><trkpt lat="44.104142593655524" lon="10.742565986681306"><ele>678.0</ele><time>2026-04-26T09:50:38Z</time></trkpt><trkpt lat="44.10403311794428" lon="10.742557410214225"><ele>678.0</ele><time>2026-04-26T09:50:39Z</time></trkpt><trkpt lat="44.10393988501077" lon="10.74257452947438"><ele>676.0</ele><time>2026-04-26T09:50:40Z</time></trkpt><trkpt lat="44.10385148018543" lon="10.742626767032396"><ele>674.0</ele><time>2026-04-26T09:50:41Z</time></trkpt><trkpt lat="44.10377147112912" lon="10.742717439373754"><ele>672.0</ele><time>2026-04-26T09:50:42Z</time></trkpt><trkpt lat="44.10369313177792" lon="10.742838786412364"><ele>670.0</ele><time>2026-04-26T09:50:43Z</time></trkpt><trkpt lat="44.10361939325158" lon="10.742980836676109"><ele>668.0</ele><time>2026-04-26T09:50:44Z</time></trkpt><trkpt lat="44.103559930311604" lon="10.743134258586288"><ele>665.0</ele><time>2026-04-26T09:50:45Z</time></trkpt><trkpt lat="44.103532658408824" lon="10.743296807734385"><ele>662.0</ele><time>2026-04-26T09:50:46Z</time></trkpt><trkpt lat="44.10352097368864" lon="10.743455484015898"><ele>659.0</ele><time>2026-04-26T09:50:47Z</time></trkpt><trkpt lat="44.10352982973046" lon="10.743612655975534"><ele>656.0</ele><time>2026-04-26T09:50:48Z</time></trkpt><trkpt lat="44.103544339031124" lon="10.74374599897214"><ele>653.0</ele><time>2026-04-26T09:50:49Z</time></trkpt><trkpt lat="44.10354573189199" lon="10.743863453559147"><ele>651.8</ele><time>2026-04-26T09:50:50Z</time></trkpt><trkpt lat="44.10351061052735" lon="10.743959781749357"><ele>650.5999999999999</ele><time>2026-04-26T09:50:51Z</time></trkpt><trkpt lat="44.10342897232372" lon="10.744007107445434"><ele>649.4000000000001</ele><time>2026-04-26T09:50:52Z</time></trkpt><trkpt lat="44.1033314148629" lon="10.743987274387617"><ele>648.2</ele><time>2026-04-26T09:50:53Z</time></trkpt><trkpt lat="44.1032181731398" lon="10.743965276537422"><ele>647.0</ele><time>2026-04-26T09:50:54Z</time></trkpt><trkpt lat="44.103127448436204" lon="10.743976234079367"><ele>643.5</ele><time>2026-04-26T09:50:55Z</time></trkpt><trkpt lat="44.10305205416424" lon="10.744011245400173"><ele>640.0</ele><time>2026-04-26T09:50:56Z</time></trkpt><trkpt lat="44.103008222174736" lon="10.744094251231514"><ele>636.5</ele><time>2026-04-26T09:50:57Z</time></trkpt><trkpt lat="44.102999931247965" lon="10.744196391826748"><ele>633.0</ele><time>2026-04-26T09:50:58Z</time></trkpt><trkpt lat="44.103027728457214" lon="10.74429908377585"><ele>629.5</ele><time>2026-04-26T09:50:59Z</time></trkpt><trkpt lat="44.10308420175472" lon="10.74437914083358"><ele>626.0</ele><time>2026-04-26T09:51:00Z</time></trkpt><trkpt lat="44.10316542394108" lon="10.744414078434849"><ele>627.4</ele><time>2026-04-26T09:51:01Z</time></trkpt><trkpt lat="44.1032575764365" lon="10.744397885657051"><ele>628.8</ele><time>2026-04-26T09:51:02Z</time></trkpt><trkpt lat="44.103351134802175" lon="10.744378059636103"><ele>630.1999999999999</ele><time>2026-04-26T09:51:03Z</time></trkpt><trkpt lat="44.103425851946476" lon="10.744384766056779"><ele>631.6</ele><time>2026-04-26T09:51:04Z</time></trkpt><trkpt lat="44.10353241010355" lon="10.744499159810639"><ele>633.0</ele><time>2026-04-26T09:51:06Z</time></trkpt><trkpt lat="44.10353818591915" lon="10.744607847924375"><ele>633.0</ele><time>2026-04-26T09:51:07Z</time></trkpt><trkpt lat="44.10347240562419" lon="10.744698241572541"><ele>633.0</ele><time>2026-04-26T09:51:08Z</time></trkpt><trkpt lat="44.103397467417544" lon="10.744742046503713"><ele>633.0</ele><time>2026-04-26T09:51:09Z</time></trkpt><trkpt lat="44.10329718317394" lon="10.744714099015177"><ele>633.0</ele><time>2026-04-26T09:51:10Z</time></trkpt><trkpt lat="44.103201672213004" lon="10.744643055193292"><ele>633.0</ele><time>2026-04-26T09:51:11Z</time></trkpt><trkpt lat="44.10309708444166" lon="10.744610595791997"><ele>630.75</ele><time>2026-04-26T09:51:12Z</time></trkpt><trkpt lat="44.10297791388566" lon="10.744578183086743"><ele>628.5</ele><time>2026-04-26T09:51:13Z</time></trkpt><trkpt lat="44.10285023881269" lon="10.74456191304806"><ele>626.25</ele><time>2026-04-26T09:51:14Z</time></trkpt><trkpt lat="44.102726232305976" lon="10.74456972383858"><ele>624.0</ele><time>2026-04-26T09:51:15Z</time></trkpt><trkpt lat="44.10259547902415" lon="10.74461254913198"><ele>624.0</ele><time>2026-04-26T09:51:16Z</time></trkpt><trkpt lat="44.10247349942247" lon="10.744679104385254"><ele>624.0</ele><time>2026-04-26T09:51:17Z</time></trkpt><trkpt lat="44.10236562319557" lon="10.74477185627626"><ele>624.0</ele><time>2026-04-26T09:51:18Z</time></trkpt><trkpt lat="44.10227859268946" lon="10.744871302732546"><ele>624.0</ele><time>2026-04-26T09:51:19Z</time></trkpt><trkpt lat="44.10219477756344" lon="10.744967130411531"><ele>625.8</ele><time>2026-04-26T09:51:20Z</time></trkpt><trkpt lat="44.10211106408289" lon="10.745058409066301"><ele>627.5999999999999</ele><time>2026-04-26T09:51:21Z</time></trkpt><trkpt lat="44.10201560263944" lon="10.745148664448738"><ele>629.4</ele><time>2026-04-26T09:51:22Z</time></trkpt><trkpt lat="44.10192141220127" lon="10.74523526706098"><ele>631.1999999999999</ele><time>2026-04-26T09:51:23Z</time></trkpt><trkpt lat="44.101834098772414" lon="10.74532323302389"><ele>633.0</ele><time>2026-04-26T09:51:24Z</time></trkpt><trkpt lat="44.10175782606751" lon="10.745410053333382"><ele>633.0</ele><time>2026-04-26T09:51:25Z</time></trkpt><trkpt lat="44.10169907191397" lon="10.74552244831994"><ele>633.0</ele><time>2026-04-26T09:51:26Z</time></trkpt><trkpt lat="44.101669281545504" lon="10.745663657128691"><ele>633.0</ele><time>2026-04-26T09:51:27Z</time></trkpt><trkpt lat="44.10165274916529" lon="10.74583047410614"><ele>633.0</ele><time>2026-04-26T09:51:28Z</time></trkpt><trkpt lat="44.10164693743479" lon="10.74600274651771"><ele>634.0</ele><time>2026-04-26T09:51:29Z</time></trkpt><trkpt lat="44.10163977616666" lon="10.746154245335568"><ele>635.0</ele><time>2026-04-26T09:51:30Z</time></trkpt><trkpt lat="44.101624860676246" lon="10.746302284879118"><ele>636.0</ele><time>2026-04-26T09:51:31Z</time></trkpt><trkpt lat="44.10161044350761" lon="10.746447775784935"><ele>637.0</ele><time>2026-04-26T09:51:32.001Z</time></trkpt><trkpt lat="44.10158969711395" lon="10.746612605935157"><ele>638.0</ele><time>2026-04-26T09:51:33.001Z</time></trkpt><trkpt lat="44.10157095407109" lon="10.746804250584567"><ele>634.75</ele><time>2026-04-26T09:51:34.001Z</time></trkpt><trkpt lat="44.101550984516656" lon="10.747013625898736"><ele>631.5</ele><time>2026-04-26T09:51:35.001Z</time></trkpt><trkpt lat="44.10153729900213" lon="10.747213127432412"><ele>628.25</ele><time>2026-04-26T09:51:36.001Z</time></trkpt><trkpt lat="44.10151709795424" lon="10.747386208400485"><ele>625.0</ele><time>2026-04-26T09:51:37.001Z</time></trkpt><trkpt lat="44.10148715081107" lon="10.74754755403731"><ele>625.0</ele><time>2026-04-26T09:51:38.001Z</time></trkpt><trkpt lat="44.10142984271061" lon="10.747694780457778"><ele>625.0</ele><time>2026-04-26T09:51:39.001Z</time></trkpt><trkpt lat="44.101340694285305" lon="10.747822757709667"><ele>625.0</ele><time>2026-04-26T09:51:40.001Z</time></trkpt><trkpt lat="44.10124922471078" lon="10.74793023486748"><ele>625.0</ele><time>2026-04-26T09:51:41.001Z</time></trkpt><trkpt lat="44.101156096060606" lon="10.748032679413127"><ele>623.25</ele><time>2026-04-26T09:51:42.001Z</time></trkpt><trkpt lat="44.1010601982252" lon="10.748152060752053"><ele>621.5</ele><time>2026-04-26T09:51:43.001Z</time></trkpt><trkpt lat="44.10096259009691" lon="10.748287990925238"><ele>619.75</ele><time>2026-04-26T09:51:44.001Z</time></trkpt><trkpt lat="44.10085140083268" lon="10.748427507125745"><ele>618.0</ele><time>2026-04-26T09:51:45.001Z</time></trkpt><trkpt lat="44.10073688436007" lon="10.748575550434145"><ele>616.6666666666666</ele><time>2026-04-26T09:51:46.001Z</time></trkpt><trkpt lat="44.1006168456908" lon="10.74872918783689"><ele>615.3333333333333</ele><time>2026-04-26T09:51:47.001Z</time></trkpt><trkpt lat="44.10050170682515" lon="10.748876750063799"><ele>614.0</ele><time>2026-04-26T09:51:48.001Z</time></trkpt><trkpt lat="44.100400813183114" lon="10.74900048147735"><ele>614.0</ele><time>2026-04-26T09:51:49.001Z</time></trkpt><trkpt lat="44.10031722362561" lon="10.749118312135517"><ele>614.0</ele><time>2026-04-26T09:51:50.001Z</time></trkpt><trkpt lat="44.10026492956191" lon="10.7492524556431"><ele>614.0</ele><time>2026-04-26T09:51:51.001Z</time></trkpt><trkpt lat="44.10025195256541" lon="10.749414600312763"><ele>614.0</ele><time>2026-04-26T09:51:52.001Z</time></trkpt><trkpt lat="44.100269509572364" lon="10.749580993244253"><ele>612.0</ele><time>2026-04-26T09:51:53.001Z</time></trkpt><trkpt lat="44.1002766122672" lon="10.749757721135643"><ele>610.0</ele><time>2026-04-26T09:51:54.001Z</time></trkpt><trkpt lat="44.10024320314022" lon="10.74993533711115"><ele>608.0</ele><time>2026-04-26T09:51:55.001Z</time></trkpt><trkpt lat="44.10015436566589" lon="10.750079111422188"><ele>606.0</ele><time>2026-04-26T09:51:56.001Z</time></trkpt><trkpt lat="44.100059765123866" lon="10.750227056085288"><ele>603.75</ele><time>2026-04-26T09:51:57.001Z</time></trkpt><trkpt lat="44.099945573772" lon="10.750369458738623"><ele>601.5</ele><time>2026-04-26T09:51:58.001Z</time></trkpt><trkpt lat="44.09983413677974" lon="10.750487211492642"><ele>599.25</ele><time>2026-04-26T09:51:59.001Z</time></trkpt><trkpt lat="44.09974660101495" lon="10.75062200505976"><ele>597.0</ele><time>2026-04-26T09:52:00.001Z</time></trkpt><trkpt lat="44.099629531085036" lon="10.750689674017966"><ele>597.0</ele><time>2026-04-26T09:52:01.001Z</time></trkpt><trkpt lat="44.099507932248606" lon="10.750711543554626"><ele>597.0</ele><time>2026-04-26T09:52:02.001Z</time></trkpt><trkpt lat="44.09937613158452" lon="10.750692476163168"><ele>597.0</ele><time>2026-04-26T09:52:03.001Z</time></trkpt><trkpt lat="44.099228935212544" lon="10.750702052329457"><ele>597.0</ele><time>2026-04-26T09:52:04.001Z</time></trkpt><trkpt lat="44.09909293967676" lon="10.750717852735669"><ele>595.6666666666666</ele><time>2026-04-26T09:52:05.001Z</time></trkpt><trkpt lat="44.09896191750859" lon="10.750802260896176"><ele>594.3333333333333</ele><time>2026-04-26T09:52:06.001Z</time></trkpt><trkpt lat="44.09882022422558" lon="10.750902547702347"><ele>593.0</ele><time>2026-04-26T09:52:07.001Z</time></trkpt><trkpt lat="44.098657546200016" lon="10.750925388918972"><ele>593.0</ele><time>2026-04-26T09:52:08.001Z</time></trkpt><trkpt lat="44.09848997415735" lon="10.750941516892"><ele>593.0</ele><time>2026-04-26T09:52:09.001Z</time></trkpt><trkpt lat="44.098333676338974" lon="10.750963786602053"><ele>593.0</ele><time>2026-04-26T09:52:10.001Z</time></trkpt><trkpt lat="44.0981870668399" lon="10.750931132645942"><ele>592.5</ele><time>2026-04-26T09:52:11.001Z</time></trkpt><trkpt lat="44.098041617705924" lon="10.750928617934306"><ele>592.0</ele><time>2026-04-26T09:52:12.001Z</time></trkpt><trkpt lat="44.09789836515863" lon="10.750959489884725"><ele>591.5</ele><time>2026-04-26T09:52:13.001Z</time></trkpt><trkpt lat="44.09777473392245" lon="10.751039729428232"><ele>591.0</ele><time>2026-04-26T09:52:14.001Z</time></trkpt><trkpt lat="44.097659568961994" lon="10.751130162440266"><ele>591.0</ele><time>2026-04-26T09:52:15.001Z</time></trkpt><trkpt lat="44.09754236442103" lon="10.751215434790765"><ele>591.0</ele><time>2026-04-26T09:52:16.001Z</time></trkpt><trkpt lat="44.097421955228675" lon="10.751317646195023"><ele>591.0</ele><time>2026-04-26T09:52:17.001Z</time></trkpt><trkpt lat="44.0973151587082" lon="10.751431525302362"><ele>591.0</ele><time>2026-04-26T09:52:18.001Z</time></trkpt><trkpt lat="44.09722681421809" lon="10.751574503422505"><ele>596.0</ele><time>2026-04-26T09:52:19.001Z</time></trkpt><trkpt lat="44.09714937761371" lon="10.751729951912173"><ele>601.0</ele><time>2026-04-26T09:52:20.001Z</time></trkpt><trkpt lat="44.09708515919325" lon="10.75188975935685"><ele>606.0</ele><time>2026-04-26T09:52:21.001Z</time></trkpt><trkpt lat="44.09703659590734" lon="10.752049652952063"><ele>611.0</ele><time>2026-04-26T09:52:22.001Z</time></trkpt><trkpt lat="44.09702654219019" lon="10.75222941016279"><ele>611.0</ele><time>2026-04-26T09:52:23.001Z</time></trkpt><trkpt lat="44.097051455056665" lon="10.752409408020856"><ele>611.0</ele><time>2026-04-26T09:52:24.001Z</time></trkpt><trkpt lat="44.09708310308008" lon="10.752575126633362"><ele>611.0</ele><time>2026-04-26T09:52:25.001Z</time></trkpt><trkpt lat="44.09704562654512" lon="10.752705804267775"><ele>611.0</ele><time>2026-04-26T09:52:26.001Z</time></trkpt><trkpt lat="44.096984288839565" lon="10.7527971548835"><ele>611.0</ele><time>2026-04-26T09:52:27.001Z</time></trkpt><trkpt lat="44.09690041545969" lon="10.752880476484835"><ele>604.5</ele><time>2026-04-26T09:52:28.001Z</time></trkpt><trkpt lat="44.09676859856514" lon="10.752878612398407"><ele>598.0</ele><time>2026-04-26T09:52:29.001Z</time></trkpt><trkpt lat="44.09663611615136" lon="10.752930687104397"><ele>591.5</ele><time>2026-04-26T09:52:30.001Z</time></trkpt><trkpt lat="44.09650382358692" lon="10.75295850587967"><ele>585.0</ele><time>2026-04-26T09:52:31.001Z</time></trkpt><trkpt lat="44.09637535382147" lon="10.753002142101709"><ele>585.0</ele><time>2026-04-26T09:52:32.001Z</time></trkpt><trkpt lat="44.09624739155929" lon="10.753049323417153"><ele>585.0</ele><time>2026-04-26T09:52:33.001Z</time></trkpt><trkpt lat="44.09611666054742" lon="10.753110082918036"><ele>585.0</ele><time>2026-04-26T09:52:34.001Z</time></trkpt><trkpt lat="44.09598595092853" lon="10.753174612268404"><ele>585.0</ele><time>2026-04-26T09:52:35.001Z</time></trkpt><trkpt lat="44.0958624717998" lon="10.753233150082336"><ele>593.75</ele><time>2026-04-26T09:52:36.001Z</time></trkpt><trkpt lat="44.09574595932465" lon="10.753286010791468"><ele>602.5</ele><time>2026-04-26T09:52:37.001Z</time></trkpt><trkpt lat="44.09564152940334" lon="10.753348025723039"><ele>611.25</ele><time>2026-04-26T09:52:38.001Z</time></trkpt><trkpt lat="44.09554829071451" lon="10.75345774578174"><ele>620.0</ele><time>2026-04-26T09:52:39.001Z</time></trkpt><trkpt lat="44.09548587527846" lon="10.753617121759547"><ele>619.5</ele><time>2026-04-26T09:52:40.001Z</time></trkpt><trkpt lat="44.095457478549555" lon="10.753808060819534"><ele>619.0</ele><time>2026-04-26T09:52:41Z</time></trkpt><trkpt lat="44.09546559603553" lon="10.75401282728041"><ele>618.5</ele><time>2026-04-26T09:52:42Z</time></trkpt><trkpt lat="44.09546295198461" lon="10.754209337906543"><ele>618.0</ele><time>2026-04-26T09:52:43Z</time></trkpt><trkpt lat="44.09544853855359" lon="10.75438799942918"><ele>618.0</ele><time>2026-04-26T09:52:44Z</time></trkpt><trkpt lat="44.0953895195754" lon="10.754551143346076"><ele>618.0</ele><time>2026-04-26T09:52:45Z</time></trkpt><trkpt lat="44.0953008776692" lon="10.754709219170282"><ele>618.0</ele><time>2026-04-26T09:52:46Z</time></trkpt><trkpt lat="44.0952018438987" lon="10.754901778954244"><ele>618.0</ele><time>2026-04-26T09:52:47Z</time></trkpt><trkpt lat="44.09511248701682" lon="10.755094044864768"><ele>613.6666666666666</ele><time>2026-04-26T09:52:48Z</time></trkpt><trkpt lat="44.09504160074696" lon="10.7553175552516"><ele>609.3333333333333</ele><time>2026-04-26T09:52:49Z</time></trkpt><trkpt lat="44.094980953266905" lon="10.755550825969923"><ele>605.0</ele><time>2026-04-26T09:52:50Z</time></trkpt><trkpt lat="44.094922862354245" lon="10.755785319416766"><ele>606.25</ele><time>2026-04-26T09:52:51Z</time></trkpt><trkpt lat="44.09487661718404" lon="10.755991096264758"><ele>607.5</ele><time>2026-04-26T09:52:52Z</time></trkpt><trkpt lat="44.09485839787499" lon="10.756191617646191"><ele>608.75</ele><time>2026-04-26T09:52:53Z</time></trkpt><trkpt lat="44.09485784513894" lon="10.756377691783921"><ele>610.0</ele><time>2026-04-26T09:52:54Z</time></trkpt><trkpt lat="44.09482969650026" lon="10.756542132846125"><ele>610.0</ele><time>2026-04-26T09:52:55Z</time></trkpt><trkpt lat="44.094797416677785" lon="10.756696118335592"><ele>610.0</ele><time>2026-04-26T09:52:56Z</time></trkpt><trkpt lat="44.09473314295959" lon="10.75682207158323"><ele>610.0</ele><time>2026-04-26T09:52:57Z</time></trkpt><trkpt lat="44.094657036178724" lon="10.756928219434467"><ele>610.0</ele><time>2026-04-26T09:52:58Z</time></trkpt><trkpt lat="44.09456429856872" lon="10.757051474581154"><ele>603.0</ele><time>2026-04-26T09:52:59Z</time></trkpt><trkpt lat="44.09442610996804" lon="10.757104734409094"><ele>596.0</ele><time>2026-04-26T09:53:00Z</time></trkpt><trkpt lat="44.09429237621422" lon="10.75715599891625"><ele>589.0</ele><time>2026-04-26T09:53:01Z</time></trkpt><trkpt lat="44.094144702506675" lon="10.757200108422472"><ele>582.0</ele><time>2026-04-26T09:53:02Z</time></trkpt><trkpt lat="44.09400026342617" lon="10.757252887868987"><ele>582.0</ele><time>2026-04-26T09:53:03Z</time></trkpt><trkpt lat="44.09384846178579" lon="10.75729502442715"><ele>582.0</ele><time>2026-04-26T09:53:04Z</time></trkpt><trkpt lat="44.093692267129256" lon="10.757338341821738"><ele>582.0</ele><time>2026-04-26T09:53:05Z</time></trkpt><trkpt lat="44.09353273946085" lon="10.757385440903255"><ele>582.0</ele><time>2026-04-26T09:53:06Z</time></trkpt><trkpt lat="44.093377150673604" lon="10.757433547976822"><ele>582.0</ele><time>2026-04-26T09:53:07Z</time></trkpt><trkpt lat="44.093215344378976" lon="10.75745661681407"><ele>582.0</ele><time>2026-04-26T09:53:08Z</time></trkpt><trkpt lat="44.09305547822747" lon="10.757499955241036"><ele>580.6666666666666</ele><time>2026-04-26T09:53:09Z</time></trkpt><trkpt lat="44.092902682426136" lon="10.75753644052627"><ele>579.3333333333333</ele><time>2026-04-26T09:53:10Z</time></trkpt><trkpt lat="44.09275023233649" lon="10.757553834649531"><ele>578.0</ele><time>2026-04-26T09:53:11Z</time></trkpt><trkpt lat="44.09259765951968" lon="10.757527693019254"><ele>578.0</ele><time>2026-04-26T09:53:12Z</time></trkpt><trkpt lat="44.092439800232086" lon="10.757505546472627"><ele>578.0</ele><time>2026-04-26T09:53:13Z</time></trkpt><trkpt lat="44.092286448201" lon="10.757449644131594"><ele>578.0</ele><time>2026-04-26T09:53:14Z</time></trkpt><trkpt lat="44.092136867027946" lon="10.75743193473126"><ele>580.0</ele><time>2026-04-26T09:53:15Z</time></trkpt><trkpt lat="44.09199379227024" lon="10.757450835097474"><ele>582.0</ele><time>2026-04-26T09:53:16Z</time></trkpt><trkpt lat="44.091834593744565" lon="10.757504023471585"><ele>584.0</ele><time>2026-04-26T09:53:17Z</time></trkpt><trkpt lat="44.09166885028432" lon="10.757585170580613"><ele>579.3333333333333</ele><time>2026-04-26T09:53:18Z</time></trkpt><trkpt lat="44.091494363771496" lon="10.757689611034209"><ele>574.6666666666666</ele><time>2026-04-26T09:53:19Z</time></trkpt><trkpt lat="44.09131600107349" lon="10.757793965739085"><ele>570.0</ele><time>2026-04-26T09:53:20Z</time></trkpt><trkpt lat="44.09114065960556" lon="10.757888430646554"><ele>570.0</ele><time>2026-04-26T09:53:21Z</time></trkpt><trkpt lat="44.09097001824771" lon="10.757975165058566"><ele>570.0</ele><time>2026-04-26T09:53:22Z</time></trkpt><trkpt lat="44.090819488131785" lon="10.758054954605162"><ele>570.0</ele><time>2026-04-26T09:53:23Z</time></trkpt><trkpt lat="44.09068383628872" lon="10.75815413191775"><ele>567.0</ele><time>2026-04-26T09:53:24Z</time></trkpt><trkpt lat="44.09058221923848" lon="10.758307456911425"><ele>564.0</ele><time>2026-04-26T09:53:25Z</time></trkpt><trkpt lat="44.09049950873395" lon="10.758483017761021"><ele>561.0</ele><time>2026-04-26T09:53:26Z</time></trkpt><trkpt lat="44.09038835982946" lon="10.75863981908052"><ele>561.0</ele><time>2026-04-26T09:53:27Z</time></trkpt><trkpt lat="44.09025197131312" lon="10.75875705510898"><ele>561.0</ele><time>2026-04-26T09:53:28Z</time></trkpt><trkpt lat="44.09010439007361" lon="10.758867464130692"><ele>561.0</ele><time>2026-04-26T09:53:29Z</time></trkpt><trkpt lat="44.08994439178221" lon="10.758998938529226"><ele>570.6666666666666</ele><time>2026-04-26T09:53:30Z</time></trkpt><trkpt lat="44.08978655273861" lon="10.759104339363118"><ele>580.3333333333333</ele><time>2026-04-26T09:53:31Z</time></trkpt><trkpt lat="44.08963829609676" lon="10.759210320185083"><ele>590.0</ele><time>2026-04-26T09:53:32Z</time></trkpt><trkpt lat="44.089497626575756" lon="10.759318238232376"><ele>579.0</ele><time>2026-04-26T09:53:33Z</time></trkpt><trkpt lat="44.08936549709498" lon="10.759456596657172"><ele>568.0</ele><time>2026-04-26T09:53:34Z</time></trkpt><trkpt lat="44.08924207461669" lon="10.759628709086448"><ele>557.0</ele><time>2026-04-26T09:53:35Z</time></trkpt><trkpt lat="44.0891128315503" lon="10.759775983155164"><ele>558.6666666666666</ele><time>2026-04-26T09:53:36Z</time></trkpt><trkpt lat="44.08899071408306" lon="10.759949676700078"><ele>560.3333333333334</ele><time>2026-04-26T09:53:37Z</time></trkpt><trkpt lat="44.08888556374865" lon="10.760154640403188"><ele>562.0</ele><time>2026-04-26T09:53:38Z</time></trkpt><trkpt lat="44.088769899829096" lon="10.760334938884228"><ele>562.0</ele><time>2026-04-26T09:53:39Z</time></trkpt><trkpt lat="44.088655579372286" lon="10.760511805881213"><ele>562.0</ele><time>2026-04-26T09:53:40Z</time></trkpt><trkpt lat="44.08854392412696" lon="10.76068624178725"><ele>562.0</ele><time>2026-04-26T09:53:41.001Z</time></trkpt><trkpt lat="44.088435810378925" lon="10.760860054054621"><ele>562.0</ele><time>2026-04-26T09:53:42.001Z</time></trkpt><trkpt lat="44.08832799698511" lon="10.761029941334208"><ele>562.0</ele><time>2026-04-26T09:53:43.001Z</time></trkpt><trkpt lat="44.088207720076596" lon="10.761187371087283"><ele>562.0</ele><time>2026-04-26T09:53:44.001Z</time></trkpt><trkpt lat="44.08806990209694" lon="10.761335503130512"><ele>564.0</ele><time>2026-04-26T09:53:45.001Z</time></trkpt><trkpt lat="44.087926515488114" lon="10.761483190855815"><ele>566.0</ele><time>2026-04-26T09:53:46.001Z</time></trkpt><trkpt lat="44.08778291638028" lon="10.76162131751451"><ele>568.0</ele><time>2026-04-26T09:53:47.001Z</time></trkpt><trkpt lat="44.08764450165875" lon="10.761768262404917"><ele>565.6666666666667</ele><time>2026-04-26T09:53:48.001Z</time></trkpt><trkpt lat="44.08750963771489" lon="10.76191343662271"><ele>563.3333333333334</ele><time>2026-04-26T09:53:49.001Z</time></trkpt><trkpt lat="44.08737496383395" lon="10.762049931371509"><ele>561.0</ele><time>2026-04-26T09:53:50.001Z</time></trkpt><trkpt lat="44.08724505561534" lon="10.762179992343242"><ele>561.0</ele><time>2026-04-26T09:53:51.001Z</time></trkpt><trkpt lat="44.08711753440201" lon="10.762299308919621"><ele>561.0</ele><time>2026-04-26T09:53:52.001Z</time></trkpt><trkpt lat="44.086970758768835" lon="10.76238821763809"><ele>561.0</ele><time>2026-04-26T09:53:53.001Z</time></trkpt><trkpt lat="44.08683743860235" lon="10.762471560786468"><ele>561.0</ele><time>2026-04-26T09:53:54.001Z</time></trkpt><trkpt lat="44.086717753305706" lon="10.762565815756764"><ele>561.0</ele><time>2026-04-26T09:53:55.001Z</time></trkpt><trkpt lat="44.08659176071532" lon="10.762636671177352"><ele>561.0</ele><time>2026-04-26T09:53:56.001Z</time></trkpt><trkpt lat="44.08646750532637" lon="10.762711770422897"><ele>561.0</ele><time>2026-04-26T09:53:57.001Z</time></trkpt><trkpt lat="44.086334507093966" lon="10.762790612266814"><ele>557.75</ele><time>2026-04-26T09:53:58.001Z</time></trkpt><trkpt lat="44.08620571855275" lon="10.76287243103059"><ele>554.5</ele><time>2026-04-26T09:53:59.001Z</time></trkpt><trkpt lat="44.08607477969286" lon="10.76295343019048"><ele>551.25</ele><time>2026-04-26T09:54:00.001Z</time></trkpt><trkpt lat="44.08594769388815" lon="10.763030740869619"><ele>548.0</ele><time>2026-04-26T09:54:01.001Z</time></trkpt><trkpt lat="44.085826968934036" lon="10.763099586996974"><ele>552.5</ele><time>2026-04-26T09:54:02.001Z</time></trkpt><trkpt lat="44.08570386382162" lon="10.763159186180351"><ele>557.0</ele><time>2026-04-26T09:54:03.001Z</time></trkpt><trkpt lat="44.085577449930305" lon="10.763203981914915"><ele>561.5</ele><time>2026-04-26T09:54:04.001Z</time></trkpt><trkpt lat="44.08544548731369" lon="10.763236839471508"><ele>566.0</ele><time>2026-04-26T09:54:05.001Z</time></trkpt><trkpt lat="44.08530286814926" lon="10.76326020549885"><ele>566.0</ele><time>2026-04-26T09:54:06.001Z</time></trkpt><trkpt lat="44.08514041423363" lon="10.763279012673745"><ele>566.0</ele><time>2026-04-26T09:54:07.001Z</time></trkpt><trkpt lat="44.08496243976125" lon="10.763301067768058"><ele>566.0</ele><time>2026-04-26T09:54:08.001Z</time></trkpt><trkpt lat="44.08478364335875" lon="10.763321595894201"><ele>569.6666666666666</ele><time>2026-04-26T09:54:09.001Z</time></trkpt><trkpt lat="44.08460591697038" lon="10.763365837391929"><ele>573.3333333333334</ele><time>2026-04-26T09:54:10.001Z</time></trkpt><trkpt lat="44.084433649278594" lon="10.763419839376281"><ele>577.0</ele><time>2026-04-26T09:54:11.001Z</time></trkpt><trkpt lat="44.08426969130734" lon="10.763477090176238"><ele>577.0</ele><time>2026-04-26T09:54:12.001Z</time></trkpt><trkpt lat="44.08410798710159" lon="10.763517267851546"><ele>577.0</ele><time>2026-04-26T09:54:13.001Z</time></trkpt><trkpt lat="44.083954283277905" lon="10.763553016752189"><ele>577.0</ele><time>2026-04-26T09:54:14.001Z</time></trkpt><trkpt lat="44.08381936854907" lon="10.763608826841446"><ele>573.3333333333334</ele><time>2026-04-26T09:54:15.001Z</time></trkpt><trkpt lat="44.08365857410382" lon="10.763659783271503"><ele>569.6666666666666</ele><time>2026-04-26T09:54:16.001Z</time></trkpt><trkpt lat="44.08354203665309" lon="10.763830014055898"><ele>566.0</ele><time>2026-04-26T09:54:17.001Z</time></trkpt><trkpt lat="44.083471154697314" lon="10.764065311572592"><ele>566.0</ele><time>2026-04-26T09:54:18.001Z</time></trkpt><trkpt lat="44.083358778243685" lon="10.764251470888002"><ele>566.0</ele><time>2026-04-26T09:54:19.001Z</time></trkpt><trkpt lat="44.08326355872472" lon="10.764457040628496"><ele>566.0</ele><time>2026-04-26T09:54:20.001Z</time></trkpt><trkpt lat="44.083180640133094" lon="10.764675873405428"><ele>571.3333333333333</ele><time>2026-04-26T09:54:21.001Z</time></trkpt><trkpt lat="44.083096034689866" lon="10.764856787030675"><ele>576.6666666666666</ele><time>2026-04-26T09:54:22.001Z</time></trkpt><trkpt lat="44.08300955060278" lon="10.765035098375577"><ele>582.0</ele><time>2026-04-26T09:54:23.001Z</time></trkpt><trkpt lat="44.08291773036831" lon="10.765194266442842"><ele>571.3333333333334</ele><time>2026-04-26T09:54:24.001Z</time></trkpt><trkpt lat="44.08280479313026" lon="10.76533873052919"><ele>560.6666666666667</ele><time>2026-04-26T09:54:25.001Z</time></trkpt><trkpt lat="44.08267048459347" lon="10.765448753126073"><ele>550.0</ele><time>2026-04-26T09:54:26.001Z</time></trkpt><trkpt lat="44.08255550632533" lon="10.765574137197111"><ele>550.5</ele><time>2026-04-26T09:54:27.001Z</time></trkpt><trkpt lat="44.08242328330859" lon="10.765651748033044"><ele>551.0</ele><time>2026-04-26T09:54:28.001Z</time></trkpt><trkpt lat="44.08228129196404" lon="10.765681940276782"><ele>551.5</ele><time>2026-04-26T09:54:29.001Z</time></trkpt><trkpt lat="44.08214899941163" lon="10.765709143011703"><ele>552.0</ele><time>2026-04-26T09:54:30.001Z</time></trkpt><trkpt lat="44.08202800582153" lon="10.765685049353106"><ele>552.0</ele><time>2026-04-26T09:54:31.001Z</time></trkpt><trkpt lat="44.081900297103005" lon="10.765628268121382"><ele>552.0</ele><time>2026-04-26T09:54:32.001Z</time></trkpt><trkpt lat="44.081761983647304" lon="10.76559406515307"><ele>552.0</ele><time>2026-04-26T09:54:33.001Z</time></trkpt><trkpt lat="44.08160352129747" lon="10.7656035358255"><ele>552.0</ele><time>2026-04-26T09:54:34.001Z</time></trkpt><trkpt lat="44.081437604499314" lon="10.765653816401365"><ele>556.0</ele><time>2026-04-26T09:54:35.001Z</time></trkpt><trkpt lat="44.081275446945725" lon="10.765692687132622"><ele>560.0</ele><time>2026-04-26T09:54:36.001Z</time></trkpt><trkpt lat="44.08112376508226" lon="10.765752951269926"><ele>564.0</ele><time>2026-04-26T09:54:37.001Z</time></trkpt><trkpt lat="44.08097126168858" lon="10.765849824704013"><ele>564.0</ele><time>2026-04-26T09:54:38.001Z</time></trkpt><trkpt lat="44.08082005070959" lon="10.765991783725275"><ele>564.0</ele><time>2026-04-26T09:54:39.001Z</time></trkpt><trkpt lat="44.08067308970788" lon="10.766149116374567"><ele>564.0</ele><time>2026-04-26T09:54:40.001Z</time></trkpt><trkpt lat="44.080534494042226" lon="10.766317972542293"><ele>561.6666666666666</ele><time>2026-04-26T09:54:41.001Z</time></trkpt><trkpt lat="44.0803929258023" lon="10.766472501537246"><ele>559.3333333333333</ele><time>2026-04-26T09:54:42.001Z</time></trkpt><trkpt lat="44.0802573491096" lon="10.766623263884275"><ele>557.0</ele><time>2026-04-26T09:54:43.001Z</time></trkpt><trkpt lat="44.08012032137195" lon="10.766772758280357"><ele>545.0</ele><time>2026-04-26T09:54:44.001Z</time></trkpt><trkpt lat="44.079985415554084" lon="10.766915467898357"><ele>533.0</ele><time>2026-04-26T09:54:45.001Z</time></trkpt><trkpt lat="44.0798454592479" lon="10.767037390959079"><ele>521.0</ele><time>2026-04-26T09:54:46.001Z</time></trkpt><trkpt lat="44.07971059860078" lon="10.767146653632539"><ele>521.0</ele><time>2026-04-26T09:54:47Z</time></trkpt><trkpt lat="44.079578687295495" lon="10.767249549949266"><ele>521.0</ele><time>2026-04-26T09:54:48Z</time></trkpt><trkpt lat="44.07945629506228" lon="10.767349952242082"><ele>521.0</ele><time>2026-04-26T09:54:49Z</time></trkpt><trkpt lat="44.07933443623338" lon="10.767449764875295"><ele>521.0</ele><time>2026-04-26T09:54:50Z</time></trkpt><trkpt lat="44.0792267116522" lon="10.767538113931556"><ele>521.0</ele><time>2026-04-26T09:54:51Z</time></trkpt><trkpt lat="44.07911742805556" lon="10.767625191069028"><ele>521.0</ele><time>2026-04-26T09:54:52Z</time></trkpt><trkpt lat="44.079002154483035" lon="10.767668753902326"><ele>521.0</ele><time>2026-04-26T09:54:53Z</time></trkpt><trkpt lat="44.078876495147895" lon="10.76762017118422"><ele>521.0</ele><time>2026-04-26T09:54:54Z</time></trkpt><trkpt lat="44.07873591137473" lon="10.767552618318971"><ele>520.6666666666666</ele><time>2026-04-26T09:54:55Z</time></trkpt><trkpt lat="44.07858065790026" lon="10.76750932707674"><ele>520.3333333333334</ele><time>2026-04-26T09:54:56Z</time></trkpt><trkpt lat="44.078419324553145" lon="10.767436075818695"><ele>520.0</ele><time>2026-04-26T09:54:57Z</time></trkpt><trkpt lat="44.07824105642964" lon="10.767390957790377"><ele>519.6666666666667</ele><time>2026-04-26T09:54:58Z</time></trkpt><trkpt lat="44.07805344944613" lon="10.767350608572379"><ele>519.3333333333334</ele><time>2026-04-26T09:54:59Z</time></trkpt><trkpt lat="44.07787076473367" lon="10.767298513159023"><ele>519.0</ele><time>2026-04-26T09:55:00Z</time></trkpt><trkpt lat="44.07768517620929" lon="10.767271851392183"><ele>519.0</ele><time>2026-04-26T09:55:01Z</time></trkpt><trkpt lat="44.07749342777679" lon="10.767304270860752"><ele>519.0</ele><time>2026-04-26T09:55:02Z</time></trkpt><trkpt lat="44.07727789593928" lon="10.767389454984954"><ele>519.0</ele><time>2026-04-26T09:55:03Z</time></trkpt><trkpt lat="44.07704604620797" lon="10.767435145036384"><ele>522.5</ele><time>2026-04-26T09:55:04Z</time></trkpt><trkpt lat="44.07681824018515" lon="10.767493986714188"><ele>526.0</ele><time>2026-04-26T09:55:05Z</time></trkpt><trkpt lat="44.076600081122066" lon="10.767534585186812"><ele>526.0</ele><time>2026-04-26T09:55:06Z</time></trkpt><trkpt lat="44.07639136668092" lon="10.76755247925854"><ele>526.0</ele><time>2026-04-26T09:55:07Z</time></trkpt><trkpt lat="44.07619778822721" lon="10.767589744296858"><ele>526.0</ele><time>2026-04-26T09:55:08Z</time></trkpt><trkpt lat="44.076018117017675" lon="10.767593620976484"><ele>526.0</ele><time>2026-04-26T09:55:09Z</time></trkpt><trkpt lat="44.07584973436705" lon="10.767617606118103"><ele>526.0</ele><time>2026-04-26T09:55:10Z</time></trkpt><trkpt lat="44.07568608775287" lon="10.767599793468506"><ele>526.0</ele><time>2026-04-26T09:55:11Z</time></trkpt><trkpt lat="44.07552942650652" lon="10.767550173837938"><ele>520.6666666666667</ele><time>2026-04-26T09:55:12Z</time></trkpt><trkpt lat="44.07535379810996" lon="10.767472599318106"><ele>515.3333333333334</ele><time>2026-04-26T09:55:13Z</time></trkpt><trkpt lat="44.075179796632504" lon="10.76741518876597"><ele>510.0</ele><time>2026-04-26T09:55:14Z</time></trkpt><trkpt lat="44.07502181545746" lon="10.767348371375997"><ele>507.66666666666663</ele><time>2026-04-26T09:55:15Z</time></trkpt><trkpt lat="44.07486809824069" lon="10.76730005319225"><ele>505.3333333333333</ele><time>2026-04-26T09:55:16Z</time></trkpt><trkpt lat="44.074715359873046" lon="10.767258508222982"><ele>503.0</ele><time>2026-04-26T09:55:17Z</time></trkpt><trkpt lat="44.07456072848169" lon="10.76720096321871"><ele>503.0</ele><time>2026-04-26T09:55:18Z</time></trkpt><trkpt lat="44.07440667875396" lon="10.767162443245132"><ele>503.0</ele><time>2026-04-26T09:55:19Z</time></trkpt><trkpt lat="44.07425886692408" lon="10.76711019939298"><ele>503.0</ele><time>2026-04-26T09:55:20Z</time></trkpt><trkpt lat="44.07411701400447" lon="10.76701585270795"><ele>504.0</ele><time>2026-04-26T09:55:21Z</time></trkpt><trkpt lat="44.07397974885433" lon="10.766894059930948"><ele>505.0</ele><time>2026-04-26T09:55:22Z</time></trkpt><trkpt lat="44.07382694259594" lon="10.766803941566684"><ele>506.0</ele><time>2026-04-26T09:55:23Z</time></trkpt><trkpt lat="44.073665657131855" lon="10.76675906199001"><ele>506.0</ele><time>2026-04-26T09:55:24Z</time></trkpt><trkpt lat="44.07351017078756" lon="10.766736527420521"><ele>506.0</ele><time>2026-04-26T09:55:25Z</time></trkpt><trkpt lat="44.07336596956191" lon="10.76669638250865"><ele>506.0</ele><time>2026-04-26T09:55:26Z</time></trkpt><trkpt lat="44.07323501861964" lon="10.76663850567681"><ele>506.0</ele><time>2026-04-26T09:55:27Z</time></trkpt><trkpt lat="44.07311282587937" lon="10.766572150998995"><ele>503.75</ele><time>2026-04-26T09:55:28Z</time></trkpt><trkpt lat="44.07300495892384" lon="10.766489417263625"><ele>501.5</ele><time>2026-04-26T09:55:29Z</time></trkpt><trkpt lat="44.072941858442356" lon="10.766339990174927"><ele>499.25</ele><time>2026-04-26T09:55:30Z</time></trkpt><trkpt lat="44.07286840294935" lon="10.766173873654454"><ele>497.0</ele><time>2026-04-26T09:55:31Z</time></trkpt><trkpt lat="44.07280674765383" lon="10.765967919891274"><ele>495.66666666666663</ele><time>2026-04-26T09:55:32Z</time></trkpt><trkpt lat="44.07271985980309" lon="10.765790077028363"><ele>494.33333333333337</ele><time>2026-04-26T09:55:33Z</time></trkpt><trkpt lat="44.07261624599585" lon="10.765609637600468"><ele>493.0</ele><time>2026-04-26T09:55:34Z</time></trkpt><trkpt lat="44.0725059445607" lon="10.765424713970338"><ele>491.0</ele><time>2026-04-26T09:55:35Z</time></trkpt><trkpt lat="44.07239763845541" lon="10.76523444030884"><ele>489.0</ele><time>2026-04-26T09:55:36Z</time></trkpt><trkpt lat="44.072297374216596" lon="10.765055679995376"><ele>487.0</ele><time>2026-04-26T09:55:37Z</time></trkpt><trkpt lat="44.07220683501538" lon="10.764889435076979"><ele>487.0</ele><time>2026-04-26T09:55:38Z</time></trkpt><trkpt lat="44.072112355964876" lon="10.764752819367482"><ele>487.0</ele><time>2026-04-26T09:55:39Z</time></trkpt><trkpt lat="44.07199930919121" lon="10.764660130817939"><ele>487.0</ele><time>2026-04-26T09:55:40Z</time></trkpt><trkpt lat="44.07186068562203" lon="10.764630269454639"><ele>487.0</ele><time>2026-04-26T09:55:41Z</time></trkpt><trkpt lat="44.07170899622928" lon="10.764667289790848"><ele>486.5</ele><time>2026-04-26T09:55:42Z</time></trkpt><trkpt lat="44.07155373105638" lon="10.764716842661636"><ele>486.0</ele><time>2026-04-26T09:55:43Z</time></trkpt><trkpt lat="44.07140490452323" lon="10.764744171150458"><ele>485.5</ele><time>2026-04-26T09:55:44Z</time></trkpt><trkpt lat="44.07126924519464" lon="10.764771804619862"><ele>485.0</ele><time>2026-04-26T09:55:45.001Z</time></trkpt><trkpt lat="44.07115548850745" lon="10.764797377314537"><ele>485.0</ele><time>2026-04-26T09:55:46.001Z</time></trkpt><trkpt lat="44.071047581462786" lon="10.764874457503186"><ele>485.0</ele><time>2026-04-26T09:55:47.001Z</time></trkpt><trkpt lat="44.070952793617344" lon="10.764994464963134"><ele>485.0</ele><time>2026-04-26T09:55:48.001Z</time></trkpt><trkpt lat="44.07086577630029" lon="10.765151756967803"><ele>485.0</ele><time>2026-04-26T09:55:49.001Z</time></trkpt><trkpt lat="44.07078690284727" lon="10.765302257127141"><ele>484.2</ele><time>2026-04-26T09:55:50.001Z</time></trkpt><trkpt lat="44.07071065752981" lon="10.765428796858663"><ele>483.4</ele><time>2026-04-26T09:55:51.001Z</time></trkpt><trkpt lat="44.07063558696572" lon="10.765543402553893"><ele>482.6</ele><time>2026-04-26T09:55:52.001Z</time></trkpt><trkpt lat="44.07056554630122" lon="10.765640083507684"><ele>481.8</ele><time>2026-04-26T09:55:53.001Z</time></trkpt><trkpt lat="44.0704828185268" lon="10.765702184841002"><ele>481.0</ele><time>2026-04-26T09:55:54.001Z</time></trkpt><trkpt lat="44.0703929512919" lon="10.765703314316998"><ele>481.0</ele><time>2026-04-26T09:55:55.001Z</time></trkpt><trkpt lat="44.070305889832774" lon="10.765610635000348"><ele>481.0</ele><time>2026-04-26T09:55:56.001Z</time></trkpt><trkpt lat="44.0701864641526" lon="10.765553270874022"><ele>481.0</ele><time>2026-04-26T09:55:57.001Z</time></trkpt><trkpt lat="44.070052508812765" lon="10.765487877248052"><ele>481.0</ele><time>2026-04-26T09:55:58.001Z</time></trkpt><trkpt lat="44.069906001896506" lon="10.765447299989543"><ele>479.6666666666667</ele><time>2026-04-26T09:55:59.001Z</time></trkpt><trkpt lat="44.069756309197494" lon="10.765404452640437"><ele>478.33333333333337</ele><time>2026-04-26T09:56:00.001Z</time></trkpt><trkpt lat="44.06960546747039" lon="10.765331750839682"><ele>477.0</ele><time>2026-04-26T09:56:01.001Z</time></trkpt><trkpt lat="44.069455826845434" lon="10.765256060332842"><ele>481.0</ele><time>2026-04-26T09:56:02.001Z</time></trkpt><trkpt lat="44.069306467574314" lon="10.765186524566126"><ele>485.0</ele><time>2026-04-26T09:56:03.001Z</time></trkpt><trkpt lat="44.06918697255645" lon="10.765098958696102"><ele>489.0</ele><time>2026-04-26T09:56:04.001Z</time></trkpt><trkpt lat="44.06905207332559" lon="10.765033335171369"><ele>493.0</ele><time>2026-04-26T09:56:05.001Z</time></trkpt><trkpt lat="44.0689056740998" lon="10.765009234001479"><ele>493.0</ele><time>2026-04-26T09:56:06.001Z</time></trkpt><trkpt lat="44.06875474752432" lon="10.765023257362074"><ele>493.0</ele><time>2026-04-26T09:56:07.001Z</time></trkpt><trkpt lat="44.06860680963561" lon="10.765067804366975"><ele>493.0</ele><time>2026-04-26T09:56:08.001Z</time></trkpt><trkpt lat="44.06846229404605" lon="10.765111620411412"><ele>493.0</ele><time>2026-04-26T09:56:09.001Z</time></trkpt><trkpt lat="44.06831876160317" lon="10.765101786470455"><ele>493.0</ele><time>2026-04-26T09:56:10.001Z</time></trkpt><trkpt lat="44.06818323597177" lon="10.765090770324765"><ele>493.0</ele><time>2026-04-26T09:56:11.001Z</time></trkpt><trkpt lat="44.068037563452016" lon="10.765055655185996"><ele>493.0</ele><time>2026-04-26T09:56:12.001Z</time></trkpt><trkpt lat="44.06788888499053" lon="10.76503532160016"><ele>490.0</ele><time>2026-04-26T09:56:13.001Z</time></trkpt><trkpt lat="44.06774713553809" lon="10.764995740750363"><ele>487.0</ele><time>2026-04-26T09:56:14.001Z</time></trkpt><trkpt lat="44.06759945468345" lon="10.764981607011542"><ele>484.0</ele><time>2026-04-26T09:56:15.001Z</time></trkpt><trkpt lat="44.06744037692254" lon="10.764978686434015"><ele>484.0</ele><time>2026-04-26T09:56:16.001Z</time></trkpt><trkpt lat="44.06728009646771" lon="10.764977532533086"><ele>484.0</ele><time>2026-04-26T09:56:17.001Z</time></trkpt><trkpt lat="44.06712073536155" lon="10.764978277496557"><ele>484.0</ele><time>2026-04-26T09:56:18.001Z</time></trkpt><trkpt lat="44.06696678135855" lon="10.764981152572492"><ele>484.0</ele><time>2026-04-26T09:56:19.001Z</time></trkpt><trkpt lat="44.06681179141542" lon="10.764989271547275"><ele>484.0</ele><time>2026-04-26T09:56:20.001Z</time></trkpt><trkpt lat="44.06665945671964" lon="10.764987756144007"><ele>484.0</ele><time>2026-04-26T09:56:21.001Z</time></trkpt><trkpt lat="44.06651432263279" lon="10.764983370116303"><ele>488.25</ele><time>2026-04-26T09:56:22.001Z</time></trkpt><trkpt lat="44.066378578113344" lon="10.764982481444155"><ele>492.5</ele><time>2026-04-26T09:56:23.001Z</time></trkpt><trkpt lat="44.06624740576808" lon="10.764998046726124"><ele>496.75</ele><time>2026-04-26T09:56:24.001Z</time></trkpt><trkpt lat="44.06610774413367" lon="10.76505451629406"><ele>501.0</ele><time>2026-04-26T09:56:25.001Z</time></trkpt><trkpt lat="44.06597186386328" lon="10.765145144572937"><ele>497.5</ele><time>2026-04-26T09:56:26.001Z</time></trkpt><trkpt lat="44.065835532177736" lon="10.765234162847296"><ele>494.0</ele><time>2026-04-26T09:56:27.001Z</time></trkpt><trkpt lat="44.06570424611936" lon="10.765319117246213"><ele>490.5</ele><time>2026-04-26T09:56:28.001Z</time></trkpt><trkpt lat="44.06558268941128" lon="10.765400358651519"><ele>487.0</ele><time>2026-04-26T09:56:29.001Z</time></trkpt><trkpt lat="44.06547309340501" lon="10.765502490681628"><ele>487.0</ele><time>2026-04-26T09:56:30.001Z</time></trkpt><trkpt lat="44.06537696534405" lon="10.76562888006602"><ele>487.0</ele><time>2026-04-26T09:56:31.001Z</time></trkpt><trkpt lat="44.065306498739076" lon="10.765775488465641"><ele>487.0</ele><time>2026-04-26T09:56:32.001Z</time></trkpt><trkpt lat="44.065260793507086" lon="10.765943271099353"><ele>487.0</ele><time>2026-04-26T09:56:33.001Z</time></trkpt><trkpt lat="44.06524570646022" lon="10.766115261331192"><ele>481.40000000000003</ele><time>2026-04-26T09:56:34.001Z</time></trkpt><trkpt lat="44.06523543364136" lon="10.766279192203616"><ele>475.80000000000007</ele><time>2026-04-26T09:56:35.001Z</time></trkpt><trkpt lat="44.06520489407512" lon="10.76640673994683"><ele>470.2</ele><time>2026-04-26T09:56:36.001Z</time></trkpt><trkpt lat="44.0651563476997" lon="10.766500163165384"><ele>464.6</ele><time>2026-04-26T09:56:37.001Z</time></trkpt><trkpt lat="44.06508108140362" lon="10.76658321543684"><ele>459.0</ele><time>2026-04-26T09:56:38.001Z</time></trkpt><trkpt lat="44.064969307715856" lon="10.766563041395502"><ele>458.25</ele><time>2026-04-26T09:56:39.001Z</time></trkpt><trkpt lat="44.06484924490936" lon="10.766582009946621"><ele>457.5</ele><time>2026-04-26T09:56:40.001Z</time></trkpt><trkpt lat="44.064730353299595" lon="10.766573965108547"><ele>456.75</ele><time>2026-04-26T09:56:41.001Z</time></trkpt><trkpt lat="44.06461607464871" lon="10.766578721745983"><ele>456.0</ele><time>2026-04-26T09:56:42.001Z</time></trkpt><trkpt lat="44.06451175696572" lon="10.766589620129787"><ele>456.0</ele><time>2026-04-26T09:56:43.001Z</time></trkpt><trkpt lat="44.064417650537635" lon="10.766590568169146"><ele>456.0</ele><time>2026-04-26T09:56:44.001Z</time></trkpt><trkpt lat="44.06434733307141" lon="10.76659019720571"><ele>456.0</ele><time>2026-04-26T09:56:45.001Z</time></trkpt><trkpt lat="44.064259266663555" lon="10.766498060315039"><ele>456.0</ele><time>2026-04-26T09:56:47.001Z</time></trkpt><trkpt lat="44.064222371713555" lon="10.766369542762838"><ele>456.0</ele><time>2026-04-26T09:56:48.001Z</time></trkpt><trkpt lat="44.06419128246581" lon="10.766224095706622"><ele>456.0</ele><time>2026-04-26T09:56:49.001Z</time></trkpt><trkpt lat="44.06413864839167" lon="10.766087673814114"><ele>456.0</ele><time>2026-04-26T09:56:50.001Z</time></trkpt><trkpt lat="44.06407154143496" lon="10.765937072965915"><ele>456.0</ele><time>2026-04-26T09:56:51.001Z</time></trkpt><trkpt lat="44.06400482128156" lon="10.76579502927169"><ele>456.0</ele><time>2026-04-26T09:56:52.001Z</time></trkpt><trkpt lat="44.06393496911643" lon="10.765657403279585"><ele>454.6</ele><time>2026-04-26T09:56:53Z</time></trkpt><trkpt lat="44.063865035663184" lon="10.765530071277759"><ele>453.20000000000005</ele><time>2026-04-26T09:56:54Z</time></trkpt><trkpt lat="44.06378424940458" lon="10.765425974975049"><ele>451.79999999999995</ele><time>2026-04-26T09:56:55Z</time></trkpt><trkpt lat="44.06368924796194" lon="10.765348367253768"><ele>450.4</ele><time>2026-04-26T09:56:56Z</time></trkpt><trkpt lat="44.06359309317906" lon="10.76527050245522"><ele>449.0</ele><time>2026-04-26T09:56:57Z</time></trkpt><trkpt lat="44.063489165658396" lon="10.765214334421337"><ele>455.0</ele><time>2026-04-26T09:56:58Z</time></trkpt><trkpt lat="44.0633811391247" lon="10.765175213626907"><ele>461.0</ele><time>2026-04-26T09:56:59Z</time></trkpt><trkpt lat="44.06328537141539" lon="10.765117813325563"><ele>467.0</ele><time>2026-04-26T09:57:00Z</time></trkpt><trkpt lat="44.063232080195995" lon="10.764990745035895"><ele>473.0</ele><time>2026-04-26T09:57:01Z</time></trkpt><trkpt lat="44.063173159135864" lon="10.76486716508055"><ele>479.0</ele><time>2026-04-26T09:57:02Z</time></trkpt><trkpt lat="44.063090103728584" lon="10.764764183312959"><ele>479.0</ele><time>2026-04-26T09:57:03Z</time></trkpt><trkpt lat="44.062977014480055" lon="10.764696236505586"><ele>479.0</ele><time>2026-04-26T09:57:04Z</time></trkpt><trkpt lat="44.06282865545403" lon="10.76467212276095"><ele>479.0</ele><time>2026-04-26T09:57:05Z</time></trkpt><trkpt lat="44.06266520377177" lon="10.764676047073971"><ele>479.0</ele><time>2026-04-26T09:57:06Z</time></trkpt><trkpt lat="44.062490051944906" lon="10.764663791316439"><ele>481.5</ele><time>2026-04-26T09:57:07Z</time></trkpt><trkpt lat="44.062325298065666" lon="10.764660404316741"><ele>484.0</ele><time>2026-04-26T09:57:08Z</time></trkpt><trkpt lat="44.062187318315296" lon="10.764663954026002"><ele>486.5</ele><time>2026-04-26T09:57:09Z</time></trkpt><trkpt lat="44.06206275137462" lon="10.764657348484388"><ele>489.0</ele><time>2026-04-26T09:57:10Z</time></trkpt><trkpt lat="44.06194952264934" lon="10.764684480675575"><ele>489.0</ele><time>2026-04-26T09:57:11Z</time></trkpt><trkpt lat="44.061849293865734" lon="10.764748752867233"><ele>489.0</ele><time>2026-04-26T09:57:12Z</time></trkpt><trkpt lat="44.06178067493547" lon="10.764865042827061"><ele>489.0</ele><time>2026-04-26T09:57:13Z</time></trkpt><trkpt lat="44.06174208871605" lon="10.765007641221928"><ele>489.0</ele><time>2026-04-26T09:57:14Z</time></trkpt><trkpt lat="44.06171203155461" lon="10.765151404814087"><ele>489.0</ele><time>2026-04-26T09:57:15Z</time></trkpt><trkpt lat="44.06162683338128" lon="10.765237594530474"><ele>482.25</ele><time>2026-04-26T09:57:16Z</time></trkpt><trkpt lat="44.06152730505654" lon="10.765308660155169"><ele>475.5</ele><time>2026-04-26T09:57:17Z</time></trkpt><trkpt lat="44.061398474113645" lon="10.765281883455794"><ele>468.75</ele><time>2026-04-26T09:57:18Z</time></trkpt><trkpt lat="44.06125914875174" lon="10.765290981200547"><ele>462.0</ele><time>2026-04-26T09:57:19Z</time></trkpt><trkpt lat="44.06112501038526" lon="10.765311257609307"><ele>462.0</ele><time>2026-04-26T09:57:20Z</time></trkpt><trkpt lat="44.060990197405346" lon="10.765303128683737"><ele>462.0</ele><time>2026-04-26T09:57:21Z</time></trkpt><trkpt lat="44.06086917038522" lon="10.765293262627253"><ele>462.0</ele><time>2026-04-26T09:57:22Z</time></trkpt><trkpt lat="44.06076471183581" lon="10.765275743683564"><ele>462.0</ele><time>2026-04-26T09:57:23Z</time></trkpt><trkpt lat="44.060678376347646" lon="10.765201086874342"><ele>465.25</ele><time>2026-04-26T09:57:24Z</time></trkpt><trkpt lat="44.0605957286519" lon="10.765082776179156"><ele>468.5</ele><time>2026-04-26T09:57:25Z</time></trkpt><trkpt lat="44.06052230137345" lon="10.764929229197731"><ele>471.75</ele><time>2026-04-26T09:57:26Z</time></trkpt><trkpt lat="44.06046344820327" lon="10.764756119007263"><ele>475.0</ele><time>2026-04-26T09:57:27Z</time></trkpt><trkpt lat="44.060404730544604" lon="10.76459892396565"><ele>475.0</ele><time>2026-04-26T09:57:28Z</time></trkpt><trkpt lat="44.060384699845386" lon="10.7644466834465"><ele>475.0</ele><time>2026-04-26T09:57:29Z</time></trkpt><trkpt lat="44.06034119229359" lon="10.764322793741714"><ele>475.0</ele><time>2026-04-26T09:57:30Z</time></trkpt><trkpt lat="44.060257411238155" lon="10.764258654824683"><ele>475.0</ele><time>2026-04-26T09:57:31Z</time></trkpt><trkpt lat="44.060137859775615" lon="10.764256477784002"><ele>475.0</ele><time>2026-04-26T09:57:32Z</time></trkpt><trkpt lat="44.06001551727631" lon="10.764313054429572"><ele>474.75</ele><time>2026-04-26T09:57:33Z</time></trkpt><trkpt lat="44.05990616839619" lon="10.76440133634338"><ele>474.5</ele><time>2026-04-26T09:57:34Z</time></trkpt><trkpt lat="44.059796642826086" lon="10.764498331791968"><ele>474.25</ele><time>2026-04-26T09:57:35Z</time></trkpt><trkpt lat="44.059707115710154" lon="10.764572036146415"><ele>474.0</ele><time>2026-04-26T09:57:36Z</time></trkpt><trkpt lat="44.05961181447789" lon="10.764573814351323"><ele>474.0</ele><time>2026-04-26T09:57:37Z</time></trkpt><trkpt lat="44.059514413081885" lon="10.764578763747375"><ele>474.0</ele><time>2026-04-26T09:57:38Z</time></trkpt><trkpt lat="44.05941531558762" lon="10.764553652020522"><ele>474.0</ele><time>2026-04-26T09:57:39Z</time></trkpt><trkpt lat="44.059330329126645" lon="10.764525757446942"><ele>474.0</ele><time>2026-04-26T09:57:40Z</time></trkpt><trkpt lat="44.059257781040515" lon="10.76451451494663"><ele>474.0</ele><time>2026-04-26T09:57:41Z</time></trkpt><trkpt lat="44.05919220610592" lon="10.76451221153235"><ele>474.0</ele><time>2026-04-26T09:57:42Z</time></trkpt><trkpt lat="44.05909849077163" lon="10.764503053671676"><ele>472.6</ele><time>2026-04-26T09:57:44Z</time></trkpt><trkpt lat="44.05903472543644" lon="10.764493684623558"><ele>471.2</ele><time>2026-04-26T09:57:47Z</time></trkpt><trkpt lat="44.05895114292184" lon="10.764495121168732"><ele>469.80000000000007</ele><time>2026-04-26T09:59:05Z</time></trkpt><trkpt lat="44.05882199151512" lon="10.764423247085485"><ele>468.40000000000003</ele><time>2026-04-26T09:59:07Z</time></trkpt><trkpt lat="44.058744408373656" lon="10.764346810808727"><ele>467.0</ele><time>2026-04-26T09:59:08Z</time></trkpt><trkpt lat="44.05866488691447" lon="10.764251337301877"><ele>473.5</ele><time>2026-04-26T09:59:09Z</time></trkpt><trkpt lat="44.05857225455534" lon="10.76417181614849"><ele>480.0</ele><time>2026-04-26T09:59:10Z</time></trkpt><trkpt lat="44.05845284347651" lon="10.76414819942024"><ele>486.5</ele><time>2026-04-26T09:59:11Z</time></trkpt><trkpt lat="44.05833401555987" lon="10.764192527581073"><ele>493.0</ele><time>2026-04-26T09:59:12Z</time></trkpt><trkpt lat="44.05822666192584" lon="10.764279941407024"><ele>494.0</ele><time>2026-04-26T09:59:13Z</time></trkpt><trkpt lat="44.05811434306171" lon="10.764348430126176"><ele>495.0</ele><time>2026-04-26T09:59:14Z</time></trkpt><trkpt lat="44.05800433777555" lon="10.764386326060162"><ele>496.0</ele><time>2026-04-26T09:59:15Z</time></trkpt><trkpt lat="44.05787986029724" lon="10.76441057016445"><ele>497.0</ele><time>2026-04-26T09:59:16Z</time></trkpt><trkpt lat="44.05775143162455" lon="10.764390219922655"><ele>497.0</ele><time>2026-04-26T09:59:17Z</time></trkpt><trkpt lat="44.05762108179393" lon="10.764379240646823"><ele>497.0</ele><time>2026-04-26T09:59:18Z</time></trkpt><trkpt lat="44.057506856107025" lon="10.764343617619462"><ele>497.0</ele><time>2026-04-26T09:59:19Z</time></trkpt><trkpt lat="44.057404291233304" lon="10.764267513948091"><ele>497.0</ele><time>2026-04-26T09:59:20Z</time></trkpt><trkpt lat="44.05730352605651" lon="10.764166544086416"><ele>495.25</ele><time>2026-04-26T09:59:21Z</time></trkpt><trkpt lat="44.05718919021433" lon="10.764081410539653"><ele>493.5</ele><time>2026-04-26T09:59:22Z</time></trkpt><trkpt lat="44.05709758591587" lon="10.763987684521085"><ele>491.75</ele><time>2026-04-26T09:59:23Z</time></trkpt><trkpt lat="44.05699697146299" lon="10.763940151741512"><ele>490.0</ele><time>2026-04-26T09:59:24Z</time></trkpt><trkpt lat="44.05687464025784" lon="10.763939863399552"><ele>490.0</ele><time>2026-04-26T09:59:25Z</time></trkpt><trkpt lat="44.05675600254671" lon="10.763984763592118"><ele>490.0</ele><time>2026-04-26T09:59:26Z</time></trkpt><trkpt lat="44.05664772722533" lon="10.76409805856191"><ele>490.0</ele><time>2026-04-26T09:59:27Z</time></trkpt><trkpt lat="44.05655504040798" lon="10.764181457283122"><ele>490.0</ele><time>2026-04-26T09:59:28Z</time></trkpt><trkpt lat="44.05645537168313" lon="10.764206835101298"><ele>489.0</ele><time>2026-04-26T09:59:29Z</time></trkpt><trkpt lat="44.05634950754428" lon="10.764134140384202"><ele>488.0</ele><time>2026-04-26T09:59:30Z</time></trkpt><trkpt lat="44.05625146235578" lon="10.764011105707405"><ele>487.0</ele><time>2026-04-26T09:59:31Z</time></trkpt><trkpt lat="44.05614753925981" lon="10.763925182421486"><ele>486.0</ele><time>2026-04-26T09:59:32Z</time></trkpt><trkpt lat="44.05601727320136" lon="10.763851522474305"><ele>486.0</ele><time>2026-04-26T09:59:33Z</time></trkpt><trkpt lat="44.055878089917535" lon="10.763853706096327"><ele>486.0</ele><time>2026-04-26T09:59:34Z</time></trkpt><trkpt lat="44.05573260146233" lon="10.763902351116508"><ele>486.0</ele><time>2026-04-26T09:59:35Z</time></trkpt><trkpt lat="44.0555896858525" lon="10.763997207467474"><ele>486.0</ele><time>2026-04-26T09:59:36Z</time></trkpt><trkpt lat="44.0554414294239" lon="10.764115044508188"><ele>489.0</ele><time>2026-04-26T09:59:37Z</time></trkpt><trkpt lat="44.05527204991544" lon="10.764210396392821"><ele>492.0</ele><time>2026-04-26T09:59:38Z</time></trkpt><trkpt lat="44.05510325048795" lon="10.764291940031026"><ele>495.0</ele><time>2026-04-26T09:59:39Z</time></trkpt><trkpt lat="44.05494155414179" lon="10.764363683592741"><ele>487.0</ele><time>2026-04-26T09:59:40Z</time></trkpt><trkpt lat="44.05479413398051" lon="10.764426786657339"><ele>479.0</ele><time>2026-04-26T09:59:41Z</time></trkpt><trkpt lat="44.0546674566628" lon="10.764483389812208"><ele>471.0</ele><time>2026-04-26T09:59:42Z</time></trkpt><trkpt lat="44.05454197125271" lon="10.764539245148256"><ele>463.0</ele><time>2026-04-26T09:59:43Z</time></trkpt><trkpt lat="44.05441893571542" lon="10.764550911771364"><ele>463.0</ele><time>2026-04-26T09:59:44.001Z</time></trkpt><trkpt lat="44.05429092788623" lon="10.764499906014072"><ele>463.0</ele><time>2026-04-26T09:59:45.001Z</time></trkpt><trkpt lat="44.054140122963666" lon="10.764479291112888"><ele>463.0</ele><time>2026-04-26T09:59:46.001Z</time></trkpt><trkpt lat="44.05398106373649" lon="10.764463677622201"><ele>463.0</ele><time>2026-04-26T09:59:47.001Z</time></trkpt><trkpt lat="44.05381861719469" lon="10.764463284757595"><ele>462.0</ele><time>2026-04-26T09:59:48.001Z</time></trkpt><trkpt lat="44.0536625135646" lon="10.764456180826128"><ele>461.0</ele><time>2026-04-26T09:59:49.001Z</time></trkpt><trkpt lat="44.053515271774316" lon="10.764446249985792"><ele>460.0</ele><time>2026-04-26T09:59:50.001Z</time></trkpt><trkpt lat="44.05339140672917" lon="10.764372380159287"><ele>459.0</ele><time>2026-04-26T09:59:51.001Z</time></trkpt><trkpt lat="44.053268454433145" lon="10.764288655115893"><ele>467.33333333333337</ele><time>2026-04-26T09:59:52.001Z</time></trkpt><trkpt lat="44.05313902480451" lon="10.764175809227206"><ele>475.6666666666667</ele><time>2026-04-26T09:59:53.001Z</time></trkpt><trkpt lat="44.052993699423176" lon="10.764085526351073"><ele>484.0</ele><time>2026-04-26T09:59:54.001Z</time></trkpt><trkpt lat="44.052838778715525" lon="10.764016456854606"><ele>484.0</ele><time>2026-04-26T09:59:55.001Z</time></trkpt><trkpt lat="44.05267921989947" lon="10.763973903339952"><ele>484.0</ele><time>2026-04-26T09:59:56.001Z</time></trkpt><trkpt lat="44.05251798234805" lon="10.76391112430846"><ele>484.0</ele><time>2026-04-26T09:59:57.001Z</time></trkpt><trkpt lat="44.05236739243717" lon="10.763797301250031"><ele>479.33333333333337</ele><time>2026-04-26T09:59:58.001Z</time></trkpt><trkpt lat="44.0522018903742" lon="10.763724863991346"><ele>474.66666666666663</ele><time>2026-04-26T09:59:59.001Z</time></trkpt><trkpt lat="44.05203375078035" lon="10.763661728619647"><ele>470.0</ele><time>2026-04-26T10:00:00.001Z</time></trkpt><trkpt lat="44.05186330609876" lon="10.763633117394136"><ele>470.0</ele><time>2026-04-26T10:00:01.001Z</time></trkpt><trkpt lat="44.05169892571364" lon="10.763614661900254"><ele>470.0</ele><time>2026-04-26T10:00:02.001Z</time></trkpt><trkpt lat="44.051545795402085" lon="10.763544201562548"><ele>470.0</ele><time>2026-04-26T10:00:03.001Z</time></trkpt><trkpt lat="44.05140876919697" lon="10.763458707363972"><ele>475.0</ele><time>2026-04-26T10:00:04.001Z</time></trkpt><trkpt lat="44.05128845843481" lon="10.763417673063321"><ele>480.0</ele><time>2026-04-26T10:00:05.001Z</time></trkpt><trkpt lat="44.051160756420394" lon="10.763353961875918"><ele>485.0</ele><time>2026-04-26T10:00:06.001Z</time></trkpt><trkpt lat="44.05105422179466" lon="10.763308983585189"><ele>490.0</ele><time>2026-04-26T10:00:07.001Z</time></trkpt><trkpt lat="44.0509512559969" lon="10.763285399840997"><ele>490.0</ele><time>2026-04-26T10:00:08.001Z</time></trkpt><trkpt lat="44.0508620210454" lon="10.763221876665938"><ele>490.0</ele><time>2026-04-26T10:00:09.001Z</time></trkpt><trkpt lat="44.05081190742447" lon="10.763072909434843"><ele>490.0</ele><time>2026-04-26T10:00:10.001Z</time></trkpt><trkpt lat="44.05075234340838" lon="10.762908125154475"><ele>490.0</ele><time>2026-04-26T10:00:11.001Z</time></trkpt><trkpt lat="44.05068380316946" lon="10.762733922086374"><ele>487.33333333333337</ele><time>2026-04-26T10:00:12.001Z</time></trkpt><trkpt lat="44.05061137544153" lon="10.762543868161632"><ele>484.66666666666663</ele><time>2026-04-26T10:00:13.001Z</time></trkpt><trkpt lat="44.05052366811979" lon="10.762350661189194"><ele>482.0</ele><time>2026-04-26T10:00:14.001Z</time></trkpt><trkpt lat="44.05040870059024" lon="10.762195718074034"><ele>482.0</ele><time>2026-04-26T10:00:15.001Z</time></trkpt><trkpt lat="44.05026184515348" lon="10.76207593011802"><ele>482.0</ele><time>2026-04-26T10:00:16.001Z</time></trkpt><trkpt lat="44.05009342559002" lon="10.761969357213745"><ele>482.0</ele><time>2026-04-26T10:00:17.001Z</time></trkpt><trkpt lat="44.04995164702067" lon="10.761828883510473"><ele>478.0</ele><time>2026-04-26T10:00:18.001Z</time></trkpt><trkpt lat="44.04981478676947" lon="10.761704446723071"><ele>474.0</ele><time>2026-04-26T10:00:19.001Z</time></trkpt><trkpt lat="44.049690480621116" lon="10.761570340796151"><ele>470.0</ele><time>2026-04-26T10:00:20.001Z</time></trkpt><trkpt lat="44.04957999289353" lon="10.761446800837017"><ele>470.0</ele><time>2026-04-26T10:00:21.001Z</time></trkpt><trkpt lat="44.04948765310823" lon="10.761320956235094"><ele>470.0</ele><time>2026-04-26T10:00:22.001Z</time></trkpt><trkpt lat="44.0494243997349" lon="10.761167586933677"><ele>470.0</ele><time>2026-04-26T10:00:23.001Z</time></trkpt><trkpt lat="44.049387061677166" lon="10.760994070871144"><ele>470.0</ele><time>2026-04-26T10:00:24.001Z</time></trkpt><trkpt lat="44.049343482948515" lon="10.760828735283097"><ele>468.25</ele><time>2026-04-26T10:00:25.001Z</time></trkpt><trkpt lat="44.049260219313304" lon="10.760702527601266"><ele>466.5</ele><time>2026-04-26T10:00:26.001Z</time></trkpt><trkpt lat="44.049144995191526" lon="10.76060438387986"><ele>464.75</ele><time>2026-04-26T10:00:27.001Z</time></trkpt><trkpt lat="44.04899955164194" lon="10.760541986089553"><ele>463.0</ele><time>2026-04-26T10:00:28.001Z</time></trkpt><trkpt lat="44.0488390703247" lon="10.760438375921705"><ele>463.0</ele><time>2026-04-26T10:00:29.001Z</time></trkpt><trkpt lat="44.048684869671646" lon="10.760343776991553"><ele>463.0</ele><time>2026-04-26T10:00:30.001Z</time></trkpt><trkpt lat="44.04855437781236" lon="10.760257933955236"><ele>463.0</ele><time>2026-04-26T10:00:31.001Z</time></trkpt><trkpt lat="44.0484555784808" lon="10.760143254174267"><ele>463.0</ele><time>2026-04-26T10:00:32.001Z</time></trkpt><trkpt lat="44.04839610218012" lon="10.759997974667613"><ele>467.25</ele><time>2026-04-26T10:00:33.001Z</time></trkpt><trkpt lat="44.04830530562133" lon="10.759868517034368"><ele>471.5</ele><time>2026-04-26T10:00:34.001Z</time></trkpt><trkpt lat="44.048193454616786" lon="10.75980403564975"><ele>475.75</ele><time>2026-04-26T10:00:35.001Z</time></trkpt><trkpt lat="44.04805958640071" lon="10.759794097305615"><ele>480.0</ele><time>2026-04-26T10:00:36.001Z</time></trkpt><trkpt lat="44.047925731818445" lon="10.75974123501109"><ele>480.0</ele><time>2026-04-26T10:00:37.001Z</time></trkpt><trkpt lat="44.04780182360245" lon="10.759608534820297"><ele>480.0</ele><time>2026-04-26T10:00:38.001Z</time></trkpt><trkpt lat="44.04766253109412" lon="10.759492689041656"><ele>480.0</ele><time>2026-04-26T10:00:39.001Z</time></trkpt><trkpt lat="44.04750485079236" lon="10.759399582450692"><ele>480.25</ele><time>2026-04-26T10:00:40.001Z</time></trkpt><trkpt lat="44.047359996857764" lon="10.759326264549086"><ele>480.5</ele><time>2026-04-26T10:00:41.001Z</time></trkpt><trkpt lat="44.04724410390527" lon="10.759256269329017"><ele>480.75</ele><time>2026-04-26T10:00:42.001Z</time></trkpt><trkpt lat="44.04714337307392" lon="10.759175987015631"><ele>481.0</ele><time>2026-04-26T10:00:43.001Z</time></trkpt><trkpt lat="44.04707123250307" lon="10.759056151043305"><ele>481.0</ele><time>2026-04-26T10:00:44.001Z</time></trkpt><trkpt lat="44.04700953370143" lon="10.758906719745541"><ele>481.0</ele><time>2026-04-26T10:00:45.001Z</time></trkpt><trkpt lat="44.046956300466974" lon="10.75876029857783"><ele>481.0</ele><time>2026-04-26T10:00:46.001Z</time></trkpt><trkpt lat="44.046923240723174" lon="10.758613496754718"><ele>481.0</ele><time>2026-04-26T10:00:47.001Z</time></trkpt><trkpt lat="44.04691474835373" lon="10.758425640444877"><ele>487.0</ele><time>2026-04-26T10:00:48.001Z</time></trkpt><trkpt lat="44.046925930004264" lon="10.75821120562205"><ele>493.0</ele><time>2026-04-26T10:00:49.001Z</time></trkpt><trkpt lat="44.04692781748904" lon="10.757975624246443"><ele>499.0</ele><time>2026-04-26T10:00:50.001Z</time></trkpt><trkpt lat="44.04689519113071" lon="10.757741370179854"><ele>503.33333333333337</ele><time>2026-04-26T10:00:51.001Z</time></trkpt><trkpt lat="44.046846832300616" lon="10.757536838204313"><ele>507.66666666666663</ele><time>2026-04-26T10:00:52.001Z</time></trkpt><trkpt lat="44.04676985756761" lon="10.757326123178618"><ele>512.0</ele><time>2026-04-26T10:00:53.001Z</time></trkpt><trkpt lat="44.04666319218786" lon="10.757153642253932"><ele>504.0</ele><time>2026-04-26T10:00:54.001Z</time></trkpt><trkpt lat="44.0465471070956" lon="10.757038237424476"><ele>496.0</ele><time>2026-04-26T10:00:55.001Z</time></trkpt><trkpt lat="44.04646250630131" lon="10.756911277155822"><ele>488.0</ele><time>2026-04-26T10:00:56.001Z</time></trkpt><trkpt lat="44.04643606370796" lon="10.756761757115605"><ele>480.0</ele><time>2026-04-26T10:00:57.001Z</time></trkpt><trkpt lat="44.046424206329654" lon="10.756584597832232"><ele>480.0</ele><time>2026-04-26T10:00:58.001Z</time></trkpt><trkpt lat="44.0463979184608" lon="10.756382777322985"><ele>480.0</ele><time>2026-04-26T10:00:59.001Z</time></trkpt><trkpt lat="44.04637791594263" lon="10.756174886494593"><ele>480.0</ele><time>2026-04-26T10:01:00.001Z</time></trkpt><trkpt lat="44.04637173046849" lon="10.755972736426298"><ele>480.0</ele><time>2026-04-26T10:01:01.001Z</time></trkpt><trkpt lat="44.04635349213788" lon="10.755792773246919"><ele>486.5</ele><time>2026-04-26T10:01:02.002Z</time></trkpt><trkpt lat="44.04632216177387" lon="10.755613511444473"><ele>493.0</ele><time>2026-04-26T10:01:03.002Z</time></trkpt><trkpt lat="44.046227916957704" lon="10.755451232520777"><ele>499.5</ele><time>2026-04-26T10:01:04.002Z</time></trkpt><trkpt lat="44.04613636317674" lon="10.755289904979577"><ele>506.0</ele><time>2026-04-26T10:01:05Z</time></trkpt><trkpt lat="44.0460488935594" lon="10.755133219934944"><ele>507.25</ele><time>2026-04-26T10:01:06Z</time></trkpt><trkpt lat="44.045964281905704" lon="10.754980106442968"><ele>508.5</ele><time>2026-04-26T10:01:07Z</time></trkpt><trkpt lat="44.045882160549155" lon="10.75482894053536"><ele>509.75</ele><time>2026-04-26T10:01:08Z</time></trkpt><trkpt lat="44.04580795840264" lon="10.754690899510827"><ele>511.0</ele><time>2026-04-26T10:01:09Z</time></trkpt><trkpt lat="44.045750557968134" lon="10.754562150584782"><ele>511.0</ele><time>2026-04-26T10:01:10Z</time></trkpt><trkpt lat="44.04569439917797" lon="10.75443947779381"><ele>511.0</ele><time>2026-04-26T10:01:11Z</time></trkpt><trkpt lat="44.045639916797455" lon="10.754323256085527"><ele>511.0</ele><time>2026-04-26T10:01:12Z</time></trkpt><trkpt lat="44.04558424946223" lon="10.754206965416147"><ele>511.0</ele><time>2026-04-26T10:01:13Z</time></trkpt><trkpt lat="44.04553762318214" lon="10.754064510670693"><ele>511.0</ele><time>2026-04-26T10:01:14Z</time></trkpt><trkpt lat="44.045455520320665" lon="10.753936762510335"><ele>511.5</ele><time>2026-04-26T10:01:15Z</time></trkpt><trkpt lat="44.04539262947912" lon="10.753801191280688"><ele>512.0</ele><time>2026-04-26T10:01:16Z</time></trkpt><trkpt lat="44.045318462908334" lon="10.753655264172739"><ele>512.5</ele><time>2026-04-26T10:01:17Z</time></trkpt><trkpt lat="44.045224522050674" lon="10.753510543374853"><ele>513.0</ele><time>2026-04-26T10:01:18Z</time></trkpt><trkpt lat="44.045131467050886" lon="10.753356007178327"><ele>514.75</ele><time>2026-04-26T10:01:19Z</time></trkpt><trkpt lat="44.04505575902173" lon="10.75320665889874"><ele>516.5</ele><time>2026-04-26T10:01:20Z</time></trkpt><trkpt lat="44.04498373159962" lon="10.753055858813356"><ele>518.25</ele><time>2026-04-26T10:01:21Z</time></trkpt><trkpt lat="44.044918666180436" lon="10.752924474046921"><ele>520.0</ele><time>2026-04-26T10:01:22Z</time></trkpt><trkpt lat="44.04486488045457" lon="10.75281580716876"><ele>517.8</ele><time>2026-04-26T10:01:23Z</time></trkpt><trkpt lat="44.04481438232219" lon="10.752713782191806"><ele>515.6</ele><time>2026-04-26T10:01:24Z</time></trkpt><trkpt lat="44.044763686251436" lon="10.752611113697599"><ele>513.4</ele><time>2026-04-26T10:01:25Z</time></trkpt><trkpt lat="44.044702326137816" lon="10.752485628548946"><ele>511.2</ele><time>2026-04-26T10:01:26Z</time></trkpt><trkpt lat="44.04463069386987" lon="10.752339136103252"><ele>509.0</ele><time>2026-04-26T10:01:27Z</time></trkpt><trkpt lat="44.04455655096437" lon="10.752194861859989"><ele>509.0</ele><time>2026-04-26T10:01:28Z</time></trkpt><trkpt lat="44.044472508207" lon="10.752056329636748"><ele>509.0</ele><time>2026-04-26T10:01:29Z</time></trkpt><trkpt lat="44.044376335201676" lon="10.751947632538261"><ele>509.0</ele><time>2026-04-26T10:01:30Z</time></trkpt><trkpt lat="44.04428484232929" lon="10.75184824272294"><ele>509.0</ele><time>2026-04-26T10:01:31Z</time></trkpt><trkpt lat="44.04419524390241" lon="10.751761044451063"><ele>509.0</ele><time>2026-04-26T10:01:32Z</time></trkpt><trkpt lat="44.044097694567654" lon="10.751702430675511"><ele>509.0</ele><time>2026-04-26T10:01:33Z</time></trkpt><trkpt lat="44.04398970279752" lon="10.751660879123683"><ele>509.0</ele><time>2026-04-26T10:01:34Z</time></trkpt><trkpt lat="44.043895064424426" lon="10.751637242048995"><ele>509.0</ele><time>2026-04-26T10:01:35Z</time></trkpt><trkpt lat="44.04380700185389" lon="10.751611568167027"><ele>509.0</ele><time>2026-04-26T10:01:36Z</time></trkpt><trkpt lat="44.04374433992804" lon="10.751557131310546"><ele>509.0</ele><time>2026-04-26T10:01:37Z</time></trkpt><trkpt lat="44.04370503762395" lon="10.751485858347724"><ele>509.0</ele><time>2026-04-26T10:01:38Z</time></trkpt><trkpt lat="44.04367696445654" lon="10.751407104849317"><ele>509.0</ele><time>2026-04-26T10:01:39Z</time></trkpt><trkpt lat="44.043697799376396" lon="10.75130713411967"><ele>509.0</ele><time>2026-04-26T10:01:40Z</time></trkpt><trkpt lat="44.04383402978391" lon="10.751174709991258"><ele>509.0</ele><time>2026-04-26T10:01:42Z</time></trkpt><trkpt lat="44.04392902013227" lon="10.751188586360856"><ele>509.0</ele><time>2026-04-26T10:01:43Z</time></trkpt><trkpt lat="44.04403462507943" lon="10.751220488147583"><ele>509.0</ele><time>2026-04-26T10:01:44Z</time></trkpt><trkpt lat="44.04414823594975" lon="10.751233093317172"><ele>509.0</ele><time>2026-04-26T10:01:45Z</time></trkpt><trkpt lat="44.044249276451794" lon="10.751192665720826"><ele>509.0</ele><time>2026-04-26T10:01:46Z</time></trkpt><trkpt lat="44.044346169023655" lon="10.751105391198353"><ele>509.0</ele><time>2026-04-26T10:01:47Z</time></trkpt><trkpt lat="44.044437145553715" lon="10.750963899586083"><ele>508.0</ele><time>2026-04-26T10:01:48Z</time></trkpt><trkpt lat="44.04452386721149" lon="10.750817424500866"><ele>507.0</ele><time>2026-04-26T10:01:49Z</time></trkpt><trkpt lat="44.044617844459104" lon="10.750682422791824"><ele>506.0</ele><time>2026-04-26T10:01:50Z</time></trkpt><trkpt lat="44.044713681223264" lon="10.750569413993679"><ele>505.0</ele><time>2026-04-26T10:01:51Z</time></trkpt><trkpt lat="44.044815036207744" lon="10.750505120670622"><ele>505.0</ele><time>2026-04-26T10:01:52Z</time></trkpt><trkpt lat="44.044942407480676" lon="10.750480849543193"><ele>505.0</ele><time>2026-04-26T10:01:53Z</time></trkpt><trkpt lat="44.045078812199435" lon="10.750470506778273"><ele>505.0</ele><time>2026-04-26T10:01:54Z</time></trkpt><trkpt lat="44.04521388777123" lon="10.750457831755782"><ele>505.0</ele><time>2026-04-26T10:01:55Z</time></trkpt><trkpt lat="44.045329966235414" lon="10.750423750699591"><ele>505.6</ele><time>2026-04-26T10:01:56Z</time></trkpt><trkpt lat="44.04543399611715" lon="10.75037542932746"><ele>506.2</ele><time>2026-04-26T10:01:57Z</time></trkpt><trkpt lat="44.04552410587927" lon="10.750307557107309"><ele>506.79999999999995</ele><time>2026-04-26T10:01:58.001Z</time></trkpt><trkpt lat="44.04559717265481" lon="10.750224585127446"><ele>507.4</ele><time>2026-04-26T10:01:59.001Z</time></trkpt><trkpt lat="44.04564408670519" lon="10.750097441199081"><ele>508.0</ele><time>2026-04-26T10:02:00.001Z</time></trkpt><trkpt lat="44.04558547498158" lon="10.74990117529218"><ele>508.0</ele><time>2026-04-26T10:02:01.001Z</time></trkpt><trkpt lat="44.04553574925973" lon="10.749763326656062"><ele>508.0</ele><time>2026-04-26T10:02:02.001Z</time></trkpt><trkpt lat="44.045444177793186" lon="10.749685268598498"><ele>508.0</ele><time>2026-04-26T10:02:03.001Z</time></trkpt><trkpt lat="44.045322702728036" lon="10.749642473737516"><ele>508.0</ele><time>2026-04-26T10:02:04.001Z</time></trkpt><trkpt lat="44.045178292481104" lon="10.749623223301418"><ele>508.0</ele><time>2026-04-26T10:02:05.001Z</time></trkpt><trkpt lat="44.045024654823905" lon="10.749605342405797"><ele>508.0</ele><time>2026-04-26T10:02:06.001Z</time></trkpt><trkpt lat="44.04488118731472" lon="10.749537025737682"><ele>508.0</ele><time>2026-04-26T10:02:07.001Z</time></trkpt><trkpt lat="44.044749905415905" lon="10.749470448318863"><ele>508.0</ele><time>2026-04-26T10:02:08.001Z</time></trkpt><trkpt lat="44.04460945357287" lon="10.74940825819413"><ele>509.25</ele><time>2026-04-26T10:02:09.001Z</time></trkpt><trkpt lat="44.044472967645206" lon="10.749384390113633"><ele>510.5</ele><time>2026-04-26T10:02:10.001Z</time></trkpt><trkpt lat="44.04435196250163" lon="10.749369316151899"><ele>511.75</ele><time>2026-04-26T10:02:11.001Z</time></trkpt><trkpt lat="44.044233264914475" lon="10.749373565049208"><ele>513.0</ele><time>2026-04-26T10:02:12.001Z</time></trkpt><trkpt lat="44.04411244726787" lon="10.749386937684088"><ele>505.0</ele><time>2026-04-26T10:02:13.001Z</time></trkpt><trkpt lat="44.043987100653645" lon="10.749429876521674"><ele>497.0</ele><time>2026-04-26T10:02:14.001Z</time></trkpt><trkpt lat="44.04386115827064" lon="10.749508132855787"><ele>489.0</ele><time>2026-04-26T10:02:15.001Z</time></trkpt><trkpt lat="44.04373339540964" lon="10.749594901784716"><ele>481.0</ele><time>2026-04-26T10:02:16.001Z</time></trkpt><trkpt lat="44.04359144543007" lon="10.749626198693502"><ele>481.0</ele><time>2026-04-26T10:02:17.001Z</time></trkpt><trkpt lat="44.04344505906052" lon="10.74962852989289"><ele>481.0</ele><time>2026-04-26T10:02:18.001Z</time></trkpt><trkpt lat="44.043284029375876" lon="10.749605817281605"><ele>481.0</ele><time>2026-04-26T10:02:19.001Z</time></trkpt><trkpt lat="44.043113563649925" lon="10.749552635482354"><ele>483.6666666666667</ele><time>2026-04-26T10:02:20.001Z</time></trkpt><trkpt lat="44.04293924175396" lon="10.749471672824514"><ele>486.33333333333337</ele><time>2026-04-26T10:02:21.001Z</time></trkpt><trkpt lat="44.042771303929136" lon="10.749367232917805"><ele>489.0</ele><time>2026-04-26T10:02:22.001Z</time></trkpt><trkpt lat="44.04260721448035" lon="10.749265908118712"><ele>479.66666666666663</ele><time>2026-04-26T10:02:23.001Z</time></trkpt><trkpt lat="44.04244842851497" lon="10.749158069098913"><ele>470.3333333333333</ele><time>2026-04-26T10:02:24.001Z</time></trkpt><trkpt lat="44.04228784126909" lon="10.749030703651636"><ele>461.0</ele><time>2026-04-26T10:02:25.001Z</time></trkpt><trkpt lat="44.04212274820601" lon="10.748912797707343"><ele>461.0</ele><time>2026-04-26T10:02:26.001Z</time></trkpt><trkpt lat="44.0419623332249" lon="10.74877376130693"><ele>461.0</ele><time>2026-04-26T10:02:27.001Z</time></trkpt><trkpt lat="44.04180445100079" lon="10.748635858762755"><ele>461.0</ele><time>2026-04-26T10:02:28.001Z</time></trkpt><trkpt lat="44.04164084449007" lon="10.748516174978096"><ele>463.0</ele><time>2026-04-26T10:02:29.001Z</time></trkpt><trkpt lat="44.04147510132023" lon="10.748418225609315"><ele>465.0</ele><time>2026-04-26T10:02:30.001Z</time></trkpt><trkpt lat="44.041308294992746" lon="10.748341004849703"><ele>467.0</ele><time>2026-04-26T10:02:31.001Z</time></trkpt><trkpt lat="44.041143808108906" lon="10.748250763558293"><ele>467.0</ele><time>2026-04-26T10:02:32.001Z</time></trkpt><trkpt lat="44.04098096659923" lon="10.748162182090265"><ele>467.0</ele><time>2026-04-26T10:02:33.001Z</time></trkpt><trkpt lat="44.04082924493036" lon="10.748067402868383"><ele>467.0</ele><time>2026-04-26T10:02:34.001Z</time></trkpt><trkpt lat="44.040680649281086" lon="10.747973390099505"><ele>465.5</ele><time>2026-04-26T10:02:35.001Z</time></trkpt><trkpt lat="44.04053933159437" lon="10.747882071040507"><ele>464.0</ele><time>2026-04-26T10:02:36.001Z</time></trkpt><trkpt lat="44.04040393496689" lon="10.74779127405329"><ele>462.5</ele><time>2026-04-26T10:02:37.001Z</time></trkpt><trkpt lat="44.040277417694554" lon="10.747697673394322"><ele>461.0</ele><time>2026-04-26T10:02:38.001Z</time></trkpt><trkpt lat="44.04015989006917" lon="10.747602817337974"><ele>461.0</ele><time>2026-04-26T10:02:39.001Z</time></trkpt><trkpt lat="44.04005953164644" lon="10.747509672795271"><ele>461.0</ele><time>2026-04-26T10:02:40.001Z</time></trkpt><trkpt lat="44.039982135608945" lon="10.747401022181798"><ele>461.0</ele><time>2026-04-26T10:02:41.001Z</time></trkpt><trkpt lat="44.0399439333675" lon="10.74726501426626"><ele>461.0</ele><time>2026-04-26T10:02:42.001Z</time></trkpt><trkpt lat="44.03995381939536" lon="10.747105183967559"><ele>461.0</ele><time>2026-04-26T10:02:43.001Z</time></trkpt><trkpt lat="44.039977792480215" lon="10.746924356667396"><ele>461.0</ele><time>2026-04-26T10:02:44.001Z</time></trkpt><trkpt lat="44.03999225346009" lon="10.746710456063315"><ele>461.0</ele><time>2026-04-26T10:02:45.001Z</time></trkpt><trkpt lat="44.04003303224486" lon="10.746493872933321"><ele>461.0</ele><time>2026-04-26T10:02:46.001Z</time></trkpt><trkpt lat="44.04004994064498" lon="10.746272725408712"><ele>461.3333333333333</ele><time>2026-04-26T10:02:47.001Z</time></trkpt><trkpt lat="44.04003629155837" lon="10.746049380765195"><ele>461.66666666666663</ele><time>2026-04-26T10:02:48.001Z</time></trkpt><trkpt lat="44.03997908518864" lon="10.745822675910508"><ele>462.0</ele><time>2026-04-26T10:02:49.001Z</time></trkpt><trkpt lat="44.0398994482467" lon="10.745618993988217"><ele>453.5</ele><time>2026-04-26T10:02:50.001Z</time></trkpt><trkpt lat="44.03982600064926" lon="10.745428152877677"><ele>445.0</ele><time>2026-04-26T10:02:51.001Z</time></trkpt><trkpt lat="44.039791803864" lon="10.745248252719792"><ele>436.5</ele><time>2026-04-26T10:02:52.001Z</time></trkpt><trkpt lat="44.03977318553091" lon="10.745078213636171"><ele>428.0</ele><time>2026-04-26T10:02:53.001Z</time></trkpt><trkpt lat="44.0397632944726" lon="10.744876061969531"><ele>427.3333333333333</ele><time>2026-04-26T10:02:54.001Z</time></trkpt><trkpt lat="44.03978727045974" lon="10.744646554396763"><ele>426.66666666666663</ele><time>2026-04-26T10:02:55.001Z</time></trkpt><trkpt lat="44.03977685827656" lon="10.744432640538694"><ele>426.0</ele><time>2026-04-26T10:02:56.001Z</time></trkpt><trkpt lat="44.039760401436965" lon="10.744234081029019"><ele>420.66666666666663</ele><time>2026-04-26T10:02:57.001Z</time></trkpt><trkpt lat="44.03978744555425" lon="10.744024338454375"><ele>415.3333333333333</ele><time>2026-04-26T10:02:58.001Z</time></trkpt><trkpt lat="44.03983691674778" lon="10.743807063732309"><ele>410.0</ele><time>2026-04-26T10:02:59.001Z</time></trkpt><trkpt lat="44.039848593158744" lon="10.743574758581229"><ele>403.0</ele><time>2026-04-26T10:03:00.001Z</time></trkpt><trkpt lat="44.039867960295396" lon="10.74334685660907"><ele>396.0</ele><time>2026-04-26T10:03:01.001Z</time></trkpt><trkpt lat="44.03989155411966" lon="10.743122365782016"><ele>389.0</ele><time>2026-04-26T10:03:02.001Z</time></trkpt><trkpt lat="44.03994512317354" lon="10.742913706369217"><ele>398.75</ele><time>2026-04-26T10:03:03.001Z</time></trkpt><trkpt lat="44.03998702907079" lon="10.742697956986113"><ele>408.5</ele><time>2026-04-26T10:03:04.001Z</time></trkpt><trkpt lat="44.0399989051803" lon="10.742499058833445"><ele>418.25</ele><time>2026-04-26T10:03:05.001Z</time></trkpt><trkpt lat="44.04003914492139" lon="10.742330479237934"><ele>428.0</ele><time>2026-04-26T10:03:06.001Z</time></trkpt><trkpt lat="44.040091100169974" lon="10.742169815892291"><ele>428.0</ele><time>2026-04-26T10:03:07.001Z</time></trkpt><trkpt lat="44.040168139463304" lon="10.742037309452371"><ele>428.0</ele><time>2026-04-26T10:03:08.001Z</time></trkpt><trkpt lat="44.040286669075634" lon="10.741929952751574"><ele>428.0</ele><time>2026-04-26T10:03:09.001Z</time></trkpt><trkpt lat="44.04040618689767" lon="10.741820712034366"><ele>428.0</ele><time>2026-04-26T10:03:10.001Z</time></trkpt><trkpt lat="44.040511454150185" lon="10.741749133852373"><ele>422.0</ele><time>2026-04-26T10:03:11Z</time></trkpt><trkpt lat="44.0405895035227" lon="10.741656187863667"><ele>416.0</ele><time>2026-04-26T10:03:12Z</time></trkpt><trkpt lat="44.04062000344701" lon="10.741520364896525"><ele>410.0</ele><time>2026-04-26T10:03:13Z</time></trkpt><trkpt lat="44.04059397282445" lon="10.74134803773368"><ele>404.0</ele><time>2026-04-26T10:03:14Z</time></trkpt><trkpt lat="44.04052707108917" lon="10.741190464346785"><ele>403.25</ele><time>2026-04-26T10:03:15Z</time></trkpt><trkpt lat="44.04046894881873" lon="10.741027235935324"><ele>402.5</ele><time>2026-04-26T10:03:16Z</time></trkpt><trkpt lat="44.040440375026115" lon="10.740861572743478"><ele>401.75</ele><time>2026-04-26T10:03:17Z</time></trkpt><trkpt lat="44.04048819483388" lon="10.740693829296458"><ele>401.0</ele><time>2026-04-26T10:03:18Z</time></trkpt><trkpt lat="44.04052840717978" lon="10.740494119575416"><ele>401.0</ele><time>2026-04-26T10:03:19Z</time></trkpt><trkpt lat="44.04055442011289" lon="10.740267688409078"><ele>401.0</ele><time>2026-04-26T10:03:20Z</time></trkpt><trkpt lat="44.04058892080851" lon="10.740026244142543"><ele>401.0</ele><time>2026-04-26T10:03:21Z</time></trkpt><trkpt lat="44.040610880547455" lon="10.739786280015673"><ele>399.0</ele><time>2026-04-26T10:03:22Z</time></trkpt><trkpt lat="44.04064411179566" lon="10.739566645539696"><ele>397.0</ele><time>2026-04-26T10:03:23Z</time></trkpt><trkpt lat="44.040665735446574" lon="10.73935415504462"><ele>395.0</ele><time>2026-04-26T10:03:24Z</time></trkpt><trkpt lat="44.04069267595314" lon="10.739161662467868"><ele>393.25</ele><time>2026-04-26T10:03:25Z</time></trkpt><trkpt lat="44.040749847677645" lon="10.738984248944366"><ele>391.5</ele><time>2026-04-26T10:03:26Z</time></trkpt><trkpt lat="44.040814711697465" lon="10.738814466300642"><ele>389.75</ele><time>2026-04-26T10:03:27Z</time></trkpt><trkpt lat="44.04084280659615" lon="10.738636811255382"><ele>388.0</ele><time>2026-04-26T10:03:28Z</time></trkpt><trkpt lat="44.040823520941544" lon="10.738464923196867"><ele>387.5</ele><time>2026-04-26T10:03:29Z</time></trkpt><trkpt lat="44.040796148716076" lon="10.738288111568643"><ele>387.0</ele><time>2026-04-26T10:03:30Z</time></trkpt><trkpt lat="44.040787007757245" lon="10.738127777340354"><ele>386.5</ele><time>2026-04-26T10:03:31Z</time></trkpt><trkpt lat="44.040822716420024" lon="10.737979204190921"><ele>386.0</ele><time>2026-04-26T10:03:32Z</time></trkpt><trkpt lat="44.04090548011761" lon="10.737866589669988"><ele>394.0</ele><time>2026-04-26T10:03:33Z</time></trkpt><trkpt lat="44.0409554644092" lon="10.737728482248443"><ele>402.0</ele><time>2026-04-26T10:03:34Z</time></trkpt><trkpt lat="44.04097693737735" lon="10.73759330477326"><ele>410.0</ele><time>2026-04-26T10:03:35Z</time></trkpt><trkpt lat="44.040957447719684" lon="10.737436090192606"><ele>418.0</ele><time>2026-04-26T10:03:36Z</time></trkpt><trkpt lat="44.04084637373487" lon="10.737309221929857"><ele>418.75</ele><time>2026-04-26T10:03:37Z</time></trkpt><trkpt lat="44.04077042091626" lon="10.737175657850415"><ele>419.5</ele><time>2026-04-26T10:03:38Z</time></trkpt><trkpt lat="44.04075147714169" lon="10.737038636679443"><ele>420.25</ele><time>2026-04-26T10:03:39Z</time></trkpt><trkpt lat="44.04077276668805" lon="10.736876097775676"><ele>421.0</ele><time>2026-04-26T10:03:40Z</time></trkpt><trkpt lat="44.04083347224681" lon="10.736701710477025"><ele>421.0</ele><time>2026-04-26T10:03:41Z</time></trkpt><trkpt lat="44.04083153285463" lon="10.736508264739758"><ele>421.0</ele><time>2026-04-26T10:03:42Z</time></trkpt><trkpt lat="44.04080179707854" lon="10.736333970450763"><ele>421.0</ele><time>2026-04-26T10:03:43Z</time></trkpt><trkpt lat="44.04079473621201" lon="10.736143233498913"><ele>421.0</ele><time>2026-04-26T10:03:44Z</time></trkpt><trkpt lat="44.040820623416884" lon="10.735975838874307"><ele>419.25</ele><time>2026-04-26T10:03:45Z</time></trkpt><trkpt lat="44.040868048696275" lon="10.735805705180175"><ele>417.5</ele><time>2026-04-26T10:03:46Z</time></trkpt><trkpt lat="44.04087572168021" lon="10.735638581378877"><ele>415.75</ele><time>2026-04-26T10:03:47Z</time></trkpt><trkpt lat="44.04084409528367" lon="10.735459958564372"><ele>414.0</ele><time>2026-04-26T10:03:48Z</time></trkpt><trkpt lat="44.04076165933575" lon="10.735273350694161"><ele>404.0</ele><time>2026-04-26T10:03:49Z</time></trkpt><trkpt lat="44.040730147332695" lon="10.735082463939074"><ele>394.0</ele><time>2026-04-26T10:03:50Z</time></trkpt><trkpt lat="44.040695815878365" lon="10.73489484619407"><ele>384.0</ele><time>2026-04-26T10:03:51Z</time></trkpt><trkpt lat="44.040670915118085" lon="10.734719846719031"><ele>374.0</ele><time>2026-04-26T10:03:52Z</time></trkpt><trkpt lat="44.04067369621437" lon="10.734556882547066"><ele>374.0</ele><time>2026-04-26T10:03:53Z</time></trkpt><trkpt lat="44.040714343412986" lon="10.734404113758576"><ele>374.0</ele><time>2026-04-26T10:03:54Z</time></trkpt><trkpt lat="44.04078522211018" lon="10.73427022779944"><ele>374.0</ele><time>2026-04-26T10:03:55Z</time></trkpt><trkpt lat="44.040875632149735" lon="10.734166111598716"><ele>374.0</ele><time>2026-04-26T10:03:56Z</time></trkpt><trkpt lat="44.0409666103579" lon="10.73405825319726"><ele>381.5</ele><time>2026-04-26T10:03:57Z</time></trkpt><trkpt lat="44.041021398840826" lon="10.733926240237327"><ele>389.0</ele><time>2026-04-26T10:03:58Z</time></trkpt><trkpt lat="44.04103533751996" lon="10.733762220254171"><ele>396.5</ele><time>2026-04-26T10:03:59Z</time></trkpt><trkpt lat="44.04100224828542" lon="10.733564609518124"><ele>404.0</ele><time>2026-04-26T10:04:00Z</time></trkpt><trkpt lat="44.04093005614844" lon="10.7333727158444"><ele>404.0</ele><time>2026-04-26T10:04:01Z</time></trkpt><trkpt lat="44.04085160576405" lon="10.733156720089832"><ele>404.0</ele><time>2026-04-26T10:04:02Z</time></trkpt><trkpt lat="44.04076427034875" lon="10.732955011194976"><ele>404.0</ele><time>2026-04-26T10:04:03Z</time></trkpt><trkpt lat="44.0406872491514" lon="10.732774564571168"><ele>396.0</ele><time>2026-04-26T10:04:04Z</time></trkpt><trkpt lat="44.040626965742604" lon="10.7326000078665"><ele>388.0</ele><time>2026-04-26T10:04:05Z</time></trkpt><trkpt lat="44.04058719779206" lon="10.73242127886378"><ele>380.0</ele><time>2026-04-26T10:04:06Z</time></trkpt><trkpt lat="44.04057407369274" lon="10.732244787641166"><ele>372.0</ele><time>2026-04-26T10:04:07Z</time></trkpt><trkpt lat="44.04057638189847" lon="10.732069966123303"><ele>372.0</ele><time>2026-04-26T10:04:08Z</time></trkpt><trkpt lat="44.040596289389576" lon="10.731899259533746"><ele>372.0</ele><time>2026-04-26T10:04:09Z</time></trkpt><trkpt lat="44.04062517403047" lon="10.731720871063201"><ele>372.0</ele><time>2026-04-26T10:04:10Z</time></trkpt><trkpt lat="44.04061995755058" lon="10.731550702531852"><ele>372.0</ele><time>2026-04-26T10:04:11Z</time></trkpt><trkpt lat="44.04057725565879" lon="10.731390027717238"><ele>371.75</ele><time>2026-04-26T10:04:12Z</time></trkpt><trkpt lat="44.04049151369359" lon="10.731249572281667"><ele>371.5</ele><time>2026-04-26T10:04:13.001Z</time></trkpt><trkpt lat="44.04038930067091" lon="10.731103892864656"><ele>371.25</ele><time>2026-04-26T10:04:14.001Z</time></trkpt><trkpt lat="44.04031159690096" lon="10.730945195846047"><ele>371.0</ele><time>2026-04-26T10:04:15.001Z</time></trkpt><trkpt lat="44.040223802550706" lon="10.730808997338357"><ele>372.25</ele><time>2026-04-26T10:04:16.001Z</time></trkpt><trkpt lat="44.040149001121826" lon="10.730664421664715"><ele>373.5</ele><time>2026-04-26T10:04:17.001Z</time></trkpt><trkpt lat="44.04008929816907" lon="10.730495003186375"><ele>374.75</ele><time>2026-04-26T10:04:18.001Z</time></trkpt><trkpt lat="44.04003852802264" lon="10.730314313264135"><ele>376.0</ele><time>2026-04-26T10:04:19.001Z</time></trkpt><trkpt lat="44.03999461215123" lon="10.730130639113444"><ele>371.75</ele><time>2026-04-26T10:04:20.001Z</time></trkpt><trkpt lat="44.03995529440229" lon="10.729934263950293"><ele>367.5</ele><time>2026-04-26T10:04:21.001Z</time></trkpt><trkpt lat="44.039930340428604" lon="10.729745294246225"><ele>363.25</ele><time>2026-04-26T10:04:22.001Z</time></trkpt><trkpt lat="44.03992075229542" lon="10.72957434800794"><ele>359.0</ele><time>2026-04-26T10:04:23.001Z</time></trkpt><trkpt lat="44.039929989207664" lon="10.729384929428981"><ele>359.0</ele><time>2026-04-26T10:04:24.001Z</time></trkpt><trkpt lat="44.03993542931018" lon="10.729200298377725"><ele>359.0</ele><time>2026-04-26T10:04:25.001Z</time></trkpt><trkpt lat="44.039959919614915" lon="10.728995693645363"><ele>359.0</ele><time>2026-04-26T10:04:26.001Z</time></trkpt><trkpt lat="44.039960366517974" lon="10.728804631507918"><ele>359.0</ele><time>2026-04-26T10:04:27.001Z</time></trkpt><trkpt lat="44.03996211647585" lon="10.728614873499227"><ele>367.5</ele><time>2026-04-26T10:04:28.001Z</time></trkpt><trkpt lat="44.03997155973549" lon="10.728432526878487"><ele>376.0</ele><time>2026-04-26T10:04:29.001Z</time></trkpt><trkpt lat="44.0399823366887" lon="10.728248375286894"><ele>384.5</ele><time>2026-04-26T10:04:30.001Z</time></trkpt><trkpt lat="44.03999578051739" lon="10.728073405488159"><ele>393.0</ele><time>2026-04-26T10:04:31.001Z</time></trkpt><trkpt lat="44.040016400928664" lon="10.727902810496147"><ele>393.0</ele><time>2026-04-26T10:04:32.001Z</time></trkpt><trkpt lat="44.04006309811095" lon="10.727740861124742"><ele>393.0</ele><time>2026-04-26T10:04:33.001Z</time></trkpt><trkpt lat="44.04011570319599" lon="10.727582640568597"><ele>393.0</ele><time>2026-04-26T10:04:34.001Z</time></trkpt><trkpt lat="44.0401760718493" lon="10.727430334215992"><ele>393.0</ele><time>2026-04-26T10:04:35.001Z</time></trkpt><trkpt lat="44.04024471849324" lon="10.727269766634173"><ele>388.5</ele><time>2026-04-26T10:04:36.001Z</time></trkpt><trkpt lat="44.040318380949344" lon="10.727093659184229"><ele>384.0</ele><time>2026-04-26T10:04:37.001Z</time></trkpt><trkpt lat="44.04040287225471" lon="10.726923338034828"><ele>379.5</ele><time>2026-04-26T10:04:38.001Z</time></trkpt><trkpt lat="44.04050026631951" lon="10.726766739162441"><ele>375.0</ele><time>2026-04-26T10:04:39.001Z</time></trkpt><trkpt lat="44.04061573167224" lon="10.72661947961847"><ele>380.33333333333337</ele><time>2026-04-26T10:04:40.001Z</time></trkpt><trkpt lat="44.04073711682194" lon="10.726486853071535"><ele>385.6666666666667</ele><time>2026-04-26T10:04:41.001Z</time></trkpt><trkpt lat="44.040869636530005" lon="10.726362210288386"><ele>391.0</ele><time>2026-04-26T10:04:42.001Z</time></trkpt><trkpt lat="44.04100732344138" lon="10.726235936758323"><ele>391.0</ele><time>2026-04-26T10:04:43.001Z</time></trkpt><trkpt lat="44.04114088218976" lon="10.726109302401527"><ele>391.0</ele><time>2026-04-26T10:04:44.001Z</time></trkpt><trkpt lat="44.041257589717034" lon="10.725973160012765"><ele>391.0</ele><time>2026-04-26T10:04:45.001Z</time></trkpt><trkpt lat="44.041357194413145" lon="10.72584035540052"><ele>389.0</ele><time>2026-04-26T10:04:46.001Z</time></trkpt><trkpt lat="44.04144920143201" lon="10.725696142045516"><ele>387.0</ele><time>2026-04-26T10:04:47.001Z</time></trkpt><trkpt lat="44.04154037663684" lon="10.725572001437712"><ele>385.0</ele><time>2026-04-26T10:04:48.001Z</time></trkpt><trkpt lat="44.041625520317425" lon="10.725447504849281"><ele>383.0</ele><time>2026-04-26T10:04:49.001Z</time></trkpt><trkpt lat="44.04171694236085" lon="10.725315151633366"><ele>378.79999999999995</ele><time>2026-04-26T10:04:50.001Z</time></trkpt><trkpt lat="44.04180007818203" lon="10.725198560505492"><ele>374.6</ele><time>2026-04-26T10:04:51.001Z</time></trkpt><trkpt lat="44.04187320428889" lon="10.725083834329718"><ele>370.4</ele><time>2026-04-26T10:04:52.001Z</time></trkpt><trkpt lat="44.041937987716544" lon="10.72497257434368"><ele>366.20000000000005</ele><time>2026-04-26T10:04:53.001Z</time></trkpt><trkpt lat="44.041996651238506" lon="10.724856205578309"><ele>362.0</ele><time>2026-04-26T10:04:54.001Z</time></trkpt><trkpt lat="44.04204857418933" lon="10.724721991621138"><ele>362.0</ele><time>2026-04-26T10:04:55.001Z</time></trkpt><trkpt lat="44.0420968759284" lon="10.724590865351901"><ele>362.0</ele><time>2026-04-26T10:04:56.001Z</time></trkpt><trkpt lat="44.04212871053959" lon="10.724457528234373"><ele>362.0</ele><time>2026-04-26T10:04:57.001Z</time></trkpt><trkpt lat="44.042168385822336" lon="10.724345498428633"><ele>362.0</ele><time>2026-04-26T10:04:58.001Z</time></trkpt><trkpt lat="44.042211313191984" lon="10.724240968641718"><ele>362.0</ele><time>2026-04-26T10:04:59.001Z</time></trkpt><trkpt lat="44.04224481075108" lon="10.724147231921854"><ele>358.8</ele><time>2026-04-26T10:05:00.001Z</time></trkpt><trkpt lat="44.0422755651816" lon="10.724064328106333"><ele>355.6</ele><time>2026-04-26T10:05:01.001Z</time></trkpt><trkpt lat="44.04232050914566" lon="10.723924238885406"><ele>352.40000000000003</ele><time>2026-04-26T10:05:03.001Z</time></trkpt><trkpt lat="44.04236581522659" lon="10.72379482115671"><ele>349.20000000000005</ele><time>2026-04-26T10:05:05.001Z</time></trkpt><trkpt lat="44.042396780566456" lon="10.723663231579636"><ele>346.0</ele><time>2026-04-26T10:05:07.001Z</time></trkpt><trkpt lat="44.04242901716847" lon="10.723577132903394"><ele>344.3333333333333</ele><time>2026-04-26T10:05:08.001Z</time></trkpt><trkpt lat="44.042456550063214" lon="10.723483575008819"><ele>342.66666666666663</ele><time>2026-04-26T10:05:09.001Z</time></trkpt><trkpt lat="44.04249082253429" lon="10.723383629452918"><ele>341.0</ele><time>2026-04-26T10:05:10.001Z</time></trkpt><trkpt lat="44.04253607203884" lon="10.723278544321895"><ele>339.3333333333333</ele><time>2026-04-26T10:05:11.001Z</time></trkpt><trkpt lat="44.042578603030606" lon="10.723180788275135"><ele>337.6666666666667</ele><time>2026-04-26T10:05:12.001Z</time></trkpt><trkpt lat="44.0426248962775" lon="10.723074807842941"><ele>336.0</ele><time>2026-04-26T10:05:13.001Z</time></trkpt><trkpt lat="44.042674592493576" lon="10.72296918117736"><ele>338.0</ele><time>2026-04-26T10:05:14.001Z</time></trkpt><trkpt lat="44.04272606279396" lon="10.722859789848611"><ele>340.0</ele><time>2026-04-26T10:05:15.001Z</time></trkpt><trkpt lat="44.04277735947684" lon="10.72275012032467"><ele>342.0</ele><time>2026-04-26T10:05:16.001Z</time></trkpt><trkpt lat="44.042829315755625" lon="10.722647060934994"><ele>344.0</ele><time>2026-04-26T10:05:16.999Z</time></trkpt><trkpt lat="44.04288493401119" lon="10.722535480323598"><ele>346.0</ele><time>2026-04-26T10:05:17.999Z</time></trkpt><trkpt lat="44.04294498979841" lon="10.722425299501152"><ele>346.0</ele><time>2026-04-26T10:05:18.999Z</time></trkpt><trkpt lat="44.04298693803285" lon="10.722302074490242"><ele>346.0</ele><time>2026-04-26T10:05:19.999Z</time></trkpt><trkpt lat="44.04303678296852" lon="10.722192107663526"><ele>346.0</ele><time>2026-04-26T10:05:20.999Z</time></trkpt><trkpt lat="44.04309045985186" lon="10.722080822109403"><ele>346.0</ele><time>2026-04-26T10:05:21.999Z</time></trkpt><trkpt lat="44.04314510336973" lon="10.721967106636844"><ele>346.0</ele><time>2026-04-26T10:05:22.999Z</time></trkpt><trkpt lat="44.043198026914574" lon="10.721846084399226"><ele>347.4</ele><time>2026-04-26T10:05:23.999Z</time></trkpt><trkpt lat="44.043251235068446" lon="10.721727934821216"><ele>348.8</ele><time>2026-04-26T10:05:24.999Z</time></trkpt><trkpt lat="44.0433031879551" lon="10.721616754698001"><ele>350.2</ele><time>2026-04-26T10:05:25.999Z</time></trkpt><trkpt lat="44.04335513101884" lon="10.72150505568271"><ele>351.59999999999997</ele><time>2026-04-26T10:05:26.999Z</time></trkpt><trkpt lat="44.043409494646696" lon="10.721397653342803"><ele>353.0</ele><time>2026-04-26T10:05:27.999Z</time></trkpt><trkpt lat="44.04345830275523" lon="10.721280648689273"><ele>353.0</ele><time>2026-04-26T10:05:28.999Z</time></trkpt><trkpt lat="44.043515012964704" lon="10.721173074611224"><ele>353.0</ele><time>2026-04-26T10:05:29.999Z</time></trkpt><trkpt lat="44.043570866154646" lon="10.721054773615363"><ele>353.0</ele><time>2026-04-26T10:05:30.999Z</time></trkpt><trkpt lat="44.04360020908601" lon="10.720931089912913"><ele>353.0</ele><time>2026-04-26T10:05:31.999Z</time></trkpt><trkpt lat="44.04361710720857" lon="10.720801632415334"><ele>353.0</ele><time>2026-04-26T10:05:32.999Z</time></trkpt><trkpt lat="44.043624210860145" lon="10.720674567403627"><ele>351.0</ele><time>2026-04-26T10:05:33.999Z</time></trkpt><trkpt lat="44.043647463976896" lon="10.720560550589827"><ele>349.0</ele><time>2026-04-26T10:05:35Z</time></trkpt><trkpt lat="44.04366555172762" lon="10.720439863104408"><ele>347.0</ele><time>2026-04-26T10:05:36Z</time></trkpt><trkpt lat="44.04369205127922" lon="10.720318377153841"><ele>345.0</ele><time>2026-04-26T10:05:37Z</time></trkpt><trkpt lat="44.04372088934013" lon="10.720206728564797"><ele>343.0</ele><time>2026-04-26T10:05:38Z</time></trkpt><trkpt lat="44.0437540347688" lon="10.720082879916486"><ele>341.0</ele><time>2026-04-26T10:05:39Z</time></trkpt><trkpt lat="44.043797874561015" lon="10.719967385462152"><ele>341.0</ele><time>2026-04-26T10:05:40Z</time></trkpt><trkpt lat="44.043846138481314" lon="10.719858368677968"><ele>341.0</ele><time>2026-04-26T10:05:41Z</time></trkpt><trkpt lat="44.043897510346625" lon="10.719755665097132"><ele>341.0</ele><time>2026-04-26T10:05:42Z</time></trkpt><trkpt lat="44.043953712731856" lon="10.719651981487466"><ele>341.0</ele><time>2026-04-26T10:05:43Z</time></trkpt><trkpt lat="44.044009336649445" lon="10.719545221695668"><ele>341.0</ele><time>2026-04-26T10:05:44Z</time></trkpt><trkpt lat="44.04406218250838" lon="10.719437676338456"><ele>341.6</ele><time>2026-04-26T10:05:45Z</time></trkpt><trkpt lat="44.04411277081896" lon="10.719333037052579"><ele>342.20000000000005</ele><time>2026-04-26T10:05:46Z</time></trkpt><trkpt lat="44.04416592484709" lon="10.71922234848239"><ele>342.79999999999995</ele><time>2026-04-26T10:05:47Z</time></trkpt><trkpt lat="44.044217560769674" lon="10.719114864952145"><ele>343.4</ele><time>2026-04-26T10:05:48Z</time></trkpt><trkpt lat="44.0442701134708" lon="10.71900792262099"><ele>344.0</ele><time>2026-04-26T10:05:49Z</time></trkpt><trkpt lat="44.044330020463974" lon="10.718899460803593"><ele>344.0</ele><time>2026-04-26T10:05:50Z</time></trkpt><trkpt lat="44.04438570869798" lon="10.718790174847024"><ele>344.0</ele><time>2026-04-26T10:05:51Z</time></trkpt><trkpt lat="44.04443815541546" lon="10.718688012630015"><ele>344.0</ele><time>2026-04-26T10:05:52Z</time></trkpt><trkpt lat="44.044490396651256" lon="10.718582200848559"><ele>344.0</ele><time>2026-04-26T10:05:53Z</time></trkpt><trkpt lat="44.04454431861258" lon="10.718472982970177"><ele>344.0</ele><time>2026-04-26T10:05:54Z</time></trkpt><trkpt lat="44.04459472703651" lon="10.718356958540937"><ele>343.2</ele><time>2026-04-26T10:05:55Z</time></trkpt><trkpt lat="44.04464819113472" lon="10.71823056257689"><ele>342.4</ele><time>2026-04-26T10:05:56Z</time></trkpt><trkpt lat="44.04468797215406" lon="10.718085248052747"><ele>341.6</ele><time>2026-04-26T10:05:57Z</time></trkpt><trkpt lat="44.04472292845954" lon="10.717939154193525"><ele>340.8</ele><time>2026-04-26T10:05:58Z</time></trkpt><trkpt lat="44.044751019002575" lon="10.717791916470294"><ele>340.0</ele><time>2026-04-26T10:05:59Z</time></trkpt><trkpt lat="44.04477474654749" lon="10.717640141992462"><ele>339.0</ele><time>2026-04-26T10:06:00Z</time></trkpt><trkpt lat="44.04478727379156" lon="10.71748790281391"><ele>338.0</ele><time>2026-04-26T10:06:01Z</time></trkpt><trkpt lat="44.04479093431885" lon="10.717333660388933"><ele>337.0</ele><time>2026-04-26T10:06:02Z</time></trkpt><trkpt lat="44.04479007701058" lon="10.717176965906711"><ele>336.0</ele><time>2026-04-26T10:06:03Z</time></trkpt><trkpt lat="44.04478242654898" lon="10.717016278376775"><ele>335.0</ele><time>2026-04-26T10:06:04Z</time></trkpt><trkpt lat="44.04476603150723" lon="10.716862941925912"><ele>334.25</ele><time>2026-04-26T10:06:05Z</time></trkpt><trkpt lat="44.04474277294853" lon="10.716716322282812"><ele>333.5</ele><time>2026-04-26T10:06:06Z</time></trkpt><trkpt lat="44.04471650979597" lon="10.71658065026322"><ele>332.75</ele><time>2026-04-26T10:06:07Z</time></trkpt><trkpt lat="44.04468815118452" lon="10.716429387009446"><ele>332.0</ele><time>2026-04-26T10:06:08Z</time></trkpt><trkpt lat="44.044643271142704" lon="10.716255468606173"><ele>332.0</ele><time>2026-04-26T10:06:09Z</time></trkpt><trkpt lat="44.04459443652576" lon="10.716051994192158"><ele>332.0</ele><time>2026-04-26T10:06:10Z</time></trkpt><trkpt lat="44.044508084242786" lon="10.7158271309993"><ele>332.0</ele><time>2026-04-26T10:06:11Z</time></trkpt><trkpt lat="44.04441212340025" lon="10.715593931311458"><ele>332.0</ele><time>2026-04-26T10:06:12Z</time></trkpt><trkpt lat="44.0443179061687" lon="10.715375419854109"><ele>332.0</ele><time>2026-04-26T10:06:13Z</time></trkpt><trkpt lat="44.04423404597727" lon="10.715172133061323"><ele>332.0</ele><time>2026-04-26T10:06:14Z</time></trkpt><trkpt lat="44.044149297000494" lon="10.714970671950068"><ele>332.0</ele><time>2026-04-26T10:06:15Z</time></trkpt><trkpt lat="44.04406950380107" lon="10.714774697309501"><ele>332.0</ele><time>2026-04-26T10:06:16Z</time></trkpt><trkpt lat="44.04399131900184" lon="10.71458454315798"><ele>332.0</ele><time>2026-04-26T10:06:17Z</time></trkpt><trkpt lat="44.04391601867206" lon="10.714397228792059"><ele>332.0</ele><time>2026-04-26T10:06:18Z</time></trkpt><trkpt lat="44.043833499851594" lon="10.714208524232316"><ele>332.0</ele><time>2026-04-26T10:06:19Z</time></trkpt><trkpt lat="44.04375567583042" lon="10.71401585280939"><ele>332.0</ele><time>2026-04-26T10:06:20Z</time></trkpt><trkpt lat="44.04367963118052" lon="10.713824795247563"><ele>332.0</ele><time>2026-04-26T10:06:21Z</time></trkpt><trkpt lat="44.043598506537116" lon="10.713635396084221"><ele>332.0</ele><time>2026-04-26T10:06:22.001Z</time></trkpt><trkpt lat="44.04351953542385" lon="10.713446161270783"><ele>332.0</ele><time>2026-04-26T10:06:23.001Z</time></trkpt><trkpt lat="44.04344429378414" lon="10.713248998931032"><ele>335.6666666666667</ele><time>2026-04-26T10:06:24.001Z</time></trkpt><trkpt lat="44.043372610729726" lon="10.713051973201123"><ele>339.3333333333333</ele><time>2026-04-26T10:06:25.001Z</time></trkpt><trkpt lat="44.043311794955876" lon="10.712851549164656"><ele>343.0</ele><time>2026-04-26T10:06:26.001Z</time></trkpt><trkpt lat="44.043260937498786" lon="10.712640888631618"><ele>343.0</ele><time>2026-04-26T10:06:27.001Z</time></trkpt><trkpt lat="44.04322013140525" lon="10.712420860242512"><ele>343.0</ele><time>2026-04-26T10:06:28.001Z</time></trkpt><trkpt lat="44.04318372949092" lon="10.712196521876415"><ele>343.0</ele><time>2026-04-26T10:06:29.001Z</time></trkpt><trkpt lat="44.04316665465256" lon="10.711970956598313"><ele>343.0</ele><time>2026-04-26T10:06:30.001Z</time></trkpt><trkpt lat="44.04316150921167" lon="10.71175578934328"><ele>343.0</ele><time>2026-04-26T10:06:31.001Z</time></trkpt><trkpt lat="44.043160244802536" lon="10.711537439629936"><ele>343.0</ele><time>2026-04-26T10:06:32.001Z</time></trkpt><trkpt lat="44.04316080741949" lon="10.711314827559761"><ele>343.0</ele><time>2026-04-26T10:06:33.001Z</time></trkpt><trkpt lat="44.04315927467208" lon="10.711091177820443"><ele>343.0</ele><time>2026-04-26T10:06:34.001Z</time></trkpt><trkpt lat="44.04315251851711" lon="10.710873199352184"><ele>343.0</ele><time>2026-04-26T10:06:35.001Z</time></trkpt><trkpt lat="44.04314784256923" lon="10.710643781977703"><ele>340.3333333333333</ele><time>2026-04-26T10:06:36.001Z</time></trkpt><trkpt lat="44.04314400959854" lon="10.710403142796824"><ele>337.6666666666667</ele><time>2026-04-26T10:06:37.001Z</time></trkpt><trkpt lat="44.04314157094199" lon="10.71015341637633"><ele>335.0</ele><time>2026-04-26T10:06:38.001Z</time></trkpt><trkpt lat="44.04314017571908" lon="10.709898256987417"><ele>330.33333333333337</ele><time>2026-04-26T10:06:39.001Z</time></trkpt><trkpt lat="44.043136195246326" lon="10.709646015519839"><ele>325.6666666666667</ele><time>2026-04-26T10:06:40.001Z</time></trkpt><trkpt lat="44.04312999890829" lon="10.709394699212053"><ele>321.0</ele><time>2026-04-26T10:06:41.001Z</time></trkpt><trkpt lat="44.043120623056446" lon="10.709145112335957"><ele>320.3333333333333</ele><time>2026-04-26T10:06:42.001Z</time></trkpt><trkpt lat="44.04311287367722" lon="10.708908795431915"><ele>319.66666666666663</ele><time>2026-04-26T10:06:43.001Z</time></trkpt><trkpt lat="44.04310743935327" lon="10.708684988774287"><ele>319.0</ele><time>2026-04-26T10:06:44.001Z</time></trkpt><trkpt lat="44.04310584820679" lon="10.70845957598334"><ele>319.0</ele><time>2026-04-26T10:06:45.001Z</time></trkpt><trkpt lat="44.04310513613596" lon="10.708244667109426"><ele>319.0</ele><time>2026-04-26T10:06:46.001Z</time></trkpt><trkpt lat="44.04311547496352" lon="10.708043022198467"><ele>319.0</ele><time>2026-04-26T10:06:47.001Z</time></trkpt><trkpt lat="44.04315016644136" lon="10.707827448896063"><ele>320.0</ele><time>2026-04-26T10:06:48.001Z</time></trkpt><trkpt lat="44.04318969056385" lon="10.707604726158824"><ele>321.0</ele><time>2026-04-26T10:06:49.001Z</time></trkpt><trkpt lat="44.043241889427065" lon="10.707372819477582"><ele>322.0</ele><time>2026-04-26T10:06:50.001Z</time></trkpt><trkpt lat="44.04329860856868" lon="10.707134381985712"><ele>324.0</ele><time>2026-04-26T10:06:51.001Z</time></trkpt><trkpt lat="44.04335386466491" lon="10.706889159637832"><ele>326.0</ele><time>2026-04-26T10:06:52.001Z</time></trkpt><trkpt lat="44.043407145669995" lon="10.706631946824556"><ele>328.0</ele><time>2026-04-26T10:06:53.001Z</time></trkpt><trkpt lat="44.043460596944556" lon="10.706380175680216"><ele>328.0</ele><time>2026-04-26T10:06:54.001Z</time></trkpt><trkpt lat="44.0435095018264" lon="10.70613937571139"><ele>328.0</ele><time>2026-04-26T10:06:55.001Z</time></trkpt><trkpt lat="44.04355809713011" lon="10.705907660682444"><ele>328.0</ele><time>2026-04-26T10:06:56.001Z</time></trkpt><trkpt lat="44.043615679023766" lon="10.705675935957268"><ele>327.66666666666663</ele><time>2026-04-26T10:06:57.001Z</time></trkpt><trkpt lat="44.043695704496486" lon="10.705464291144118"><ele>327.3333333333333</ele><time>2026-04-26T10:06:58.001Z</time></trkpt><trkpt lat="44.043791938021805" lon="10.705261836968003"><ele>327.0</ele><time>2026-04-26T10:06:59.001Z</time></trkpt><trkpt lat="44.043898194123436" lon="10.70505493509025"><ele>327.0</ele><time>2026-04-26T10:07:00.001Z</time></trkpt><trkpt lat="44.04399543327275" lon="10.704849964792578"><ele>327.0</ele><time>2026-04-26T10:07:01.001Z</time></trkpt><trkpt lat="44.04409497090312" lon="10.704641192358379"><ele>327.0</ele><time>2026-04-26T10:07:02.001Z</time></trkpt><trkpt lat="44.04418484324429" lon="10.70444501819471"><ele>327.3333333333333</ele><time>2026-04-26T10:07:03.001Z</time></trkpt><trkpt lat="44.044278869135645" lon="10.704254189570404"><ele>327.66666666666663</ele><time>2026-04-26T10:07:04.001Z</time></trkpt><trkpt lat="44.04437650722382" lon="10.704066656720403"><ele>328.0</ele><time>2026-04-26T10:07:05.001Z</time></trkpt><trkpt lat="44.044497836132834" lon="10.703897848229575"><ele>328.0</ele><time>2026-04-26T10:07:06.001Z</time></trkpt><trkpt lat="44.04462329896195" lon="10.703728385279252"><ele>328.0</ele><time>2026-04-26T10:07:07.001Z</time></trkpt><trkpt lat="44.04475436143574" lon="10.70355972328481"><ele>328.0</ele><time>2026-04-26T10:07:08.001Z</time></trkpt><trkpt lat="44.04488005570522" lon="10.703378390344367"><ele>332.0</ele><time>2026-04-26T10:07:09.001Z</time></trkpt><trkpt lat="44.04500440381427" lon="10.70318690065141"><ele>336.0</ele><time>2026-04-26T10:07:10.001Z</time></trkpt><trkpt lat="44.045131946785396" lon="10.702992292107679"><ele>340.0</ele><time>2026-04-26T10:07:11.001Z</time></trkpt><trkpt lat="44.04524871239954" lon="10.702787362610774"><ele>336.3333333333333</ele><time>2026-04-26T10:07:12.001Z</time></trkpt><trkpt lat="44.04535643238501" lon="10.702584885011621"><ele>332.6666666666667</ele><time>2026-04-26T10:07:13.001Z</time></trkpt><trkpt lat="44.045454173939355" lon="10.7023817270982"><ele>329.0</ele><time>2026-04-26T10:07:14.001Z</time></trkpt><trkpt lat="44.04552196024194" lon="10.702150449219687"><ele>330.6666666666667</ele><time>2026-04-26T10:07:15.001Z</time></trkpt><trkpt lat="44.04555820293306" lon="10.701879734104413"><ele>332.3333333333333</ele><time>2026-04-26T10:07:16.001Z</time></trkpt><trkpt lat="44.04557226065396" lon="10.701598710942033"><ele>334.0</ele><time>2026-04-26T10:07:17.001Z</time></trkpt><trkpt lat="44.04556581477809" lon="10.7013161204926"><ele>333.66666666666663</ele><time>2026-04-26T10:07:18.001Z</time></trkpt><trkpt lat="44.04558747584336" lon="10.701020208400713"><ele>333.3333333333333</ele><time>2026-04-26T10:07:19.001Z</time></trkpt><trkpt lat="44.04562149439241" lon="10.700730195151369"><ele>333.0</ele><time>2026-04-26T10:07:20.001Z</time></trkpt><trkpt lat="44.04566240646905" lon="10.700445203127087"><ele>331.6666666666667</ele><time>2026-04-26T10:07:21.001Z</time></trkpt><trkpt lat="44.045699244817946" lon="10.700169127711442"><ele>330.33333333333337</ele><time>2026-04-26T10:07:22.001Z</time></trkpt><trkpt lat="44.045714137742586" lon="10.699911400661342"><ele>329.0</ele><time>2026-04-26T10:07:22.999Z</time></trkpt><trkpt lat="44.04570537231063" lon="10.699646514775946"><ele>328.33333333333337</ele><time>2026-04-26T10:07:23.999Z</time></trkpt><trkpt lat="44.04568267952771" lon="10.699401889086875"><ele>327.6666666666667</ele><time>2026-04-26T10:07:24.999Z</time></trkpt><trkpt lat="44.04565329164028" lon="10.699176286935817"><ele>327.0</ele><time>2026-04-26T10:07:25.999Z</time></trkpt><trkpt lat="44.04564002517931" lon="10.698961859480429"><ele>327.0</ele><time>2026-04-26T10:07:26.999Z</time></trkpt><trkpt lat="44.045671417933654" lon="10.698746684687192"><ele>327.0</ele><time>2026-04-26T10:07:27.999Z</time></trkpt><trkpt lat="44.04572943439478" lon="10.698528083212585"><ele>327.0</ele><time>2026-04-26T10:07:28.999Z</time></trkpt><trkpt lat="44.04579848822871" lon="10.698289436112708"><ele>323.3333333333333</ele><time>2026-04-26T10:07:29.999Z</time></trkpt><trkpt lat="44.04585500936397" lon="10.698040532051191"><ele>319.66666666666663</ele><time>2026-04-26T10:07:30.999Z</time></trkpt><trkpt lat="44.04591687351305" lon="10.697786965696206"><ele>316.0</ele><time>2026-04-26T10:07:31.999Z</time></trkpt><trkpt lat="44.04597975134464" lon="10.697531681796141"><ele>313.66666666666663</ele><time>2026-04-26T10:07:32.999Z</time></trkpt><trkpt lat="44.0460317065459" lon="10.697302426355442"><ele>311.3333333333333</ele><time>2026-04-26T10:07:33.999Z</time></trkpt><trkpt lat="44.046075102940186" lon="10.697075670075083"><ele>309.0</ele><time>2026-04-26T10:07:34.999Z</time></trkpt><trkpt lat="44.04608228972559" lon="10.696831032097087"><ele>308.0</ele><time>2026-04-26T10:07:35.999Z</time></trkpt><trkpt lat="44.0460739814384" lon="10.69655565350497"><ele>307.0</ele><time>2026-04-26T10:07:36.999Z</time></trkpt><trkpt lat="44.046060297235854" lon="10.696256853321675"><ele>306.0</ele><time>2026-04-26T10:07:37.999Z</time></trkpt><trkpt lat="44.0460415944329" lon="10.695960008354696"><ele>308.0</ele><time>2026-04-26T10:07:38.999Z</time></trkpt><trkpt lat="44.046028232469155" lon="10.695673290090664"><ele>310.0</ele><time>2026-04-26T10:07:39.999Z</time></trkpt><trkpt lat="44.04601865342712" lon="10.695407135590429"><ele>312.0</ele><time>2026-04-26T10:07:40.999Z</time></trkpt><trkpt lat="44.04601849019672" lon="10.695163316058174"><ele>312.3333333333333</ele><time>2026-04-26T10:07:41.999Z</time></trkpt><trkpt lat="44.046033675830024" lon="10.694927478516233"><ele>312.66666666666663</ele><time>2026-04-26T10:07:42.999Z</time></trkpt><trkpt lat="44.046059264727894" lon="10.694702492714315"><ele>313.0</ele><time>2026-04-26T10:07:43.999Z</time></trkpt><trkpt lat="44.04610344960136" lon="10.694485377730496"><ele>311.66666666666663</ele><time>2026-04-26T10:07:44.999Z</time></trkpt><trkpt lat="44.0461660325029" lon="10.69427062385627"><ele>310.3333333333333</ele><time>2026-04-26T10:07:46Z</time></trkpt><trkpt lat="44.04622534289482" lon="10.694075011256693"><ele>309.0</ele><time>2026-04-26T10:07:47Z</time></trkpt><trkpt lat="44.04627892187974" lon="10.693863181909906"><ele>309.0</ele><time>2026-04-26T10:07:48Z</time></trkpt><trkpt lat="44.04632292084742" lon="10.693654006305282"><ele>309.0</ele><time>2026-04-26T10:07:49Z</time></trkpt><trkpt lat="44.04636628906739" lon="10.693457466384416"><ele>309.0</ele><time>2026-04-26T10:07:50Z</time></trkpt><trkpt lat="44.04639772330434" lon="10.693272859946202"><ele>309.0</ele><time>2026-04-26T10:07:51Z</time></trkpt><trkpt lat="44.04639187471434" lon="10.69308976442538"><ele>308.75</ele><time>2026-04-26T10:07:52Z</time></trkpt><trkpt lat="44.04635400138716" lon="10.69291070219576"><ele>308.5</ele><time>2026-04-26T10:07:53Z</time></trkpt><trkpt lat="44.04627706681413" lon="10.692739672694248"><ele>308.25</ele><time>2026-04-26T10:07:54Z</time></trkpt><trkpt lat="44.046178762091024" lon="10.692607669316805"><ele>308.0</ele><time>2026-04-26T10:07:55Z</time></trkpt><trkpt lat="44.04603735655161" lon="10.692494352335848"><ele>308.0</ele><time>2026-04-26T10:07:56Z</time></trkpt><trkpt lat="44.04592142046017" lon="10.692352108980273"><ele>308.0</ele><time>2026-04-26T10:07:57Z</time></trkpt><trkpt lat="44.045802924617135" lon="10.692190613849098"><ele>308.0</ele><time>2026-04-26T10:07:58Z</time></trkpt><trkpt lat="44.04569960016276" lon="10.692014925202654"><ele>305.6666666666667</ele><time>2026-04-26T10:07:59Z</time></trkpt><trkpt lat="44.04559934377013" lon="10.691835139830669"><ele>303.3333333333333</ele><time>2026-04-26T10:08:00Z</time></trkpt><trkpt lat="44.0454887322002" lon="10.691674588279367"><ele>301.0</ele><time>2026-04-26T10:08:01Z</time></trkpt><trkpt lat="44.04537100632528" lon="10.691503973506638"><ele>301.0</ele><time>2026-04-26T10:08:02Z</time></trkpt><trkpt lat="44.04524028309498" lon="10.691346464360649"><ele>301.0</ele><time>2026-04-26T10:08:03Z</time></trkpt><trkpt lat="44.0450943094652" lon="10.691200298159698"><ele>301.0</ele><time>2026-04-26T10:08:04Z</time></trkpt><trkpt lat="44.04493833594398" lon="10.691063733055525"><ele>301.0</ele><time>2026-04-26T10:08:05Z</time></trkpt><trkpt lat="44.04477094990027" lon="10.6909304954301"><ele>301.0</ele><time>2026-04-26T10:08:06Z</time></trkpt><trkpt lat="44.044610760124215" lon="10.69079977145541"><ele>301.0</ele><time>2026-04-26T10:08:07Z</time></trkpt><trkpt lat="44.04444548295356" lon="10.690679884420394"><ele>301.0</ele><time>2026-04-26T10:08:08Z</time></trkpt><trkpt lat="44.04429122162337" lon="10.690564956138278"><ele>301.0</ele><time>2026-04-26T10:08:09Z</time></trkpt><trkpt lat="44.04412289934165" lon="10.690462850455736"><ele>301.0</ele><time>2026-04-26T10:08:10Z</time></trkpt><trkpt lat="44.04396214797476" lon="10.690406795995987"><ele>300.0</ele><time>2026-04-26T10:08:11Z</time></trkpt><trkpt lat="44.04380635761516" lon="10.690355243958091"><ele>299.0</ele><time>2026-04-26T10:08:12Z</time></trkpt><trkpt lat="44.04366277866648" lon="10.690297298915933"><ele>298.0</ele><time>2026-04-26T10:08:13Z</time></trkpt><trkpt lat="44.04353876384254" lon="10.690220609775901"><ele>297.0</ele><time>2026-04-26T10:08:14Z</time></trkpt><trkpt lat="44.043424829201335" lon="10.690112035133957"><ele>296.6666666666667</ele><time>2026-04-26T10:08:15Z</time></trkpt><trkpt lat="44.04334452006354" lon="10.689960020831803"><ele>296.33333333333337</ele><time>2026-04-26T10:08:16Z</time></trkpt><trkpt lat="44.04325817685256" lon="10.689773962544736"><ele>296.0</ele><time>2026-04-26T10:08:17Z</time></trkpt><trkpt lat="44.043179958863014" lon="10.689585831479949"><ele>296.0</ele><time>2026-04-26T10:08:18Z</time></trkpt><trkpt lat="44.04307976587081" lon="10.689416612834945"><ele>296.0</ele><time>2026-04-26T10:08:19Z</time></trkpt><trkpt lat="44.04295412631045" lon="10.689257849381674"><ele>296.0</ele><time>2026-04-26T10:08:20Z</time></trkpt><trkpt lat="44.04282893532027" lon="10.689111854289717"><ele>296.0</ele><time>2026-04-26T10:08:21Z</time></trkpt><trkpt lat="44.042702018418105" lon="10.688979333655633"><ele>296.0</ele><time>2026-04-26T10:08:22Z</time></trkpt><trkpt lat="44.04259732713879" lon="10.68883464611269"><ele>296.0</ele><time>2026-04-26T10:08:23Z</time></trkpt><trkpt lat="44.042509106144685" lon="10.688686110252368"><ele>296.0</ele><time>2026-04-26T10:08:24Z</time></trkpt><trkpt lat="44.04244604330027" lon="10.688510984573105"><ele>295.0</ele><time>2026-04-26T10:08:25Z</time></trkpt><trkpt lat="44.042401048363175" lon="10.688308719971328"><ele>294.0</ele><time>2026-04-26T10:08:26.001Z</time></trkpt><trkpt lat="44.04239398599806" lon="10.688106945214843"><ele>293.0</ele><time>2026-04-26T10:08:27.001Z</time></trkpt><trkpt lat="44.04241349634112" lon="10.687898543976114"><ele>292.0</ele><time>2026-04-26T10:08:28.001Z</time></trkpt><trkpt lat="44.04245348965448" lon="10.687690956470636"><ele>294.0</ele><time>2026-04-26T10:08:29.001Z</time></trkpt><trkpt lat="44.04249824566782" lon="10.687476071890357"><ele>296.0</ele><time>2026-04-26T10:08:30.001Z</time></trkpt><trkpt lat="44.04255642042116" lon="10.687262317712769"><ele>298.0</ele><time>2026-04-26T10:08:31.001Z</time></trkpt><trkpt lat="44.042623484590486" lon="10.687044395082557"><ele>297.3333333333333</ele><time>2026-04-26T10:08:32.001Z</time></trkpt><trkpt lat="44.042688357442245" lon="10.68680969460287"><ele>296.6666666666667</ele><time>2026-04-26T10:08:33.001Z</time></trkpt><trkpt lat="44.04276146070726" lon="10.686578715473452"><ele>296.0</ele><time>2026-04-26T10:08:34.001Z</time></trkpt><trkpt lat="44.042832533178135" lon="10.686345143233659"><ele>296.0</ele><time>2026-04-26T10:08:35.001Z</time></trkpt><trkpt lat="44.0428907935325" lon="10.68610910742621"><ele>296.0</ele><time>2026-04-26T10:08:36.001Z</time></trkpt><trkpt lat="44.04293862538267" lon="10.685859790627621"><ele>296.0</ele><time>2026-04-26T10:08:37.001Z</time></trkpt><trkpt lat="44.04297740964921" lon="10.685609279946462"><ele>295.33333333333337</ele><time>2026-04-26T10:08:38.001Z</time></trkpt><trkpt lat="44.043008693496596" lon="10.68535225607544"><ele>294.6666666666667</ele><time>2026-04-26T10:08:39.001Z</time></trkpt><trkpt lat="44.04304082992325" lon="10.685103592184513"><ele>294.0</ele><time>2026-04-26T10:08:40.001Z</time></trkpt><trkpt lat="44.04307568340793" lon="10.684852267131065"><ele>294.0</ele><time>2026-04-26T10:08:41.001Z</time></trkpt><trkpt lat="44.04311440666486" lon="10.684604946781441"><ele>294.0</ele><time>2026-04-26T10:08:42.001Z</time></trkpt><trkpt lat="44.0431541335576" lon="10.684365415219382"><ele>294.0</ele><time>2026-04-26T10:08:43.001Z</time></trkpt><trkpt lat="44.04318821291659" lon="10.684118301560908"><ele>294.0</ele><time>2026-04-26T10:08:44.001Z</time></trkpt><trkpt lat="44.04322751755725" lon="10.683864214592827"><ele>294.0</ele><time>2026-04-26T10:08:45.001Z</time></trkpt><trkpt lat="44.04326670058504" lon="10.68361507490464"><ele>294.0</ele><time>2026-04-26T10:08:46.001Z</time></trkpt><trkpt lat="44.04330762356553" lon="10.683356918868348"><ele>293.3333333333333</ele><time>2026-04-26T10:08:47.001Z</time></trkpt><trkpt lat="44.04334749078753" lon="10.683100080347021"><ele>292.66666666666663</ele><time>2026-04-26T10:08:48.001Z</time></trkpt><trkpt lat="44.04338669990052" lon="10.68283585687045"><ele>292.0</ele><time>2026-04-26T10:08:49.001Z</time></trkpt><trkpt lat="44.043422703681564" lon="10.68257154877306"><ele>292.0</ele><time>2026-04-26T10:08:50.001Z</time></trkpt><trkpt lat="44.04345744305422" lon="10.682315379707543"><ele>292.0</ele><time>2026-04-26T10:08:51.001Z</time></trkpt><trkpt lat="44.04350042577802" lon="10.682075410928501"><ele>292.0</ele><time>2026-04-26T10:08:52.001Z</time></trkpt><trkpt lat="44.04353668212882" lon="10.6818243538825"><ele>293.0</ele><time>2026-04-26T10:08:53.001Z</time></trkpt><trkpt lat="44.04356481307181" lon="10.68158734230735"><ele>294.0</ele><time>2026-04-26T10:08:54.001Z</time></trkpt><trkpt lat="44.04357090898143" lon="10.68135713647398"><ele>295.0</ele><time>2026-04-26T10:08:55.001Z</time></trkpt><trkpt lat="44.04354393235867" lon="10.681105380317518"><ele>295.3333333333333</ele><time>2026-04-26T10:08:56.001Z</time></trkpt><trkpt lat="44.04349030180473" lon="10.68086736523941"><ele>295.6666666666667</ele><time>2026-04-26T10:08:57.001Z</time></trkpt><trkpt lat="44.043445941162396" lon="10.68064563511554"><ele>296.0</ele><time>2026-04-26T10:08:58.001Z</time></trkpt><trkpt lat="44.043382606393806" lon="10.680460314437513"><ele>298.0</ele><time>2026-04-26T10:08:59.001Z</time></trkpt><trkpt lat="44.04327427677808" lon="10.680295592713785"><ele>300.0</ele><time>2026-04-26T10:09:00.001Z</time></trkpt><trkpt lat="44.043163240712566" lon="10.680116763696757"><ele>302.0</ele><time>2026-04-26T10:09:01.001Z</time></trkpt><trkpt lat="44.04309123108868" lon="10.679912758849671"><ele>296.33333333333337</ele><time>2026-04-26T10:09:02.001Z</time></trkpt><trkpt lat="44.043020916836674" lon="10.67967868160233"><ele>290.6666666666667</ele><time>2026-04-26T10:09:03.001Z</time></trkpt><trkpt lat="44.042953865990754" lon="10.67944803408469"><ele>285.0</ele><time>2026-04-26T10:09:04.001Z</time></trkpt><trkpt lat="44.042890334227245" lon="10.679229492130991"><ele>283.3333333333333</ele><time>2026-04-26T10:09:05.001Z</time></trkpt><trkpt lat="44.04282807067055" lon="10.679015310653273"><ele>281.66666666666663</ele><time>2026-04-26T10:09:06.001Z</time></trkpt><trkpt lat="44.04276428392749" lon="10.678798965026898"><ele>280.0</ele><time>2026-04-26T10:09:07.001Z</time></trkpt><trkpt lat="44.04270156162772" lon="10.678583474247107"><ele>280.0</ele><time>2026-04-26T10:09:08.001Z</time></trkpt><trkpt lat="44.042643431778394" lon="10.678383774702407"><ele>280.0</ele><time>2026-04-26T10:09:09.001Z</time></trkpt><trkpt lat="44.042584800621604" lon="10.678182352876178"><ele>280.0</ele><time>2026-04-26T10:09:10.001Z</time></trkpt><trkpt lat="44.04251527991949" lon="10.677993040311835"><ele>280.66666666666663</ele><time>2026-04-26T10:09:11.001Z</time></trkpt><trkpt lat="44.04246215239708" lon="10.677792404125091"><ele>281.3333333333333</ele><time>2026-04-26T10:09:12.001Z</time></trkpt><trkpt lat="44.04241636900337" lon="10.677605412328443"><ele>282.0</ele><time>2026-04-26T10:09:13.001Z</time></trkpt><trkpt lat="44.042379175563866" lon="10.677386587585747"><ele>280.6666666666667</ele><time>2026-04-26T10:09:14.001Z</time></trkpt><trkpt lat="44.04236242248436" lon="10.67716901172113"><ele>279.33333333333337</ele><time>2026-04-26T10:09:15.001Z</time></trkpt><trkpt lat="44.042339100550684" lon="10.67695627312971"><ele>278.0</ele><time>2026-04-26T10:09:16.001Z</time></trkpt><trkpt lat="44.04232548056326" lon="10.676723687030709"><ele>278.0</ele><time>2026-04-26T10:09:17.001Z</time></trkpt><trkpt lat="44.042331593069605" lon="10.676475646321938"><ele>278.0</ele><time>2026-04-26T10:09:18.002Z</time></trkpt><trkpt lat="44.04235195238594" lon="10.676231716095986"><ele>278.0</ele><time>2026-04-26T10:09:19.002Z</time></trkpt><trkpt lat="44.04239396593487" lon="10.675992188080839"><ele>277.6666666666667</ele><time>2026-04-26T10:09:20.002Z</time></trkpt><trkpt lat="44.04245128351129" lon="10.675750662500048"><ele>277.3333333333333</ele><time>2026-04-26T10:09:21.002Z</time></trkpt><trkpt lat="44.04251036963592" lon="10.675502152316596"><ele>277.0</ele><time>2026-04-26T10:09:22.002Z</time></trkpt><trkpt lat="44.04258957306597" lon="10.675264979249553"><ele>276.3333333333333</ele><time>2026-04-26T10:09:23.002Z</time></trkpt><trkpt lat="44.042695753471804" lon="10.675050855076044"><ele>275.6666666666667</ele><time>2026-04-26T10:09:24.002Z</time></trkpt><trkpt lat="44.04281087260011" lon="10.674831460461213"><ele>275.0</ele><time>2026-04-26T10:09:25.002Z</time></trkpt><trkpt lat="44.04294348098677" lon="10.674631206172679"><ele>275.0</ele><time>2026-04-26T10:09:26.002Z</time></trkpt><trkpt lat="44.043074904897935" lon="10.674444509213345"><ele>275.0</ele><time>2026-04-26T10:09:27.002Z</time></trkpt><trkpt lat="44.04319946872594" lon="10.67426150540613"><ele>275.0</ele><time>2026-04-26T10:09:28.002Z</time></trkpt><trkpt lat="44.04330686521525" lon="10.674072443335191"><ele>276.0</ele><time>2026-04-26T10:09:28.999Z</time></trkpt><trkpt lat="44.04340163581792" lon="10.673854832000236"><ele>277.0</ele><time>2026-04-26T10:09:29.999Z</time></trkpt><trkpt lat="44.04349038064015" lon="10.67360404939361"><ele>278.0</ele><time>2026-04-26T10:09:30.999Z</time></trkpt><trkpt lat="44.04355292466447" lon="10.6733511000604"><ele>276.0</ele><time>2026-04-26T10:09:31.999Z</time></trkpt><trkpt lat="44.043617663489535" lon="10.673074566297302"><ele>274.0</ele><time>2026-04-26T10:09:32.999Z</time></trkpt><trkpt lat="44.04368542990006" lon="10.67279275610904"><ele>272.0</ele><time>2026-04-26T10:09:33.999Z</time></trkpt><trkpt lat="44.04376023254853" lon="10.672499758330378"><ele>270.5</ele><time>2026-04-26T10:09:34.999Z</time></trkpt><trkpt lat="44.04383884868505" lon="10.672202420177053"><ele>269.0</ele><time>2026-04-26T10:09:35.999Z</time></trkpt><trkpt lat="44.04391420886084" lon="10.671910294328631"><ele>271.6666666666667</ele><time>2026-04-26T10:09:36.999Z</time></trkpt><trkpt lat="44.04398715471848" lon="10.67162528847855"><ele>274.3333333333333</ele><time>2026-04-26T10:09:37.999Z</time></trkpt><trkpt lat="44.04405700198515" lon="10.671352513308126"><ele>277.0</ele><time>2026-04-26T10:09:38.999Z</time></trkpt><trkpt lat="44.04412812760878" lon="10.671080600698517"><ele>278.3333333333333</ele><time>2026-04-26T10:09:39.999Z</time></trkpt><trkpt lat="44.04419923173856" lon="10.670810430771118"><ele>279.6666666666667</ele><time>2026-04-26T10:09:40.999Z</time></trkpt><trkpt lat="44.04427214593089" lon="10.670531179385552"><ele>281.0</ele><time>2026-04-26T10:09:41.999Z</time></trkpt><trkpt lat="44.04433959816972" lon="10.670264287156838"><ele>282.0</ele><time>2026-04-26T10:09:42.999Z</time></trkpt><trkpt lat="44.04441566997869" lon="10.670001867095241"><ele>283.0</ele><time>2026-04-26T10:09:43.999Z</time></trkpt><trkpt lat="44.04450394546179" lon="10.669736694422053"><ele>284.0</ele><time>2026-04-26T10:09:44.999Z</time></trkpt><trkpt lat="44.04458699664958" lon="10.669473515816916"><ele>286.0</ele><time>2026-04-26T10:09:45.999Z</time></trkpt><trkpt lat="44.04465132107913" lon="10.669196510686943"><ele>288.0</ele><time>2026-04-26T10:09:46.999Z</time></trkpt><trkpt lat="44.04469519585081" lon="10.668905590458797"><ele>290.0</ele><time>2026-04-26T10:09:47.999Z</time></trkpt><trkpt lat="44.044715772688534" lon="10.66858757713521"><ele>290.6666666666667</ele><time>2026-04-26T10:09:48.999Z</time></trkpt><trkpt lat="44.04470856409254" lon="10.668286991324758"><ele>291.3333333333333</ele><time>2026-04-26T10:09:49.999Z</time></trkpt><trkpt lat="44.044671071815486" lon="10.667983681746103"><ele>292.0</ele><time>2026-04-26T10:09:50.999Z</time></trkpt><trkpt lat="44.044601860739526" lon="10.667683235153719"><ele>283.5</ele><time>2026-04-26T10:09:52Z</time></trkpt><trkpt lat="44.044508807319836" lon="10.667388875137494"><ele>275.0</ele><time>2026-04-26T10:09:53Z</time></trkpt><trkpt lat="44.044421537883075" lon="10.667083947946299"><ele>274.33333333333337</ele><time>2026-04-26T10:09:54Z</time></trkpt><trkpt lat="44.044325490659425" lon="10.666794476423773"><ele>273.6666666666667</ele><time>2026-04-26T10:09:55Z</time></trkpt><trkpt lat="44.04423528016723" lon="10.666528186081122"><ele>273.0</ele><time>2026-04-26T10:09:56Z</time></trkpt><trkpt lat="44.04415824866479" lon="10.666284970741895"><ele>273.3333333333333</ele><time>2026-04-26T10:09:57Z</time></trkpt><trkpt lat="44.04413458826666" lon="10.666048173005294"><ele>273.66666666666663</ele><time>2026-04-26T10:09:58Z</time></trkpt><trkpt lat="44.044145949017974" lon="10.66578904390244"><ele>274.0</ele><time>2026-04-26T10:09:59Z</time></trkpt><trkpt lat="44.044130608979046" lon="10.665521427732369"><ele>274.66666666666663</ele><time>2026-04-26T10:10:00Z</time></trkpt><trkpt lat="44.04408618077842" lon="10.665279914897106"><ele>275.3333333333333</ele><time>2026-04-26T10:10:01Z</time></trkpt><trkpt lat="44.04401030040411" lon="10.66502300927676"><ele>276.0</ele><time>2026-04-26T10:10:02Z</time></trkpt><trkpt lat="44.043942996280386" lon="10.664762071618114"><ele>276.0</ele><time>2026-04-26T10:10:03Z</time></trkpt><trkpt lat="44.04389183531506" lon="10.664529348090479"><ele>276.0</ele><time>2026-04-26T10:10:04Z</time></trkpt><trkpt lat="44.043838112533095" lon="10.66435232317174"><ele>276.0</ele><time>2026-04-26T10:10:05Z</time></trkpt><trkpt lat="44.04373087314194" lon="10.664231687739012"><ele>274.6666666666667</ele><time>2026-04-26T10:10:06Z</time></trkpt><trkpt lat="44.04358319522168" lon="10.664162865725896"><ele>273.33333333333337</ele><time>2026-04-26T10:10:07Z</time></trkpt><trkpt lat="44.04341498546154" lon="10.664128710154646"><ele>272.0</ele><time>2026-04-26T10:10:08Z</time></trkpt><trkpt lat="44.043202166357496" lon="10.66414448409278"><ele>268.0</ele><time>2026-04-26T10:10:09Z</time></trkpt><trkpt lat="44.04298319257154" lon="10.664103549448445"><ele>264.0</ele><time>2026-04-26T10:10:10Z</time></trkpt><trkpt lat="44.04275478354091" lon="10.664073074408721"><ele>264.0</ele><time>2026-04-26T10:10:11Z</time></trkpt><trkpt lat="44.04252463610348" lon="10.664023913990698"><ele>264.0</ele><time>2026-04-26T10:10:12Z</time></trkpt><trkpt lat="44.042269532342054" lon="10.663957041497378"><ele>265.0</ele><time>2026-04-26T10:10:13Z</time></trkpt><trkpt lat="44.04203309735545" lon="10.663891306909646"><ele>266.0</ele><time>2026-04-26T10:10:14Z</time></trkpt><trkpt lat="44.04181832207215" lon="10.663829685937088"><ele>272.33333333333337</ele><time>2026-04-26T10:10:15Z</time></trkpt><trkpt lat="44.041615849901326" lon="10.66376657527118"><ele>278.6666666666667</ele><time>2026-04-26T10:10:16Z</time></trkpt><trkpt lat="44.04142144680714" lon="10.6636967563185"><ele>285.0</ele><time>2026-04-26T10:10:17Z</time></trkpt><trkpt lat="44.041240639123444" lon="10.663619271551239"><ele>285.3333333333333</ele><time>2026-04-26T10:10:18Z</time></trkpt><trkpt lat="44.04106545501773" lon="10.663512711985467"><ele>285.66666666666663</ele><time>2026-04-26T10:10:19Z</time></trkpt><trkpt lat="44.04089175569029" lon="10.663394294915202"><ele>286.0</ele><time>2026-04-26T10:10:20Z</time></trkpt><trkpt lat="44.040708782530125" lon="10.663289397711896"><ele>286.0</ele><time>2026-04-26T10:10:21Z</time></trkpt><trkpt lat="44.04053316660365" lon="10.663166975774152"><ele>286.0</ele><time>2026-04-26T10:10:22Z</time></trkpt><trkpt lat="44.04036720380292" lon="10.663023537795763"><ele>286.0</ele><time>2026-04-26T10:10:23Z</time></trkpt><trkpt lat="44.040190791398146" lon="10.662895065268186"><ele>286.0</ele><time>2026-04-26T10:10:24Z</time></trkpt><trkpt lat="44.04000639908803" lon="10.662762488603004"><ele>286.0</ele><time>2026-04-26T10:10:25Z</time></trkpt><trkpt lat="44.0398270513271" lon="10.662637522567032"><ele>286.0</ele><time>2026-04-26T10:10:26Z</time></trkpt><trkpt lat="44.03965134817879" lon="10.662546976041048"><ele>286.0</ele><time>2026-04-26T10:10:27Z</time></trkpt><trkpt lat="44.03946863870283" lon="10.662461990418207"><ele>286.0</ele><time>2026-04-26T10:10:28.001Z</time></trkpt><trkpt lat="44.039270804776464" lon="10.662441526972508"><ele>286.0</ele><time>2026-04-26T10:10:29.001Z</time></trkpt><trkpt lat="44.03906039286204" lon="10.662460595972538"><ele>283.5</ele><time>2026-04-26T10:10:30.001Z</time></trkpt><trkpt lat="44.03881509396445" lon="10.66251105761641"><ele>281.0</ele><time>2026-04-26T10:10:31.001Z</time></trkpt><trkpt lat="44.0385687533703" lon="10.662527756673933"><ele>281.0</ele><time>2026-04-26T10:10:32.001Z</time></trkpt><trkpt lat="44.038338298115676" lon="10.662552918743629"><ele>281.0</ele><time>2026-04-26T10:10:33.001Z</time></trkpt><trkpt lat="44.03813412510526" lon="10.66257521122411"><ele>281.0</ele><time>2026-04-26T10:10:34.001Z</time></trkpt><trkpt lat="44.037964154913894" lon="10.662600158605372"><ele>274.75</ele><time>2026-04-26T10:10:35.001Z</time></trkpt><trkpt lat="44.03781030808915" lon="10.66260857612209"><ele>268.5</ele><time>2026-04-26T10:10:36.001Z</time></trkpt><trkpt lat="44.03768987618262" lon="10.662584963444626"><ele>262.25</ele><time>2026-04-26T10:10:37.001Z</time></trkpt><trkpt lat="44.03759976752247" lon="10.662483466284955"><ele>256.0</ele><time>2026-04-26T10:10:38.001Z</time></trkpt><trkpt lat="44.03755194853852" lon="10.662333112558631"><ele>256.0</ele><time>2026-04-26T10:10:39.001Z</time></trkpt><trkpt lat="44.037474731856456" lon="10.662160787463986"><ele>256.0</ele><time>2026-04-26T10:10:40.001Z</time></trkpt><trkpt lat="44.03739680690761" lon="10.661939473693307"><ele>256.0</ele><time>2026-04-26T10:10:41.001Z</time></trkpt><trkpt lat="44.037301382577866" lon="10.6616924383591"><ele>252.0</ele><time>2026-04-26T10:10:42.001Z</time></trkpt><trkpt lat="44.03720456436384" lon="10.661454671012025"><ele>248.0</ele><time>2026-04-26T10:10:43.001Z</time></trkpt><trkpt lat="44.03711227150208" lon="10.66121854050326"><ele>244.0</ele><time>2026-04-26T10:10:44.001Z</time></trkpt><trkpt lat="44.03701835881892" lon="10.660980781623534"><ele>244.0</ele><time>2026-04-26T10:10:45.001Z</time></trkpt><trkpt lat="44.03691125597217" lon="10.660757425509374"><ele>244.0</ele><time>2026-04-26T10:10:46.001Z</time></trkpt><trkpt lat="44.03679286636498" lon="10.660542619715734"><ele>244.0</ele><time>2026-04-26T10:10:47.001Z</time></trkpt><trkpt lat="44.03667000182139" lon="10.660329666093894"><ele>241.0</ele><time>2026-04-26T10:10:48.001Z</time></trkpt><trkpt lat="44.03654327811294" lon="10.660117568720512"><ele>238.0</ele><time>2026-04-26T10:10:49.001Z</time></trkpt><trkpt lat="44.03643028165268" lon="10.65992458066783"><ele>235.0</ele><time>2026-04-26T10:10:50.001Z</time></trkpt><trkpt lat="44.03631533755218" lon="10.659727547749672"><ele>235.0</ele><time>2026-04-26T10:10:51.001Z</time></trkpt><trkpt lat="44.03622662972457" lon="10.659544002556723"><ele>235.0</ele><time>2026-04-26T10:10:52.001Z</time></trkpt><trkpt lat="44.036133091066695" lon="10.659406611423261"><ele>235.0</ele><time>2026-04-26T10:10:53.001Z</time></trkpt><trkpt lat="44.03610410618829" lon="10.659246556727979"><ele>235.0</ele><time>2026-04-26T10:10:54.001Z</time></trkpt><trkpt lat="44.03611147617322" lon="10.65911098385357"><ele>235.25</ele><time>2026-04-26T10:10:55.001Z</time></trkpt><trkpt lat="44.03617448827909" lon="10.658963285173165"><ele>235.5</ele><time>2026-04-26T10:10:56.001Z</time></trkpt><trkpt lat="44.03625314765343" lon="10.65877858220636"><ele>235.75</ele><time>2026-04-26T10:10:57.001Z</time></trkpt><trkpt lat="44.036313760539066" lon="10.658604039842361"><ele>236.0</ele><time>2026-04-26T10:10:58.001Z</time></trkpt><trkpt lat="44.03639006480943" lon="10.658494052641421"><ele>236.0</ele><time>2026-04-26T10:10:59.001Z</time></trkpt><trkpt lat="44.0364685524175" lon="10.658449363786332"><ele>236.00000000000003</ele><time>2026-04-26T10:11:00.001Z</time></trkpt><trkpt lat="44.03658082902068" lon="10.65845507198844"><ele>236.00000000000003</ele><time>2026-04-26T10:11:01.001Z</time></trkpt><trkpt lat="44.0367114106475" lon="10.658474538255613"><ele>236.0</ele><time>2026-04-26T10:11:02.001Z</time></trkpt><trkpt lat="44.036830989088315" lon="10.658466741404668"><ele>236.0</ele><time>2026-04-26T10:11:03.001Z</time></trkpt><trkpt lat="44.03694694726508" lon="10.658396050271918"><ele>236.0</ele><time>2026-04-26T10:11:04.001Z</time></trkpt><trkpt lat="44.037056167074" lon="10.658269914000961"><ele>236.0</ele><time>2026-04-26T10:11:05.001Z</time></trkpt><trkpt lat="44.037139395644324" lon="10.658096598247065"><ele>236.0</ele><time>2026-04-26T10:11:06.001Z</time></trkpt><trkpt lat="44.037199129557266" lon="10.65787013121214"><ele>233.0</ele><time>2026-04-26T10:11:07.001Z</time></trkpt><trkpt lat="44.03723615533503" lon="10.657600225882526"><ele>230.0</ele><time>2026-04-26T10:11:08.001Z</time></trkpt><trkpt lat="44.03725395645295" lon="10.657354780188083"><ele>227.0</ele><time>2026-04-26T10:11:09.001Z</time></trkpt><trkpt lat="44.03723913660494" lon="10.657134083922914"><ele>228.33333333333334</ele><time>2026-04-26T10:11:10.001Z</time></trkpt><trkpt lat="44.037176438279396" lon="10.656913731630386"><ele>229.66666666666669</ele><time>2026-04-26T10:11:11.001Z</time></trkpt><trkpt lat="44.03708215508449" lon="10.656717806732853"><ele>231.0</ele><time>2026-04-26T10:11:12.002Z</time></trkpt><trkpt lat="44.037037786167815" lon="10.656490690574396"><ele>231.0</ele><time>2026-04-26T10:11:13.002Z</time></trkpt><trkpt lat="44.037034699392706" lon="10.656258365924266"><ele>231.0</ele><time>2026-04-26T10:11:14.002Z</time></trkpt><trkpt lat="44.03704331843166" lon="10.65599487871928"><ele>231.0</ele><time>2026-04-26T10:11:15.002Z</time></trkpt><trkpt lat="44.03703924005786" lon="10.655705710045941"><ele>232.66666666666669</ele><time>2026-04-26T10:11:16.002Z</time></trkpt><trkpt lat="44.03706743085324" lon="10.655453944982714"><ele>234.33333333333334</ele><time>2026-04-26T10:11:17.002Z</time></trkpt><trkpt lat="44.03709073207736" lon="10.655239397925227"><ele>236.0</ele><time>2026-04-26T10:11:18.002Z</time></trkpt><trkpt lat="44.03708142579448" lon="10.65505021734207"><ele>237.0</ele><time>2026-04-26T10:11:19.002Z</time></trkpt><trkpt lat="44.037010979887526" lon="10.654865111009565"><ele>238.0</ele><time>2026-04-26T10:11:20.002Z</time></trkpt><trkpt lat="44.036888101139255" lon="10.654668857435963"><ele>239.0</ele><time>2026-04-26T10:11:21.002Z</time></trkpt><trkpt lat="44.03675343139165" lon="10.654455635823783"><ele>240.66666666666669</ele><time>2026-04-26T10:11:22.002Z</time></trkpt><trkpt lat="44.03660865758813" lon="10.6542390606183"><ele>242.33333333333331</ele><time>2026-04-26T10:11:23.002Z</time></trkpt><trkpt lat="44.036466996262256" lon="10.654042472690676"><ele>244.0</ele><time>2026-04-26T10:11:24.002Z</time></trkpt><trkpt lat="44.03636005188298" lon="10.653881176731911"><ele>244.0</ele><time>2026-04-26T10:11:25.002Z</time></trkpt><trkpt lat="44.03627134249417" lon="10.6537658987294"><ele>244.0</ele><time>2026-04-26T10:11:26.002Z</time></trkpt><trkpt lat="44.0361596503445" lon="10.653670997838626"><ele>244.0</ele><time>2026-04-26T10:11:27.002Z</time></trkpt><trkpt lat="44.035994659244025" lon="10.653651141316647"><ele>244.0</ele><time>2026-04-26T10:11:28.002Z</time></trkpt><trkpt lat="44.035820164789" lon="10.653621610841597"><ele>246.0</ele><time>2026-04-26T10:11:29.002Z</time></trkpt><trkpt lat="44.03562494080481" lon="10.653576778689287"><ele>248.0</ele><time>2026-04-26T10:11:30.002Z</time></trkpt><trkpt lat="44.03542742741021" lon="10.65350041714478"><ele>250.0</ele><time>2026-04-26T10:11:31.002Z</time></trkpt><trkpt lat="44.03520962396865" lon="10.653438220214587"><ele>250.0</ele><time>2026-04-26T10:11:32.002Z</time></trkpt><trkpt lat="44.034997573341876" lon="10.6533775619987"><ele>250.0</ele><time>2026-04-26T10:11:33.002Z</time></trkpt><trkpt lat="44.034795151798654" lon="10.653319753571767"><ele>250.0</ele><time>2026-04-26T10:11:34.002Z</time></trkpt><trkpt lat="44.034618384480744" lon="10.653269947553486"><ele>247.75</ele><time>2026-04-26T10:11:34.999Z</time></trkpt><trkpt lat="44.034467072532955" lon="10.653227564818254"><ele>245.5</ele><time>2026-04-26T10:11:35.999Z</time></trkpt><trkpt lat="44.03432794525855" lon="10.653186560127969"><ele>243.25</ele><time>2026-04-26T10:11:36.999Z</time></trkpt><trkpt lat="44.03420977541859" lon="10.65312393260988"><ele>241.0</ele><time>2026-04-26T10:11:37.999Z</time></trkpt><trkpt lat="44.03411200178738" lon="10.653024077162664"><ele>237.5</ele><time>2026-04-26T10:11:38.999Z</time></trkpt><trkpt lat="44.03401603548553" lon="10.652906052394805"><ele>234.0</ele><time>2026-04-26T10:11:39.999Z</time></trkpt><trkpt lat="44.03397081514261" lon="10.652729118776135"><ele>230.5</ele><time>2026-04-26T10:11:40.999Z</time></trkpt><trkpt lat="44.03394846247203" lon="10.652550457793943"><ele>227.0</ele><time>2026-04-26T10:11:41.999Z</time></trkpt><trkpt lat="44.033958080716346" lon="10.652363852087664"><ele>226.66666666666669</ele><time>2026-04-26T10:11:42.999Z</time></trkpt><trkpt lat="44.03402773337266" lon="10.652165785007623"><ele>226.33333333333331</ele><time>2026-04-26T10:11:43.999Z</time></trkpt><trkpt lat="44.034096589454855" lon="10.65192029914866"><ele>226.0</ele><time>2026-04-26T10:11:44.999Z</time></trkpt><trkpt lat="44.03422045969754" lon="10.651665476138966"><ele>230.0</ele><time>2026-04-26T10:11:46Z</time></trkpt><trkpt lat="44.03436445423986" lon="10.651402980366495"><ele>234.0</ele><time>2026-04-26T10:11:47Z</time></trkpt><trkpt lat="44.03452379142141" lon="10.651140176193481"><ele>232.0</ele><time>2026-04-26T10:11:48Z</time></trkpt><trkpt lat="44.03467012286387" lon="10.650896896603204"><ele>230.0</ele><time>2026-04-26T10:11:49Z</time></trkpt><trkpt lat="44.0348127140015" lon="10.650677566806024"><ele>228.0</ele><time>2026-04-26T10:11:50Z</time></trkpt><trkpt lat="44.03494060694235" lon="10.650504677105738"><ele>228.66666666666669</ele><time>2026-04-26T10:11:51Z</time></trkpt><trkpt lat="44.03507661950944" lon="10.650373625312564"><ele>229.33333333333334</ele><time>2026-04-26T10:11:52Z</time></trkpt><trkpt lat="44.03526180637865" lon="10.650304020565295"><ele>230.0</ele><time>2026-04-26T10:11:53Z</time></trkpt><trkpt lat="44.03545571511535" lon="10.650184634015174"><ele>230.0</ele><time>2026-04-26T10:11:54Z</time></trkpt><trkpt lat="44.03567502137163" lon="10.650089407540142"><ele>230.0</ele><time>2026-04-26T10:11:55Z</time></trkpt><trkpt lat="44.03587890619481" lon="10.649961325857113"><ele>229.33333333333334</ele><time>2026-04-26T10:11:56Z</time></trkpt><trkpt lat="44.03604423414357" lon="10.64981480473054"><ele>228.66666666666669</ele><time>2026-04-26T10:11:57Z</time></trkpt><trkpt lat="44.036204326806754" lon="10.649689508181611"><ele>228.0</ele><time>2026-04-26T10:11:58Z</time></trkpt><trkpt lat="44.03635204727807" lon="10.64952566879789"><ele>228.66666666666669</ele><time>2026-04-26T10:11:59Z</time></trkpt><trkpt lat="44.03649236707502" lon="10.649303320516479"><ele>229.33333333333334</ele><time>2026-04-26T10:12:00Z</time></trkpt><trkpt lat="44.03660818912447" lon="10.649059839820255"><ele>230.0</ele><time>2026-04-26T10:12:01Z</time></trkpt><trkpt lat="44.03669248916515" lon="10.648859715734075"><ele>230.0</ele><time>2026-04-26T10:12:02Z</time></trkpt><trkpt lat="44.036742110330565" lon="10.648675331137431"><ele>230.0</ele><time>2026-04-26T10:12:03Z</time></trkpt><trkpt lat="44.03675030161512" lon="10.648495690536276"><ele>230.0</ele><time>2026-04-26T10:12:04Z</time></trkpt><trkpt lat="44.03670981343209" lon="10.648322562270709"><ele>230.0</ele><time>2026-04-26T10:12:05Z</time></trkpt><trkpt lat="44.0366134253954" lon="10.648176809190575"><ele>228.66666666666669</ele><time>2026-04-26T10:12:06Z</time></trkpt><trkpt lat="44.036471184033815" lon="10.648040471907683"><ele>227.33333333333331</ele><time>2026-04-26T10:12:07Z</time></trkpt><trkpt lat="44.03627657607846" lon="10.647913517915017"><ele>226.0</ele><time>2026-04-26T10:12:08Z</time></trkpt><trkpt lat="44.03607940670212" lon="10.647768148796592"><ele>226.0</ele><time>2026-04-26T10:12:09Z</time></trkpt><trkpt lat="44.035899514553776" lon="10.647606163335805"><ele>226.0</ele><time>2026-04-26T10:12:10Z</time></trkpt><trkpt lat="44.03573635576358" lon="10.647478914221123"><ele>226.0</ele><time>2026-04-26T10:12:11Z</time></trkpt><trkpt lat="44.03555463925548" lon="10.647404883648969"><ele>227.0</ele><time>2026-04-26T10:12:12Z</time></trkpt><trkpt lat="44.03535009282878" lon="10.647372030929777"><ele>228.0</ele><time>2026-04-26T10:12:13Z</time></trkpt><trkpt lat="44.03510285852254" lon="10.647375877321002"><ele>229.0</ele><time>2026-04-26T10:12:14Z</time></trkpt><trkpt lat="44.03483428121771" lon="10.647359091824613"><ele>230.0</ele><time>2026-04-26T10:12:15Z</time></trkpt><trkpt lat="44.03455981086324" lon="10.647354118595162"><ele>230.0</ele><time>2026-04-26T10:12:16Z</time></trkpt><trkpt lat="44.03427597485688" lon="10.647370655884558"><ele>230.0</ele><time>2026-04-26T10:12:17Z</time></trkpt><trkpt lat="44.0339894285218" lon="10.647361109440785"><ele>229.0</ele><time>2026-04-26T10:12:18Z</time></trkpt><trkpt lat="44.033707338454676" lon="10.647358427715384"><ele>228.0</ele><time>2026-04-26T10:12:19.001Z</time></trkpt><trkpt lat="44.03344987007691" lon="10.647331956083253"><ele>228.5</ele><time>2026-04-26T10:12:20.001Z</time></trkpt><trkpt lat="44.03320660827116" lon="10.647326664748299"><ele>229.0</ele><time>2026-04-26T10:12:21.001Z</time></trkpt><trkpt lat="44.03297745719141" lon="10.647343145886273"><ele>229.0</ele><time>2026-04-26T10:12:22.001Z</time></trkpt><trkpt lat="44.03275660678422" lon="10.64733296150414"><ele>229.0</ele><time>2026-04-26T10:12:23.001Z</time></trkpt><trkpt lat="44.03253605972788" lon="10.64728459736062"><ele>229.0</ele><time>2026-04-26T10:12:24.001Z</time></trkpt><trkpt lat="44.032292171579506" lon="10.647223501299194"><ele>229.5</ele><time>2026-04-26T10:12:25.001Z</time></trkpt><trkpt lat="44.032042665562805" lon="10.647148841643672"><ele>230.0</ele><time>2026-04-26T10:12:26.001Z</time></trkpt><trkpt lat="44.03181049891827" lon="10.647077985900836"><ele>232.0</ele><time>2026-04-26T10:12:27.001Z</time></trkpt><trkpt lat="44.031576089275795" lon="10.647029737893302"><ele>234.0</ele><time>2026-04-26T10:12:28.001Z</time></trkpt><trkpt lat="44.03134670955223" lon="10.6469519600816"><ele>226.0</ele><time>2026-04-26T10:12:29.001Z</time></trkpt><trkpt lat="44.031129976266435" lon="10.646867945529872"><ele>218.0</ele><time>2026-04-26T10:12:30.001Z</time></trkpt><trkpt lat="44.03089828224035" lon="10.646818717126324"><ele>219.33333333333334</ele><time>2026-04-26T10:12:31.001Z</time></trkpt><trkpt lat="44.030676531939164" lon="10.646751968548182"><ele>220.66666666666669</ele><time>2026-04-26T10:12:32.001Z</time></trkpt><trkpt lat="44.03047307185104" lon="10.646690802880022"><ele>222.0</ele><time>2026-04-26T10:12:33.001Z</time></trkpt><trkpt lat="44.03028439173882" lon="10.64663728361062"><ele>222.0</ele><time>2026-04-26T10:12:34.001Z</time></trkpt><trkpt lat="44.03010521109984" lon="10.646558861945978"><ele>222.0</ele><time>2026-04-26T10:12:35.001Z</time></trkpt><trkpt lat="44.029944777062184" lon="10.646478348787602"><ele>222.0</ele><time>2026-04-26T10:12:36.001Z</time></trkpt><trkpt lat="44.02978446984318" lon="10.646316887684678"><ele>220.0</ele><time>2026-04-26T10:12:37.001Z</time></trkpt><trkpt lat="44.029594205367786" lon="10.646123204034863"><ele>218.0</ele><time>2026-04-26T10:12:38.001Z</time></trkpt><trkpt lat="44.02938295472942" lon="10.645928273372947"><ele>218.0</ele><time>2026-04-26T10:12:39.001Z</time></trkpt><trkpt lat="44.0291717369653" lon="10.645706596479553"><ele>218.0</ele><time>2026-04-26T10:12:40.001Z</time></trkpt><trkpt lat="44.02894259744535" lon="10.64547851499502"><ele>218.0</ele><time>2026-04-26T10:12:41.001Z</time></trkpt><trkpt lat="44.02870898339107" lon="10.645245698847615"><ele>218.0</ele><time>2026-04-26T10:12:42.001Z</time></trkpt><trkpt lat="44.028467925889856" lon="10.645002942645476"><ele>227.5</ele><time>2026-04-26T10:12:43.001Z</time></trkpt><trkpt lat="44.02824365932633" lon="10.64477562825946"><ele>237.0</ele><time>2026-04-26T10:12:44.001Z</time></trkpt><trkpt lat="44.02801597880094" lon="10.644538147044363"><ele>227.0</ele><time>2026-04-26T10:12:45.001Z</time></trkpt><trkpt lat="44.027788702389216" lon="10.64429458599118"><ele>217.0</ele><time>2026-04-26T10:12:46.001Z</time></trkpt><trkpt lat="44.02757388708977" lon="10.64406628810971"><ele>219.0</ele><time>2026-04-26T10:12:47.001Z</time></trkpt><trkpt lat="44.02737456273994" lon="10.643824170437046"><ele>221.0</ele><time>2026-04-26T10:12:48.001Z</time></trkpt><trkpt lat="44.0271717182119" lon="10.643605718441295"><ele>221.0</ele><time>2026-04-26T10:12:49.001Z</time></trkpt><trkpt lat="44.02696578176525" lon="10.643383874334079"><ele>221.0</ele><time>2026-04-26T10:12:50.001Z</time></trkpt><trkpt lat="44.02675849204761" lon="10.643160572344149"><ele>217.0</ele><time>2026-04-26T10:12:51.001Z</time></trkpt><trkpt lat="44.02655192809392" lon="10.642943037583498"><ele>213.0</ele><time>2026-04-26T10:12:52.001Z</time></trkpt><trkpt lat="44.02634959304661" lon="10.642752140297436"><ele>213.0</ele><time>2026-04-26T10:12:53.001Z</time></trkpt><trkpt lat="44.026173501825106" lon="10.642555452242759"><ele>213.0</ele><time>2026-04-26T10:12:54.001Z</time></trkpt><trkpt lat="44.02600833276689" lon="10.64236854968109"><ele>213.0</ele><time>2026-04-26T10:12:55.001Z</time></trkpt><trkpt lat="44.0258476452735" lon="10.64219863345803"><ele>212.0</ele><time>2026-04-26T10:12:56.001Z</time></trkpt><trkpt lat="44.02567936649345" lon="10.642051057085943"><ele>211.0</ele><time>2026-04-26T10:12:57.001Z</time></trkpt><trkpt lat="44.025480867484205" lon="10.641935280087933"><ele>210.0</ele><time>2026-04-26T10:12:58.001Z</time></trkpt><trkpt lat="44.025270648804494" lon="10.64183087274847"><ele>210.0</ele><time>2026-04-26T10:12:59.001Z</time></trkpt><trkpt lat="44.02506201133277" lon="10.641716194966016"><ele>210.0</ele><time>2026-04-26T10:13:00.002Z</time></trkpt><trkpt lat="44.024854248636274" lon="10.641601012541592"><ele>210.0</ele><time>2026-04-26T10:13:01.002Z</time></trkpt><trkpt lat="44.02466317134814" lon="10.641499591609186"><ele>208.33333333333331</ele><time>2026-04-26T10:13:02.002Z</time></trkpt><trkpt lat="44.024490507578086" lon="10.641394231027224"><ele>206.66666666666666</ele><time>2026-04-26T10:13:03.002Z</time></trkpt><trkpt lat="44.02434200630521" lon="10.641262767067042"><ele>205.0</ele><time>2026-04-26T10:13:04.002Z</time></trkpt><trkpt lat="44.02424645183049" lon="10.641053263755238"><ele>207.66666666666666</ele><time>2026-04-26T10:13:05.002Z</time></trkpt><trkpt lat="44.02414399906976" lon="10.640817713443239"><ele>210.33333333333331</ele><time>2026-04-26T10:13:06.002Z</time></trkpt><trkpt lat="44.02403955768089" lon="10.640571891183084"><ele>213.0</ele><time>2026-04-26T10:13:07.002Z</time></trkpt><trkpt lat="44.02392649732475" lon="10.640348014043388"><ele>211.33333333333331</ele><time>2026-04-26T10:13:08.002Z</time></trkpt><trkpt lat="44.02383766215916" lon="10.640124392321706"><ele>209.66666666666666</ele><time>2026-04-26T10:13:09.002Z</time></trkpt><trkpt lat="44.02374184972993" lon="10.639900500663403"><ele>208.0</ele><time>2026-04-26T10:13:10.002Z</time></trkpt><trkpt lat="44.0236499065445" lon="10.639683547434947"><ele>206.33333333333331</ele><time>2026-04-26T10:13:11.002Z</time></trkpt><trkpt lat="44.02355797134956" lon="10.639465076649362"><ele>204.66666666666669</ele><time>2026-04-26T10:13:12.002Z</time></trkpt><trkpt lat="44.02346965910155" lon="10.639249772929945"><ele>203.0</ele><time>2026-04-26T10:13:13.002Z</time></trkpt><trkpt lat="44.02337426062044" lon="10.639020992884724"><ele>206.0</ele><time>2026-04-26T10:13:14.002Z</time></trkpt><trkpt lat="44.023282001273444" lon="10.6388158875368"><ele>209.0</ele><time>2026-04-26T10:13:15.002Z</time></trkpt><trkpt lat="44.02318278545823" lon="10.638597931441126"><ele>212.0</ele><time>2026-04-26T10:13:16.002Z</time></trkpt><trkpt lat="44.02308774775136" lon="10.63838053417966"><ele>212.0</ele><time>2026-04-26T10:13:17.002Z</time></trkpt><trkpt lat="44.022995287920835" lon="10.638165205717696"><ele>212.0</ele><time>2026-04-26T10:13:18.002Z</time></trkpt><trkpt lat="44.02290468763104" lon="10.63795180960596"><ele>212.0</ele><time>2026-04-26T10:13:19.002Z</time></trkpt><trkpt lat="44.02281162468551" lon="10.637738616407974"><ele>209.66666666666669</ele><time>2026-04-26T10:13:20.002Z</time></trkpt><trkpt lat="44.022723974104366" lon="10.637528775709502"><ele>207.33333333333331</ele><time>2026-04-26T10:13:21.002Z</time></trkpt><trkpt lat="44.02263188224786" lon="10.637328777031072"><ele>205.0</ele><time>2026-04-26T10:13:22.002Z</time></trkpt><trkpt lat="44.022542440577986" lon="10.637133905553705"><ele>203.66666666666666</ele><time>2026-04-26T10:13:23.002Z</time></trkpt><trkpt lat="44.02244984340638" lon="10.63692738171609"><ele>202.33333333333331</ele><time>2026-04-26T10:13:24.002Z</time></trkpt><trkpt lat="44.022360724984736" lon="10.636751337805753"><ele>201.0</ele><time>2026-04-26T10:13:25.002Z</time></trkpt><trkpt lat="44.022271532296855" lon="10.636603418237835"><ele>201.0</ele><time>2026-04-26T10:13:26.002Z</time></trkpt><trkpt lat="44.0221922970496" lon="10.636479612149216"><ele>201.0</ele><time>2026-04-26T10:13:27.002Z</time></trkpt><trkpt lat="44.02211592914258" lon="10.63638228806394"><ele>201.0</ele><time>2026-04-26T10:13:28.002Z</time></trkpt><trkpt lat="44.02204429487535" lon="10.63628850472191"><ele>201.0</ele><time>2026-04-26T10:13:29.002Z</time></trkpt><trkpt lat="44.021981755062605" lon="10.636209571526255"><ele>201.0</ele><time>2026-04-26T10:13:30.002Z</time></trkpt><trkpt lat="44.02192586515724" lon="10.636133469703662"><ele>200.60000000000002</ele><time>2026-04-26T10:13:31.002Z</time></trkpt><trkpt lat="44.02188188795557" lon="10.636043300452654"><ele>200.2</ele><time>2026-04-26T10:13:32.002Z</time></trkpt><trkpt lat="44.02184253211894" lon="10.635922865422817"><ele>199.8</ele><time>2026-04-26T10:13:33.002Z</time></trkpt><trkpt lat="44.021795747775336" lon="10.63575801312625"><ele>199.39999999999998</ele><time>2026-04-26T10:13:34.002Z</time></trkpt><trkpt lat="44.02175757921981" lon="10.635592110606977"><ele>199.0</ele><time>2026-04-26T10:13:35.002Z</time></trkpt><trkpt lat="44.02172312196762" lon="10.635456582132482"><ele>198.99999999999997</ele><time>2026-04-26T10:13:36.002Z</time></trkpt><trkpt lat="44.02169137316513" lon="10.635342010902827"><ele>199.0</ele><time>2026-04-26T10:13:37.002Z</time></trkpt><trkpt lat="44.02166423619584" lon="10.63524488133412"><ele>199.0</ele><time>2026-04-26T10:13:38.002Z</time></trkpt><trkpt lat="44.02163384697137" lon="10.635122752115759"><ele>199.0</ele><time>2026-04-26T10:13:40.002Z</time></trkpt><trkpt lat="44.021562166612235" lon="10.635025889940717"><ele>198.99999999999997</ele><time>2026-04-26T10:14:18.001Z</time></trkpt><trkpt lat="44.021509255688756" lon="10.634948365339381"><ele>199.0</ele><time>2026-04-26T10:14:19.001Z</time></trkpt><trkpt lat="44.02142526952935" lon="10.634835192049614"><ele>201.0</ele><time>2026-04-26T10:14:20.001Z</time></trkpt><trkpt lat="44.02131484426894" lon="10.634707777794906"><ele>203.0</ele><time>2026-04-26T10:14:21.001Z</time></trkpt><trkpt lat="44.02117646878933" lon="10.634553307388828"><ele>205.0</ele><time>2026-04-26T10:14:22.001Z</time></trkpt><trkpt lat="44.02101967619477" lon="10.634380824682394"><ele>205.0</ele><time>2026-04-26T10:14:23.001Z</time></trkpt><trkpt lat="44.02084040012113" lon="10.63418959394818"><ele>205.0</ele><time>2026-04-26T10:14:24.001Z</time></trkpt><trkpt lat="44.020675242840106" lon="10.634011931693243"><ele>205.0</ele><time>2026-04-26T10:14:25.001Z</time></trkpt><trkpt lat="44.020548686940124" lon="10.633847827730936"><ele>209.66666666666666</ele><time>2026-04-26T10:14:26.001Z</time></trkpt><trkpt lat="44.02045284185418" lon="10.633655747504122"><ele>214.33333333333331</ele><time>2026-04-26T10:14:27.001Z</time></trkpt><trkpt lat="44.02036330549721" lon="10.63342833341773"><ele>219.0</ele><time>2026-04-26T10:14:28.001Z</time></trkpt><trkpt lat="44.020271056050824" lon="10.63316644426156"><ele>219.0</ele><time>2026-04-26T10:14:29.001Z</time></trkpt><trkpt lat="44.020175058736456" lon="10.632875063176776"><ele>219.0</ele><time>2026-04-26T10:14:30.001Z</time></trkpt><trkpt lat="44.020090098368435" lon="10.6325964787358"><ele>219.0</ele><time>2026-04-26T10:14:31.001Z</time></trkpt><trkpt lat="44.0200145284565" lon="10.63233796077531"><ele>221.66666666666669</ele><time>2026-04-26T10:14:32.001Z</time></trkpt><trkpt lat="44.01994407489439" lon="10.632093446649618"><ele>224.33333333333334</ele><time>2026-04-26T10:14:33.001Z</time></trkpt><trkpt lat="44.01988585038476" lon="10.631864748019455"><ele>227.0</ele><time>2026-04-26T10:14:34.001Z</time></trkpt><trkpt lat="44.01983499458796" lon="10.631639070645159"><ele>227.0</ele><time>2026-04-26T10:14:35.001Z</time></trkpt><trkpt lat="44.01978138136398" lon="10.631426455301511"><ele>227.0</ele><time>2026-04-26T10:14:36.001Z</time></trkpt><trkpt lat="44.01971227018257" lon="10.631236409222986"><ele>227.0</ele><time>2026-04-26T10:14:37.001Z</time></trkpt><trkpt lat="44.01962995003801" lon="10.63107027247637"><ele>221.0</ele><time>2026-04-26T10:14:38.001Z</time></trkpt><trkpt lat="44.01953027272374" lon="10.630911392171242"><ele>215.0</ele><time>2026-04-26T10:14:39.001Z</time></trkpt><trkpt lat="44.01943872789796" lon="10.630726534422738"><ele>209.0</ele><time>2026-04-26T10:14:40.001Z</time></trkpt><trkpt lat="44.01930930654645" lon="10.630578249357121"><ele>209.0</ele><time>2026-04-26T10:14:41.001Z</time></trkpt><trkpt lat="44.01919454678965" lon="10.630413275951732"><ele>209.0</ele><time>2026-04-26T10:14:42.001Z</time></trkpt><trkpt lat="44.01908799806927" lon="10.630231088757721"><ele>209.0</ele><time>2026-04-26T10:14:43.001Z</time></trkpt><trkpt lat="44.01897382405826" lon="10.630072504405897"><ele>215.0</ele><time>2026-04-26T10:14:44.001Z</time></trkpt><trkpt lat="44.018861585614104" lon="10.62990430863993"><ele>221.0</ele><time>2026-04-26T10:14:45.001Z</time></trkpt><trkpt lat="44.018774407471284" lon="10.62970874884575"><ele>227.0</ele><time>2026-04-26T10:14:46.001Z</time></trkpt><trkpt lat="44.01868973136034" lon="10.629485028628656"><ele>218.0</ele><time>2026-04-26T10:14:47.001Z</time></trkpt><trkpt lat="44.01859030801975" lon="10.629286243088568"><ele>209.0</ele><time>2026-04-26T10:14:48.001Z</time></trkpt><trkpt lat="44.018503780837" lon="10.629103205012088"><ele>200.0</ele><time>2026-04-26T10:14:49.001Z</time></trkpt><trkpt lat="44.018415801938474" lon="10.628942703949791"><ele>206.66666666666669</ele><time>2026-04-26T10:14:50.001Z</time></trkpt><trkpt lat="44.01830207284745" lon="10.628801723447053"><ele>213.33333333333331</ele><time>2026-04-26T10:14:51.001Z</time></trkpt><trkpt lat="44.01816567205791" lon="10.628695424013987"><ele>220.0</ele><time>2026-04-26T10:14:52.001Z</time></trkpt><trkpt lat="44.018048271728794" lon="10.628586709131403"><ele>220.0</ele><time>2026-04-26T10:14:53.001Z</time></trkpt><trkpt lat="44.01794080587193" lon="10.62848314973859"><ele>220.0</ele><time>2026-04-26T10:14:54.001Z</time></trkpt><trkpt lat="44.01787193764613" lon="10.628345180524587"><ele>220.0</ele><time>2026-04-26T10:14:55.001Z</time></trkpt><trkpt lat="44.0178060498119" lon="10.628166792174099"><ele>220.0</ele><time>2026-04-26T10:14:56.001Z</time></trkpt><trkpt lat="44.01773740753412" lon="10.627986236015174"><ele>220.0</ele><time>2026-04-26T10:14:57.002Z</time></trkpt><trkpt lat="44.01765175811556" lon="10.627812542870196"><ele>220.0</ele><time>2026-04-26T10:14:58.002Z</time></trkpt><trkpt lat="44.01754914571219" lon="10.627627698148329"><ele>220.0</ele><time>2026-04-26T10:14:59.002Z</time></trkpt><trkpt lat="44.017442344191196" lon="10.62743337200877"><ele>217.0</ele><time>2026-04-26T10:15:00.002Z</time></trkpt><trkpt lat="44.01733019876439" lon="10.627226100869784"><ele>214.0</ele><time>2026-04-26T10:15:01.002Z</time></trkpt><trkpt lat="44.01721863981406" lon="10.627017990557933"><ele>211.0</ele><time>2026-04-26T10:15:02.002Z</time></trkpt><trkpt lat="44.01711287564989" lon="10.626828230980069"><ele>211.0</ele><time>2026-04-26T10:15:03.002Z</time></trkpt><trkpt lat="44.01702492030761" lon="10.626627947347277"><ele>211.0</ele><time>2026-04-26T10:15:04.002Z</time></trkpt><trkpt lat="44.016915088499005" lon="10.626452813521906"><ele>211.0</ele><time>2026-04-26T10:15:05.002Z</time></trkpt><trkpt lat="44.01681924560039" lon="10.62627647204734"><ele>202.33333333333331</ele><time>2026-04-26T10:15:06.002Z</time></trkpt><trkpt lat="44.01671954226113" lon="10.626097172721327"><ele>193.66666666666666</ele><time>2026-04-26T10:15:07.002Z</time></trkpt><trkpt lat="44.01663802865648" lon="10.625908118082187"><ele>185.0</ele><time>2026-04-26T10:15:08.002Z</time></trkpt><trkpt lat="44.016548098375246" lon="10.625731831994042"><ele>192.66666666666666</ele><time>2026-04-26T10:15:09.002Z</time></trkpt><trkpt lat="44.01646577819833" lon="10.625547495562023"><ele>200.33333333333331</ele><time>2026-04-26T10:15:10.002Z</time></trkpt><trkpt lat="44.01638377899923" lon="10.625353221580633"><ele>208.0</ele><time>2026-04-26T10:15:11.002Z</time></trkpt><trkpt lat="44.0163140010248" lon="10.625160050829948"><ele>208.0</ele><time>2026-04-26T10:15:12.002Z</time></trkpt><trkpt lat="44.01623866355688" lon="10.624941045493497"><ele>208.0</ele><time>2026-04-26T10:15:13.002Z</time></trkpt><trkpt lat="44.01613163300806" lon="10.624704524910944"><ele>208.0</ele><time>2026-04-26T10:15:14.002Z</time></trkpt><trkpt lat="44.01598990758239" lon="10.624486582672148"><ele>206.33333333333331</ele><time>2026-04-26T10:15:15.002Z</time></trkpt><trkpt lat="44.01585291632063" lon="10.62428744140367"><ele>204.66666666666669</ele><time>2026-04-26T10:15:16.002Z</time></trkpt><trkpt lat="44.01572421094018" lon="10.624097062263505"><ele>203.0</ele><time>2026-04-26T10:15:17.002Z</time></trkpt><trkpt lat="44.01561034496705" lon="10.62391016085691"><ele>203.0</ele><time>2026-04-26T10:15:18.002Z</time></trkpt><trkpt lat="44.01550274318382" lon="10.623722206420204"><ele>203.0</ele><time>2026-04-26T10:15:19.002Z</time></trkpt><trkpt lat="44.015406657307466" lon="10.623533172108536"><ele>203.0</ele><time>2026-04-26T10:15:20.002Z</time></trkpt><trkpt lat="44.01532765361915" lon="10.623338568744707"><ele>197.66666666666669</ele><time>2026-04-26T10:15:21.002Z</time></trkpt><trkpt lat="44.015242702265674" lon="10.623148486619433"><ele>192.33333333333334</ele><time>2026-04-26T10:15:22.002Z</time></trkpt><trkpt lat="44.015135585409716" lon="10.622972960576456"><ele>187.0</ele><time>2026-04-26T10:15:23.002Z</time></trkpt><trkpt lat="44.01501136781099" lon="10.622820325431483"><ele>185.66666666666669</ele><time>2026-04-26T10:15:24.002Z</time></trkpt><trkpt lat="44.01487505667113" lon="10.622688398250679"><ele>184.33333333333334</ele><time>2026-04-26T10:15:25.002Z</time></trkpt><trkpt lat="44.014712660819185" lon="10.622575094737773"><ele>183.0</ele><time>2026-04-26T10:15:26.002Z</time></trkpt><trkpt lat="44.01452159692242" lon="10.622492624327343"><ele>183.0</ele><time>2026-04-26T10:15:27.002Z</time></trkpt><trkpt lat="44.014332261747164" lon="10.6224373194366"><ele>183.0</ele><time>2026-04-26T10:15:28.002Z</time></trkpt><trkpt lat="44.014141706827004" lon="10.622381477413825"><ele>183.0</ele><time>2026-04-26T10:15:29.002Z</time></trkpt><trkpt lat="44.013959372155476" lon="10.622319276737743"><ele>183.66666666666666</ele><time>2026-04-26T10:15:30.002Z</time></trkpt><trkpt lat="44.013773399657445" lon="10.622236696109441"><ele>184.33333333333331</ele><time>2026-04-26T10:15:31.002Z</time></trkpt><trkpt lat="44.01360616267604" lon="10.622117258026947"><ele>185.0</ele><time>2026-04-26T10:15:32.002Z</time></trkpt><trkpt lat="44.01342120762631" lon="10.622025398762336"><ele>184.0</ele><time>2026-04-26T10:15:33.002Z</time></trkpt><trkpt lat="44.01324684873198" lon="10.62190825984456"><ele>183.0</ele><time>2026-04-26T10:15:34.002Z</time></trkpt><trkpt lat="44.013064468654406" lon="10.621791419047602"><ele>182.0</ele><time>2026-04-26T10:15:35.002Z</time></trkpt><trkpt lat="44.01288839580087" lon="10.621681647453626"><ele>182.0</ele><time>2026-04-26T10:15:36.002Z</time></trkpt><trkpt lat="44.01271877498093" lon="10.621552269109745"><ele>182.0</ele><time>2026-04-26T10:15:37.002Z</time></trkpt><trkpt lat="44.01254598458896" lon="10.621442019357179"><ele>182.0</ele><time>2026-04-26T10:15:38.002Z</time></trkpt><trkpt lat="44.01237322156955" lon="10.621331787175048"><ele>180.66666666666666</ele><time>2026-04-26T10:15:39.003Z</time></trkpt><trkpt lat="44.01219323808551" lon="10.621242149842612"><ele>179.33333333333334</ele><time>2026-04-26T10:15:40.003Z</time></trkpt><trkpt lat="44.01201285245737" lon="10.621119840920807"><ele>178.0</ele><time>2026-04-26T10:15:41.003Z</time></trkpt><trkpt lat="44.011836419947706" lon="10.620961975509566"><ele>178.0</ele><time>2026-04-26T10:15:42.003Z</time></trkpt><trkpt lat="44.01166205882037" lon="10.62079804533285"><ele>178.0</ele><time>2026-04-26T10:15:43.003Z</time></trkpt><trkpt lat="44.011483049069234" lon="10.620616423210073"><ele>178.0</ele><time>2026-04-26T10:15:44.003Z</time></trkpt><trkpt lat="44.011302987438874" lon="10.620434728946373"><ele>177.66666666666669</ele><time>2026-04-26T10:15:45.003Z</time></trkpt><trkpt lat="44.01112365956601" lon="10.620280255969009"><ele>177.33333333333334</ele><time>2026-04-26T10:15:46.003Z</time></trkpt><trkpt lat="44.01096902578076" lon="10.620095565602563"><ele>177.0</ele><time>2026-04-26T10:15:47.001Z</time></trkpt><trkpt lat="44.01081454586818" lon="10.619933233241548"><ele>177.33333333333334</ele><time>2026-04-26T10:15:48.001Z</time></trkpt><trkpt lat="44.010659538908214" lon="10.619768755992641"><ele>177.66666666666669</ele><time>2026-04-26T10:15:49.001Z</time></trkpt><trkpt lat="44.010496341617504" lon="10.619591624393168"><ele>178.0</ele><time>2026-04-26T10:15:50.001Z</time></trkpt><trkpt lat="44.010339246468746" lon="10.619419027148329"><ele>178.0</ele><time>2026-04-26T10:15:51.001Z</time></trkpt><trkpt lat="44.01018474910202" lon="10.619246972286934"><ele>178.0</ele><time>2026-04-26T10:15:52.001Z</time></trkpt><trkpt lat="44.01002757936965" lon="10.619098960434155"><ele>178.0</ele><time>2026-04-26T10:15:53.001Z</time></trkpt><trkpt lat="44.009890893164005" lon="10.61894310068108"><ele>176.0</ele><time>2026-04-26T10:15:54.001Z</time></trkpt><trkpt lat="44.00976594628724" lon="10.618797221924842"><ele>174.0</ele><time>2026-04-26T10:15:55.001Z</time></trkpt><trkpt lat="44.009649377049215" lon="10.618665668123384"><ele>172.0</ele><time>2026-04-26T10:15:56.001Z</time></trkpt><trkpt lat="44.00952344363408" lon="10.618563971117082"><ele>172.0</ele><time>2026-04-26T10:15:57.001Z</time></trkpt><trkpt lat="44.00938672535223" lon="10.618511103685123"><ele>172.0</ele><time>2026-04-26T10:15:58.001Z</time></trkpt><trkpt lat="44.00924221791935" lon="10.618512021153393"><ele>172.0</ele><time>2026-04-26T10:15:59.001Z</time></trkpt><trkpt lat="44.00910472543833" lon="10.618514562094921"><ele>172.0</ele><time>2026-04-26T10:16:00.001Z</time></trkpt><trkpt lat="44.00898000217485" lon="10.61848593360758"><ele>175.0</ele><time>2026-04-26T10:16:01.001Z</time></trkpt><trkpt lat="44.00886301765488" lon="10.61843606366239"><ele>178.0</ele><time>2026-04-26T10:16:02.001Z</time></trkpt><trkpt lat="44.008780051823386" lon="10.61831671447318"><ele>181.0</ele><time>2026-04-26T10:16:03.001Z</time></trkpt><trkpt lat="44.00870879246102" lon="10.61820184742847"><ele>184.0</ele><time>2026-04-26T10:16:04.001Z</time></trkpt><trkpt lat="44.008663061837105" lon="10.618032552611142"><ele>184.0</ele><time>2026-04-26T10:16:05.001Z</time></trkpt><trkpt lat="44.00862932929939" lon="10.61782934686632"><ele>184.0</ele><time>2026-04-26T10:16:06.001Z</time></trkpt><trkpt lat="44.00858794003343" lon="10.617600140254787"><ele>184.0</ele><time>2026-04-26T10:16:07.001Z</time></trkpt><trkpt lat="44.008552173252376" lon="10.617379348172701"><ele>185.33333333333334</ele><time>2026-04-26T10:16:08.001Z</time></trkpt><trkpt lat="44.00850694024223" lon="10.61716808964743"><ele>186.66666666666666</ele><time>2026-04-26T10:16:09.001Z</time></trkpt><trkpt lat="44.00845151496769" lon="10.6169516098998"><ele>188.0</ele><time>2026-04-26T10:16:10.001Z</time></trkpt><trkpt lat="44.00838248530354" lon="10.616748846011086"><ele>185.0</ele><time>2026-04-26T10:16:11.001Z</time></trkpt><trkpt lat="44.00834473060093" lon="10.616530408765524"><ele>182.0</ele><time>2026-04-26T10:16:12.001Z</time></trkpt><trkpt lat="44.00831346770429" lon="10.616308582795623"><ele>179.0</ele><time>2026-04-26T10:16:13.001Z</time></trkpt><trkpt lat="44.0082731770389" lon="10.616101192890845"><ele>176.33333333333331</ele><time>2026-04-26T10:16:14.001Z</time></trkpt><trkpt lat="44.008275498810754" lon="10.615895486004407"><ele>173.66666666666666</ele><time>2026-04-26T10:16:15.001Z</time></trkpt><trkpt lat="44.00830127149512" lon="10.615693716144218"><ele>171.0</ele><time>2026-04-26T10:16:16.001Z</time></trkpt><trkpt lat="44.0083266130824" lon="10.6154665909604"><ele>171.33333333333334</ele><time>2026-04-26T10:16:17.001Z</time></trkpt><trkpt lat="44.00836479662478" lon="10.615250274797166"><ele>171.66666666666669</ele><time>2026-04-26T10:16:18.001Z</time></trkpt><trkpt lat="44.00840157718354" lon="10.61503958189183"><ele>172.0</ele><time>2026-04-26T10:16:19.001Z</time></trkpt><trkpt lat="44.00847179183155" lon="10.614851368435144"><ele>172.0</ele><time>2026-04-26T10:16:20.001Z</time></trkpt><trkpt lat="44.00859549353064" lon="10.614688915179633"><ele>172.0</ele><time>2026-04-26T10:16:21.001Z</time></trkpt><trkpt lat="44.00870447924762" lon="10.614491423329598"><ele>172.0</ele><time>2026-04-26T10:16:22.001Z</time></trkpt><trkpt lat="44.00880608492621" lon="10.614295545412256"><ele>175.66666666666669</ele><time>2026-04-26T10:16:23.001Z</time></trkpt><trkpt lat="44.008855626083204" lon="10.614064380927966"><ele>179.33333333333334</ele><time>2026-04-26T10:16:24.001Z</time></trkpt><trkpt lat="44.008874959104084" lon="10.613815072517715"><ele>183.0</ele><time>2026-04-26T10:16:25.001Z</time></trkpt><trkpt lat="44.00887958386087" lon="10.61357163216095"><ele>187.33333333333331</ele><time>2026-04-26T10:16:26.001Z</time></trkpt><trkpt lat="44.00892865175329" lon="10.61334333561563"><ele>191.66666666666666</ele><time>2026-04-26T10:16:27.001Z</time></trkpt><trkpt lat="44.00899780480953" lon="10.613125209703144"><ele>196.0</ele><time>2026-04-26T10:16:28.001Z</time></trkpt><trkpt lat="44.0090936059506" lon="10.612910870959912"><ele>191.33333333333331</ele><time>2026-04-26T10:16:29.001Z</time></trkpt><trkpt lat="44.00920466474141" lon="10.61270506828201"><ele>186.66666666666666</ele><time>2026-04-26T10:16:30.001Z</time></trkpt><trkpt lat="44.00932967040407" lon="10.612500038398457"><ele>182.0</ele><time>2026-04-26T10:16:31.001Z</time></trkpt><trkpt lat="44.00945115299161" lon="10.612273782992192"><ele>182.0</ele><time>2026-04-26T10:16:32.001Z</time></trkpt><trkpt lat="44.009577476022514" lon="10.612070110622092"><ele>182.0</ele><time>2026-04-26T10:16:33.001Z</time></trkpt><trkpt lat="44.009696543404466" lon="10.611873500110246"><ele>182.0</ele><time>2026-04-26T10:16:34.001Z</time></trkpt><trkpt lat="44.009808829202136" lon="10.611693944084585"><ele>176.33333333333331</ele><time>2026-04-26T10:16:35.001Z</time></trkpt><trkpt lat="44.00992814308384" lon="10.61153612328715"><ele>170.66666666666666</ele><time>2026-04-26T10:16:36.001Z</time></trkpt><trkpt lat="44.01002828599954" lon="10.611343736533328"><ele>165.0</ele><time>2026-04-26T10:16:37.001Z</time></trkpt><trkpt lat="44.01013859964378" lon="10.611161418910031"><ele>169.33333333333334</ele><time>2026-04-26T10:16:38.001Z</time></trkpt><trkpt lat="44.010251353318104" lon="10.61096104346234"><ele>173.66666666666669</ele><time>2026-04-26T10:16:39.001Z</time></trkpt><trkpt lat="44.01036645449626" lon="10.610751655250219"><ele>178.0</ele><time>2026-04-26T10:16:40.001Z</time></trkpt><trkpt lat="44.01048014532353" lon="10.610547619923542"><ele>178.0</ele><time>2026-04-26T10:16:41.001Z</time></trkpt><trkpt lat="44.01059808587178" lon="10.61033651494928"><ele>178.0</ele><time>2026-04-26T10:16:42.001Z</time></trkpt><trkpt lat="44.0107133411978" lon="10.610110780029075"><ele>178.0</ele><time>2026-04-26T10:16:43.001Z</time></trkpt><trkpt lat="44.01081151797801" lon="10.609859009799038"><ele>175.66666666666669</ele><time>2026-04-26T10:16:44.001Z</time></trkpt><trkpt lat="44.01090438586091" lon="10.609609628048721"><ele>173.33333333333334</ele><time>2026-04-26T10:16:45.001Z</time></trkpt><trkpt lat="44.01099326915653" lon="10.609369661314098"><ele>171.0</ele><time>2026-04-26T10:16:46.001Z</time></trkpt><trkpt lat="44.011080590516144" lon="10.609149045376416"><ele>171.0</ele><time>2026-04-26T10:16:47.001Z</time></trkpt><trkpt lat="44.01116335113365" lon="10.60893919846204"><ele>171.0</ele><time>2026-04-26T10:16:48.001Z</time></trkpt><trkpt lat="44.011247611594165" lon="10.608710703658401"><ele>171.0</ele><time>2026-04-26T10:16:49.001Z</time></trkpt><trkpt lat="44.01131435470745" lon="10.608449873063863"><ele>172.0</ele><time>2026-04-26T10:16:50.001Z</time></trkpt><trkpt lat="44.011347966221976" lon="10.608185022927358"><ele>173.0</ele><time>2026-04-26T10:16:51.001Z</time></trkpt><trkpt lat="44.011378411205634" lon="10.607945560255589"><ele>174.0</ele><time>2026-04-26T10:16:52.001Z</time></trkpt><trkpt lat="44.0114082507101" lon="10.607727585541642"><ele>174.33333333333334</ele><time>2026-04-26T10:16:53.001Z</time></trkpt><trkpt lat="44.0114276910101" lon="10.607513605325288"><ele>174.66666666666669</ele><time>2026-04-26T10:16:54.002Z</time></trkpt><trkpt lat="44.01139847581969" lon="10.607300244332377"><ele>175.0</ele><time>2026-04-26T10:16:55.002Z</time></trkpt><trkpt lat="44.011343180632856" lon="10.607069037574831"><ele>175.66666666666669</ele><time>2026-04-26T10:16:56.002Z</time></trkpt><trkpt lat="44.01127975631769" lon="10.606834857754485"><ele>176.33333333333334</ele><time>2026-04-26T10:16:57.002Z</time></trkpt><trkpt lat="44.01123534583919" lon="10.606617688484379"><ele>177.0</ele><time>2026-04-26T10:16:58.002Z</time></trkpt><trkpt lat="44.01120431186595" lon="10.606394398446268"><ele>179.33333333333334</ele><time>2026-04-26T10:16:59.002Z</time></trkpt><trkpt lat="44.01119969651146" lon="10.606153073862854"><ele>181.66666666666669</ele><time>2026-04-26T10:17:00.002Z</time></trkpt><trkpt lat="44.01125425883829" lon="10.60589264823417"><ele>184.0</ele><time>2026-04-26T10:17:01.002Z</time></trkpt><trkpt lat="44.011309521128034" lon="10.605612099803084"><ele>184.0</ele><time>2026-04-26T10:17:02.002Z</time></trkpt><trkpt lat="44.01138697092455" lon="10.605334221533054"><ele>184.0</ele><time>2026-04-26T10:17:03.002Z</time></trkpt><trkpt lat="44.011434714849884" lon="10.60503670303937"><ele>184.0</ele><time>2026-04-26T10:17:04.002Z</time></trkpt><trkpt lat="44.01145303602309" lon="10.60472924204857"><ele>192.66666666666669</ele><time>2026-04-26T10:17:05.002Z</time></trkpt><trkpt lat="44.011447248158795" lon="10.604416072922746"><ele>201.33333333333334</ele><time>2026-04-26T10:17:06.002Z</time></trkpt><trkpt lat="44.01144081858748" lon="10.60412143165159"><ele>210.0</ele><time>2026-04-26T10:17:07.002Z</time></trkpt><trkpt lat="44.011433843899376" lon="10.60384150618904"><ele>215.0</ele><time>2026-04-26T10:17:08.002Z</time></trkpt><trkpt lat="44.0114403073519" lon="10.603562591114747"><ele>220.0</ele><time>2026-04-26T10:17:09.002Z</time></trkpt><trkpt lat="44.011490119068014" lon="10.603301150769969"><ele>225.0</ele><time>2026-04-26T10:17:10.002Z</time></trkpt><trkpt lat="44.011540334375525" lon="10.603027653717351"><ele>230.66666666666669</ele><time>2026-04-26T10:17:11.002Z</time></trkpt><trkpt lat="44.01159974285223" lon="10.60277584513106"><ele>236.33333333333334</ele><time>2026-04-26T10:17:12.002Z</time></trkpt><trkpt lat="44.011665456485915" lon="10.602536707115718"><ele>242.0</ele><time>2026-04-26T10:17:13.002Z</time></trkpt><trkpt lat="44.011734539219134" lon="10.602296377218776"><ele>224.66666666666669</ele><time>2026-04-26T10:17:14.002Z</time></trkpt><trkpt lat="44.01182539142607" lon="10.602053875289633"><ele>207.33333333333334</ele><time>2026-04-26T10:17:15.002Z</time></trkpt><trkpt lat="44.01191284690733" lon="10.60182285624633"><ele>190.0</ele><time>2026-04-26T10:17:16.002Z</time></trkpt><trkpt lat="44.012014112364746" lon="10.601606401561448"><ele>190.0</ele><time>2026-04-26T10:17:17.002Z</time></trkpt><trkpt lat="44.012110868829645" lon="10.601388890980003"><ele>190.0</ele><time>2026-04-26T10:17:18.002Z</time></trkpt><trkpt lat="44.01219877103975" lon="10.601164358470733"><ele>190.0</ele><time>2026-04-26T10:17:19.002Z</time></trkpt><trkpt lat="44.01227465970367" lon="10.600939718567075"><ele>195.33333333333334</ele><time>2026-04-26T10:17:20.002Z</time></trkpt><trkpt lat="44.012351286673685" lon="10.600717365447752"><ele>200.66666666666669</ele><time>2026-04-26T10:17:21.002Z</time></trkpt><trkpt lat="44.01242194315744" lon="10.600488771963203"><ele>206.0</ele><time>2026-04-26T10:17:22.002Z</time></trkpt><trkpt lat="44.01247633466789" lon="10.600268969058467"><ele>192.0</ele><time>2026-04-26T10:17:23.002Z</time></trkpt><trkpt lat="44.01251923799001" lon="10.600047200789719"><ele>178.0</ele><time>2026-04-26T10:17:24.002Z</time></trkpt><trkpt lat="44.01254018899829" lon="10.599813763350275"><ele>164.0</ele><time>2026-04-26T10:17:25.002Z</time></trkpt><trkpt lat="44.01252913742429" lon="10.599569217436873"><ele>176.0</ele><time>2026-04-26T10:17:26.002Z</time></trkpt><trkpt lat="44.012481153203815" lon="10.599326432829494"><ele>188.0</ele><time>2026-04-26T10:17:27.002Z</time></trkpt><trkpt lat="44.01245155288194" lon="10.599091566298538"><ele>200.0</ele><time>2026-04-26T10:17:28.002Z</time></trkpt><trkpt lat="44.012423437687104" lon="10.59885725902716"><ele>195.33333333333334</ele><time>2026-04-26T10:17:29.002Z</time></trkpt><trkpt lat="44.01239004757628" lon="10.598615066686676"><ele>190.66666666666669</ele><time>2026-04-26T10:17:30.002Z</time></trkpt><trkpt lat="44.01233711615667" lon="10.598368523582664"><ele>186.0</ele><time>2026-04-26T10:17:31.002Z</time></trkpt><trkpt lat="44.01227724078035" lon="10.598120619094194"><ele>186.0</ele><time>2026-04-26T10:17:32.002Z</time></trkpt><trkpt lat="44.01220903348403" lon="10.597854588684122"><ele>186.0</ele><time>2026-04-26T10:17:33.002Z</time></trkpt><trkpt lat="44.01213378935364" lon="10.59757409629913"><ele>186.0</ele><time>2026-04-26T10:17:34.002Z</time></trkpt><trkpt lat="44.012062766373695" lon="10.597293855022105"><ele>180.33333333333334</ele><time>2026-04-26T10:17:35.002Z</time></trkpt><trkpt lat="44.01199350359376" lon="10.59702975439433"><ele>174.66666666666669</ele><time>2026-04-26T10:17:36.002Z</time></trkpt><trkpt lat="44.01192782486339" lon="10.59677666556946"><ele>169.0</ele><time>2026-04-26T10:17:37.002Z</time></trkpt><trkpt lat="44.011861348423366" lon="10.596541189605158"><ele>165.33333333333334</ele><time>2026-04-26T10:17:38.002Z</time></trkpt><trkpt lat="44.011804786928344" lon="10.59630968757526"><ele>161.66666666666666</ele><time>2026-04-26T10:17:39.003Z</time></trkpt><trkpt lat="44.01174299015765" lon="10.596088919421959"><ele>158.0</ele><time>2026-04-26T10:17:40.003Z</time></trkpt><trkpt lat="44.011696225770514" lon="10.595882540450395"><ele>164.75</ele><time>2026-04-26T10:17:41.003Z</time></trkpt><trkpt lat="44.01164453254691" lon="10.59568763284706"><ele>171.5</ele><time>2026-04-26T10:17:42.003Z</time></trkpt><trkpt lat="44.011595063845895" lon="10.595500778212058"><ele>178.25</ele><time>2026-04-26T10:17:43.003Z</time></trkpt><trkpt lat="44.01154607959608" lon="10.595323951545137"><ele>185.0</ele><time>2026-04-26T10:17:44.003Z</time></trkpt><trkpt lat="44.011501560609226" lon="10.595152125845106"><ele>185.0</ele><time>2026-04-26T10:17:45.003Z</time></trkpt><trkpt lat="44.011458374095014" lon="10.594979159991691"><ele>185.0</ele><time>2026-04-26T10:17:46.003Z</time></trkpt><trkpt lat="44.01141937420517" lon="10.594806303410348"><ele>185.0</ele><time>2026-04-26T10:17:47.003Z</time></trkpt><trkpt lat="44.01137524349591" lon="10.594650148287732"><ele>185.0</ele><time>2026-04-26T10:17:48.003Z</time></trkpt><trkpt lat="44.01133554281728" lon="10.594488819594673"><ele>180.5</ele><time>2026-04-26T10:17:49.003Z</time></trkpt><trkpt lat="44.01128109291128" lon="10.594337407834923"><ele>176.0</ele><time>2026-04-26T10:17:50.003Z</time></trkpt><trkpt lat="44.01120770162301" lon="10.594187154568708"><ele>171.5</ele><time>2026-04-26T10:17:51.003Z</time></trkpt><trkpt lat="44.011109143277096" lon="10.594032126225223"><ele>167.0</ele><time>2026-04-26T10:17:52.003Z</time></trkpt><trkpt lat="44.01102553961604" lon="10.593847472343358"><ele>167.0</ele><time>2026-04-26T10:17:53.001Z</time></trkpt><trkpt lat="44.01093131535534" lon="10.593679690896499"><ele>167.0</ele><time>2026-04-26T10:17:54.001Z</time></trkpt><trkpt lat="44.01083245292116" lon="10.593517231829532"><ele>167.0</ele><time>2026-04-26T10:17:55.001Z</time></trkpt><trkpt lat="44.01069777226574" lon="10.5933597587148"><ele>169.33333333333331</ele><time>2026-04-26T10:17:56.001Z</time></trkpt><trkpt lat="44.01053328456161" lon="10.593215687284687"><ele>171.66666666666666</ele><time>2026-04-26T10:17:57.001Z</time></trkpt><trkpt lat="44.010361086924505" lon="10.593055874010092"><ele>174.0</ele><time>2026-04-26T10:17:58.001Z</time></trkpt><trkpt lat="44.01017387578692" lon="10.59288432890869"><ele>172.66666666666666</ele><time>2026-04-26T10:17:59.001Z</time></trkpt><trkpt lat="44.00999468905308" lon="10.59272209795547"><ele>171.33333333333331</ele><time>2026-04-26T10:18:00.001Z</time></trkpt><trkpt lat="44.00983021704311" lon="10.592571615518061"><ele>170.0</ele><time>2026-04-26T10:18:01.001Z</time></trkpt><trkpt lat="44.00967172165168" lon="10.592429944976766"><ele>170.0</ele><time>2026-04-26T10:18:02.001Z</time></trkpt><trkpt lat="44.009529712148094" lon="10.592293035350762"><ele>170.0</ele><time>2026-04-26T10:18:03.001Z</time></trkpt><trkpt lat="44.009391975101416" lon="10.592164019561444"><ele>170.0</ele><time>2026-04-26T10:18:04.001Z</time></trkpt><trkpt lat="44.009247845935874" lon="10.592022258373706"><ele>168.0</ele><time>2026-04-26T10:18:05.001Z</time></trkpt><trkpt lat="44.00909316603945" lon="10.591873821078003"><ele>166.0</ele><time>2026-04-26T10:18:06.001Z</time></trkpt><trkpt lat="44.008940287977005" lon="10.591729309508388"><ele>164.0</ele><time>2026-04-26T10:18:07.001Z</time></trkpt><trkpt lat="44.00879771189015" lon="10.591591398750747"><ele>164.0</ele><time>2026-04-26T10:18:08.001Z</time></trkpt><trkpt lat="44.00866178349875" lon="10.591461616959535"><ele>164.0</ele><time>2026-04-26T10:18:09.001Z</time></trkpt><trkpt lat="44.00853231145053" lon="10.591337831812867"><ele>164.0</ele><time>2026-04-26T10:18:10.001Z</time></trkpt><trkpt lat="44.00840817515317" lon="10.591191065361278"><ele>162.0</ele><time>2026-04-26T10:18:11.001Z</time></trkpt><trkpt lat="44.008283125386605" lon="10.591065976020761"><ele>160.0</ele><time>2026-04-26T10:18:12.001Z</time></trkpt><trkpt lat="44.00814697107352" lon="10.59095094423967"><ele>158.0</ele><time>2026-04-26T10:18:13.001Z</time></trkpt><trkpt lat="44.00802034889161" lon="10.590814753098847"><ele>158.0</ele><time>2026-04-26T10:18:14.001Z</time></trkpt><trkpt lat="44.0078895161628" lon="10.590683555501977"><ele>158.0</ele><time>2026-04-26T10:18:15.001Z</time></trkpt><trkpt lat="44.00775915343092" lon="10.590517657551704"><ele>158.0</ele><time>2026-04-26T10:18:16.001Z</time></trkpt><trkpt lat="44.00760340179468" lon="10.590382261432797"><ele>156.0</ele><time>2026-04-26T10:18:17.001Z</time></trkpt><trkpt lat="44.00745830017599" lon="10.590224883205819"><ele>154.0</ele><time>2026-04-26T10:18:18.001Z</time></trkpt><trkpt lat="44.007308200777786" lon="10.590066521113975"><ele>152.0</ele><time>2026-04-26T10:18:19.001Z</time></trkpt><trkpt lat="44.007153476629604" lon="10.589901854688389"><ele>152.0</ele><time>2026-04-26T10:18:20.001Z</time></trkpt><trkpt lat="44.00700210843684" lon="10.589745939854762"><ele>152.0</ele><time>2026-04-26T10:18:21.001Z</time></trkpt><trkpt lat="44.00685624912344" lon="10.58959285867737"><ele>152.0</ele><time>2026-04-26T10:18:22.001Z</time></trkpt><trkpt lat="44.00671649798775" lon="10.589451061312692"><ele>150.66666666666666</ele><time>2026-04-26T10:18:23.001Z</time></trkpt><trkpt lat="44.00656991748604" lon="10.589301238584412"><ele>149.33333333333334</ele><time>2026-04-26T10:18:24.001Z</time></trkpt><trkpt lat="44.00641740252496" lon="10.58914470652757"><ele>148.0</ele><time>2026-04-26T10:18:25.001Z</time></trkpt><trkpt lat="44.00626085332243" lon="10.588979286221166"><ele>148.0</ele><time>2026-04-26T10:18:26.001Z</time></trkpt><trkpt lat="44.006109291256976" lon="10.58880847195351"><ele>148.0</ele><time>2026-04-26T10:18:27.001Z</time></trkpt><trkpt lat="44.005956657013506" lon="10.58861857918151"><ele>148.0</ele><time>2026-04-26T10:18:28.001Z</time></trkpt><trkpt lat="44.00580193319873" lon="10.588371579612062"><ele>151.5</ele><time>2026-04-26T10:18:29.001Z</time></trkpt><trkpt lat="44.00567031371752" lon="10.58809252254626"><ele>155.0</ele><time>2026-04-26T10:18:30.001Z</time></trkpt><trkpt lat="44.005521377657125" lon="10.587852449552866"><ele>152.0</ele><time>2026-04-26T10:18:31.001Z</time></trkpt><trkpt lat="44.00539447577497" lon="10.58763301855175"><ele>149.0</ele><time>2026-04-26T10:18:32.001Z</time></trkpt><trkpt lat="44.00527093432912" lon="10.587415799843907"><ele>146.0</ele><time>2026-04-26T10:18:33.001Z</time></trkpt><trkpt lat="44.00515650839875" lon="10.587208057903336"><ele>144.0</ele><time>2026-04-26T10:18:34.001Z</time></trkpt><trkpt lat="44.00504031072937" lon="10.586998704226609"><ele>142.0</ele><time>2026-04-26T10:18:35.001Z</time></trkpt><trkpt lat="44.00492231637873" lon="10.586789150440179"><ele>140.0</ele><time>2026-04-26T10:18:36.001Z</time></trkpt><trkpt lat="44.004805731668064" lon="10.586586364457215"><ele>143.66666666666666</ele><time>2026-04-26T10:18:37.001Z</time></trkpt><trkpt lat="44.00469415822755" lon="10.586392787470203"><ele>147.33333333333334</ele><time>2026-04-26T10:18:38.001Z</time></trkpt><trkpt lat="44.0046039070422" lon="10.586169833287244"><ele>151.0</ele><time>2026-04-26T10:18:39.001Z</time></trkpt><trkpt lat="44.004506412645355" lon="10.585922687939336"><ele>151.0</ele><time>2026-04-26T10:18:40.001Z</time></trkpt><trkpt lat="44.0043839156701" lon="10.585648701752119"><ele>151.0</ele><time>2026-04-26T10:18:41.001Z</time></trkpt><trkpt lat="44.00427543215238" lon="10.585329573136177"><ele>169.5</ele><time>2026-04-26T10:18:42.001Z</time></trkpt><trkpt lat="44.00414619492968" lon="10.584992735136785"><ele>188.0</ele><time>2026-04-26T10:18:43.001Z</time></trkpt><trkpt lat="44.00401025454533" lon="10.58468913993082"><ele>180.0</ele><time>2026-04-26T10:18:44.001Z</time></trkpt><trkpt lat="44.0039008167073" lon="10.58439646514055"><ele>172.0</ele><time>2026-04-26T10:18:45.001Z</time></trkpt><trkpt lat="44.003791389129255" lon="10.584127425331454"><ele>172.0</ele><time>2026-04-26T10:18:46.001Z</time></trkpt><trkpt lat="44.003694300788304" lon="10.58384496866435"><ele>172.0</ele><time>2026-04-26T10:18:47.001Z</time></trkpt><trkpt lat="44.003588951043916" lon="10.58356931613617"><ele>165.0</ele><time>2026-04-26T10:18:48.001Z</time></trkpt><trkpt lat="44.0034831535722" lon="10.583302201445125"><ele>158.0</ele><time>2026-04-26T10:18:49.001Z</time></trkpt><trkpt lat="44.00340293304203" lon="10.583021234770838"><ele>151.0</ele><time>2026-04-26T10:18:50.001Z</time></trkpt><trkpt lat="44.003330769562126" lon="10.582756443021104"><ele>154.66666666666669</ele><time>2026-04-26T10:18:51.001Z</time></trkpt><trkpt lat="44.00326701200539" lon="10.582481996991666"><ele>158.33333333333334</ele><time>2026-04-26T10:18:52.001Z</time></trkpt><trkpt lat="44.00320942883314" lon="10.582208203326072"><ele>162.0</ele><time>2026-04-26T10:18:53.001Z</time></trkpt><trkpt lat="44.00316310419955" lon="10.581938821737312"><ele>162.0</ele><time>2026-04-26T10:18:54.001Z</time></trkpt><trkpt lat="44.003121194351316" lon="10.581684277104733"><ele>162.0</ele><time>2026-04-26T10:18:55.001Z</time></trkpt><trkpt lat="44.003101149227575" lon="10.581443085591806"><ele>162.0</ele><time>2026-04-26T10:18:56.001Z</time></trkpt><trkpt lat="44.00306996260213" lon="10.581224236689122"><ele>158.5</ele><time>2026-04-26T10:18:57.001Z</time></trkpt><trkpt lat="44.00304500003721" lon="10.581014378998745"><ele>155.0</ele><time>2026-04-26T10:18:58.001Z</time></trkpt><trkpt lat="44.00303356380445" lon="10.580825799792967"><ele>151.5</ele><time>2026-04-26T10:18:59.001Z</time></trkpt><trkpt lat="44.00303829076227" lon="10.58063496515363"><ele>148.0</ele><time>2026-04-26T10:19:00.001Z</time></trkpt><trkpt lat="44.00305639007292" lon="10.580451539767846"><ele>147.0</ele><time>2026-04-26T10:19:01.001Z</time></trkpt><trkpt lat="44.003080280135094" lon="10.58028468434709"><ele>146.0</ele><time>2026-04-26T10:19:02.001Z</time></trkpt><trkpt lat="44.003157976685344" lon="10.580131506703786"><ele>145.0</ele><time>2026-04-26T10:19:03.001Z</time></trkpt><trkpt lat="44.00322263402871" lon="10.579949987570956"><ele>144.0</ele><time>2026-04-26T10:19:04.001Z</time></trkpt><trkpt lat="44.00332808788298" lon="10.579779609406854"><ele>145.0</ele><time>2026-04-26T10:19:05.001Z</time></trkpt><trkpt lat="44.003438422451765" lon="10.579599409692346"><ele>146.0</ele><time>2026-04-26T10:19:06.002Z</time></trkpt><trkpt lat="44.00354567329576" lon="10.579414899369066"><ele>147.0</ele><time>2026-04-26T10:19:07.002Z</time></trkpt><trkpt lat="44.00365857526471" lon="10.579220512277974"><ele>147.0</ele><time>2026-04-26T10:19:08.002Z</time></trkpt><trkpt lat="44.00378047883956" lon="10.579020665521549"><ele>147.0</ele><time>2026-04-26T10:19:09.002Z</time></trkpt><trkpt lat="44.003907714635574" lon="10.578829161283444"><ele>147.0</ele><time>2026-04-26T10:19:10.002Z</time></trkpt><trkpt lat="44.00403603682221" lon="10.578648037984431"><ele>146.33333333333334</ele><time>2026-04-26T10:19:11.002Z</time></trkpt><trkpt lat="44.00416379768532" lon="10.578482283883607"><ele>145.66666666666669</ele><time>2026-04-26T10:19:12.002Z</time></trkpt><trkpt lat="44.004290162776705" lon="10.57834715131956"><ele>145.0</ele><time>2026-04-26T10:19:13.002Z</time></trkpt><trkpt lat="44.00442167535614" lon="10.578238694569048"><ele>145.0</ele><time>2026-04-26T10:19:14.002Z</time></trkpt><trkpt lat="44.00457707845735" lon="10.578174379947749"><ele>145.0</ele><time>2026-04-26T10:19:15.002Z</time></trkpt><trkpt lat="44.0047351085782" lon="10.578145214937136"><ele>145.0</ele><time>2026-04-26T10:19:16.002Z</time></trkpt><trkpt lat="44.00490138488211" lon="10.578152957946969"><ele>139.0</ele><time>2026-04-26T10:19:17.002Z</time></trkpt><trkpt lat="44.00507327617343" lon="10.578178548811662"><ele>133.0</ele><time>2026-04-26T10:19:18.002Z</time></trkpt><trkpt lat="44.00524608264012" lon="10.578197011798357"><ele>127.0</ele><time>2026-04-26T10:19:19.002Z</time></trkpt><trkpt lat="44.00542674162488" lon="10.578210257976016"><ele>127.0</ele><time>2026-04-26T10:19:20.002Z</time></trkpt><trkpt lat="44.0056037881832" lon="10.578230031932726"><ele>127.0</ele><time>2026-04-26T10:19:21.002Z</time></trkpt><trkpt lat="44.00577164409745" lon="10.578244295355933"><ele>127.0</ele><time>2026-04-26T10:19:22.002Z</time></trkpt><trkpt lat="44.0059381636809" lon="10.578250790872985"><ele>126.75</ele><time>2026-04-26T10:19:23.002Z</time></trkpt><trkpt lat="44.00609480051378" lon="10.578255964350172"><ele>126.5</ele><time>2026-04-26T10:19:24.002Z</time></trkpt><trkpt lat="44.00624081577402" lon="10.578264375453559"><ele>126.25</ele><time>2026-04-26T10:19:25.002Z</time></trkpt><trkpt lat="44.006374076331305" lon="10.57827417773607"><ele>126.0</ele><time>2026-04-26T10:19:26.002Z</time></trkpt><trkpt lat="44.006512919133904" lon="10.57828711747285"><ele>126.0</ele><time>2026-04-26T10:19:27.002Z</time></trkpt><trkpt lat="44.00665622960848" lon="10.578297943427977"><ele>126.0</ele><time>2026-04-26T10:19:28.002Z</time></trkpt><trkpt lat="44.006788682763265" lon="10.578304754761028"><ele>126.0</ele><time>2026-04-26T10:19:29.002Z</time></trkpt><trkpt lat="44.00690835089881" lon="10.57831074438149"><ele>126.0</ele><time>2026-04-26T10:19:30.002Z</time></trkpt><trkpt lat="44.0070268771872" lon="10.578317792195307"><ele>127.8</ele><time>2026-04-26T10:19:31.002Z</time></trkpt><trkpt lat="44.00713870059604" lon="10.578326222933987"><ele>129.6</ele><time>2026-04-26T10:19:32.002Z</time></trkpt><trkpt lat="44.007244809314486" lon="10.578330520850807"><ele>131.4</ele><time>2026-04-26T10:19:33.002Z</time></trkpt><trkpt lat="44.00734136016561" lon="10.57833543610249"><ele>133.2</ele><time>2026-04-26T10:19:34.002Z</time></trkpt><trkpt lat="44.00744860595827" lon="10.578344174052226"><ele>135.0</ele><time>2026-04-26T10:19:35.002Z</time></trkpt><trkpt lat="44.00755620968671" lon="10.578354234838878"><ele>136.8</ele><time>2026-04-26T10:19:36.002Z</time></trkpt><trkpt lat="44.007665103442854" lon="10.578357858248069"><ele>138.6</ele><time>2026-04-26T10:19:37.002Z</time></trkpt><trkpt lat="44.00777608847449" lon="10.578363709184638"><ele>140.4</ele><time>2026-04-26T10:19:38.002Z</time></trkpt><trkpt lat="44.007886009457884" lon="10.578372951717917"><ele>142.2</ele><time>2026-04-26T10:19:39.002Z</time></trkpt><trkpt lat="44.00798614767356" lon="10.57838087170738"><ele>144.0</ele><time>2026-04-26T10:19:40.002Z</time></trkpt><trkpt lat="44.00808283434534" lon="10.578389234053697"><ele>144.0</ele><time>2026-04-26T10:19:41.002Z</time></trkpt><trkpt lat="44.00817578635745" lon="10.578399822515363"><ele>144.0</ele><time>2026-04-26T10:19:42.002Z</time></trkpt><trkpt lat="44.008256429997864" lon="10.578427297649474"><ele>144.0</ele><time>2026-04-26T10:19:43.002Z</time></trkpt><trkpt lat="44.008324063384634" lon="10.578451394042345"><ele>144.0</ele><time>2026-04-26T10:19:44.002Z</time></trkpt><trkpt lat="44.00845599295399" lon="10.578455908481068"><ele>144.0</ele><time>2026-04-26T10:19:46.002Z</time></trkpt><trkpt lat="44.00855631883045" lon="10.578411092444552"><ele>142.0</ele><time>2026-04-26T10:19:47.002Z</time></trkpt><trkpt lat="44.00865340313826" lon="10.578377033962123"><ele>140.0</ele><time>2026-04-26T10:19:48.002Z</time></trkpt><trkpt lat="44.0087450237445" lon="10.578337361270371"><ele>138.0</ele><time>2026-04-26T10:19:49.002Z</time></trkpt><trkpt lat="44.00885696033681" lon="10.578321022854816"><ele>136.0</ele><time>2026-04-26T10:19:50.002Z</time></trkpt><trkpt lat="44.00894675578" lon="10.578298190899524"><ele>134.0</ele><time>2026-04-26T10:19:51.002Z</time></trkpt><trkpt lat="44.009028751014235" lon="10.578279038372662"><ele>134.0</ele><time>2026-04-26T10:19:52.002Z</time></trkpt><trkpt lat="44.00911190463181" lon="10.578266911561874"><ele>134.0</ele><time>2026-04-26T10:19:53.002Z</time></trkpt><trkpt lat="44.009224844190015" lon="10.578239034835299"><ele>134.0</ele><time>2026-04-26T10:19:54.003Z</time></trkpt><trkpt lat="44.00932745964319" lon="10.57819074138794"><ele>134.0</ele><time>2026-04-26T10:19:55.003Z</time></trkpt><trkpt lat="44.00941057608542" lon="10.578132518542958"><ele>134.0</ele><time>2026-04-26T10:19:56.003Z</time></trkpt><trkpt lat="44.00947879465899" lon="10.578054354114999"><ele>133.6</ele><time>2026-04-26T10:19:57.003Z</time></trkpt><trkpt lat="44.00952759051017" lon="10.577949770672445"><ele>133.2</ele><time>2026-04-26T10:19:58.003Z</time></trkpt><trkpt lat="44.00954566991683" lon="10.577818703477545"><ele>132.79999999999998</ele><time>2026-04-26T10:19:59Z</time></trkpt><trkpt lat="44.00953818222192" lon="10.577665014029662"><ele>132.4</ele><time>2026-04-26T10:20:00Z</time></trkpt><trkpt lat="44.00951509624163" lon="10.577509530091204"><ele>132.0</ele><time>2026-04-26T10:20:01Z</time></trkpt><trkpt lat="44.00947443820771" lon="10.57735482156696"><ele>134.0</ele><time>2026-04-26T10:20:02Z</time></trkpt><trkpt lat="44.009426796476504" lon="10.57718695329471"><ele>136.0</ele><time>2026-04-26T10:20:03Z</time></trkpt><trkpt lat="44.00938162363157" lon="10.577013022329107"><ele>138.0</ele><time>2026-04-26T10:20:04Z</time></trkpt><trkpt lat="44.00934018876856" lon="10.57683458177568"><ele>140.0</ele><time>2026-04-26T10:20:05Z</time></trkpt><trkpt lat="44.00930371827081" lon="10.57663898419236"><ele>140.0</ele><time>2026-04-26T10:20:06Z</time></trkpt><trkpt lat="44.00927143646206" lon="10.576439364453185"><ele>140.0</ele><time>2026-04-26T10:20:07Z</time></trkpt><trkpt lat="44.00924776793487" lon="10.576234050821894"><ele>140.0</ele><time>2026-04-26T10:20:08Z</time></trkpt><trkpt lat="44.0092255516796" lon="10.576017809667901"><ele>137.0</ele><time>2026-04-26T10:20:09Z</time></trkpt><trkpt lat="44.00920212601326" lon="10.575799084535467"><ele>134.0</ele><time>2026-04-26T10:20:10Z</time></trkpt><trkpt lat="44.009176661657335" lon="10.575577911284077"><ele>131.0</ele><time>2026-04-26T10:20:11Z</time></trkpt><trkpt lat="44.00915384656685" lon="10.575353616577912"><ele>140.25</ele><time>2026-04-26T10:20:12Z</time></trkpt><trkpt lat="44.00912596631898" lon="10.575149362673596"><ele>149.5</ele><time>2026-04-26T10:20:13Z</time></trkpt><trkpt lat="44.0091128726274" lon="10.574949526548355"><ele>158.75</ele><time>2026-04-26T10:20:14Z</time></trkpt><trkpt lat="44.009087884333404" lon="10.574752369030236"><ele>168.0</ele><time>2026-04-26T10:20:15Z</time></trkpt><trkpt lat="44.009062437152885" lon="10.574563942649194"><ele>168.33333333333334</ele><time>2026-04-26T10:20:16Z</time></trkpt><trkpt lat="44.0090458659612" lon="10.574368481467149"><ele>168.66666666666669</ele><time>2026-04-26T10:20:17Z</time></trkpt><trkpt lat="44.009014291569464" lon="10.574145227330643"><ele>169.0</ele><time>2026-04-26T10:20:18Z</time></trkpt><trkpt lat="44.00897910826366" lon="10.573919930498773"><ele>169.0</ele><time>2026-04-26T10:20:19Z</time></trkpt><trkpt lat="44.008969933762195" lon="10.57370527330656"><ele>169.0</ele><time>2026-04-26T10:20:20Z</time></trkpt><trkpt lat="44.0089370849882" lon="10.573513601752367"><ele>169.0</ele><time>2026-04-26T10:20:21Z</time></trkpt><trkpt lat="44.008907710189995" lon="10.57329662884654"><ele>168.33333333333334</ele><time>2026-04-26T10:20:22Z</time></trkpt><trkpt lat="44.00890043750882" lon="10.573088512748143"><ele>167.66666666666666</ele><time>2026-04-26T10:20:23Z</time></trkpt><trkpt lat="44.008869522076104" lon="10.572878006516895"><ele>167.0</ele><time>2026-04-26T10:20:24Z</time></trkpt><trkpt lat="44.0088507655221" lon="10.572666780927895"><ele>166.75</ele><time>2026-04-26T10:20:25Z</time></trkpt><trkpt lat="44.008841305271744" lon="10.572461980949354"><ele>166.5</ele><time>2026-04-26T10:20:26.001Z</time></trkpt><trkpt lat="44.008848692326254" lon="10.572279893022879"><ele>166.25</ele><time>2026-04-26T10:20:27.001Z</time></trkpt><trkpt lat="44.00884598695809" lon="10.57210412483216"><ele>166.0</ele><time>2026-04-26T10:20:28.001Z</time></trkpt><trkpt lat="44.00884956660902" lon="10.571924687515734"><ele>164.5</ele><time>2026-04-26T10:20:29.001Z</time></trkpt><trkpt lat="44.00885399152374" lon="10.571731535748768"><ele>163.0</ele><time>2026-04-26T10:20:30.001Z</time></trkpt><trkpt lat="44.008845513053394" lon="10.571539752744638"><ele>161.5</ele><time>2026-04-26T10:20:31.001Z</time></trkpt><trkpt lat="44.008825445969535" lon="10.571327254545402"><ele>160.0</ele><time>2026-04-26T10:20:32.001Z</time></trkpt><trkpt lat="44.008785975349184" lon="10.571108712116379"><ele>155.66666666666669</ele><time>2026-04-26T10:20:33.001Z</time></trkpt><trkpt lat="44.00872539540143" lon="10.570890455410522"><ele>151.33333333333334</ele><time>2026-04-26T10:20:34.001Z</time></trkpt><trkpt lat="44.00866366710221" lon="10.570676259246891"><ele>147.0</ele><time>2026-04-26T10:20:35.001Z</time></trkpt><trkpt lat="44.00860359364019" lon="10.570453582941935"><ele>144.0</ele><time>2026-04-26T10:20:36.001Z</time></trkpt><trkpt lat="44.00853935004001" lon="10.570229444563582"><ele>141.0</ele><time>2026-04-26T10:20:37.001Z</time></trkpt><trkpt lat="44.008481830225236" lon="10.570015087978577"><ele>138.0</ele><time>2026-04-26T10:20:38.001Z</time></trkpt><trkpt lat="44.00843538947469" lon="10.569819649846176"><ele>138.0</ele><time>2026-04-26T10:20:39.001Z</time></trkpt><trkpt lat="44.00838307739859" lon="10.569619337632744"><ele>138.0</ele><time>2026-04-26T10:20:40.001Z</time></trkpt><trkpt lat="44.008342648777266" lon="10.569435532191868"><ele>138.0</ele><time>2026-04-26T10:20:41.001Z</time></trkpt><trkpt lat="44.008293692905006" lon="10.569237375885862"><ele>138.0</ele><time>2026-04-26T10:20:42.001Z</time></trkpt><trkpt lat="44.008236638375514" lon="10.569024622825447"><ele>140.66666666666666</ele><time>2026-04-26T10:20:43.001Z</time></trkpt><trkpt lat="44.00818084544097" lon="10.568820630892604"><ele>143.33333333333331</ele><time>2026-04-26T10:20:44.001Z</time></trkpt><trkpt lat="44.008122349541075" lon="10.568622126567945"><ele>146.0</ele><time>2026-04-26T10:20:45.001Z</time></trkpt><trkpt lat="44.008049508184456" lon="10.568416079332376"><ele>146.0</ele><time>2026-04-26T10:20:46.001Z</time></trkpt><trkpt lat="44.0079566815182" lon="10.568208999903346"><ele>146.0</ele><time>2026-04-26T10:20:47.001Z</time></trkpt><trkpt lat="44.00785047871817" lon="10.567985969163859"><ele>146.0</ele><time>2026-04-26T10:20:48.001Z</time></trkpt><trkpt lat="44.00776411698643" lon="10.567745009626142"><ele>140.0</ele><time>2026-04-26T10:20:49.001Z</time></trkpt><trkpt lat="44.00766641467652" lon="10.567513165593816"><ele>134.0</ele><time>2026-04-26T10:20:50.001Z</time></trkpt><trkpt lat="44.00755972525349" lon="10.567260295303527"><ele>128.0</ele><time>2026-04-26T10:20:51.001Z</time></trkpt><trkpt lat="44.00744045607292" lon="10.56697760957796"><ele>128.0</ele><time>2026-04-26T10:20:52.001Z</time></trkpt><trkpt lat="44.00730080907349" lon="10.566720838457286"><ele>128.0</ele><time>2026-04-26T10:20:53.001Z</time></trkpt><trkpt lat="44.00719859095847" lon="10.566451708790279"><ele>128.0</ele><time>2026-04-26T10:20:54.001Z</time></trkpt><trkpt lat="44.00710390491791" lon="10.566204361200237"><ele>128.0</ele><time>2026-04-26T10:20:55.001Z</time></trkpt><trkpt lat="44.00700460034029" lon="10.565969313863656"><ele>128.0</ele><time>2026-04-26T10:20:56.001Z</time></trkpt><trkpt lat="44.00691349883992" lon="10.565746838658615"><ele>126.0</ele><time>2026-04-26T10:20:57.001Z</time></trkpt><trkpt lat="44.00681377256611" lon="10.565524390487555"><ele>124.0</ele><time>2026-04-26T10:20:58.001Z</time></trkpt><trkpt lat="44.006702812437894" lon="10.565322539864644"><ele>122.0</ele><time>2026-04-26T10:20:59.001Z</time></trkpt><trkpt lat="44.00655789751445" lon="10.565139534005075"><ele>122.0</ele><time>2026-04-26T10:21:00.001Z</time></trkpt><trkpt lat="44.006392700084895" lon="10.564977014194746"><ele>122.0</ele><time>2026-04-26T10:21:01.001Z</time></trkpt><trkpt lat="44.00623653512369" lon="10.564783607338763"><ele>122.0</ele><time>2026-04-26T10:21:02.001Z</time></trkpt><trkpt lat="44.00608339600861" lon="10.564614374637063"><ele>123.0</ele><time>2026-04-26T10:21:03.001Z</time></trkpt><trkpt lat="44.005936057793534" lon="10.564449563525233"><ele>124.0</ele><time>2026-04-26T10:21:04.001Z</time></trkpt><trkpt lat="44.0057979967713" lon="10.564297209323628"><ele>125.0</ele><time>2026-04-26T10:21:05.001Z</time></trkpt><trkpt lat="44.0056661931623" lon="10.564155971826905"><ele>125.0</ele><time>2026-04-26T10:21:06.001Z</time></trkpt><trkpt lat="44.005545491638316" lon="10.564027550038691"><ele>125.0</ele><time>2026-04-26T10:21:07.001Z</time></trkpt><trkpt lat="44.00542869098591" lon="10.563902773436416"><ele>125.0</ele><time>2026-04-26T10:21:08.001Z</time></trkpt><trkpt lat="44.0053075030038" lon="10.56378930343175"><ele>125.0</ele><time>2026-04-26T10:21:09.001Z</time></trkpt><trkpt lat="44.00519218466635" lon="10.56363700521927"><ele>121.66666666666666</ele><time>2026-04-26T10:21:10.001Z</time></trkpt><trkpt lat="44.00506188638647" lon="10.563488242475215"><ele>118.33333333333334</ele><time>2026-04-26T10:21:11.001Z</time></trkpt><trkpt lat="44.00493077502528" lon="10.563341781345612"><ele>115.0</ele><time>2026-04-26T10:21:12.001Z</time></trkpt><trkpt lat="44.0047836633091" lon="10.56320925747015"><ele>115.0</ele><time>2026-04-26T10:21:13.001Z</time></trkpt><trkpt lat="44.00464378560506" lon="10.563054818482257"><ele>115.0</ele><time>2026-04-26T10:21:14.001Z</time></trkpt><trkpt lat="44.00450496366027" lon="10.562899506902237"><ele>115.0</ele><time>2026-04-26T10:21:15.001Z</time></trkpt><trkpt lat="44.00436443671799" lon="10.56274156879489"><ele>115.0</ele><time>2026-04-26T10:21:16.001Z</time></trkpt><trkpt lat="44.00422623941511" lon="10.562588933845245"><ele>115.0</ele><time>2026-04-26T10:21:17.001Z</time></trkpt><trkpt lat="44.00408376962756" lon="10.562430019524065"><ele>115.0</ele><time>2026-04-26T10:21:18.001Z</time></trkpt><trkpt lat="44.00395319910993" lon="10.56225608596852"><ele>118.33333333333334</ele><time>2026-04-26T10:21:19.001Z</time></trkpt><trkpt lat="44.003818767878045" lon="10.562109117230053"><ele>121.66666666666666</ele><time>2026-04-26T10:21:20.002Z</time></trkpt><trkpt lat="44.00367712669242" lon="10.561957078131327"><ele>125.0</ele><time>2026-04-26T10:21:21.002Z</time></trkpt><trkpt lat="44.00354032487437" lon="10.561808823872248"><ele>125.0</ele><time>2026-04-26T10:21:22.002Z</time></trkpt><trkpt lat="44.00340467684509" lon="10.56165844174797"><ele>125.0</ele><time>2026-04-26T10:21:23.002Z</time></trkpt><trkpt lat="44.003268443951214" lon="10.561506367852619"><ele>125.0</ele><time>2026-04-26T10:21:24.002Z</time></trkpt><trkpt lat="44.003132501334676" lon="10.561359672859668"><ele>123.66666666666666</ele><time>2026-04-26T10:21:25.002Z</time></trkpt><trkpt lat="44.002992952756934" lon="10.561215159118152"><ele>122.33333333333334</ele><time>2026-04-26T10:21:26.002Z</time></trkpt><trkpt lat="44.00285131822011" lon="10.56107554080077"><ele>121.0</ele><time>2026-04-26T10:21:27.002Z</time></trkpt><trkpt lat="44.00271014359936" lon="10.560939998400801"><ele>121.0</ele><time>2026-04-26T10:21:28.002Z</time></trkpt><trkpt lat="44.002565335567226" lon="10.560801983394004"><ele>121.0</ele><time>2026-04-26T10:21:29.002Z</time></trkpt><trkpt lat="44.002414297797074" lon="10.560660345812908"><ele>121.0</ele><time>2026-04-26T10:21:30.002Z</time></trkpt><trkpt lat="44.00225325601766" lon="10.56055091200815"><ele>118.66666666666667</ele><time>2026-04-26T10:21:31.002Z</time></trkpt><trkpt lat="44.00209288991572" lon="10.5604313349691"><ele>116.33333333333334</ele><time>2026-04-26T10:21:32.002Z</time></trkpt><trkpt lat="44.00192380084267" lon="10.56031545350301"><ele>114.0</ele><time>2026-04-26T10:21:33.002Z</time></trkpt><trkpt lat="44.00175975262302" lon="10.56017770524266"><ele>114.66666666666666</ele><time>2026-04-26T10:21:34.002Z</time></trkpt><trkpt lat="44.00158038998043" lon="10.560076042186909"><ele>115.33333333333333</ele><time>2026-04-26T10:21:35.002Z</time></trkpt><trkpt lat="44.001425604948196" lon="10.559941672454448"><ele>116.0</ele><time>2026-04-26T10:21:36.002Z</time></trkpt><trkpt lat="44.00127509648405" lon="10.559833951957453"><ele>116.0</ele><time>2026-04-26T10:21:37.002Z</time></trkpt><trkpt lat="44.001128488201005" lon="10.559728209341609"><ele>116.0</ele><time>2026-04-26T10:21:38.002Z</time></trkpt><trkpt lat="44.00098297069314" lon="10.559623439807698"><ele>116.0</ele><time>2026-04-26T10:21:39.002Z</time></trkpt><trkpt lat="44.00083155044922" lon="10.559534137099098"><ele>114.33333333333333</ele><time>2026-04-26T10:21:40.002Z</time></trkpt><trkpt lat="44.00067826867126" lon="10.55940452626571"><ele>112.66666666666666</ele><time>2026-04-26T10:21:41.002Z</time></trkpt><trkpt lat="44.000492782940086" lon="10.559295001616112"><ele>111.0</ele><time>2026-04-26T10:21:42.002Z</time></trkpt><trkpt lat="44.000336866637696" lon="10.55916868127375"><ele>111.0</ele><time>2026-04-26T10:21:43.002Z</time></trkpt><trkpt lat="44.0001830197981" lon="10.559070201578688"><ele>111.0</ele><time>2026-04-26T10:21:44.002Z</time></trkpt><trkpt lat="44.00003600801848" lon="10.558937697986801"><ele>111.0</ele><time>2026-04-26T10:21:45.002Z</time></trkpt><trkpt lat="43.99987260432047" lon="10.558822830762834"><ele>111.0</ele><time>2026-04-26T10:21:46.002Z</time></trkpt><trkpt lat="43.99970373319893" lon="10.55870754914415"><ele>111.0</ele><time>2026-04-26T10:21:47.002Z</time></trkpt><trkpt lat="43.99954016561351" lon="10.55859089175037"><ele>111.0</ele><time>2026-04-26T10:21:48.002Z</time></trkpt><trkpt lat="43.999373614153285" lon="10.558470722221884"><ele>110.66666666666666</ele><time>2026-04-26T10:21:49.002Z</time></trkpt><trkpt lat="43.99920399074671" lon="10.558348468030262"><ele>110.33333333333333</ele><time>2026-04-26T10:21:50.002Z</time></trkpt><trkpt lat="43.99903704055508" lon="10.55823128594729"><ele>110.0</ele><time>2026-04-26T10:21:51.002Z</time></trkpt><trkpt lat="43.99886385300716" lon="10.55813667704664"><ele>110.0</ele><time>2026-04-26T10:21:52.002Z</time></trkpt><trkpt lat="43.99869691930577" lon="10.558024022873862"><ele>110.0</ele><time>2026-04-26T10:21:53.002Z</time></trkpt><trkpt lat="43.9985341149411" lon="10.557912217169026"><ele>110.0</ele><time>2026-04-26T10:21:54.002Z</time></trkpt><trkpt lat="43.99838483221741" lon="10.557807399569935"><ele>108.66666666666666</ele><time>2026-04-26T10:21:55.002Z</time></trkpt><trkpt lat="43.99823545171779" lon="10.557701158807111"><ele>107.33333333333334</ele><time>2026-04-26T10:21:56.002Z</time></trkpt><trkpt lat="43.99808711962639" lon="10.557594908758722"><ele>106.0</ele><time>2026-04-26T10:21:57.002Z</time></trkpt><trkpt lat="43.9979401093599" lon="10.5574882147649"><ele>106.0</ele><time>2026-04-26T10:21:58.002Z</time></trkpt><trkpt lat="43.99779544496733" lon="10.557379051609763"><ele>106.0</ele><time>2026-04-26T10:21:59.002Z</time></trkpt><trkpt lat="43.99765499317474" lon="10.557275640938341"><ele>106.0</ele><time>2026-04-26T10:22:00.002Z</time></trkpt><trkpt lat="43.9975194546417" lon="10.557173230810914"><ele>106.0</ele><time>2026-04-26T10:22:01.002Z</time></trkpt><trkpt lat="43.99738955261189" lon="10.55707056729415"><ele>106.0</ele><time>2026-04-26T10:22:02.002Z</time></trkpt><trkpt lat="43.99727500569699" lon="10.556987437914819"><ele>106.0</ele><time>2026-04-26T10:22:03.002Z</time></trkpt><trkpt lat="43.99716439194258" lon="10.556924444754763"><ele>106.0</ele><time>2026-04-26T10:22:04.002Z</time></trkpt><trkpt lat="43.997056224998865" lon="10.556876105024573"><ele>106.0</ele><time>2026-04-26T10:22:05Z</time></trkpt><trkpt lat="43.99694648816092" lon="10.556827992197945"><ele>106.0</ele><time>2026-04-26T10:22:06Z</time></trkpt><trkpt lat="43.996832613598166" lon="10.556773309112517"><ele>106.0</ele><time>2026-04-26T10:22:07Z</time></trkpt><trkpt lat="43.996713877041074" lon="10.556716002949655"><ele>106.0</ele><time>2026-04-26T10:22:08Z</time></trkpt><trkpt lat="43.99659975575267" lon="10.55665845494876"><ele>106.0</ele><time>2026-04-26T10:22:09Z</time></trkpt><trkpt lat="43.99649317365601" lon="10.556606061302638"><ele>106.0</ele><time>2026-04-26T10:22:10Z</time></trkpt><trkpt lat="43.996381715488184" lon="10.556559258428752"><ele>106.0</ele><time>2026-04-26T10:22:11Z</time></trkpt><trkpt lat="43.99626519726749" lon="10.556498607213287"><ele>106.0</ele><time>2026-04-26T10:22:12Z</time></trkpt><trkpt lat="43.99614221813594" lon="10.55645372916178"><ele>106.0</ele><time>2026-04-26T10:22:13Z</time></trkpt><trkpt lat="43.996026845340694" lon="10.556411300713501"><ele>106.0</ele><time>2026-04-26T10:22:14Z</time></trkpt><trkpt lat="43.99591132830834" lon="10.556374144549332"><ele>106.0</ele><time>2026-04-26T10:22:15Z</time></trkpt><trkpt lat="43.995798743411896" lon="10.556334561377918"><ele>106.0</ele><time>2026-04-26T10:22:16Z</time></trkpt><trkpt lat="43.9956761958112" lon="10.556293944115254"><ele>104.75</ele><time>2026-04-26T10:22:17Z</time></trkpt><trkpt lat="43.99555493806606" lon="10.556242247589507"><ele>103.5</ele><time>2026-04-26T10:22:18Z</time></trkpt><trkpt lat="43.99543417010595" lon="10.55619112678247"><ele>102.25</ele><time>2026-04-26T10:22:19Z</time></trkpt><trkpt lat="43.99532451220964" lon="10.55612884653148"><ele>101.0</ele><time>2026-04-26T10:22:20Z</time></trkpt><trkpt lat="43.99520658434119" lon="10.556047536061634"><ele>101.0</ele><time>2026-04-26T10:22:21Z</time></trkpt><trkpt lat="43.995095615358274" lon="10.555930644060224"><ele>101.0</ele><time>2026-04-26T10:22:22Z</time></trkpt><trkpt lat="43.9949886580023" lon="10.555804096515384"><ele>101.0</ele><time>2026-04-26T10:22:23Z</time></trkpt><trkpt lat="43.994888402908984" lon="10.555674495340208"><ele>101.0</ele><time>2026-04-26T10:22:24Z</time></trkpt><trkpt lat="43.99478840154665" lon="10.555552598799427"><ele>100.0</ele><time>2026-04-26T10:22:25Z</time></trkpt><trkpt lat="43.9946913271586" lon="10.555439522656512"><ele>99.0</ele><time>2026-04-26T10:22:26Z</time></trkpt><trkpt lat="43.99459276140679" lon="10.555330419270943"><ele>98.0</ele><time>2026-04-26T10:22:27Z</time></trkpt><trkpt lat="43.994469976113706" lon="10.555243902419184"><ele>97.0</ele><time>2026-04-26T10:22:28Z</time></trkpt><trkpt lat="43.994346349562605" lon="10.555162781892228"><ele>97.0</ele><time>2026-04-26T10:22:29Z</time></trkpt><trkpt lat="43.994226130256806" lon="10.555090428527517"><ele>97.0</ele><time>2026-04-26T10:22:30Z</time></trkpt><trkpt lat="43.994115093310654" lon="10.555020369729327"><ele>97.0</ele><time>2026-04-26T10:22:31Z</time></trkpt><trkpt lat="43.99400876531852" lon="10.554947224529824"><ele>97.0</ele><time>2026-04-26T10:22:32Z</time></trkpt><trkpt lat="43.99390368405667" lon="10.554857354689696"><ele>95.25</ele><time>2026-04-26T10:22:33Z</time></trkpt><trkpt lat="43.993801851188756" lon="10.554761147684744"><ele>93.5</ele><time>2026-04-26T10:22:34Z</time></trkpt><trkpt lat="43.99370076684137" lon="10.554665957298688"><ele>91.75</ele><time>2026-04-26T10:22:35Z</time></trkpt><trkpt lat="43.993599613155055" lon="10.554566370791724"><ele>90.0</ele><time>2026-04-26T10:22:36Z</time></trkpt><trkpt lat="43.99351423852191" lon="10.554467988836809"><ele>90.0</ele><time>2026-04-26T10:22:37Z</time></trkpt><trkpt lat="43.99342798742162" lon="10.554365475781934"><ele>90.0</ele><time>2026-04-26T10:22:38Z</time></trkpt><trkpt lat="43.993338952186015" lon="10.55426273328717"><ele>90.0</ele><time>2026-04-26T10:22:39Z</time></trkpt><trkpt lat="43.993240669586974" lon="10.554157295148457"><ele>90.0</ele><time>2026-04-26T10:22:40.001Z</time></trkpt><trkpt lat="43.99313472288395" lon="10.554052456428794"><ele>93.5</ele><time>2026-04-26T10:22:41.001Z</time></trkpt><trkpt lat="43.993025467678855" lon="10.553957351209982"><ele>97.0</ele><time>2026-04-26T10:22:42.001Z</time></trkpt><trkpt lat="43.99291739516033" lon="10.55386542103408"><ele>100.5</ele><time>2026-04-26T10:22:43.001Z</time></trkpt><trkpt lat="43.992799856467215" lon="10.553781431169197"><ele>104.0</ele><time>2026-04-26T10:22:44.001Z</time></trkpt><trkpt lat="43.99267752804496" lon="10.553710898496876"><ele>103.5</ele><time>2026-04-26T10:22:45.001Z</time></trkpt><trkpt lat="43.992541506411364" lon="10.553652064786295"><ele>103.0</ele><time>2026-04-26T10:22:46.001Z</time></trkpt><trkpt lat="43.99240187344228" lon="10.553593652855094"><ele>102.5</ele><time>2026-04-26T10:22:47.001Z</time></trkpt><trkpt lat="43.9922572080348" lon="10.553540529708721"><ele>102.0</ele><time>2026-04-26T10:22:48.001Z</time></trkpt><trkpt lat="43.992105082983656" lon="10.553497724799856"><ele>102.0</ele><time>2026-04-26T10:22:49.001Z</time></trkpt><trkpt lat="43.991966201322136" lon="10.553464495159218"><ele>102.0</ele><time>2026-04-26T10:22:50.001Z</time></trkpt><trkpt lat="43.9918411359759" lon="10.553435053323033"><ele>102.0</ele><time>2026-04-26T10:22:51.001Z</time></trkpt><trkpt lat="43.99172019915342" lon="10.553400641525162"><ele>102.0</ele><time>2026-04-26T10:22:52.001Z</time></trkpt><trkpt lat="43.99160975723015" lon="10.553360101400367"><ele>104.0</ele><time>2026-04-26T10:22:53.001Z</time></trkpt><trkpt lat="43.991493927362185" lon="10.553336644531448"><ele>106.0</ele><time>2026-04-26T10:22:54.001Z</time></trkpt><trkpt lat="43.99136734144726" lon="10.553310563618128"><ele>108.0</ele><time>2026-04-26T10:22:55.001Z</time></trkpt><trkpt lat="43.99123841947471" lon="10.553285212831955"><ele>110.0</ele><time>2026-04-26T10:22:56.001Z</time></trkpt><trkpt lat="43.99110719980848" lon="10.553253565048303"><ele>110.0</ele><time>2026-04-26T10:22:57.001Z</time></trkpt><trkpt lat="43.99096267512747" lon="10.553221754962122"><ele>110.0</ele><time>2026-04-26T10:22:58.001Z</time></trkpt><trkpt lat="43.99083822096392" lon="10.553199517698626"><ele>110.0</ele><time>2026-04-26T10:22:59.001Z</time></trkpt><trkpt lat="43.990726585433" lon="10.553176850916985"><ele>110.0</ele><time>2026-04-26T10:23:00.001Z</time></trkpt><trkpt lat="43.99059547181907" lon="10.553149164247323"><ele>114.25</ele><time>2026-04-26T10:23:01.001Z</time></trkpt><trkpt lat="43.99045869866773" lon="10.55311667580229"><ele>118.5</ele><time>2026-04-26T10:23:02.001Z</time></trkpt><trkpt lat="43.99031663084091" lon="10.55307845244584"><ele>122.75</ele><time>2026-04-26T10:23:03.001Z</time></trkpt><trkpt lat="43.99017269289393" lon="10.55305763008138"><ele>127.0</ele><time>2026-04-26T10:23:04.001Z</time></trkpt><trkpt lat="43.99002279991652" lon="10.55303437538487"><ele>128.75</ele><time>2026-04-26T10:23:05.001Z</time></trkpt><trkpt lat="43.98986273321282" lon="10.553013150572996"><ele>130.5</ele><time>2026-04-26T10:23:06.001Z</time></trkpt><trkpt lat="43.989712503096676" lon="10.552992921975807"><ele>132.25</ele><time>2026-04-26T10:23:07.001Z</time></trkpt><trkpt lat="43.989575192932925" lon="10.552985433461957"><ele>134.0</ele><time>2026-04-26T10:23:08.001Z</time></trkpt><trkpt lat="43.98944844682175" lon="10.55298643880547"><ele>134.0</ele><time>2026-04-26T10:23:09.001Z</time></trkpt><trkpt lat="43.98930938549003" lon="10.55298537711073"><ele>134.0</ele><time>2026-04-26T10:23:10.001Z</time></trkpt><trkpt lat="43.98915535420497" lon="10.552980759330323"><ele>134.0</ele><time>2026-04-26T10:23:11.001Z</time></trkpt><trkpt lat="43.98899487982491" lon="10.552981719392339"><ele>138.5</ele><time>2026-04-26T10:23:12.001Z</time></trkpt><trkpt lat="43.98884253249539" lon="10.55297945385489"><ele>143.0</ele><time>2026-04-26T10:23:13.001Z</time></trkpt><trkpt lat="43.98869531984834" lon="10.552972558786161"><ele>147.5</ele><time>2026-04-26T10:23:14.001Z</time></trkpt><trkpt lat="43.988552346191305" lon="10.552972712709195"><ele>152.0</ele><time>2026-04-26T10:23:15.001Z</time></trkpt><trkpt lat="43.98841341696763" lon="10.552968585763374"><ele>154.75</ele><time>2026-04-26T10:23:16.001Z</time></trkpt><trkpt lat="43.988275330533284" lon="10.552967218769462"><ele>157.5</ele><time>2026-04-26T10:23:17.001Z</time></trkpt><trkpt lat="43.98814113487076" lon="10.552968146576532"><ele>160.25</ele><time>2026-04-26T10:23:18.001Z</time></trkpt><trkpt lat="43.98799828807341" lon="10.552965553756325"><ele>163.0</ele><time>2026-04-26T10:23:19.001Z</time></trkpt><trkpt lat="43.98785656092619" lon="10.552968792928183"><ele>163.0</ele><time>2026-04-26T10:23:20.001Z</time></trkpt><trkpt lat="43.987710466915885" lon="10.552965844046616"><ele>163.0</ele><time>2026-04-26T10:23:21.001Z</time></trkpt><trkpt lat="43.98756727316824" lon="10.552975462669869"><ele>163.0</ele><time>2026-04-26T10:23:22.001Z</time></trkpt><trkpt lat="43.98742695150648" lon="10.55299322870627"><ele>163.0</ele><time>2026-04-26T10:23:23.001Z</time></trkpt><trkpt lat="43.987288825274526" lon="10.55298068153119"><ele>159.5</ele><time>2026-04-26T10:23:24.001Z</time></trkpt><trkpt lat="43.987162089843736" lon="10.552985457008367"><ele>156.0</ele><time>2026-04-26T10:23:25.001Z</time></trkpt><trkpt lat="43.987042556921246" lon="10.553004114860595"><ele>152.5</ele><time>2026-04-26T10:23:26.001Z</time></trkpt><trkpt lat="43.98692288932332" lon="10.552965541020736"><ele>149.0</ele><time>2026-04-26T10:23:27.001Z</time></trkpt><trkpt lat="43.986783344231" lon="10.552957286209924"><ele>143.25</ele><time>2026-04-26T10:23:28.001Z</time></trkpt><trkpt lat="43.986654704951505" lon="10.552918456221498"><ele>137.5</ele><time>2026-04-26T10:23:29.001Z</time></trkpt><trkpt lat="43.98653548047734" lon="10.552875703012168"><ele>131.75</ele><time>2026-04-26T10:23:30.001Z</time></trkpt><trkpt lat="43.98641788630404" lon="10.552845827896643"><ele>126.0</ele><time>2026-04-26T10:23:31.001Z</time></trkpt><trkpt lat="43.98629281733161" lon="10.552814299268672"><ele>121.75</ele><time>2026-04-26T10:23:32.002Z</time></trkpt><trkpt lat="43.98616192751586" lon="10.552772673932875"><ele>117.5</ele><time>2026-04-26T10:23:33.002Z</time></trkpt><trkpt lat="43.98602784077591" lon="10.552728969287298"><ele>113.25</ele><time>2026-04-26T10:23:34.002Z</time></trkpt><trkpt lat="43.985887119888616" lon="10.552696140850758"><ele>109.0</ele><time>2026-04-26T10:23:35.002Z</time></trkpt><trkpt lat="43.98574654480676" lon="10.55267946722746"><ele>108.0</ele><time>2026-04-26T10:23:36.002Z</time></trkpt><trkpt lat="43.985622536177836" lon="10.552695839377089"><ele>107.0</ele><time>2026-04-26T10:23:37.002Z</time></trkpt><trkpt lat="43.98550064706877" lon="10.552718469021134"><ele>106.0</ele><time>2026-04-26T10:23:38.002Z</time></trkpt><trkpt lat="43.9853692019164" lon="10.55274237877825"><ele>105.0</ele><time>2026-04-26T10:23:39.002Z</time></trkpt><trkpt lat="43.98523053500543" lon="10.552759903897556"><ele>105.0</ele><time>2026-04-26T10:23:40.002Z</time></trkpt><trkpt lat="43.98509390243371" lon="10.552780074795914"><ele>105.0</ele><time>2026-04-26T10:23:41.002Z</time></trkpt><trkpt lat="43.98496463334741" lon="10.552797098342397"><ele>105.0</ele><time>2026-04-26T10:23:42.002Z</time></trkpt><trkpt lat="43.98482852513564" lon="10.55281325443242"><ele>105.0</ele><time>2026-04-26T10:23:43.002Z</time></trkpt><trkpt lat="43.984664823835246" lon="10.552835158439771"><ele>103.0</ele><time>2026-04-26T10:23:44.002Z</time></trkpt><trkpt lat="43.98449604287211" lon="10.552861900183936"><ele>101.0</ele><time>2026-04-26T10:23:45.002Z</time></trkpt><trkpt lat="43.98433358637929" lon="10.552893224038181"><ele>99.0</ele><time>2026-04-26T10:23:46.002Z</time></trkpt><trkpt lat="43.98419240800078" lon="10.5529097616444"><ele>102.5</ele><time>2026-04-26T10:23:47.002Z</time></trkpt><trkpt lat="43.98406777614221" lon="10.552927839756242"><ele>106.0</ele><time>2026-04-26T10:23:48.002Z</time></trkpt><trkpt lat="43.983941128885945" lon="10.552946618766208"><ele>109.5</ele><time>2026-04-26T10:23:49.002Z</time></trkpt><trkpt lat="43.98381322237248" lon="10.552962251017844"><ele>113.0</ele><time>2026-04-26T10:23:50.002Z</time></trkpt><trkpt lat="43.983688160998405" lon="10.552981901804372"><ele>113.0</ele><time>2026-04-26T10:23:51.002Z</time></trkpt><trkpt lat="43.98355905788759" lon="10.553002068455516"><ele>113.0</ele><time>2026-04-26T10:23:52.002Z</time></trkpt><trkpt lat="43.9834215834471" lon="10.553005400567374"><ele>113.0</ele><time>2026-04-26T10:23:53.002Z</time></trkpt><trkpt lat="43.98328461912554" lon="10.553042001916062"><ele>113.0</ele><time>2026-04-26T10:23:54.002Z</time></trkpt><trkpt lat="43.98313674679576" lon="10.553067078039232"><ele>112.25</ele><time>2026-04-26T10:23:55.002Z</time></trkpt><trkpt lat="43.98298447691437" lon="10.553084667343336"><ele>111.5</ele><time>2026-04-26T10:23:56.002Z</time></trkpt><trkpt lat="43.98283487633596" lon="10.553104063191654"><ele>110.75</ele><time>2026-04-26T10:23:57.002Z</time></trkpt><trkpt lat="43.982689371511725" lon="10.55311905715152"><ele>110.0</ele><time>2026-04-26T10:23:58.002Z</time></trkpt><trkpt lat="43.98255308174081" lon="10.553139623543176"><ele>110.75</ele><time>2026-04-26T10:23:59.002Z</time></trkpt><trkpt lat="43.982425254398265" lon="10.5531539533646"><ele>111.5</ele><time>2026-04-26T10:24:00.002Z</time></trkpt><trkpt lat="43.98230151279809" lon="10.553163471661843"><ele>112.25</ele><time>2026-04-26T10:24:01.002Z</time></trkpt><trkpt lat="43.982180289615364" lon="10.553171369519516"><ele>113.0</ele><time>2026-04-26T10:24:02.002Z</time></trkpt><trkpt lat="43.9820515341594" lon="10.553172739985445"><ele>113.0</ele><time>2026-04-26T10:24:03.002Z</time></trkpt><trkpt lat="43.98191926399461" lon="10.553159231830737"><ele>113.0</ele><time>2026-04-26T10:24:04.002Z</time></trkpt><trkpt lat="43.981788815944036" lon="10.55313939169714"><ele>113.0</ele><time>2026-04-26T10:24:05.002Z</time></trkpt><trkpt lat="43.981661990105465" lon="10.553116249269582"><ele>113.0</ele><time>2026-04-26T10:24:06.002Z</time></trkpt><trkpt lat="43.98153662673404" lon="10.553093847210532"><ele>113.0</ele><time>2026-04-26T10:24:07.002Z</time></trkpt><trkpt lat="43.981414064430574" lon="10.553076813163836"><ele>113.0</ele><time>2026-04-26T10:24:08.002Z</time></trkpt><trkpt lat="43.98129070653476" lon="10.553044059613649"><ele>113.0</ele><time>2026-04-26T10:24:09.002Z</time></trkpt><trkpt lat="43.98118228995277" lon="10.55293181004238"><ele>113.0</ele><time>2026-04-26T10:24:10.002Z</time></trkpt><trkpt lat="43.98106018296904" lon="10.552852514357978"><ele>109.0</ele><time>2026-04-26T10:24:11Z</time></trkpt><trkpt lat="43.98093880377466" lon="10.552715341468131"><ele>105.0</ele><time>2026-04-26T10:24:12Z</time></trkpt><trkpt lat="43.98081175058249" lon="10.55260364985206"><ele>101.0</ele><time>2026-04-26T10:24:13Z</time></trkpt><trkpt lat="43.98068916734596" lon="10.55249769912507"><ele>101.0</ele><time>2026-04-26T10:24:14Z</time></trkpt><trkpt lat="43.98057769949631" lon="10.55239865083597"><ele>101.0</ele><time>2026-04-26T10:24:15Z</time></trkpt><trkpt lat="43.9804716934187" lon="10.552303158098969"><ele>101.0</ele><time>2026-04-26T10:24:16Z</time></trkpt><trkpt lat="43.980372900073824" lon="10.552215490583789"><ele>101.0</ele><time>2026-04-26T10:24:17Z</time></trkpt><trkpt lat="43.98027164818379" lon="10.552130039943359"><ele>101.0</ele><time>2026-04-26T10:24:18Z</time></trkpt><trkpt lat="43.980175922499114" lon="10.552051660913957"><ele>101.0</ele><time>2026-04-26T10:24:19Z</time></trkpt><trkpt lat="43.9800747394299" lon="10.551981881160625"><ele>101.0</ele><time>2026-04-26T10:24:20Z</time></trkpt><trkpt lat="43.979961860254406" lon="10.551917485532345"><ele>101.0</ele><time>2026-04-26T10:24:21Z</time></trkpt><trkpt lat="43.97983175951977" lon="10.55185470792447"><ele>97.75</ele><time>2026-04-26T10:24:22Z</time></trkpt><trkpt lat="43.97969610085344" lon="10.551791654944175"><ele>94.5</ele><time>2026-04-26T10:24:23Z</time></trkpt><trkpt lat="43.9795638418184" lon="10.551731895531892"><ele>91.25</ele><time>2026-04-26T10:24:24Z</time></trkpt><trkpt lat="43.97943864834601" lon="10.551680188104244"><ele>88.0</ele><time>2026-04-26T10:24:25Z</time></trkpt><trkpt lat="43.979317089994396" lon="10.55162082093176"><ele>88.0</ele><time>2026-04-26T10:24:26Z</time></trkpt><trkpt lat="43.97919218355251" lon="10.55157279355657"><ele>88.0</ele><time>2026-04-26T10:24:27Z</time></trkpt><trkpt lat="43.97907103387177" lon="10.55152048023534"><ele>88.0</ele><time>2026-04-26T10:24:28Z</time></trkpt><trkpt lat="43.978942531309684" lon="10.551482977502033"><ele>88.0</ele><time>2026-04-26T10:24:29Z</time></trkpt><trkpt lat="43.97879644094971" lon="10.551442663816726"><ele>94.66666666666666</ele><time>2026-04-26T10:24:30Z</time></trkpt><trkpt lat="43.97864951182503" lon="10.551398434149032"><ele>101.33333333333333</ele><time>2026-04-26T10:24:31Z</time></trkpt><trkpt lat="43.978494826924354" lon="10.551341731035404"><ele>108.0</ele><time>2026-04-26T10:24:32Z</time></trkpt><trkpt lat="43.97834030902048" lon="10.5513056548434"><ele>102.66666666666667</ele><time>2026-04-26T10:24:33Z</time></trkpt><trkpt lat="43.978180365881194" lon="10.551284705934144"><ele>97.33333333333334</ele><time>2026-04-26T10:24:34Z</time></trkpt><trkpt lat="43.977997934876974" lon="10.551213040573323"><ele>92.0</ele><time>2026-04-26T10:24:35Z</time></trkpt><trkpt lat="43.97781481265252" lon="10.551140381236777"><ele>92.0</ele><time>2026-04-26T10:24:36Z</time></trkpt><trkpt lat="43.97760989558143" lon="10.5510389252737"><ele>92.0</ele><time>2026-04-26T10:24:37Z</time></trkpt><trkpt lat="43.97741224184144" lon="10.55092742405466"><ele>92.0</ele><time>2026-04-26T10:24:38Z</time></trkpt><trkpt lat="43.977217361416336" lon="10.550819042086248"><ele>94.66666666666667</ele><time>2026-04-26T10:24:39Z</time></trkpt><trkpt lat="43.97706930169763" lon="10.550678116217505"><ele>97.33333333333334</ele><time>2026-04-26T10:24:40Z</time></trkpt><trkpt lat="43.97692300664668" lon="10.550500226495299"><ele>100.0</ele><time>2026-04-26T10:24:41Z</time></trkpt><trkpt lat="43.97677880968331" lon="10.550310175067988"><ele>98.33333333333334</ele><time>2026-04-26T10:24:42Z</time></trkpt><trkpt lat="43.97663025633029" lon="10.550119367546573"><ele>96.66666666666667</ele><time>2026-04-26T10:24:43.001Z</time></trkpt><trkpt lat="43.97647422965132" lon="10.549931874463054"><ele>95.0</ele><time>2026-04-26T10:24:44.001Z</time></trkpt><trkpt lat="43.97631807049663" lon="10.549737674270153"><ele>96.33333333333334</ele><time>2026-04-26T10:24:45.001Z</time></trkpt><trkpt lat="43.976162613566444" lon="10.549529811450286"><ele>97.66666666666667</ele><time>2026-04-26T10:24:46.001Z</time></trkpt><trkpt lat="43.97601813737764" lon="10.549295781143927"><ele>99.0</ele><time>2026-04-26T10:24:47.001Z</time></trkpt><trkpt lat="43.97585188773335" lon="10.54908140048469"><ele>99.0</ele><time>2026-04-26T10:24:48.001Z</time></trkpt><trkpt lat="43.975704149630936" lon="10.54884083514814"><ele>99.0</ele><time>2026-04-26T10:24:49.001Z</time></trkpt><trkpt lat="43.97557151253693" lon="10.548595052376733"><ele>99.0</ele><time>2026-04-26T10:24:50.001Z</time></trkpt><trkpt lat="43.97545355891851" lon="10.548342372577173"><ele>95.0</ele><time>2026-04-26T10:24:51.001Z</time></trkpt><trkpt lat="43.9753475001377" lon="10.548102339168686"><ele>91.0</ele><time>2026-04-26T10:24:52.001Z</time></trkpt><trkpt lat="43.97524045492821" lon="10.547856893690257"><ele>87.0</ele><time>2026-04-26T10:24:53.001Z</time></trkpt><trkpt lat="43.97513101022364" lon="10.547619298983118"><ele>86.66666666666667</ele><time>2026-04-26T10:24:54.001Z</time></trkpt><trkpt lat="43.975023205313995" lon="10.547378178642301"><ele>86.33333333333334</ele><time>2026-04-26T10:24:55.001Z</time></trkpt><trkpt lat="43.97491857737105" lon="10.547145948400148"><ele>86.0</ele><time>2026-04-26T10:24:56.001Z</time></trkpt><trkpt lat="43.974817478534405" lon="10.54692566974316"><ele>86.0</ele><time>2026-04-26T10:24:57.001Z</time></trkpt><trkpt lat="43.97471904656813" lon="10.546710512428888"><ele>86.0</ele><time>2026-04-26T10:24:58.001Z</time></trkpt><trkpt lat="43.974627651293744" lon="10.546512404490832"><ele>86.0</ele><time>2026-04-26T10:24:59.001Z</time></trkpt><trkpt lat="43.97453035984538" lon="10.546331304496677"><ele>84.66666666666667</ele><time>2026-04-26T10:25:00.001Z</time></trkpt><trkpt lat="43.97442038570182" lon="10.546166197363382"><ele>83.33333333333333</ele><time>2026-04-26T10:25:01.001Z</time></trkpt><trkpt lat="43.97429736450656" lon="10.546031002729745"><ele>82.0</ele><time>2026-04-26T10:25:02.001Z</time></trkpt><trkpt lat="43.974161323614126" lon="10.545901053714056"><ele>84.66666666666666</ele><time>2026-04-26T10:25:03.001Z</time></trkpt><trkpt lat="43.9740077430239" lon="10.545798397688753"><ele>87.33333333333333</ele><time>2026-04-26T10:25:04.001Z</time></trkpt><trkpt lat="43.97383790109191" lon="10.54571239872519"><ele>90.0</ele><time>2026-04-26T10:25:05.001Z</time></trkpt><trkpt lat="43.97366094943178" lon="10.545640270297158"><ele>90.0</ele><time>2026-04-26T10:25:06.001Z</time></trkpt><trkpt lat="43.97347861982124" lon="10.545559174788337"><ele>90.0</ele><time>2026-04-26T10:25:07.001Z</time></trkpt><trkpt lat="43.973293241978645" lon="10.545475837415788"><ele>90.0</ele><time>2026-04-26T10:25:08.001Z</time></trkpt><trkpt lat="43.973113364320355" lon="10.545385197768095"><ele>89.66666666666667</ele><time>2026-04-26T10:25:09.001Z</time></trkpt><trkpt lat="43.97294214783308" lon="10.545294579070571"><ele>89.33333333333334</ele><time>2026-04-26T10:25:10.001Z</time></trkpt><trkpt lat="43.97279268567741" lon="10.545168457194709"><ele>89.0</ele><time>2026-04-26T10:25:11.001Z</time></trkpt><trkpt lat="43.97264449782049" lon="10.545044502453061"><ele>94.0</ele><time>2026-04-26T10:25:12.001Z</time></trkpt><trkpt lat="43.97251050545139" lon="10.544909681908464"><ele>99.0</ele><time>2026-04-26T10:25:13.001Z</time></trkpt><trkpt lat="43.97238195086138" lon="10.544755550055283"><ele>104.0</ele><time>2026-04-26T10:25:14.001Z</time></trkpt><trkpt lat="43.97224395933951" lon="10.544601686812925"><ele>98.66666666666666</ele><time>2026-04-26T10:25:15.001Z</time></trkpt><trkpt lat="43.97212723271564" lon="10.544429688023358"><ele>93.33333333333333</ele><time>2026-04-26T10:25:16.001Z</time></trkpt><trkpt lat="43.97201785806443" lon="10.544264466872901"><ele>88.0</ele><time>2026-04-26T10:25:17.001Z</time></trkpt><trkpt lat="43.97191598069766" lon="10.544109637994056"><ele>88.0</ele><time>2026-04-26T10:25:18.001Z</time></trkpt><trkpt lat="43.971808564151935" lon="10.543953209230484"><ele>88.0</ele><time>2026-04-26T10:25:19.001Z</time></trkpt><trkpt lat="43.97170352103856" lon="10.543790739592493"><ele>88.0</ele><time>2026-04-26T10:25:20.001Z</time></trkpt><trkpt lat="43.97160510926563" lon="10.54362675712337"><ele>89.66666666666666</ele><time>2026-04-26T10:25:21.001Z</time></trkpt><trkpt lat="43.97151492820182" lon="10.543460804340475"><ele>91.33333333333333</ele><time>2026-04-26T10:25:22.001Z</time></trkpt><trkpt lat="43.9714267958042" lon="10.543279897228661"><ele>93.0</ele><time>2026-04-26T10:25:23.001Z</time></trkpt><trkpt lat="43.971375779733066" lon="10.543055843685734"><ele>92.33333333333333</ele><time>2026-04-26T10:25:24.001Z</time></trkpt><trkpt lat="43.9713155430037" lon="10.54278597267062"><ele>91.66666666666666</ele><time>2026-04-26T10:25:25.001Z</time></trkpt><trkpt lat="43.97123818760952" lon="10.542505131923694"><ele>91.0</ele><time>2026-04-26T10:25:26.001Z</time></trkpt><trkpt lat="43.9711719605635" lon="10.542196392272643"><ele>90.66666666666666</ele><time>2026-04-26T10:25:27.001Z</time></trkpt><trkpt lat="43.971110115190484" lon="10.541894438228889"><ele>90.33333333333333</ele><time>2026-04-26T10:25:28.001Z</time></trkpt><trkpt lat="43.971044784208644" lon="10.541621128642232"><ele>90.0</ele><time>2026-04-26T10:25:29.001Z</time></trkpt><trkpt lat="43.97095891030696" lon="10.54134642117699"><ele>90.0</ele><time>2026-04-26T10:25:30.001Z</time></trkpt><trkpt lat="43.970872088782656" lon="10.541072552646494"><ele>90.0</ele><time>2026-04-26T10:25:31.001Z</time></trkpt><trkpt lat="43.97079656481972" lon="10.540795580649403"><ele>90.0</ele><time>2026-04-26T10:25:32.001Z</time></trkpt><trkpt lat="43.970740470423586" lon="10.540503875617421"><ele>89.66666666666667</ele><time>2026-04-26T10:25:33.001Z</time></trkpt><trkpt lat="43.97070547462501" lon="10.540197544104618"><ele>89.33333333333334</ele><time>2026-04-26T10:25:34.001Z</time></trkpt><trkpt lat="43.97069681719948" lon="10.539893379738613"><ele>89.0</ele><time>2026-04-26T10:25:35.001Z</time></trkpt><trkpt lat="43.97074684470082" lon="10.53959258646093"><ele>90.0</ele><time>2026-04-26T10:25:36.001Z</time></trkpt><trkpt lat="43.97077346125762" lon="10.539283628082611"><ele>91.0</ele><time>2026-04-26T10:25:37.001Z</time></trkpt><trkpt lat="43.970823944917804" lon="10.538982579089854"><ele>92.0</ele><time>2026-04-26T10:25:38.002Z</time></trkpt><trkpt lat="43.9709030553422" lon="10.538697650536461"><ele>89.66666666666667</ele><time>2026-04-26T10:25:39.002Z</time></trkpt><trkpt lat="43.97100452682586" lon="10.538431863881536"><ele>87.33333333333333</ele><time>2026-04-26T10:25:40.002Z</time></trkpt><trkpt lat="43.97110673243656" lon="10.538184684247266"><ele>85.0</ele><time>2026-04-26T10:25:41.002Z</time></trkpt><trkpt lat="43.97118447470757" lon="10.537949066350878"><ele>84.33333333333333</ele><time>2026-04-26T10:25:42.002Z</time></trkpt><trkpt lat="43.971241629376124" lon="10.537688646292608"><ele>83.66666666666667</ele><time>2026-04-26T10:25:43.002Z</time></trkpt><trkpt lat="43.97127345814679" lon="10.537420102966076"><ele>83.0</ele><time>2026-04-26T10:25:44.002Z</time></trkpt><trkpt lat="43.9712922826072" lon="10.53714561963497"><ele>83.0</ele><time>2026-04-26T10:25:45.002Z</time></trkpt><trkpt lat="43.971317879113464" lon="10.53686184785954"><ele>83.0</ele><time>2026-04-26T10:25:46.002Z</time></trkpt><trkpt lat="43.97134655681165" lon="10.536589656916025"><ele>83.0</ele><time>2026-04-26T10:25:47.002Z</time></trkpt><trkpt lat="43.971377941762846" lon="10.536319328866753"><ele>85.0</ele><time>2026-04-26T10:25:48.002Z</time></trkpt><trkpt lat="43.97141798010899" lon="10.536047004537295"><ele>87.0</ele><time>2026-04-26T10:25:49.002Z</time></trkpt><trkpt lat="43.97147110943211" lon="10.535777895642612"><ele>89.0</ele><time>2026-04-26T10:25:50.002Z</time></trkpt><trkpt lat="43.97152488820023" lon="10.53551182465568"><ele>91.66666666666667</ele><time>2026-04-26T10:25:51.002Z</time></trkpt><trkpt lat="43.97156128203" lon="10.535245797897971"><ele>94.33333333333334</ele><time>2026-04-26T10:25:52.002Z</time></trkpt><trkpt lat="43.971584422655425" lon="10.53496201365383"><ele>97.0</ele><time>2026-04-26T10:25:53.002Z</time></trkpt><trkpt lat="43.971607479723524" lon="10.534687608690664"><ele>97.0</ele><time>2026-04-26T10:25:54.002Z</time></trkpt><trkpt lat="43.971631555954254" lon="10.53441692878984"><ele>97.0</ele><time>2026-04-26T10:25:55.002Z</time></trkpt><trkpt lat="43.9716585085455" lon="10.534148276953491"><ele>97.0</ele><time>2026-04-26T10:25:56.002Z</time></trkpt><trkpt lat="43.971675608206745" lon="10.533880603752653"><ele>94.33333333333334</ele><time>2026-04-26T10:25:57.002Z</time></trkpt><trkpt lat="43.97166762564365" lon="10.533602685871209"><ele>91.66666666666667</ele><time>2026-04-26T10:25:58.002Z</time></trkpt><trkpt lat="43.97164306087845" lon="10.53330749438506"><ele>89.0</ele><time>2026-04-26T10:25:59.002Z</time></trkpt><trkpt lat="43.971608799742704" lon="10.533028046099322"><ele>86.66666666666667</ele><time>2026-04-26T10:26:00.002Z</time></trkpt><trkpt lat="43.971585238018456" lon="10.532761189029058"><ele>84.33333333333333</ele><time>2026-04-26T10:26:01.002Z</time></trkpt><trkpt lat="43.97156808558302" lon="10.532495053220158"><ele>82.0</ele><time>2026-04-26T10:26:02.002Z</time></trkpt><trkpt lat="43.97154311721922" lon="10.532248936051792"><ele>81.0</ele><time>2026-04-26T10:26:03.002Z</time></trkpt><trkpt lat="43.97148953620386" lon="10.532008976624384"><ele>80.0</ele><time>2026-04-26T10:26:04.002Z</time></trkpt><trkpt lat="43.97140684972664" lon="10.53175918734924"><ele>79.0</ele><time>2026-04-26T10:26:05.002Z</time></trkpt><trkpt lat="43.97130960770005" lon="10.531532773689348"><ele>79.0</ele><time>2026-04-26T10:26:06.002Z</time></trkpt><trkpt lat="43.97119626023432" lon="10.53132973047034"><ele>79.0</ele><time>2026-04-26T10:26:07.002Z</time></trkpt><trkpt lat="43.971069003862155" lon="10.531158070182189"><ele>79.0</ele><time>2026-04-26T10:26:08.002Z</time></trkpt><trkpt lat="43.970950754078245" lon="10.530987765168222"><ele>79.0</ele><time>2026-04-26T10:26:09.002Z</time></trkpt><trkpt lat="43.97084333951184" lon="10.530824671326092"><ele>79.0</ele><time>2026-04-26T10:26:10.002Z</time></trkpt><trkpt lat="43.97073971725412" lon="10.530668386012533"><ele>79.0</ele><time>2026-04-26T10:26:11.002Z</time></trkpt><trkpt lat="43.970659047736945" lon="10.530514144387482"><ele>79.0</ele><time>2026-04-26T10:26:12.002Z</time></trkpt><trkpt lat="43.970571761974625" lon="10.53038339045369"><ele>77.8</ele><time>2026-04-26T10:26:13.002Z</time></trkpt><trkpt lat="43.970479450713206" lon="10.530277744560454"><ele>76.60000000000001</ele><time>2026-04-26T10:26:14.002Z</time></trkpt><trkpt lat="43.970405310939604" lon="10.530157726235911"><ele>75.4</ele><time>2026-04-26T10:26:15.002Z</time></trkpt><trkpt lat="43.97033194975409" lon="10.530045260536502"><ele>74.2</ele><time>2026-04-26T10:26:16.002Z</time></trkpt><trkpt lat="43.970266273109985" lon="10.529942941936516"><ele>73.0</ele><time>2026-04-26T10:26:17Z</time></trkpt><trkpt lat="43.970196992184675" lon="10.529863479767013"><ele>73.0</ele><time>2026-04-26T10:26:18Z</time></trkpt><trkpt lat="43.97012850242345" lon="10.529780857976421"><ele>73.0</ele><time>2026-04-26T10:26:19Z</time></trkpt><trkpt lat="43.97007200896735" lon="10.529638204465225"><ele>73.0</ele><time>2026-04-26T10:26:20Z</time></trkpt><trkpt lat="43.96997635124279" lon="10.529554225162048"><ele>73.0</ele><time>2026-04-26T10:26:21Z</time></trkpt><trkpt lat="43.96988676309225" lon="10.529447999181489"><ele>73.0</ele><time>2026-04-26T10:26:22Z</time></trkpt><trkpt lat="43.9698110647005" lon="10.529304213069008"><ele>74.33333333333333</ele><time>2026-04-26T10:26:23Z</time></trkpt><trkpt lat="43.96974176359161" lon="10.529110748735533"><ele>75.66666666666667</ele><time>2026-04-26T10:26:24Z</time></trkpt><trkpt lat="43.969628491526436" lon="10.528912692528989"><ele>77.0</ele><time>2026-04-26T10:26:25Z</time></trkpt><trkpt lat="43.96948461575479" lon="10.528727304445797"><ele>78.0</ele><time>2026-04-26T10:26:26Z</time></trkpt><trkpt lat="43.969360182930664" lon="10.52855413423412"><ele>79.0</ele><time>2026-04-26T10:26:27Z</time></trkpt><trkpt lat="43.96924399374488" lon="10.528388433330322"><ele>80.0</ele><time>2026-04-26T10:26:28Z</time></trkpt><trkpt lat="43.96912085722073" lon="10.528216778795835"><ele>80.0</ele><time>2026-04-26T10:26:29Z</time></trkpt><trkpt lat="43.96898941519385" lon="10.528042141670813"><ele>80.0</ele><time>2026-04-26T10:26:30Z</time></trkpt><trkpt lat="43.96886450644105" lon="10.527865287573183"><ele>80.0</ele><time>2026-04-26T10:26:31Z</time></trkpt><trkpt lat="43.96873904855087" lon="10.527700001845403"><ele>79.66666666666667</ele><time>2026-04-26T10:26:32Z</time></trkpt><trkpt lat="43.968608619280225" lon="10.527534453410825"><ele>79.33333333333333</ele><time>2026-04-26T10:26:33Z</time></trkpt><trkpt lat="43.96848692925199" lon="10.527381686372543"><ele>79.0</ele><time>2026-04-26T10:26:34Z</time></trkpt><trkpt lat="43.96835484490477" lon="10.527213435870861"><ele>77.0</ele><time>2026-04-26T10:26:35Z</time></trkpt><trkpt lat="43.96823449282855" lon="10.527058887960512"><ele>75.0</ele><time>2026-04-26T10:26:36Z</time></trkpt><trkpt lat="43.968118548514454" lon="10.526908660014005"><ele>73.0</ele><time>2026-04-26T10:26:37Z</time></trkpt><trkpt lat="43.96798430024017" lon="10.526750603175843"><ele>73.0</ele><time>2026-04-26T10:26:38Z</time></trkpt><trkpt lat="43.96784492722041" lon="10.526606684854816"><ele>73.0</ele><time>2026-04-26T10:26:39Z</time></trkpt><trkpt lat="43.96769928042169" lon="10.526463118249758"><ele>73.0</ele><time>2026-04-26T10:26:40Z</time></trkpt><trkpt lat="43.96754817032762" lon="10.526312550589966"><ele>73.0</ele><time>2026-04-26T10:26:41Z</time></trkpt><trkpt lat="43.967384208468125" lon="10.526155216520069"><ele>73.0</ele><time>2026-04-26T10:26:42Z</time></trkpt><trkpt lat="43.96720987305064" lon="10.525976287780784"><ele>73.0</ele><time>2026-04-26T10:26:43Z</time></trkpt><trkpt lat="43.96703528553903" lon="10.525784216698414"><ele>73.0</ele><time>2026-04-26T10:26:44Z</time></trkpt><trkpt lat="43.96685242806554" lon="10.52560277230597"><ele>73.0</ele><time>2026-04-26T10:26:45Z</time></trkpt><trkpt lat="43.966663619911586" lon="10.52542010888733"><ele>73.5</ele><time>2026-04-26T10:26:46Z</time></trkpt><trkpt lat="43.96646628722372" lon="10.525230986769879"><ele>74.0</ele><time>2026-04-26T10:26:47.001Z</time></trkpt><trkpt lat="43.966273537646735" lon="10.525033933925295"><ele>74.0</ele><time>2026-04-26T10:26:48.001Z</time></trkpt><trkpt lat="43.966083805728516" lon="10.524841075082966"><ele>74.0</ele><time>2026-04-26T10:26:49.001Z</time></trkpt><trkpt lat="43.965895124837175" lon="10.524650868772271"><ele>73.0</ele><time>2026-04-26T10:26:50.001Z</time></trkpt><trkpt lat="43.96570344651676" lon="10.524460762949229"><ele>72.0</ele><time>2026-04-26T10:26:51.001Z</time></trkpt><trkpt lat="43.96551158733619" lon="10.524266040999631"><ele>72.0</ele><time>2026-04-26T10:26:52.001Z</time></trkpt><trkpt lat="43.96531068213747" lon="10.524065010453205"><ele>72.0</ele><time>2026-04-26T10:26:53.001Z</time></trkpt><trkpt lat="43.965111894218985" lon="10.523865379943578"><ele>72.0</ele><time>2026-04-26T10:26:54.001Z</time></trkpt><trkpt lat="43.964925347233645" lon="10.523685104084278"><ele>72.0</ele><time>2026-04-26T10:26:55.001Z</time></trkpt><trkpt lat="43.964725189676166" lon="10.52347996963227"><ele>72.0</ele><time>2026-04-26T10:26:56.001Z</time></trkpt><trkpt lat="43.964508366541295" lon="10.52326466590808"><ele>72.0</ele><time>2026-04-26T10:26:57.001Z</time></trkpt><trkpt lat="43.96428977350122" lon="10.523053279254485"><ele>71.5</ele><time>2026-04-26T10:26:58.001Z</time></trkpt><trkpt lat="43.964083877315595" lon="10.522852545082664"><ele>71.0</ele><time>2026-04-26T10:26:59.001Z</time></trkpt><trkpt lat="43.96387934641001" lon="10.522652886825759"><ele>71.0</ele><time>2026-04-26T10:27:00.001Z</time></trkpt><trkpt lat="43.96367728116223" lon="10.522449432761926"><ele>71.0</ele><time>2026-04-26T10:27:01.001Z</time></trkpt><trkpt lat="43.96347313785198" lon="10.522245571070334"><ele>70.5</ele><time>2026-04-26T10:27:02.001Z</time></trkpt><trkpt lat="43.96327419258829" lon="10.522047283934349"><ele>70.0</ele><time>2026-04-26T10:27:03.001Z</time></trkpt><trkpt lat="43.96307888254395" lon="10.521850588574827"><ele>70.0</ele><time>2026-04-26T10:27:04.001Z</time></trkpt><trkpt lat="43.96288502972962" lon="10.521663139925687"><ele>70.0</ele><time>2026-04-26T10:27:05.001Z</time></trkpt><trkpt lat="43.962696328044885" lon="10.521474167525952"><ele>69.5</ele><time>2026-04-26T10:27:06.001Z</time></trkpt><trkpt lat="43.96251030045714" lon="10.521290138330142"><ele>69.0</ele><time>2026-04-26T10:27:07.001Z</time></trkpt><trkpt lat="43.96232457049583" lon="10.521101008830916"><ele>69.0</ele><time>2026-04-26T10:27:08.001Z</time></trkpt><trkpt lat="43.96214100572481" lon="10.520914152506318"><ele>69.0</ele><time>2026-04-26T10:27:09.001Z</time></trkpt><trkpt lat="43.96194986460528" lon="10.520722488459597"><ele>69.0</ele><time>2026-04-26T10:27:10.001Z</time></trkpt><trkpt lat="43.961761507141944" lon="10.520534723030257"><ele>69.0</ele><time>2026-04-26T10:27:11.001Z</time></trkpt><trkpt lat="43.961572871269546" lon="10.520344877251729"><ele>69.0</ele><time>2026-04-26T10:27:12.001Z</time></trkpt><trkpt lat="43.961382123558465" lon="10.520155298129245"><ele>69.0</ele><time>2026-04-26T10:27:13.001Z</time></trkpt><trkpt lat="43.96119499391081" lon="10.519967567060288"><ele>69.0</ele><time>2026-04-26T10:27:14.001Z</time></trkpt><trkpt lat="43.961006451555185" lon="10.519783418363517"><ele>69.0</ele><time>2026-04-26T10:27:15.001Z</time></trkpt><trkpt lat="43.96082512466127" lon="10.519596658543744"><ele>69.0</ele><time>2026-04-26T10:27:16.001Z</time></trkpt><trkpt lat="43.96063585321649" lon="10.519406849046206"><ele>69.0</ele><time>2026-04-26T10:27:17.001Z</time></trkpt><trkpt lat="43.96045112189453" lon="10.519221682384387"><ele>69.0</ele><time>2026-04-26T10:27:18.001Z</time></trkpt><trkpt lat="43.96026173441114" lon="10.519032271477473"><ele>69.0</ele><time>2026-04-26T10:27:19.001Z</time></trkpt><trkpt lat="43.96006888783817" lon="10.518840539527863"><ele>68.5</ele><time>2026-04-26T10:27:20.001Z</time></trkpt><trkpt lat="43.95988161616731" lon="10.518654577045332"><ele>68.0</ele><time>2026-04-26T10:27:21.001Z</time></trkpt><trkpt lat="43.959683751927486" lon="10.518462781273522"><ele>68.0</ele><time>2026-04-26T10:27:22.001Z</time></trkpt><trkpt lat="43.95947892796812" lon="10.518254350346698"><ele>68.0</ele><time>2026-04-26T10:27:23.001Z</time></trkpt><trkpt lat="43.95927106800665" lon="10.51805229172479"><ele>68.0</ele><time>2026-04-26T10:27:24.001Z</time></trkpt><trkpt lat="43.959075927070906" lon="10.517857100597618"><ele>68.0</ele><time>2026-04-26T10:27:25.001Z</time></trkpt><trkpt lat="43.95889303726108" lon="10.517670981667424"><ele>68.0</ele><time>2026-04-26T10:27:26.001Z</time></trkpt><trkpt lat="43.95871699869335" lon="10.517498433438348"><ele>68.0</ele><time>2026-04-26T10:27:27.001Z</time></trkpt><trkpt lat="43.95854768294306" lon="10.517322577251603"><ele>68.0</ele><time>2026-04-26T10:27:28.001Z</time></trkpt><trkpt lat="43.958389827507034" lon="10.517166038275276"><ele>69.33333333333334</ele><time>2026-04-26T10:27:29.001Z</time></trkpt><trkpt lat="43.958248852642626" lon="10.517026741271534"><ele>70.66666666666667</ele><time>2026-04-26T10:27:30.001Z</time></trkpt><trkpt lat="43.95812029524319" lon="10.516885692111034"><ele>72.0</ele><time>2026-04-26T10:27:31.001Z</time></trkpt><trkpt lat="43.95800740322264" lon="10.51671991240977"><ele>72.0</ele><time>2026-04-26T10:27:32.001Z</time></trkpt><trkpt lat="43.95791672148317" lon="10.51649733209278"><ele>72.0</ele><time>2026-04-26T10:27:33.001Z</time></trkpt><trkpt lat="43.95784094463876" lon="10.516241479099081"><ele>72.0</ele><time>2026-04-26T10:27:34.001Z</time></trkpt><trkpt lat="43.9577577527527" lon="10.515985373445812"><ele>72.66666666666667</ele><time>2026-04-26T10:27:35.001Z</time></trkpt><trkpt lat="43.95767013939123" lon="10.515746972802154"><ele>73.33333333333334</ele><time>2026-04-26T10:27:36.001Z</time></trkpt><trkpt lat="43.95757635538186" lon="10.515501346419075"><ele>74.0</ele><time>2026-04-26T10:27:37.001Z</time></trkpt><trkpt lat="43.95748523394025" lon="10.5152557329653"><ele>74.0</ele><time>2026-04-26T10:27:38.001Z</time></trkpt><trkpt lat="43.95738932863892" lon="10.514998722523021"><ele>74.0</ele><time>2026-04-26T10:27:39.001Z</time></trkpt><trkpt lat="43.957277463987595" lon="10.514730891585753"><ele>74.0</ele><time>2026-04-26T10:27:40.001Z</time></trkpt><trkpt lat="43.95715133285116" lon="10.51445699992645"><ele>69.5</ele><time>2026-04-26T10:27:41.001Z</time></trkpt><trkpt lat="43.95700882992597" lon="10.514174204435466"><ele>65.0</ele><time>2026-04-26T10:27:42.001Z</time></trkpt><trkpt lat="43.95687273578561" lon="10.513898340702296"><ele>64.33333333333334</ele><time>2026-04-26T10:27:43.001Z</time></trkpt><trkpt lat="43.9567487165294" lon="10.51363872930748"><ele>63.66666666666667</ele><time>2026-04-26T10:27:44.001Z</time></trkpt><trkpt lat="43.95662311843337" lon="10.51340356726453"><ele>63.0</ele><time>2026-04-26T10:27:45.001Z</time></trkpt><trkpt lat="43.95650155599395" lon="10.513190323399245"><ele>64.33333333333333</ele><time>2026-04-26T10:27:46.002Z</time></trkpt><trkpt lat="43.956383097512884" lon="10.512969181533979"><ele>65.66666666666666</ele><time>2026-04-26T10:27:47.002Z</time></trkpt><trkpt lat="43.9562852001325" lon="10.512732002052658"><ele>67.0</ele><time>2026-04-26T10:27:48.002Z</time></trkpt><trkpt lat="43.956195768589076" lon="10.512486751139575"><ele>67.0</ele><time>2026-04-26T10:27:49.002Z</time></trkpt><trkpt lat="43.95611133254697" lon="10.512236934040486"><ele>67.0</ele><time>2026-04-26T10:27:50.002Z</time></trkpt><trkpt lat="43.956020273226166" lon="10.511988668794668"><ele>67.0</ele><time>2026-04-26T10:27:51.002Z</time></trkpt><trkpt lat="43.955927901718624" lon="10.511728979316919"><ele>71.5</ele><time>2026-04-26T10:27:52.002Z</time></trkpt><trkpt lat="43.95582405981723" lon="10.511454886630075"><ele>76.0</ele><time>2026-04-26T10:27:53.002Z</time></trkpt><trkpt lat="43.95571550303624" lon="10.511173370880652"><ele>76.0</ele><time>2026-04-26T10:27:54.002Z</time></trkpt><trkpt lat="43.95561023325726" lon="10.510902130224581"><ele>76.0</ele><time>2026-04-26T10:27:55.002Z</time></trkpt><trkpt lat="43.9555116238477" lon="10.510633480776676"><ele>76.0</ele><time>2026-04-26T10:27:56.002Z</time></trkpt><trkpt lat="43.95541875898665" lon="10.510385438498474"><ele>72.0</ele><time>2026-04-26T10:27:57.002Z</time></trkpt><trkpt lat="43.95533224017303" lon="10.51018375412055"><ele>68.0</ele><time>2026-04-26T10:27:58.002Z</time></trkpt><trkpt lat="43.955241549144844" lon="10.510012947524341"><ele>64.0</ele><time>2026-04-26T10:27:59.002Z</time></trkpt><trkpt lat="43.9551348684457" lon="10.509863379994444"><ele>64.0</ele><time>2026-04-26T10:28:00.002Z</time></trkpt><trkpt lat="43.95505506895535" lon="10.509734319879183"><ele>64.0</ele><time>2026-04-26T10:28:01.002Z</time></trkpt><trkpt lat="43.95498838309379" lon="10.509621796103902"><ele>64.0</ele><time>2026-04-26T10:28:02.002Z</time></trkpt><trkpt lat="43.95493677898025" lon="10.509528383265218"><ele>64.0</ele><time>2026-04-26T10:28:03.002Z</time></trkpt><trkpt lat="43.95489608844847" lon="10.509451433572455"><ele>64.0</ele><time>2026-04-26T10:28:04.002Z</time></trkpt><trkpt lat="43.95485714853206" lon="10.509328075102903"><ele>64.0</ele><time>2026-04-26T10:28:06.002Z</time></trkpt><trkpt lat="43.95479647666277" lon="10.509184155822103"><ele>64.0</ele><time>2026-04-26T10:28:08.002Z</time></trkpt><trkpt lat="43.95475971046636" lon="10.509093499119032"><ele>64.0</ele><time>2026-04-26T10:28:09.002Z</time></trkpt><trkpt lat="43.95469945685274" lon="10.50894783279526"><ele>64.0</ele><time>2026-04-26T10:28:11.002Z</time></trkpt><trkpt lat="43.954659219742275" lon="10.508840749477807"><ele>64.0</ele><time>2026-04-26T10:28:12.002Z</time></trkpt><trkpt lat="43.9546097878641" lon="10.50872547814709"><ele>64.0</ele><time>2026-04-26T10:28:13.002Z</time></trkpt><trkpt lat="43.954556910708014" lon="10.50860703917437"><ele>64.0</ele><time>2026-04-26T10:28:14.002Z</time></trkpt><trkpt lat="43.95449163518658" lon="10.508498342877312"><ele>64.0</ele><time>2026-04-26T10:28:15.002Z</time></trkpt><trkpt lat="43.95443807735315" lon="10.508402938875257"><ele>64.0</ele><time>2026-04-26T10:28:16.002Z</time></trkpt><trkpt lat="43.954371240091" lon="10.508316618899352"><ele>64.0</ele><time>2026-04-26T10:28:17.002Z</time></trkpt><trkpt lat="43.95428216422172" lon="10.508221532430209"><ele>64.75</ele><time>2026-04-26T10:28:18.002Z</time></trkpt><trkpt lat="43.954170349235255" lon="10.508138402081464"><ele>65.5</ele><time>2026-04-26T10:28:19.002Z</time></trkpt><trkpt lat="43.954072917852756" lon="10.508031466579398"><ele>66.25</ele><time>2026-04-26T10:28:20.002Z</time></trkpt><trkpt lat="43.95398122061129" lon="10.507918314047403"><ele>67.0</ele><time>2026-04-26T10:28:21.002Z</time></trkpt><trkpt lat="43.95389388998966" lon="10.50781353969889"><ele>67.0</ele><time>2026-04-26T10:28:22.002Z</time></trkpt><trkpt lat="43.95380682572238" lon="10.50770702533423"><ele>67.0</ele><time>2026-04-26T10:28:23Z</time></trkpt><trkpt lat="43.953730855653006" lon="10.507616906328451"><ele>67.0</ele><time>2026-04-26T10:28:24Z</time></trkpt><trkpt lat="43.953652924333674" lon="10.507520227713462"><ele>67.0</ele><time>2026-04-26T10:28:25Z</time></trkpt><trkpt lat="43.9535644560711" lon="10.50743317709598"><ele>67.0</ele><time>2026-04-26T10:28:26Z</time></trkpt><trkpt lat="43.95348439648951" lon="10.507306972350644"><ele>67.0</ele><time>2026-04-26T10:28:27Z</time></trkpt><trkpt lat="43.95338427870357" lon="10.50724138865849"><ele>67.0</ele><time>2026-04-26T10:28:28Z</time></trkpt><trkpt lat="43.95328488117561" lon="10.507182356986643"><ele>67.0</ele><time>2026-04-26T10:28:29Z</time></trkpt><trkpt lat="43.95317915652468" lon="10.507122717679566"><ele>67.0</ele><time>2026-04-26T10:28:30Z</time></trkpt><trkpt lat="43.95307532706819" lon="10.507066226754455"><ele>67.0</ele><time>2026-04-26T10:28:31Z</time></trkpt><trkpt lat="43.95297056918998" lon="10.507010629294209"><ele>66.75</ele><time>2026-04-26T10:28:32Z</time></trkpt><trkpt lat="43.95284652061897" lon="10.50694633790176"><ele>66.5</ele><time>2026-04-26T10:28:33Z</time></trkpt><trkpt lat="43.95272447278488" lon="10.50688571400362"><ele>66.25</ele><time>2026-04-26T10:28:34Z</time></trkpt><trkpt lat="43.95260131148498" lon="10.50680155150327"><ele>66.0</ele><time>2026-04-26T10:28:35Z</time></trkpt><trkpt lat="43.95247370437912" lon="10.50671081474529"><ele>70.33333333333333</ele><time>2026-04-26T10:28:36Z</time></trkpt><trkpt lat="43.95232688619646" lon="10.506653458197217"><ele>74.66666666666666</ele><time>2026-04-26T10:28:37Z</time></trkpt><trkpt lat="43.95217595821418" lon="10.506606556571072"><ele>79.0</ele><time>2026-04-26T10:28:38Z</time></trkpt><trkpt lat="43.95202428069696" lon="10.506545219009553"><ele>79.0</ele><time>2026-04-26T10:28:39Z</time></trkpt><trkpt lat="43.95187901094684" lon="10.50650159172704"><ele>79.0</ele><time>2026-04-26T10:28:40Z</time></trkpt><trkpt lat="43.95172195802528" lon="10.506452157663254"><ele>79.0</ele><time>2026-04-26T10:28:41Z</time></trkpt><trkpt lat="43.95157404391928" lon="10.506393453355239"><ele>84.0</ele><time>2026-04-26T10:28:42Z</time></trkpt><trkpt lat="43.95141673806587" lon="10.506339804486062"><ele>89.0</ele><time>2026-04-26T10:28:43Z</time></trkpt><trkpt lat="43.95124250451972" lon="10.50630684780239"><ele>94.0</ele><time>2026-04-26T10:28:44Z</time></trkpt><trkpt lat="43.95102486420812" lon="10.50630636023941"><ele>90.5</ele><time>2026-04-26T10:28:45Z</time></trkpt><trkpt lat="43.950771873912466" lon="10.506294855032564"><ele>87.0</ele><time>2026-04-26T10:28:46Z</time></trkpt><trkpt lat="43.95049242498993" lon="10.50625902317374"><ele>77.0</ele><time>2026-04-26T10:28:47Z</time></trkpt><trkpt lat="43.95020883889929" lon="10.506220870648324"><ele>67.0</ele><time>2026-04-26T10:28:48Z</time></trkpt><trkpt lat="43.94994892150506" lon="10.506205660050808"><ele>67.0</ele><time>2026-04-26T10:28:49Z</time></trkpt><trkpt lat="43.949710350457245" lon="10.506190684683848"><ele>67.0</ele><time>2026-04-26T10:28:50Z</time></trkpt><trkpt lat="43.94949896129206" lon="10.506173508963439"><ele>67.0</ele><time>2026-04-26T10:28:51.001Z</time></trkpt><trkpt lat="43.94930116039201" lon="10.50615958940636"><ele>67.0</ele><time>2026-04-26T10:28:52.001Z</time></trkpt><trkpt lat="43.94911990752713" lon="10.506150367649635"><ele>67.0</ele><time>2026-04-26T10:28:53.001Z</time></trkpt><trkpt lat="43.94894249611796" lon="10.50613394151339"><ele>67.0</ele><time>2026-04-26T10:28:54.001Z</time></trkpt><trkpt lat="43.94876676796248" lon="10.506116977913209"><ele>67.0</ele><time>2026-04-26T10:28:55.001Z</time></trkpt><trkpt lat="43.94860437677269" lon="10.50607813826332"><ele>67.0</ele><time>2026-04-26T10:28:56.001Z</time></trkpt><trkpt lat="43.94844179980765" lon="10.506062371805513"><ele>66.33333333333333</ele><time>2026-04-26T10:28:57.001Z</time></trkpt><trkpt lat="43.948285227531535" lon="10.50604718766586"><ele>65.66666666666667</ele><time>2026-04-26T10:28:58.001Z</time></trkpt><trkpt lat="43.948111648716605" lon="10.506030354258526"><ele>65.0</ele><time>2026-04-26T10:28:59.001Z</time></trkpt><trkpt lat="43.947939568514705" lon="10.506012111053751"><ele>65.0</ele><time>2026-04-26T10:29:00.001Z</time></trkpt><trkpt lat="43.94777175818859" lon="10.505996267781612"><ele>65.0</ele><time>2026-04-26T10:29:01.001Z</time></trkpt><trkpt lat="43.94759979013061" lon="10.50598615451524"><ele>65.0</ele><time>2026-04-26T10:29:02.001Z</time></trkpt><trkpt lat="43.947429468912546" lon="10.50600124075694"><ele>65.66666666666667</ele><time>2026-04-26T10:29:03.001Z</time></trkpt><trkpt lat="43.947265408158984" lon="10.506015229873313"><ele>66.33333333333333</ele><time>2026-04-26T10:29:04.001Z</time></trkpt><trkpt lat="43.94709973442284" lon="10.506072970516986"><ele>67.0</ele><time>2026-04-26T10:29:05.001Z</time></trkpt><trkpt lat="43.94693170785576" lon="10.506133741826337"><ele>67.0</ele><time>2026-04-26T10:29:06.001Z</time></trkpt><trkpt lat="43.94677358110033" lon="10.506199314001979"><ele>67.0</ele><time>2026-04-26T10:29:07.001Z</time></trkpt><trkpt lat="43.94661402539859" lon="10.506217512726128"><ele>67.0</ele><time>2026-04-26T10:29:08.001Z</time></trkpt><trkpt lat="43.94644487414213" lon="10.50619144849682"><ele>69.0</ele><time>2026-04-26T10:29:09.001Z</time></trkpt><trkpt lat="43.94627872569689" lon="10.506135687372483"><ele>71.0</ele><time>2026-04-26T10:29:10.001Z</time></trkpt><trkpt lat="43.94613644248271" lon="10.506018793251394"><ele>73.0</ele><time>2026-04-26T10:29:11.001Z</time></trkpt><trkpt lat="43.94599580725942" lon="10.50594167859074"><ele>73.0</ele><time>2026-04-26T10:29:12.001Z</time></trkpt><trkpt lat="43.94588150783986" lon="10.505844397152881"><ele>73.0</ele><time>2026-04-26T10:29:13.001Z</time></trkpt><trkpt lat="43.94576290140456" lon="10.505737554124222"><ele>73.0</ele><time>2026-04-26T10:29:14.001Z</time></trkpt><trkpt lat="43.945662083863915" lon="10.505571421834292"><ele>73.0</ele><time>2026-04-26T10:29:15.001Z</time></trkpt><trkpt lat="43.945556465797246" lon="10.505412949961451"><ele>71.33333333333333</ele><time>2026-04-26T10:29:16.001Z</time></trkpt><trkpt lat="43.94542791164175" lon="10.505277042763582"><ele>69.66666666666667</ele><time>2026-04-26T10:29:17.001Z</time></trkpt><trkpt lat="43.945278817310424" lon="10.505173568736467"><ele>68.0</ele><time>2026-04-26T10:29:18.001Z</time></trkpt><trkpt lat="43.945100533951" lon="10.505107777138255"><ele>74.66666666666667</ele><time>2026-04-26T10:29:19.001Z</time></trkpt><trkpt lat="43.944924156148126" lon="10.50503543695239"><ele>81.33333333333333</ele><time>2026-04-26T10:29:20.001Z</time></trkpt><trkpt lat="43.94476311639314" lon="10.504925335181722"><ele>88.0</ele><time>2026-04-26T10:29:21.001Z</time></trkpt><trkpt lat="43.944619239101264" lon="10.504814082404422"><ele>88.0</ele><time>2026-04-26T10:29:22.001Z</time></trkpt><trkpt lat="43.944485757527815" lon="10.504704644649177"><ele>88.0</ele><time>2026-04-26T10:29:23.001Z</time></trkpt><trkpt lat="43.94434779021124" lon="10.504612679280962"><ele>88.0</ele><time>2026-04-26T10:29:24.001Z</time></trkpt><trkpt lat="43.94420923726084" lon="10.504534701214626"><ele>81.33333333333333</ele><time>2026-04-26T10:29:25.001Z</time></trkpt><trkpt lat="43.944056468544716" lon="10.504470357397006"><ele>74.66666666666667</ele><time>2026-04-26T10:29:26.001Z</time></trkpt><trkpt lat="43.94388472018679" lon="10.50441888641328"><ele>68.0</ele><time>2026-04-26T10:29:27.001Z</time></trkpt><trkpt lat="43.94371177485883" lon="10.504350359699846"><ele>68.0</ele><time>2026-04-26T10:29:28.001Z</time></trkpt><trkpt lat="43.94354145220069" lon="10.504274396162703"><ele>68.0</ele><time>2026-04-26T10:29:29.001Z</time></trkpt><trkpt lat="43.94336963570578" lon="10.504202073210958"><ele>68.0</ele><time>2026-04-26T10:29:30.001Z</time></trkpt><trkpt lat="43.94320084006212" lon="10.504128412651056"><ele>72.0</ele><time>2026-04-26T10:29:31.001Z</time></trkpt><trkpt lat="43.943040198885214" lon="10.504063480602891"><ele>76.0</ele><time>2026-04-26T10:29:32.001Z</time></trkpt><trkpt lat="43.9428817086414" lon="10.504001164370687"><ele>80.0</ele><time>2026-04-26T10:29:33.001Z</time></trkpt><trkpt lat="43.94272684652267" lon="10.503932535199864"><ele>80.0</ele><time>2026-04-26T10:29:34.001Z</time></trkpt><trkpt lat="43.94257303543626" lon="10.503857741094505"><ele>80.0</ele><time>2026-04-26T10:29:35.001Z</time></trkpt><trkpt lat="43.94242584960419" lon="10.503751675985066"><ele>80.0</ele><time>2026-04-26T10:29:36.001Z</time></trkpt><trkpt lat="43.9422806337383" lon="10.503617474977501"><ele>76.66666666666667</ele><time>2026-04-26T10:29:37.001Z</time></trkpt><trkpt lat="43.94212777085638" lon="10.503481812183383"><ele>73.33333333333333</ele><time>2026-04-26T10:29:38.001Z</time></trkpt><trkpt lat="43.941964567043755" lon="10.503346338890575"><ele>70.0</ele><time>2026-04-26T10:29:39.001Z</time></trkpt><trkpt lat="43.94180299990085" lon="10.503211685251129"><ele>69.33333333333333</ele><time>2026-04-26T10:29:40.001Z</time></trkpt><trkpt lat="43.94163855657708" lon="10.50309181480879"><ele>68.66666666666667</ele><time>2026-04-26T10:29:41.001Z</time></trkpt><trkpt lat="43.94147767044225" lon="10.502977587540972"><ele>68.0</ele><time>2026-04-26T10:29:42.001Z</time></trkpt><trkpt lat="43.9413126405708" lon="10.50284386131623"><ele>68.0</ele><time>2026-04-26T10:29:43.001Z</time></trkpt><trkpt lat="43.941142964193745" lon="10.502734477883614"><ele>68.0</ele><time>2026-04-26T10:29:44.001Z</time></trkpt><trkpt lat="43.940975925686644" lon="10.502628752675808"><ele>68.0</ele><time>2026-04-26T10:29:45.001Z</time></trkpt><trkpt lat="43.940808178688236" lon="10.502534944427525"><ele>69.66666666666667</ele><time>2026-04-26T10:29:46.001Z</time></trkpt><trkpt lat="43.94064444798073" lon="10.502420714824142"><ele>71.33333333333333</ele><time>2026-04-26T10:29:47.001Z</time></trkpt><trkpt lat="43.94049829581581" lon="10.502311360435844"><ele>73.0</ele><time>2026-04-26T10:29:48.001Z</time></trkpt><trkpt lat="43.94035593948146" lon="10.502176734449362"><ele>73.0</ele><time>2026-04-26T10:29:49.001Z</time></trkpt><trkpt lat="43.94020928199473" lon="10.502072107061974"><ele>73.0</ele><time>2026-04-26T10:29:50.001Z</time></trkpt><trkpt lat="43.94006029633644" lon="10.502083066074837"><ele>73.0</ele><time>2026-04-26T10:29:51.001Z</time></trkpt><trkpt lat="43.93989527089841" lon="10.50202661776056"><ele>69.0</ele><time>2026-04-26T10:29:52.001Z</time></trkpt><trkpt lat="43.93972986958747" lon="10.502002661590321"><ele>65.0</ele><time>2026-04-26T10:29:53.001Z</time></trkpt><trkpt lat="43.93956213185432" lon="10.502010047481376"><ele>61.0</ele><time>2026-04-26T10:29:54.002Z</time></trkpt><trkpt lat="43.939404119028744" lon="10.502039308059862"><ele>65.0</ele><time>2026-04-26T10:29:55.002Z</time></trkpt><trkpt lat="43.93925007989201" lon="10.502093122676394"><ele>69.0</ele><time>2026-04-26T10:29:56.002Z</time></trkpt><trkpt lat="43.93910085120282" lon="10.502161681017885"><ele>73.0</ele><time>2026-04-26T10:29:57.002Z</time></trkpt><trkpt lat="43.93895373748843" lon="10.502219332340461"><ele>73.0</ele><time>2026-04-26T10:29:58.002Z</time></trkpt><trkpt lat="43.938815618755704" lon="10.502270339598013"><ele>73.0</ele><time>2026-04-26T10:29:59.002Z</time></trkpt><trkpt lat="43.938683472692304" lon="10.502332378427807"><ele>73.0</ele><time>2026-04-26T10:30:00.002Z</time></trkpt><trkpt lat="43.93855835660568" lon="10.502421883494051"><ele>73.0</ele><time>2026-04-26T10:30:01.002Z</time></trkpt><trkpt lat="43.93844754901771" lon="10.502558379997202"><ele>74.33333333333333</ele><time>2026-04-26T10:30:02.002Z</time></trkpt><trkpt lat="43.938349827738826" lon="10.502712621322441"><ele>75.66666666666667</ele><time>2026-04-26T10:30:03.002Z</time></trkpt><trkpt lat="43.938250450177875" lon="10.502879108864425"><ele>77.0</ele><time>2026-04-26T10:30:04.002Z</time></trkpt><trkpt lat="43.93814029123752" lon="10.503046904223748"><ele>77.0</ele><time>2026-04-26T10:30:05.002Z</time></trkpt><trkpt lat="43.93802815187186" lon="10.503213186550257"><ele>77.0</ele><time>2026-04-26T10:30:06.002Z</time></trkpt><trkpt lat="43.93790990404607" lon="10.503392580033728"><ele>77.0</ele><time>2026-04-26T10:30:07.002Z</time></trkpt><trkpt lat="43.937803225053685" lon="10.503557818451092"><ele>77.0</ele><time>2026-04-26T10:30:08.002Z</time></trkpt><trkpt lat="43.93769764503162" lon="10.50371228479897"><ele>77.0</ele><time>2026-04-26T10:30:09.002Z</time></trkpt><trkpt lat="43.93760075328232" lon="10.50385460892806"><ele>77.0</ele><time>2026-04-26T10:30:10.002Z</time></trkpt><trkpt lat="43.9375119508895" lon="10.503992291049297"><ele>77.0</ele><time>2026-04-26T10:30:11.002Z</time></trkpt><trkpt lat="43.93741825279903" lon="10.504132988412863"><ele>74.5</ele><time>2026-04-26T10:30:12.002Z</time></trkpt><trkpt lat="43.93731656832303" lon="10.504283147307978"><ele>72.0</ele><time>2026-04-26T10:30:13.002Z</time></trkpt><trkpt lat="43.93721761688104" lon="10.50443722663456"><ele>69.5</ele><time>2026-04-26T10:30:14.002Z</time></trkpt><trkpt lat="43.937114150138726" lon="10.50458660169465"><ele>67.0</ele><time>2026-04-26T10:30:15.002Z</time></trkpt><trkpt lat="43.93701216869544" lon="10.504738300624945"><ele>67.0</ele><time>2026-04-26T10:30:16.002Z</time></trkpt><trkpt lat="43.936913474475254" lon="10.504887528083989"><ele>67.0</ele><time>2026-04-26T10:30:17.002Z</time></trkpt><trkpt lat="43.93681293391312" lon="10.50503942019199"><ele>67.0</ele><time>2026-04-26T10:30:18.002Z</time></trkpt><trkpt lat="43.936717120966186" lon="10.505182644640373"><ele>67.0</ele><time>2026-04-26T10:30:19.002Z</time></trkpt><trkpt lat="43.936620607816046" lon="10.505325666603"><ele>64.75</ele><time>2026-04-26T10:30:20.002Z</time></trkpt><trkpt lat="43.936531226701625" lon="10.505462651723853"><ele>62.5</ele><time>2026-04-26T10:30:21.002Z</time></trkpt><trkpt lat="43.93643623610333" lon="10.505601952562825"><ele>60.25</ele><time>2026-04-26T10:30:22.002Z</time></trkpt><trkpt lat="43.93634702053397" lon="10.505730528642294"><ele>58.0</ele><time>2026-04-26T10:30:23.002Z</time></trkpt><trkpt lat="43.93626220683002" lon="10.505855294224103"><ele>58.0</ele><time>2026-04-26T10:30:24.002Z</time></trkpt><trkpt lat="43.936176229096446" lon="10.50598242752106"><ele>58.0</ele><time>2026-04-26T10:30:25.002Z</time></trkpt><trkpt lat="43.936088250575324" lon="10.506115514804144"><ele>58.0</ele><time>2026-04-26T10:30:26.002Z</time></trkpt><trkpt lat="43.9359965073039" lon="10.50625071451927"><ele>58.0</ele><time>2026-04-26T10:30:27.002Z</time></trkpt><trkpt lat="43.935901675820574" lon="10.506391192515958"><ele>58.75</ele><time>2026-04-26T10:30:28.002Z</time></trkpt><trkpt lat="43.93580064466267" lon="10.50653696540452"><ele>59.5</ele><time>2026-04-26T10:30:29.001Z</time></trkpt><trkpt lat="43.935692130096854" lon="10.506690518997752"><ele>60.25</ele><time>2026-04-26T10:30:30.001Z</time></trkpt><trkpt lat="43.93560154804503" lon="10.5068506173105"><ele>61.0</ele><time>2026-04-26T10:30:31.001Z</time></trkpt><trkpt lat="43.93550462383324" lon="10.507002029234087"><ele>61.0</ele><time>2026-04-26T10:30:32.001Z</time></trkpt><trkpt lat="43.93539781616915" lon="10.507150005496879"><ele>61.0</ele><time>2026-04-26T10:30:33.001Z</time></trkpt><trkpt lat="43.93527979128315" lon="10.50730667385467"><ele>61.0</ele><time>2026-04-26T10:30:34.001Z</time></trkpt><trkpt lat="43.93516598814408" lon="10.507473403302853"><ele>61.0</ele><time>2026-04-26T10:30:35.001Z</time></trkpt><trkpt lat="43.93505819726297" lon="10.50765004203674"><ele>61.0</ele><time>2026-04-26T10:30:36Z</time></trkpt><trkpt lat="43.934951155697156" lon="10.507834401748463"><ele>61.0</ele><time>2026-04-26T10:30:37Z</time></trkpt><trkpt lat="43.93484801891341" lon="10.508007529648015"><ele>60.0</ele><time>2026-04-26T10:30:38Z</time></trkpt><trkpt lat="43.93475253494096" lon="10.508172353959546"><ele>59.0</ele><time>2026-04-26T10:30:39Z</time></trkpt><trkpt lat="43.93464749618521" lon="10.508336028441859"><ele>58.0</ele><time>2026-04-26T10:30:40Z</time></trkpt><trkpt lat="43.93452872671688" lon="10.508498704421868"><ele>58.0</ele><time>2026-04-26T10:30:41Z</time></trkpt><trkpt lat="43.9343962078949" lon="10.508651303110465"><ele>58.0</ele><time>2026-04-26T10:30:42Z</time></trkpt><trkpt lat="43.934257956471974" lon="10.50878792074155"><ele>58.0</ele><time>2026-04-26T10:30:43Z</time></trkpt><trkpt lat="43.9341228541768" lon="10.50891463574105"><ele>57.75</ele><time>2026-04-26T10:30:44Z</time></trkpt><trkpt lat="43.933998683647495" lon="10.509028542259218"><ele>57.5</ele><time>2026-04-26T10:30:45Z</time></trkpt><trkpt lat="43.933883895547986" lon="10.509138746434834"><ele>57.25</ele><time>2026-04-26T10:30:46Z</time></trkpt><trkpt lat="43.933772728261644" lon="10.509245193337687"><ele>57.0</ele><time>2026-04-26T10:30:47Z</time></trkpt><trkpt lat="43.933666053807684" lon="10.509349158650911"><ele>57.0</ele><time>2026-04-26T10:30:48Z</time></trkpt><trkpt lat="43.93356046004429" lon="10.509452552155103"><ele>57.0</ele><time>2026-04-26T10:30:49Z</time></trkpt><trkpt lat="43.933454632527976" lon="10.509554538512985"><ele>57.0</ele><time>2026-04-26T10:30:50Z</time></trkpt><trkpt lat="43.93335658216802" lon="10.509654048233969"><ele>57.0</ele><time>2026-04-26T10:30:51Z</time></trkpt><trkpt lat="43.933272888756385" lon="10.509756005956673"><ele>57.0</ele><time>2026-04-26T10:30:52Z</time></trkpt><trkpt lat="43.93319949824403" lon="10.509855551629466"><ele>57.0</ele><time>2026-04-26T10:30:53.001Z</time></trkpt><trkpt lat="43.93313455047769" lon="10.509945647609737"><ele>57.0</ele><time>2026-04-26T10:30:54.001Z</time></trkpt><trkpt lat="43.93307306889847" lon="10.510015132076086"><ele>57.0</ele><time>2026-04-26T10:30:55.001Z</time></trkpt><trkpt lat="43.93300043410048" lon="10.510063972348224"><ele>57.0</ele><time>2026-04-26T10:30:56.001Z</time></trkpt><trkpt lat="43.93292105387001" lon="10.510039530855286"><ele>57.0</ele><time>2026-04-26T10:30:57.001Z</time></trkpt><trkpt lat="43.932850899997526" lon="10.51003789057844"><ele>57.0</ele><time>2026-04-26T10:30:58.001Z</time></trkpt><trkpt lat="43.93278975823727" lon="10.509963823708667"><ele>57.0</ele><time>2026-04-26T10:30:59.001Z</time></trkpt><trkpt lat="43.932701709815895" lon="10.509909402448908"><ele>57.0</ele><time>2026-04-26T10:31:00.001Z</time></trkpt><trkpt lat="43.93259735291735" lon="10.509843926884587"><ele>57.0</ele><time>2026-04-26T10:31:01.001Z</time></trkpt><trkpt lat="43.93248459964803" lon="10.509773183312218"><ele>57.0</ele><time>2026-04-26T10:31:02.001Z</time></trkpt><trkpt lat="43.93234829592903" lon="10.509711701355334"><ele>56.66666666666667</ele><time>2026-04-26T10:31:03.001Z</time></trkpt><trkpt lat="43.9322262981161" lon="10.509582236919467"><ele>56.333333333333336</ele><time>2026-04-26T10:31:04.001Z</time></trkpt><trkpt lat="43.932092739218604" lon="10.50945384757874"><ele>56.0</ele><time>2026-04-26T10:31:05.001Z</time></trkpt><trkpt lat="43.931972434231334" lon="10.509300859890784"><ele>56.0</ele><time>2026-04-26T10:31:06.001Z</time></trkpt><trkpt lat="43.931869995466656" lon="10.509117322879282"><ele>56.0</ele><time>2026-04-26T10:31:07.001Z</time></trkpt><trkpt lat="43.93178508712679" lon="10.508918101043756"><ele>56.0</ele><time>2026-04-26T10:31:08.001Z</time></trkpt><trkpt lat="43.93172482500737" lon="10.508705013559158"><ele>56.0</ele><time>2026-04-26T10:31:09.001Z</time></trkpt><trkpt lat="43.93165776533625" lon="10.5084930482551"><ele>56.0</ele><time>2026-04-26T10:31:10.001Z</time></trkpt><trkpt lat="43.93157126171911" lon="10.508289915709568"><ele>56.0</ele><time>2026-04-26T10:31:11.001Z</time></trkpt><trkpt lat="43.93148931901097" lon="10.508097529399103"><ele>55.5</ele><time>2026-04-26T10:31:12.001Z</time></trkpt><trkpt lat="43.931426836672344" lon="10.50790861385714"><ele>55.0</ele><time>2026-04-26T10:31:13.001Z</time></trkpt><trkpt lat="43.931351254385234" lon="10.50772456389823"><ele>54.5</ele><time>2026-04-26T10:31:14.001Z</time></trkpt><trkpt lat="43.93127426214512" lon="10.507553358933404"><ele>54.0</ele><time>2026-04-26T10:31:15.001Z</time></trkpt><trkpt lat="43.931182766640624" lon="10.507395946854231"><ele>54.0</ele><time>2026-04-26T10:31:16.001Z</time></trkpt><trkpt lat="43.9310970088463" lon="10.507233499170932"><ele>54.0</ele><time>2026-04-26T10:31:17.001Z</time></trkpt><trkpt lat="43.93102132408268" lon="10.507075027716983"><ele>54.0</ele><time>2026-04-26T10:31:18.001Z</time></trkpt><trkpt lat="43.93093513026094" lon="10.506930063747603"><ele>54.0</ele><time>2026-04-26T10:31:19.001Z</time></trkpt><trkpt lat="43.930826510813816" lon="10.506799124496332"><ele>55.25</ele><time>2026-04-26T10:31:20.001Z</time></trkpt><trkpt lat="43.930653875080495" lon="10.50674921740682"><ele>56.5</ele><time>2026-04-26T10:31:21.001Z</time></trkpt><trkpt lat="43.93052716250614" lon="10.506757270790253"><ele>57.75</ele><time>2026-04-26T10:31:22.001Z</time></trkpt><trkpt lat="43.930401305517776" lon="10.506789231930147"><ele>59.0</ele><time>2026-04-26T10:31:23.001Z</time></trkpt><trkpt lat="43.93027535379921" lon="10.506872442440025"><ele>59.0</ele><time>2026-04-26T10:31:24.001Z</time></trkpt><trkpt lat="43.930158299969435" lon="10.506989119574868"><ele>59.0</ele><time>2026-04-26T10:31:25.001Z</time></trkpt><trkpt lat="43.93001688628588" lon="10.507114335468028"><ele>59.0</ele><time>2026-04-26T10:31:26.001Z</time></trkpt><trkpt lat="43.92988307543308" lon="10.507274949678145"><ele>62.0</ele><time>2026-04-26T10:31:27.001Z</time></trkpt><trkpt lat="43.92978145554028" lon="10.507416454984416"><ele>65.0</ele><time>2026-04-26T10:31:28.001Z</time></trkpt><trkpt lat="43.929656444079846" lon="10.50755237193691"><ele>68.0</ele><time>2026-04-26T10:31:29.001Z</time></trkpt><trkpt lat="43.92953904642643" lon="10.507693642347478"><ele>68.0</ele><time>2026-04-26T10:31:30.001Z</time></trkpt><trkpt lat="43.929427612515816" lon="10.507851214986452"><ele>68.0</ele><time>2026-04-26T10:31:31.001Z</time></trkpt><trkpt lat="43.929333663517994" lon="10.50802825803138"><ele>68.0</ele><time>2026-04-26T10:31:32.001Z</time></trkpt><trkpt lat="43.9292560819672" lon="10.508219719519658"><ele>66.0</ele><time>2026-04-26T10:31:33.001Z</time></trkpt><trkpt lat="43.92919637353354" lon="10.508418392402762"><ele>64.0</ele><time>2026-04-26T10:31:34.001Z</time></trkpt><trkpt lat="43.92915001599669" lon="10.508616345318835"><ele>62.0</ele><time>2026-04-26T10:31:35.001Z</time></trkpt><trkpt lat="43.9291125002101" lon="10.508821008413026"><ele>62.0</ele><time>2026-04-26T10:31:36.001Z</time></trkpt><trkpt lat="43.929086275738136" lon="10.509031030531222"><ele>62.0</ele><time>2026-04-26T10:31:37.001Z</time></trkpt><trkpt lat="43.92907332000053" lon="10.509260962810933"><ele>62.0</ele><time>2026-04-26T10:31:38.001Z</time></trkpt><trkpt lat="43.92908213991073" lon="10.509473802443088"><ele>62.0</ele><time>2026-04-26T10:31:39.001Z</time></trkpt><trkpt lat="43.929115027111564" lon="10.509697683731142"><ele>62.0</ele><time>2026-04-26T10:31:40.001Z</time></trkpt><trkpt lat="43.929174291487456" lon="10.50992115114381"><ele>62.0</ele><time>2026-04-26T10:31:41.001Z</time></trkpt><trkpt lat="43.92924489828954" lon="10.510157760938997"><ele>69.0</ele><time>2026-04-26T10:31:42.001Z</time></trkpt><trkpt lat="43.92932056956824" lon="10.510408993298718"><ele>76.0</ele><time>2026-04-26T10:31:43.001Z</time></trkpt><trkpt lat="43.929410508174314" lon="10.510663680932604"><ele>83.0</ele><time>2026-04-26T10:31:44.001Z</time></trkpt><trkpt lat="43.929488660122765" lon="10.510925228568372"><ele>83.0</ele><time>2026-04-26T10:31:45.001Z</time></trkpt><trkpt lat="43.92956631858378" lon="10.51117807692713"><ele>83.0</ele><time>2026-04-26T10:31:46.001Z</time></trkpt><trkpt lat="43.929649088778994" lon="10.511422087555394"><ele>83.0</ele><time>2026-04-26T10:31:47.001Z</time></trkpt><trkpt lat="43.929718642677585" lon="10.511670876940114"><ele>81.33333333333334</ele><time>2026-04-26T10:31:48.001Z</time></trkpt><trkpt lat="43.92977845335685" lon="10.51192469142364"><ele>79.66666666666667</ele><time>2026-04-26T10:31:49.001Z</time></trkpt><trkpt lat="43.92982372699285" lon="10.512181412652952"><ele>78.0</ele><time>2026-04-26T10:31:50.001Z</time></trkpt><trkpt lat="43.92984723673254" lon="10.512427094571905"><ele>76.66666666666667</ele><time>2026-04-26T10:31:51.001Z</time></trkpt><trkpt lat="43.929866208953456" lon="10.512668848539738"><ele>75.33333333333334</ele><time>2026-04-26T10:31:52.001Z</time></trkpt><trkpt lat="43.929850517658586" lon="10.512901164769454"><ele>74.0</ele><time>2026-04-26T10:31:53.001Z</time></trkpt><trkpt lat="43.92982246912485" lon="10.51313820403744"><ele>74.0</ele><time>2026-04-26T10:31:54.001Z</time></trkpt><trkpt lat="43.929780649986" lon="10.513373930010538"><ele>74.0</ele><time>2026-04-26T10:31:55.001Z</time></trkpt><trkpt lat="43.92971728625688" lon="10.513601858773338"><ele>74.0</ele><time>2026-04-26T10:31:56.001Z</time></trkpt><trkpt lat="43.929636497148955" lon="10.513814640565833"><ele>71.0</ele><time>2026-04-26T10:31:57.001Z</time></trkpt><trkpt lat="43.92954509880373" lon="10.514014720222939"><ele>68.0</ele><time>2026-04-26T10:31:58.001Z</time></trkpt><trkpt lat="43.92944634260016" lon="10.514210616438293"><ele>65.0</ele><time>2026-04-26T10:31:59.001Z</time></trkpt><trkpt lat="43.929222403692876" lon="10.51460676327537"><ele>65.0</ele><time>2026-04-26T10:32:01.001Z</time></trkpt><trkpt lat="43.929108758381204" lon="10.514795331245061"><ele>65.0</ele><time>2026-04-26T10:32:02.001Z</time></trkpt><trkpt lat="43.929013092825805" lon="10.514976472220882"><ele>65.0</ele><time>2026-04-26T10:32:03.001Z</time></trkpt><trkpt lat="43.92890136835017" lon="10.515151990067276"><ele>65.0</ele><time>2026-04-26T10:32:04.002Z</time></trkpt><trkpt lat="43.92880286234898" lon="10.51532492357567"><ele>65.0</ele><time>2026-04-26T10:32:05.002Z</time></trkpt><trkpt lat="43.928694303785925" lon="10.515496147910818"><ele>65.0</ele><time>2026-04-26T10:32:06.002Z</time></trkpt><trkpt lat="43.928571659590226" lon="10.515663863368648"><ele>63.0</ele><time>2026-04-26T10:32:07.002Z</time></trkpt><trkpt lat="43.92843436879599" lon="10.5158176737938"><ele>61.0</ele><time>2026-04-26T10:32:08.002Z</time></trkpt><trkpt lat="43.92828976906394" lon="10.515962916029963"><ele>59.0</ele><time>2026-04-26T10:32:09.002Z</time></trkpt><trkpt lat="43.92815122231871" lon="10.516095431110864"><ele>59.0</ele><time>2026-04-26T10:32:10.002Z</time></trkpt><trkpt lat="43.92801394563595" lon="10.516224660455814"><ele>59.0</ele><time>2026-04-26T10:32:11.002Z</time></trkpt><trkpt lat="43.92788351393792" lon="10.516350962056153"><ele>59.0</ele><time>2026-04-26T10:32:12.002Z</time></trkpt><trkpt lat="43.92774366253464" lon="10.516487147483499"><ele>56.66666666666667</ele><time>2026-04-26T10:32:13.002Z</time></trkpt><trkpt lat="43.92760517843325" lon="10.516620271412943"><ele>54.33333333333333</ele><time>2026-04-26T10:32:14.002Z</time></trkpt><trkpt lat="43.927459736225806" lon="10.516762011790881"><ele>52.0</ele><time>2026-04-26T10:32:15.002Z</time></trkpt><trkpt lat="43.92731424245768" lon="10.516895909751021"><ele>52.0</ele><time>2026-04-26T10:32:16.002Z</time></trkpt><trkpt lat="43.92716993303233" lon="10.517026983251172"><ele>52.0</ele><time>2026-04-26T10:32:17.002Z</time></trkpt><trkpt lat="43.92702493965292" lon="10.517159647962753"><ele>52.0</ele><time>2026-04-26T10:32:18.002Z</time></trkpt><trkpt lat="43.92688522638962" lon="10.517298808969263"><ele>52.0</ele><time>2026-04-26T10:32:19.002Z</time></trkpt><trkpt lat="43.92674864589562" lon="10.517449708528689"><ele>52.0</ele><time>2026-04-26T10:32:20.002Z</time></trkpt><trkpt lat="43.92661761501713" lon="10.5176158332314"><ele>52.0</ele><time>2026-04-26T10:32:21.002Z</time></trkpt><trkpt lat="43.92648831558174" lon="10.51779254106059"><ele>56.666666666666664</ele><time>2026-04-26T10:32:22.002Z</time></trkpt><trkpt lat="43.92637407789491" lon="10.517975065793642"><ele>61.33333333333333</ele><time>2026-04-26T10:32:23.002Z</time></trkpt><trkpt lat="43.9262652552055" lon="10.518158053149788"><ele>66.0</ele><time>2026-04-26T10:32:24.002Z</time></trkpt><trkpt lat="43.926163159723" lon="10.518353331183096"><ele>66.0</ele><time>2026-04-26T10:32:25.002Z</time></trkpt><trkpt lat="43.926073546684954" lon="10.518559886703514"><ele>66.0</ele><time>2026-04-26T10:32:26.002Z</time></trkpt><trkpt lat="43.92598808117686" lon="10.518782392506157"><ele>66.0</ele><time>2026-04-26T10:32:27.002Z</time></trkpt><trkpt lat="43.92590960313833" lon="10.519007160230478"><ele>61.33333333333333</ele><time>2026-04-26T10:32:28.002Z</time></trkpt><trkpt lat="43.9258365998145" lon="10.519235781857306"><ele>56.666666666666664</ele><time>2026-04-26T10:32:29.002Z</time></trkpt><trkpt lat="43.925763776016666" lon="10.51946721275128"><ele>52.0</ele><time>2026-04-26T10:32:30.002Z</time></trkpt><trkpt lat="43.92569233115689" lon="10.51970088522022"><ele>52.0</ele><time>2026-04-26T10:32:31.002Z</time></trkpt><trkpt lat="43.92561804532848" lon="10.519934008978113"><ele>52.0</ele><time>2026-04-26T10:32:32.002Z</time></trkpt><trkpt lat="43.92554833443919" lon="10.520167939410857"><ele>52.0</ele><time>2026-04-26T10:32:33.002Z</time></trkpt><trkpt lat="43.925473767540396" lon="10.52039534524977"><ele>51.666666666666664</ele><time>2026-04-26T10:32:34.002Z</time></trkpt><trkpt lat="43.92540166540042" lon="10.52062553751295"><ele>51.33333333333333</ele><time>2026-04-26T10:32:35Z</time></trkpt><trkpt lat="43.92532286926568" lon="10.520862281075441"><ele>51.0</ele><time>2026-04-26T10:32:36Z</time></trkpt><trkpt lat="43.925245708669536" lon="10.52110561429272"><ele>50.0</ele><time>2026-04-26T10:32:37Z</time></trkpt><trkpt lat="43.925170320281154" lon="10.52134350368759"><ele>49.0</ele><time>2026-04-26T10:32:38Z</time></trkpt><trkpt lat="43.92510082162234" lon="10.521565940804004"><ele>48.0</ele><time>2026-04-26T10:32:39Z</time></trkpt><trkpt lat="43.92503660615724" lon="10.52176125759717"><ele>53.2</ele><time>2026-04-26T10:32:40Z</time></trkpt><trkpt lat="43.924983095871305" lon="10.521925025005016"><ele>58.4</ele><time>2026-04-26T10:32:41Z</time></trkpt><trkpt lat="43.92494009526955" lon="10.52205392839653"><ele>63.60000000000001</ele><time>2026-04-26T10:32:42Z</time></trkpt><trkpt lat="43.92491282287728" lon="10.5221387895973"><ele>68.8</ele><time>2026-04-26T10:32:43Z</time></trkpt><trkpt lat="43.92487269589579" lon="10.52224848461313"><ele>74.0</ele><time>2026-04-26T10:32:45Z</time></trkpt><trkpt lat="43.92483386704235" lon="10.522361098300934"><ele>74.0</ele><time>2026-04-26T10:32:47Z</time></trkpt><trkpt lat="43.924805191316125" lon="10.522455007327151"><ele>74.0</ele><time>2026-04-26T10:32:50Z</time></trkpt><trkpt lat="43.92477537462081" lon="10.522540421626513"><ele>74.0</ele><time>2026-04-26T10:32:52.014Z</time></trkpt><trkpt lat="43.9247426311102" lon="10.522640575784235"><ele>74.0</ele><time>2026-04-26T10:32:54.014Z</time></trkpt><trkpt lat="43.92475953032251" lon="10.522818966446367"><ele>74.0</ele><time>2026-04-26T10:32:57.967Z</time></trkpt><trkpt lat="43.92471744250936" lon="10.522923134374421"><ele>74.0</ele><time>2026-04-26T10:33:00.963Z</time></trkpt><trkpt lat="43.92411832689567" lon="10.523971058674828"><ele>76.33333333333334</ele><time>2026-04-26T10:33:03Z</time></trkpt><trkpt lat="43.924012538551956" lon="10.524158156099201"><ele>78.66666666666667</ele><time>2026-04-26T10:33:04Z</time></trkpt><trkpt lat="43.923903717740544" lon="10.524291570044634"><ele>81.0</ele><time>2026-04-26T10:33:05Z</time></trkpt><trkpt lat="43.92379890248803" lon="10.524434380309863"><ele>87.5</ele><time>2026-04-26T10:33:06Z</time></trkpt><trkpt lat="43.923688577851856" lon="10.524569437750557"><ele>94.0</ele><time>2026-04-26T10:33:07.012Z</time></trkpt><trkpt lat="43.92307661278439" lon="10.525141565720268"><ele>94.33333333333333</ele><time>2026-04-26T10:33:11.962Z</time></trkpt><trkpt lat="43.92293707679871" lon="10.525222011588367"><ele>94.66666666666667</ele><time>2026-04-26T10:33:12.967Z</time></trkpt><trkpt lat="43.92281053253194" lon="10.525332180843266"><ele>95.0</ele><time>2026-04-26T10:33:13.964Z</time></trkpt><trkpt lat="43.922671804037506" lon="10.52541187411772"><ele>86.25</ele><time>2026-04-26T10:33:14.967Z</time></trkpt><trkpt lat="43.92250068955489" lon="10.525497039789823"><ele>77.5</ele><time>2026-04-26T10:33:18.001Z</time></trkpt><trkpt lat="43.92239405752038" lon="10.525562433846881"><ele>68.75</ele><time>2026-04-26T10:33:19.001Z</time></trkpt><trkpt lat="43.92228937637987" lon="10.525618231124257"><ele>60.0</ele><time>2026-04-26T10:33:20.001Z</time></trkpt><trkpt lat="43.922181015823895" lon="10.52567405241941"><ele>60.0</ele><time>2026-04-26T10:33:21.001Z</time></trkpt><trkpt lat="43.92206233018872" lon="10.525739848954236"><ele>60.0</ele><time>2026-04-26T10:33:22.001Z</time></trkpt><trkpt lat="43.92192392284451" lon="10.52580080370623"><ele>60.0</ele><time>2026-04-26T10:33:23.001Z</time></trkpt><trkpt lat="43.921777492859434" lon="10.525860696998887"><ele>60.0</ele><time>2026-04-26T10:33:24.001Z</time></trkpt><trkpt lat="43.92163106057037" lon="10.525900018587325"><ele>58.5</ele><time>2026-04-26T10:33:25.001Z</time></trkpt><trkpt lat="43.92149420698143" lon="10.525922945616607"><ele>57.0</ele><time>2026-04-26T10:33:26.001Z</time></trkpt><trkpt lat="43.92135611626211" lon="10.525948097805063"><ele>55.5</ele><time>2026-04-26T10:33:27.001Z</time></trkpt><trkpt lat="43.921223442074826" lon="10.525967769091517"><ele>54.0</ele><time>2026-04-26T10:33:28.001Z</time></trkpt><trkpt lat="43.92108121778027" lon="10.52598028942471"><ele>54.0</ele><time>2026-04-26T10:33:29.001Z</time></trkpt><trkpt lat="43.920927407471076" lon="10.525955671579618"><ele>54.0</ele><time>2026-04-26T10:33:30.001Z</time></trkpt><trkpt lat="43.92077265868866" lon="10.525933334318893"><ele>54.0</ele><time>2026-04-26T10:33:31.001Z</time></trkpt><trkpt lat="43.920623268789434" lon="10.525903121228914"><ele>53.66666666666667</ele><time>2026-04-26T10:33:32.001Z</time></trkpt><trkpt lat="43.920476947313055" lon="10.525866868266268"><ele>53.333333333333336</ele><time>2026-04-26T10:33:33.001Z</time></trkpt><trkpt lat="43.92033210061241" lon="10.525814409081503"><ele>53.0</ele><time>2026-04-26T10:33:34.001Z</time></trkpt><trkpt lat="43.920165420681954" lon="10.52573687672279"><ele>53.66666666666667</ele><time>2026-04-26T10:33:35.001Z</time></trkpt><trkpt lat="43.91997941000041" lon="10.525643535561668"><ele>54.33333333333333</ele><time>2026-04-26T10:33:36.001Z</time></trkpt><trkpt lat="43.91981573011818" lon="10.52555173204286"><ele>55.0</ele><time>2026-04-26T10:33:37.001Z</time></trkpt><trkpt lat="43.91967482373423" lon="10.525487973721656"><ele>55.0</ele><time>2026-04-26T10:33:38.001Z</time></trkpt><trkpt lat="43.91955422800481" lon="10.525412833849112"><ele>55.0</ele><time>2026-04-26T10:33:39.001Z</time></trkpt><trkpt lat="43.91944405817401" lon="10.525331922855193"><ele>55.0</ele><time>2026-04-26T10:33:40.001Z</time></trkpt><trkpt lat="43.91934179793776" lon="10.525248411889624"><ele>55.0</ele><time>2026-04-26T10:33:41.001Z</time></trkpt><trkpt lat="43.91924117902637" lon="10.525159415391105"><ele>62.666666666666664</ele><time>2026-04-26T10:33:42.001Z</time></trkpt><trkpt lat="43.91910545999456" lon="10.525068410840893"><ele>70.33333333333333</ele><time>2026-04-26T10:33:43.001Z</time></trkpt><trkpt lat="43.91896778362239" lon="10.52497695417408"><ele>78.0</ele><time>2026-04-26T10:33:44.012Z</time></trkpt><trkpt lat="43.918857770109966" lon="10.524795449079761"><ele>78.0</ele><time>2026-04-26T10:33:45.014Z</time></trkpt><trkpt lat="43.918701768551244" lon="10.524655202839847"><ele>78.0</ele><time>2026-04-26T10:33:46.015Z</time></trkpt><trkpt lat="43.918527773336635" lon="10.524499481766409"><ele>78.0</ele><time>2026-04-26T10:33:47.012Z</time></trkpt><trkpt lat="43.91784186758054" lon="10.524137534683927"><ele>77.5</ele><time>2026-04-26T10:33:51.967Z</time></trkpt><trkpt lat="43.91771310276319" lon="10.524042944945085"><ele>77.0</ele><time>2026-04-26T10:33:52.963Z</time></trkpt><trkpt lat="43.91757991467604" lon="10.52395445587889"><ele>76.5</ele><time>2026-04-26T10:33:53.966Z</time></trkpt><trkpt lat="43.91744685054699" lon="10.523868731512948"><ele>76.0</ele><time>2026-04-26T10:33:54.967Z</time></trkpt><trkpt lat="43.91731039614277" lon="10.523792996815693"><ele>76.0</ele><time>2026-04-26T10:33:55.963Z</time></trkpt><trkpt lat="43.917166612163165" lon="10.523745491831807"><ele>76.0</ele><time>2026-04-26T10:33:56.965Z</time></trkpt><trkpt lat="43.917031310192314" lon="10.523662011379527"><ele>76.0</ele><time>2026-04-26T10:33:57.968Z</time></trkpt><trkpt lat="43.9168861817629" lon="10.523629250324976"><ele>76.0</ele><time>2026-04-26T10:33:58.964Z</time></trkpt><trkpt lat="43.916747265749734" lon="10.523560093825225"><ele>82.5</ele><time>2026-04-26T10:33:59.965Z</time></trkpt><trkpt lat="43.9166025459875" lon="10.523519069844333"><ele>89.0</ele><time>2026-04-26T10:34:00.968Z</time></trkpt><trkpt lat="43.91645766423471" lon="10.523487610730507"><ele>95.5</ele><time>2026-04-26T10:34:01.965Z</time></trkpt><trkpt lat="43.91631006207377" lon="10.523483976510239"><ele>102.0</ele><time>2026-04-26T10:34:02.965Z</time></trkpt><trkpt lat="43.91616416018363" lon="10.52346139434428"><ele>102.0</ele><time>2026-04-26T10:34:03.968Z</time></trkpt><trkpt lat="43.91601855633931" lon="10.523443653685899"><ele>102.0</ele><time>2026-04-26T10:34:04.966Z</time></trkpt><trkpt lat="43.915873215904185" lon="10.523406017257342"><ele>102.0</ele><time>2026-04-26T10:34:05.968Z</time></trkpt><trkpt lat="43.91572607962398" lon="10.52342072095402"><ele>102.0</ele><time>2026-04-26T10:34:06.966Z</time></trkpt><trkpt lat="43.91557974506036" lon="10.523415779289962"><ele>102.25</ele><time>2026-04-26T10:34:07.965Z</time></trkpt><trkpt lat="43.91543299802184" lon="10.52341504407117"><ele>102.5</ele><time>2026-04-26T10:34:08.967Z</time></trkpt><trkpt lat="43.9152860780388" lon="10.523395592606414"><ele>102.75</ele><time>2026-04-26T10:34:09.966Z</time></trkpt><trkpt lat="43.915140207285425" lon="10.523428910895314"><ele>103.0</ele><time>2026-04-26T10:34:10.968Z</time></trkpt><trkpt lat="43.9149925937847" lon="10.52342111687378"><ele>99.5</ele><time>2026-04-26T10:34:11.968Z</time></trkpt><trkpt lat="43.91484733668711" lon="10.523439985589096"><ele>96.0</ele><time>2026-04-26T10:34:12.964Z</time></trkpt><trkpt lat="43.91470139814119" lon="10.523461767057036"><ele>92.5</ele><time>2026-04-26T10:34:13.963Z</time></trkpt><trkpt lat="43.914557208526325" lon="10.523509401872909"><ele>89.0</ele><time>2026-04-26T10:34:14.968Z</time></trkpt><trkpt lat="43.91441179334644" lon="10.52353253905345"><ele>89.0</ele><time>2026-04-26T10:34:15.968Z</time></trkpt><trkpt lat="43.9142642308013" lon="10.523530821768734"><ele>89.0</ele><time>2026-04-26T10:34:16.969Z</time></trkpt><trkpt lat="43.9141416" lon="10.5235718"><ele>89.0</ele><time>2026-04-26T10:34:17.967Z</time></trkpt><trkpt lat="43.9136542467906" lon="10.52363656837522"><ele>80.66666666666667</ele><time>2026-04-26T10:34:19.001Z</time></trkpt><trkpt lat="43.91348164295816" lon="10.523669075900695"><ele>72.33333333333333</ele><time>2026-04-26T10:34:20.001Z</time></trkpt><trkpt lat="43.91334739211647" lon="10.52369527430714"><ele>64.0</ele><time>2026-04-26T10:34:21.001Z</time></trkpt><trkpt lat="43.913202271080536" lon="10.523726697490362"><ele>61.0</ele><time>2026-04-26T10:34:22.001Z</time></trkpt><trkpt lat="43.91306481799598" lon="10.523754658609366"><ele>58.0</ele><time>2026-04-26T10:34:23.002Z</time></trkpt><trkpt lat="43.91291790724473" lon="10.523797532754061"><ele>55.0</ele><time>2026-04-26T10:34:24.002Z</time></trkpt><trkpt lat="43.9127885792902" lon="10.523862514829926"><ele>52.0</ele><time>2026-04-26T10:34:25.002Z</time></trkpt><trkpt lat="43.91263132526803" lon="10.523884011001854"><ele>50.666666666666664</ele><time>2026-04-26T10:34:26.002Z</time></trkpt><trkpt lat="43.91248233686492" lon="10.523926996668479"><ele>49.33333333333333</ele><time>2026-04-26T10:34:27.002Z</time></trkpt><trkpt lat="43.91232786183871" lon="10.523982615917001"><ele>48.0</ele><time>2026-04-26T10:34:28.002Z</time></trkpt><trkpt lat="43.91216593820316" lon="10.524049299734394"><ele>48.0</ele><time>2026-04-26T10:34:29.002Z</time></trkpt><trkpt lat="43.91200850035393" lon="10.524117861323854"><ele>48.0</ele><time>2026-04-26T10:34:30.002Z</time></trkpt><trkpt lat="43.91186963702687" lon="10.524201216004913"><ele>48.0</ele><time>2026-04-26T10:34:31.002Z</time></trkpt><trkpt lat="43.91171956663303" lon="10.524271518446152"><ele>48.0</ele><time>2026-04-26T10:34:32.002Z</time></trkpt><trkpt lat="43.91156454728471" lon="10.524349608585938"><ele>48.0</ele><time>2026-04-26T10:34:33.002Z</time></trkpt><trkpt lat="43.9114067757745" lon="10.524427734401767"><ele>48.0</ele><time>2026-04-26T10:34:34.002Z</time></trkpt><trkpt lat="43.91124014342385" lon="10.524522290502274"><ele>48.0</ele><time>2026-04-26T10:34:35.002Z</time></trkpt><trkpt lat="43.91107170062919" lon="10.524625864471265"><ele>48.0</ele><time>2026-04-26T10:34:36.002Z</time></trkpt><trkpt lat="43.91089142508493" lon="10.524716011030494"><ele>48.0</ele><time>2026-04-26T10:34:37.002Z</time></trkpt><trkpt lat="43.910720573759804" lon="10.524823369157566"><ele>56.66666666666667</ele><time>2026-04-26T10:34:38.002Z</time></trkpt><trkpt lat="43.91055622692442" lon="10.524941154718604"><ele>65.33333333333334</ele><time>2026-04-26T10:34:39.011Z</time></trkpt><trkpt lat="43.910404214144556" lon="10.525080940373968"><ele>74.0</ele><time>2026-04-26T10:34:40.016Z</time></trkpt><trkpt lat="43.91024067810952" lon="10.525185410351662"><ele>74.0</ele><time>2026-04-26T10:34:41.013Z</time></trkpt><trkpt lat="43.910075953485084" lon="10.525298881628993"><ele>74.0</ele><time>2026-04-26T10:34:42.014Z</time></trkpt><trkpt lat="43.9099118150992" lon="10.525417357755684"><ele>74.0</ele><time>2026-04-26T10:34:43.014Z</time></trkpt><trkpt lat="43.909753755277706" lon="10.52552951658569"><ele>75.66666666666667</ele><time>2026-04-26T10:34:44.011Z</time></trkpt><trkpt lat="43.90959367265054" lon="10.525638186538448"><ele>77.33333333333333</ele><time>2026-04-26T10:34:45.014Z</time></trkpt><trkpt lat="43.909463758475766" lon="10.525787116714422"><ele>79.0</ele><time>2026-04-26T10:34:46.015Z</time></trkpt><trkpt lat="43.90891490721843" lon="10.526441101061804"><ele>42.0</ele><time>2026-04-26T10:34:49.965Z</time></trkpt><trkpt lat="43.908237967964304" lon="10.527062113504758"><ele>42.0</ele><time>2026-04-26T10:34:50.968Z</time></trkpt><trkpt lat="43.907984574366274" lon="10.527246762076883"><ele>42.0</ele><time>2026-04-26T10:34:57.002Z</time></trkpt><trkpt lat="43.90785936563148" lon="10.527352014971365"><ele>42.0</ele><time>2026-04-26T10:34:58.002Z</time></trkpt><trkpt lat="43.907734679848" lon="10.527442782579552"><ele>42.0</ele><time>2026-04-26T10:34:59Z</time></trkpt><trkpt lat="43.907593425166795" lon="10.527531535215946"><ele>42.0</ele><time>2026-04-26T10:35:00Z</time></trkpt><trkpt lat="43.907447144760496" lon="10.527621986421735"><ele>42.0</ele><time>2026-04-26T10:35:01Z</time></trkpt><trkpt lat="43.90729107034355" lon="10.52770963166282"><ele>43.333333333333336</ele><time>2026-04-26T10:35:02Z</time></trkpt><trkpt lat="43.90714257834036" lon="10.527813465635937"><ele>44.66666666666667</ele><time>2026-04-26T10:35:03Z</time></trkpt><trkpt lat="43.906981914583604" lon="10.527890630867681"><ele>46.0</ele><time>2026-04-26T10:35:04Z</time></trkpt><trkpt lat="43.90682847495584" lon="10.52796147147364"><ele>43.66666666666667</ele><time>2026-04-26T10:35:05Z</time></trkpt><trkpt lat="43.906667789917506" lon="10.528029418844676"><ele>41.333333333333336</ele><time>2026-04-26T10:35:06Z</time></trkpt><trkpt lat="43.9064986735665" lon="10.528103807382669"><ele>39.0</ele><time>2026-04-26T10:35:07Z</time></trkpt><trkpt lat="43.90633097859095" lon="10.528177360955228"><ele>39.0</ele><time>2026-04-26T10:35:08Z</time></trkpt><trkpt lat="43.90616413107068" lon="10.528249154718354"><ele>39.0</ele><time>2026-04-26T10:35:09Z</time></trkpt><trkpt lat="43.906005822548295" lon="10.528319946026846"><ele>39.0</ele><time>2026-04-26T10:35:10Z</time></trkpt><trkpt lat="43.90584983947872" lon="10.528390452664086"><ele>43.0</ele><time>2026-04-26T10:35:11Z</time></trkpt><trkpt lat="43.905690460338924" lon="10.528470585714055"><ele>47.0</ele><time>2026-04-26T10:35:12Z</time></trkpt><trkpt lat="43.905526464043405" lon="10.528564127649055"><ele>51.0</ele><time>2026-04-26T10:35:13Z</time></trkpt><trkpt lat="43.90536293925248" lon="10.528664250626324"><ele>46.666666666666664</ele><time>2026-04-26T10:35:14Z</time></trkpt><trkpt lat="43.90520307072404" lon="10.528771255941319"><ele>42.33333333333333</ele><time>2026-04-26T10:35:15Z</time></trkpt><trkpt lat="43.9050494974552" lon="10.528887146460509"><ele>38.0</ele><time>2026-04-26T10:35:16Z</time></trkpt><trkpt lat="43.90490480898874" lon="10.529002570160799"><ele>38.0</ele><time>2026-04-26T10:35:17Z</time></trkpt><trkpt lat="43.90475354342907" lon="10.529129390563021"><ele>38.0</ele><time>2026-04-26T10:35:18Z</time></trkpt><trkpt lat="43.90460604565147" lon="10.529265403888008"><ele>38.0</ele><time>2026-04-26T10:35:19Z</time></trkpt><trkpt lat="43.9044505806598" lon="10.529401692589602"><ele>38.0</ele><time>2026-04-26T10:35:20Z</time></trkpt><trkpt lat="43.90429056041142" lon="10.529542883394999"><ele>38.0</ele><time>2026-04-26T10:35:21Z</time></trkpt><trkpt lat="43.90412040387382" lon="10.529696527413442"><ele>38.0</ele><time>2026-04-26T10:35:22Z</time></trkpt><trkpt lat="43.90394832331449" lon="10.529857142040855"><ele>39.33333333333333</ele><time>2026-04-26T10:35:23Z</time></trkpt><trkpt lat="43.90379057070164" lon="10.53000188430014"><ele>40.666666666666664</ele><time>2026-04-26T10:35:24Z</time></trkpt><trkpt lat="43.90363460127173" lon="10.530146070130815"><ele>42.0</ele><time>2026-04-26T10:35:25Z</time></trkpt><trkpt lat="43.90347890569953" lon="10.530293285203905"><ele>41.0</ele><time>2026-04-26T10:35:26Z</time></trkpt><trkpt lat="43.90332575929708" lon="10.530429745816917"><ele>40.0</ele><time>2026-04-26T10:35:27Z</time></trkpt><trkpt lat="43.90317945996489" lon="10.530564522175428"><ele>39.0</ele><time>2026-04-26T10:35:28Z</time></trkpt><trkpt lat="43.9030408611565" lon="10.530692602833623"><ele>39.0</ele><time>2026-04-26T10:35:29Z</time></trkpt><trkpt lat="43.90290192514957" lon="10.53081728335393"><ele>39.0</ele><time>2026-04-26T10:35:30Z</time></trkpt><trkpt lat="43.90276387293713" lon="10.530941135922491"><ele>39.0</ele><time>2026-04-26T10:35:31Z</time></trkpt><trkpt lat="43.90263180980905" lon="10.531058239381794"><ele>38.0</ele><time>2026-04-26T10:35:32Z</time></trkpt><trkpt lat="43.902510819373745" lon="10.531168069624076"><ele>37.0</ele><time>2026-04-26T10:35:33Z</time></trkpt><trkpt lat="43.90239036630371" lon="10.531267872589636"><ele>36.0</ele><time>2026-04-26T10:35:34Z</time></trkpt><trkpt lat="43.902267470936586" lon="10.531364448990912"><ele>35.0</ele><time>2026-04-26T10:35:35Z</time></trkpt><trkpt lat="43.902137623061655" lon="10.5314603428879"><ele>35.0</ele><time>2026-04-26T10:35:36Z</time></trkpt><trkpt lat="43.90200105290505" lon="10.53155555174573"><ele>35.0</ele><time>2026-04-26T10:35:37Z</time></trkpt><trkpt lat="43.90186103841664" lon="10.531641635765242"><ele>35.0</ele><time>2026-04-26T10:35:38Z</time></trkpt><trkpt lat="43.901719366950516" lon="10.531721022512302"><ele>38.0</ele><time>2026-04-26T10:35:39Z</time></trkpt><trkpt lat="43.90157609607886" lon="10.531796328932199"><ele>41.0</ele><time>2026-04-26T10:35:40Z</time></trkpt><trkpt lat="43.901425314949954" lon="10.531864925900539"><ele>44.0</ele><time>2026-04-26T10:35:41.001Z</time></trkpt><trkpt lat="43.901272226798234" lon="10.531929310063196"><ele>44.0</ele><time>2026-04-26T10:35:42.001Z</time></trkpt><trkpt lat="43.90111999331018" lon="10.531981243936821"><ele>44.0</ele><time>2026-04-26T10:35:43.001Z</time></trkpt><trkpt lat="43.900963924306964" lon="10.532028137580921"><ele>44.0</ele><time>2026-04-26T10:35:44.001Z</time></trkpt><trkpt lat="43.900810466577255" lon="10.53207776882461"><ele>42.0</ele><time>2026-04-26T10:35:45.001Z</time></trkpt><trkpt lat="43.90066011055855" lon="10.532117391645267"><ele>40.0</ele><time>2026-04-26T10:35:46.001Z</time></trkpt><trkpt lat="43.90051783692156" lon="10.532155017966629"><ele>38.0</ele><time>2026-04-26T10:35:47.001Z</time></trkpt><trkpt lat="43.9003742046037" lon="10.532195316709188"><ele>36.0</ele><time>2026-04-26T10:35:48.001Z</time></trkpt><trkpt lat="43.90023223031408" lon="10.532233181058205"><ele>36.0</ele><time>2026-04-26T10:35:49.001Z</time></trkpt><trkpt lat="43.90009583429364" lon="10.532270417934933"><ele>36.0</ele><time>2026-04-26T10:35:50.001Z</time></trkpt><trkpt lat="43.89996629402375" lon="10.532304614580859"><ele>36.0</ele><time>2026-04-26T10:35:51.001Z</time></trkpt><trkpt lat="43.8998400144983" lon="10.532345032709138"><ele>36.0</ele><time>2026-04-26T10:35:52.001Z</time></trkpt><trkpt lat="43.899596515019255" lon="10.532414979856332"><ele>36.25</ele><time>2026-04-26T10:35:54.001Z</time></trkpt><trkpt lat="43.89945955386285" lon="10.532435845038169"><ele>36.5</ele><time>2026-04-26T10:35:55.001Z</time></trkpt><trkpt lat="43.89932818509167" lon="10.53243101602662"><ele>36.75</ele><time>2026-04-26T10:35:56.001Z</time></trkpt><trkpt lat="43.899193143342586" lon="10.532395199243286"><ele>37.0</ele><time>2026-04-26T10:35:57.001Z</time></trkpt><trkpt lat="43.899057636170426" lon="10.532298879372124"><ele>37.0</ele><time>2026-04-26T10:35:58.001Z</time></trkpt><trkpt lat="43.89890619284025" lon="10.53221431974953"><ele>37.0</ele><time>2026-04-26T10:35:59.001Z</time></trkpt><trkpt lat="43.89874518957599" lon="10.532151484334245"><ele>37.0</ele><time>2026-04-26T10:36:00.001Z</time></trkpt><trkpt lat="43.89858908490408" lon="10.532073147835465"><ele>37.66666666666667</ele><time>2026-04-26T10:36:01.001Z</time></trkpt><trkpt lat="43.89846050243563" lon="10.531956503581306"><ele>38.333333333333336</ele><time>2026-04-26T10:36:02.001Z</time></trkpt><trkpt lat="43.898315278448706" lon="10.531866724657133"><ele>39.0</ele><time>2026-04-26T10:36:03.001Z</time></trkpt><trkpt lat="43.89818408426623" lon="10.531752428496493"><ele>39.0</ele><time>2026-04-26T10:36:04.001Z</time></trkpt><trkpt lat="43.8980546077852" lon="10.531636666777887"><ele>39.0</ele><time>2026-04-26T10:36:05.001Z</time></trkpt><trkpt lat="43.897927070654426" lon="10.531493306709944"><ele>39.0</ele><time>2026-04-26T10:36:06.001Z</time></trkpt><trkpt lat="43.897794935364544" lon="10.531320095289118"><ele>38.666666666666664</ele><time>2026-04-26T10:36:07.001Z</time></trkpt><trkpt lat="43.89766471414955" lon="10.531115519943505"><ele>38.33333333333333</ele><time>2026-04-26T10:36:08.001Z</time></trkpt><trkpt lat="43.897531152252945" lon="10.530894309036812"><ele>38.0</ele><time>2026-04-26T10:36:09.001Z</time></trkpt><trkpt lat="43.8974038924668" lon="10.530706969456295"><ele>38.0</ele><time>2026-04-26T10:36:10.001Z</time></trkpt><trkpt lat="43.89728854796217" lon="10.530535970803129"><ele>38.0</ele><time>2026-04-26T10:36:11.001Z</time></trkpt><trkpt lat="43.89717996015657" lon="10.530375250942662"><ele>38.0</ele><time>2026-04-26T10:36:12.001Z</time></trkpt><trkpt lat="43.897071231343524" lon="10.53022331744398"><ele>40.0</ele><time>2026-04-26T10:36:13.001Z</time></trkpt><trkpt lat="43.89696334176696" lon="10.530064618001393"><ele>42.0</ele><time>2026-04-26T10:36:14.001Z</time></trkpt><trkpt lat="43.896857511348934" lon="10.529889547628303"><ele>44.0</ele><time>2026-04-26T10:36:15.001Z</time></trkpt><trkpt lat="43.89675610204496" lon="10.529704246909647"><ele>44.0</ele><time>2026-04-26T10:36:16.001Z</time></trkpt><trkpt lat="43.89665461450199" lon="10.529520087022583"><ele>44.0</ele><time>2026-04-26T10:36:17.001Z</time></trkpt><trkpt lat="43.89656926889955" lon="10.52935768828251"><ele>44.0</ele><time>2026-04-26T10:36:18.001Z</time></trkpt><trkpt lat="43.896487944672316" lon="10.529204168552385"><ele>44.0</ele><time>2026-04-26T10:36:19.001Z</time></trkpt><trkpt lat="43.89640889034104" lon="10.5290382707245"><ele>44.0</ele><time>2026-04-26T10:36:20.001Z</time></trkpt><trkpt lat="43.89636349870512" lon="10.528845486101794"><ele>44.0</ele><time>2026-04-26T10:36:21.001Z</time></trkpt><trkpt lat="43.89635148622624" lon="10.528661831159708"><ele>44.0</ele><time>2026-04-26T10:36:22.001Z</time></trkpt><trkpt lat="43.89631362345969" lon="10.528491056795243"><ele>44.0</ele><time>2026-04-26T10:36:23.001Z</time></trkpt><trkpt lat="43.89630176111064" lon="10.528337977135207"><ele>43.83333333333333</ele><time>2026-04-26T10:36:24.001Z</time></trkpt><trkpt lat="43.896298482569506" lon="10.52820477344471"><ele>43.666666666666664</ele><time>2026-04-26T10:36:25.001Z</time></trkpt><trkpt lat="43.896295874125194" lon="10.52809135304351"><ele>43.5</ele><time>2026-04-26T10:36:26.001Z</time></trkpt><trkpt lat="43.89629539050385" lon="10.527976418476513"><ele>43.333333333333336</ele><time>2026-04-26T10:36:27.001Z</time></trkpt><trkpt lat="43.89629960790179" lon="10.52786796102446"><ele>43.16666666666667</ele><time>2026-04-26T10:36:28.001Z</time></trkpt><trkpt lat="43.89630587189551" lon="10.52776573177318"><ele>43.0</ele><time>2026-04-26T10:36:29.001Z</time></trkpt><trkpt lat="43.896315946137555" lon="10.52765352630515"><ele>43.0</ele><time>2026-04-26T10:36:30.001Z</time></trkpt><trkpt lat="43.896331826728805" lon="10.527528031836514"><ele>43.0</ele><time>2026-04-26T10:36:31.001Z</time></trkpt><trkpt lat="43.89635737405405" lon="10.527397998448789"><ele>43.0</ele><time>2026-04-26T10:36:32.001Z</time></trkpt><trkpt lat="43.896386237192885" lon="10.527269271350438"><ele>43.0</ele><time>2026-04-26T10:36:33.001Z</time></trkpt><trkpt lat="43.896418037915716" lon="10.527146235606093"><ele>43.0</ele><time>2026-04-26T10:36:34.001Z</time></trkpt><trkpt lat="43.89645256326599" lon="10.527022528111276"><ele>42.199999999999996</ele><time>2026-04-26T10:36:35.001Z</time></trkpt><trkpt lat="43.896488238914195" lon="10.526898536639282"><ele>41.4</ele><time>2026-04-26T10:36:36.001Z</time></trkpt><trkpt lat="43.89652220854912" lon="10.526774445954146"><ele>40.599999999999994</ele><time>2026-04-26T10:36:37.001Z</time></trkpt><trkpt lat="43.896555793968446" lon="10.526645939211392"><ele>39.8</ele><time>2026-04-26T10:36:38.001Z</time></trkpt><trkpt lat="43.896586940478805" lon="10.526528290033964"><ele>39.0</ele><time>2026-04-26T10:36:39.001Z</time></trkpt><trkpt lat="43.89661143213207" lon="10.526431353398102"><ele>39.0</ele><time>2026-04-26T10:36:40.001Z</time></trkpt><trkpt lat="43.89665393009713" lon="10.526284304893247"><ele>39.0</ele><time>2026-04-26T10:36:42.001Z</time></trkpt><trkpt lat="43.89667530607424" lon="10.526201127109232"><ele>39.0</ele><time>2026-04-26T10:36:43.001Z</time></trkpt><trkpt lat="43.89669881332823" lon="10.526109725225135"><ele>39.0</ele><time>2026-04-26T10:36:44.001Z</time></trkpt><trkpt lat="43.89672331483412" lon="10.526004369076368"><ele>39.0</ele><time>2026-04-26T10:36:45.001Z</time></trkpt><trkpt lat="43.896743409355615" lon="10.525878942219757"><ele>39.0</ele><time>2026-04-26T10:36:46.001Z</time></trkpt><trkpt lat="43.89675405802995" lon="10.525750264955738"><ele>39.2</ele><time>2026-04-26T10:36:47.001Z</time></trkpt><trkpt lat="43.89675341611906" lon="10.52562309444029"><ele>39.4</ele><time>2026-04-26T10:36:48.001Z</time></trkpt><trkpt lat="43.89674379527703" lon="10.525491194446579"><ele>39.6</ele><time>2026-04-26T10:36:49.001Z</time></trkpt><trkpt lat="43.8967344606714" lon="10.525355654826766"><ele>39.8</ele><time>2026-04-26T10:36:50.001Z</time></trkpt><trkpt lat="43.896727950478144" lon="10.52522352939815"><ele>40.0</ele><time>2026-04-26T10:36:51.002Z</time></trkpt><trkpt lat="43.89671629169245" lon="10.525088623585738"><ele>40.0</ele><time>2026-04-26T10:36:52.002Z</time></trkpt><trkpt lat="43.89670330727918" lon="10.524961252348366"><ele>40.0</ele><time>2026-04-26T10:36:53.002Z</time></trkpt><trkpt lat="43.89668926674625" lon="10.524834563883031"><ele>40.0</ele><time>2026-04-26T10:36:54.002Z</time></trkpt><trkpt lat="43.89667461484522" lon="10.524716254365215"><ele>40.0</ele><time>2026-04-26T10:36:55.002Z</time></trkpt><trkpt lat="43.896661425636815" lon="10.524608631220792"><ele>40.0</ele><time>2026-04-26T10:36:56.002Z</time></trkpt><trkpt lat="43.89665014782103" lon="10.52450185858045"><ele>40.0</ele><time>2026-04-26T10:36:57.002Z</time></trkpt><trkpt lat="43.8966360570958" lon="10.524399772025026"><ele>40.16666666666667</ele><time>2026-04-26T10:36:58.002Z</time></trkpt><trkpt lat="43.896610811010156" lon="10.524295082220581"><ele>40.333333333333336</ele><time>2026-04-26T10:36:59.002Z</time></trkpt><trkpt lat="43.89657086668794" lon="10.524192455980799"><ele>40.5</ele><time>2026-04-26T10:37:00.002Z</time></trkpt><trkpt lat="43.896520845264256" lon="10.524101364063124"><ele>40.666666666666664</ele><time>2026-04-26T10:37:01.002Z</time></trkpt><trkpt lat="43.89646388864396" lon="10.524026963602777"><ele>40.83333333333333</ele><time>2026-04-26T10:37:02.002Z</time></trkpt><trkpt lat="43.896391001076196" lon="10.523960723395081"><ele>41.0</ele><time>2026-04-26T10:37:03.002Z</time></trkpt><trkpt lat="43.896283530194545" lon="10.523905647151617"><ele>41.0</ele><time>2026-04-26T10:37:04.002Z</time></trkpt><trkpt lat="43.89614046470598" lon="10.523877292098954"><ele>41.0</ele><time>2026-04-26T10:37:05Z</time></trkpt><trkpt lat="43.8959812894087" lon="10.523862131999486"><ele>41.0</ele><time>2026-04-26T10:37:06Z</time></trkpt><trkpt lat="43.8958042528122" lon="10.52383594737407"><ele>39.0</ele><time>2026-04-26T10:37:07Z</time></trkpt><trkpt lat="43.895602901703505" lon="10.523813486454166"><ele>37.0</ele><time>2026-04-26T10:37:08Z</time></trkpt><trkpt lat="43.895393137975184" lon="10.52379274183495"><ele>35.0</ele><time>2026-04-26T10:37:09Z</time></trkpt><trkpt lat="43.89517343557781" lon="10.523757847410966"><ele>35.0</ele><time>2026-04-26T10:37:10Z</time></trkpt><trkpt lat="43.89493831607196" lon="10.52370640100647"><ele>35.0</ele><time>2026-04-26T10:37:11Z</time></trkpt><trkpt lat="43.89471637593851" lon="10.52367702917692"><ele>35.0</ele><time>2026-04-26T10:37:12Z</time></trkpt><trkpt lat="43.89451683374787" lon="10.523658080941102"><ele>35.0</ele><time>2026-04-26T10:37:13Z</time></trkpt><trkpt lat="43.89432220709867" lon="10.52364369970509"><ele>35.0</ele><time>2026-04-26T10:37:14Z</time></trkpt><trkpt lat="43.89414163452907" lon="10.523632701773126"><ele>34.5</ele><time>2026-04-26T10:37:15Z</time></trkpt><trkpt lat="43.89398148832745" lon="10.523623920201224"><ele>34.0</ele><time>2026-04-26T10:37:16Z</time></trkpt><trkpt lat="43.89385242810296" lon="10.523598513665732"><ele>33.5</ele><time>2026-04-26T10:37:17Z</time></trkpt><trkpt lat="43.893746823898525" lon="10.523522173121606"><ele>33.0</ele><time>2026-04-26T10:37:18Z</time></trkpt><trkpt lat="43.893648150917606" lon="10.523374539389227"><ele>33.0</ele><time>2026-04-26T10:37:19Z</time></trkpt><trkpt lat="43.89354839056169" lon="10.523172373884707"><ele>33.0</ele><time>2026-04-26T10:37:20Z</time></trkpt><trkpt lat="43.89343459827878" lon="10.522961381283253"><ele>33.0</ele><time>2026-04-26T10:37:21Z</time></trkpt><trkpt lat="43.893318944474906" lon="10.522757827541223"><ele>32.666666666666664</ele><time>2026-04-26T10:37:22Z</time></trkpt><trkpt lat="43.893212314870446" lon="10.522563779267818"><ele>32.33333333333333</ele><time>2026-04-26T10:37:23Z</time></trkpt><trkpt lat="43.8931035449921" lon="10.522378295012711"><ele>32.0</ele><time>2026-04-26T10:37:24Z</time></trkpt><trkpt lat="43.8929941357671" lon="10.522183317964467"><ele>32.0</ele><time>2026-04-26T10:37:25Z</time></trkpt><trkpt lat="43.89287589714569" lon="10.521993032060818"><ele>32.0</ele><time>2026-04-26T10:37:26Z</time></trkpt><trkpt lat="43.8927637141209" lon="10.521800197211482"><ele>32.0</ele><time>2026-04-26T10:37:27Z</time></trkpt><trkpt lat="43.89266543913763" lon="10.521615848565126"><ele>31.666666666666664</ele><time>2026-04-26T10:37:28Z</time></trkpt><trkpt lat="43.89255904264036" lon="10.521435723801588"><ele>31.333333333333336</ele><time>2026-04-26T10:37:29Z</time></trkpt><trkpt lat="43.89244278023504" lon="10.52125871836614"><ele>31.0</ele><time>2026-04-26T10:37:30Z</time></trkpt><trkpt lat="43.89232217999516" lon="10.521091859206253"><ele>31.666666666666668</ele><time>2026-04-26T10:37:31Z</time></trkpt><trkpt lat="43.89220179694631" lon="10.520929860988677"><ele>32.333333333333336</ele><time>2026-04-26T10:37:32Z</time></trkpt><trkpt lat="43.89209094103456" lon="10.52078403490083"><ele>33.0</ele><time>2026-04-26T10:37:33Z</time></trkpt><trkpt lat="43.891978849396736" lon="10.520655629614717"><ele>33.0</ele><time>2026-04-26T10:37:34Z</time></trkpt><trkpt lat="43.89184533434562" lon="10.520541932346484"><ele>33.0</ele><time>2026-04-26T10:37:35Z</time></trkpt><trkpt lat="43.891691280859064" lon="10.520452926743326"><ele>33.0</ele><time>2026-04-26T10:37:36Z</time></trkpt><trkpt lat="43.89151924196958" lon="10.520364752374164"><ele>32.333333333333336</ele><time>2026-04-26T10:37:37Z</time></trkpt><trkpt lat="43.89135258212449" lon="10.52026590622146"><ele>31.666666666666668</ele><time>2026-04-26T10:37:38Z</time></trkpt><trkpt lat="43.89118833342932" lon="10.520153272941771"><ele>31.0</ele><time>2026-04-26T10:37:39Z</time></trkpt><trkpt lat="43.891019527742614" lon="10.520031987965574"><ele>30.666666666666668</ele><time>2026-04-26T10:37:40Z</time></trkpt><trkpt lat="43.8908471484765" lon="10.519888368188367"><ele>30.333333333333336</ele><time>2026-04-26T10:37:41Z</time></trkpt><trkpt lat="43.890676552371765" lon="10.519736213665576"><ele>30.0</ele><time>2026-04-26T10:37:42Z</time></trkpt><trkpt lat="43.89052839644931" lon="10.519609006423497"><ele>30.333333333333336</ele><time>2026-04-26T10:37:43Z</time></trkpt><trkpt lat="43.89037305784409" lon="10.519522262483607"><ele>30.666666666666668</ele><time>2026-04-26T10:37:44Z</time></trkpt><trkpt lat="43.89018118036857" lon="10.51947641944317"><ele>31.0</ele><time>2026-04-26T10:37:45Z</time></trkpt><trkpt lat="43.889964232383974" lon="10.519456910566802"><ele>30.333333333333336</ele><time>2026-04-26T10:37:46Z</time></trkpt><trkpt lat="43.889770341106946" lon="10.519437002773723"><ele>29.666666666666664</ele><time>2026-04-26T10:37:47Z</time></trkpt><trkpt lat="43.889595911054876" lon="10.519424755218674"><ele>29.0</ele><time>2026-04-26T10:37:48Z</time></trkpt><trkpt lat="43.88943063104172" lon="10.519458042647244"><ele>29.666666666666664</ele><time>2026-04-26T10:37:49.001Z</time></trkpt><trkpt lat="43.88924022648754" lon="10.519538456369228"><ele>30.333333333333336</ele><time>2026-04-26T10:37:50.001Z</time></trkpt><trkpt lat="43.88906128684608" lon="10.519624389936808"><ele>31.0</ele><time>2026-04-26T10:37:51.001Z</time></trkpt><trkpt lat="43.88888717663428" lon="10.519695886246069"><ele>31.0</ele><time>2026-04-26T10:37:52.001Z</time></trkpt><trkpt lat="43.888723332737506" lon="10.519760199609843"><ele>31.0</ele><time>2026-04-26T10:37:53.001Z</time></trkpt><trkpt lat="43.88854950419977" lon="10.519827576354453"><ele>31.0</ele><time>2026-04-26T10:37:54.001Z</time></trkpt><trkpt lat="43.8883831488441" lon="10.51989274624607"><ele>30.333333333333336</ele><time>2026-04-26T10:37:55.001Z</time></trkpt><trkpt lat="43.888222944007154" lon="10.519960325989569"><ele>29.666666666666664</ele><time>2026-04-26T10:37:56.001Z</time></trkpt><trkpt lat="43.88807567078285" lon="10.520001827889635"><ele>29.0</ele><time>2026-04-26T10:37:57.001Z</time></trkpt><trkpt lat="43.88792161513103" lon="10.52001623023402"><ele>29.0</ele><time>2026-04-26T10:37:58.001Z</time></trkpt><trkpt lat="43.887772467697054" lon="10.520012475585522"><ele>29.0</ele><time>2026-04-26T10:37:59.001Z</time></trkpt><trkpt lat="43.88762244989765" lon="10.52000405852028"><ele>29.0</ele><time>2026-04-26T10:38:00.001Z</time></trkpt><trkpt lat="43.88747406469287" lon="10.519998628975955"><ele>29.0</ele><time>2026-04-26T10:38:01.001Z</time></trkpt><trkpt lat="43.88732162888261" lon="10.51998914757644"><ele>28.333333333333332</ele><time>2026-04-26T10:38:02.001Z</time></trkpt><trkpt lat="43.88717258548279" lon="10.519978800296112"><ele>27.666666666666664</ele><time>2026-04-26T10:38:03.001Z</time></trkpt><trkpt lat="43.88702071098612" lon="10.519961688525475"><ele>27.0</ele><time>2026-04-26T10:38:04.001Z</time></trkpt><trkpt lat="43.88686788036052" lon="10.519936253896196"><ele>28.0</ele><time>2026-04-26T10:38:05.001Z</time></trkpt><trkpt lat="43.88672121180373" lon="10.519909143951281"><ele>29.0</ele><time>2026-04-26T10:38:06.001Z</time></trkpt><trkpt lat="43.88657149666746" lon="10.519858070000142"><ele>30.0</ele><time>2026-04-26T10:38:07.001Z</time></trkpt><trkpt lat="43.886430429909886" lon="10.519768218754804"><ele>30.0</ele><time>2026-04-26T10:38:08.001Z</time></trkpt><trkpt lat="43.88630692678838" lon="10.519645464222334"><ele>30.0</ele><time>2026-04-26T10:38:09.001Z</time></trkpt><trkpt lat="43.88618033997109" lon="10.519491593107627"><ele>30.0</ele><time>2026-04-26T10:38:10.001Z</time></trkpt><trkpt lat="43.88604364073894" lon="10.519375027208994"><ele>29.333333333333336</ele><time>2026-04-26T10:38:11.001Z</time></trkpt><trkpt lat="43.885884836551234" lon="10.5193062690813"><ele>28.666666666666668</ele><time>2026-04-26T10:38:12.001Z</time></trkpt><trkpt lat="43.88571039968552" lon="10.519273738536036"><ele>28.0</ele><time>2026-04-26T10:38:13.001Z</time></trkpt><trkpt lat="43.88552630687742" lon="10.519263733111588"><ele>28.0</ele><time>2026-04-26T10:38:14.001Z</time></trkpt><trkpt lat="43.88533895985724" lon="10.51928715288079"><ele>28.0</ele><time>2026-04-26T10:38:15.001Z</time></trkpt><trkpt lat="43.885156963419355" lon="10.519338862360632"><ele>28.0</ele><time>2026-04-26T10:38:16.001Z</time></trkpt><trkpt lat="43.884996472548906" lon="10.519395646906222"><ele>28.0</ele><time>2026-04-26T10:38:17.001Z</time></trkpt><trkpt lat="43.884826743325014" lon="10.519448385875714"><ele>28.0</ele><time>2026-04-26T10:38:18.001Z</time></trkpt><trkpt lat="43.88466179065329" lon="10.519501588900786"><ele>28.0</ele><time>2026-04-26T10:38:19.001Z</time></trkpt><trkpt lat="43.884505742412955" lon="10.51955156349951"><ele>28.0</ele><time>2026-04-26T10:38:20.001Z</time></trkpt><trkpt lat="43.884354811532106" lon="10.519601868877539"><ele>28.0</ele><time>2026-04-26T10:38:21.001Z</time></trkpt><trkpt lat="43.88419530932433" lon="10.51966387303753"><ele>28.0</ele><time>2026-04-26T10:38:22.001Z</time></trkpt><trkpt lat="43.88402468876414" lon="10.51975944232982"><ele>28.0</ele><time>2026-04-26T10:38:23.001Z</time></trkpt><trkpt lat="43.88385164502668" lon="10.519907951885605"><ele>28.0</ele><time>2026-04-26T10:38:24.001Z</time></trkpt><trkpt lat="43.88367785062355" lon="10.52006741769227"><ele>28.0</ele><time>2026-04-26T10:38:25.001Z</time></trkpt><trkpt lat="43.88349022428522" lon="10.520227767121995"><ele>27.666666666666668</ele><time>2026-04-26T10:38:26.001Z</time></trkpt><trkpt lat="43.883322573733636" lon="10.52036830244649"><ele>27.333333333333336</ele><time>2026-04-26T10:38:27.001Z</time></trkpt><trkpt lat="43.883152446620535" lon="10.520516785576653"><ele>27.0</ele><time>2026-04-26T10:38:28.001Z</time></trkpt><trkpt lat="43.882989425251836" lon="10.52065156886504"><ele>27.0</ele><time>2026-04-26T10:38:29.001Z</time></trkpt><trkpt lat="43.882824230448506" lon="10.520780326900189"><ele>27.0</ele><time>2026-04-26T10:38:30.001Z</time></trkpt><trkpt lat="43.88264317038103" lon="10.520894778334878"><ele>27.0</ele><time>2026-04-26T10:38:31.001Z</time></trkpt><trkpt lat="43.8824710991446" lon="10.520980572893963"><ele>27.333333333333336</ele><time>2026-04-26T10:38:32.001Z</time></trkpt><trkpt lat="43.88229686370413" lon="10.521064468186703"><ele>27.666666666666668</ele><time>2026-04-26T10:38:33.001Z</time></trkpt><trkpt lat="43.882122282240736" lon="10.521149727926451"><ele>28.0</ele><time>2026-04-26T10:38:34.001Z</time></trkpt><trkpt lat="43.88195423003167" lon="10.52122434458531"><ele>27.666666666666668</ele><time>2026-04-26T10:38:35.001Z</time></trkpt><trkpt lat="43.88178197165704" lon="10.521279126164503"><ele>27.333333333333336</ele><time>2026-04-26T10:38:36.001Z</time></trkpt><trkpt lat="43.88159721354679" lon="10.521304241831052"><ele>27.0</ele><time>2026-04-26T10:38:37.001Z</time></trkpt><trkpt lat="43.88140147520681" lon="10.521284677619665"><ele>27.333333333333336</ele><time>2026-04-26T10:38:38.001Z</time></trkpt><trkpt lat="43.8812167529344" lon="10.521223729731533"><ele>27.666666666666668</ele><time>2026-04-26T10:38:39.001Z</time></trkpt><trkpt lat="43.88103382285374" lon="10.521140260902595"><ele>28.0</ele><time>2026-04-26T10:38:40.001Z</time></trkpt><trkpt lat="43.88085450855922" lon="10.521055580912886"><ele>28.666666666666668</ele><time>2026-04-26T10:38:41.001Z</time></trkpt><trkpt lat="43.88067916007334" lon="10.520987922406064"><ele>29.333333333333336</ele><time>2026-04-26T10:38:42.001Z</time></trkpt><trkpt lat="43.880507307125" lon="10.52093965869077"><ele>30.0</ele><time>2026-04-26T10:38:43.001Z</time></trkpt><trkpt lat="43.8803375885293" lon="10.520911548393439"><ele>30.0</ele><time>2026-04-26T10:38:44.001Z</time></trkpt><trkpt lat="43.88016666454869" lon="10.52090433573693"><ele>30.0</ele><time>2026-04-26T10:38:45.001Z</time></trkpt><trkpt lat="43.88000321267711" lon="10.520913888169986"><ele>30.0</ele><time>2026-04-26T10:38:46.001Z</time></trkpt><trkpt lat="43.87982813931391" lon="10.520922918066526"><ele>30.333333333333336</ele><time>2026-04-26T10:38:47.001Z</time></trkpt><trkpt lat="43.87963960526874" lon="10.520927683659151"><ele>30.666666666666668</ele><time>2026-04-26T10:38:48.001Z</time></trkpt><trkpt lat="43.87945016412146" lon="10.52092460565438"><ele>31.0</ele><time>2026-04-26T10:38:49.001Z</time></trkpt><trkpt lat="43.87925051417454" lon="10.520924325216045"><ele>30.333333333333336</ele><time>2026-04-26T10:38:50.001Z</time></trkpt><trkpt lat="43.879053336064096" lon="10.520929981034152"><ele>29.666666666666664</ele><time>2026-04-26T10:38:51.001Z</time></trkpt><trkpt lat="43.87885462949366" lon="10.520964428647925"><ele>29.0</ele><time>2026-04-26T10:38:52.001Z</time></trkpt><trkpt lat="43.87865707135903" lon="10.521022196299052"><ele>29.0</ele><time>2026-04-26T10:38:53.001Z</time></trkpt><trkpt lat="43.878465256028974" lon="10.52108866015895"><ele>29.0</ele><time>2026-04-26T10:38:54.001Z</time></trkpt><trkpt lat="43.87827586980369" lon="10.521173955695897"><ele>29.0</ele><time>2026-04-26T10:38:55.001Z</time></trkpt><trkpt lat="43.87810882824105" lon="10.521295639211198"><ele>28.666666666666664</ele><time>2026-04-26T10:38:56.001Z</time></trkpt><trkpt lat="43.87795838785631" lon="10.521468745435532"><ele>28.333333333333336</ele><time>2026-04-26T10:38:57.001Z</time></trkpt><trkpt lat="43.87781769076132" lon="10.521662366696031"><ele>28.0</ele><time>2026-04-26T10:38:58.001Z</time></trkpt><trkpt lat="43.87768170527762" lon="10.521845607846272"><ele>28.666666666666668</ele><time>2026-04-26T10:38:59.001Z</time></trkpt><trkpt lat="43.87753014621071" lon="10.52196089997705"><ele>29.333333333333336</ele><time>2026-04-26T10:39:00.001Z</time></trkpt><trkpt lat="43.877390588226824" lon="10.522083045057517"><ele>30.0</ele><time>2026-04-26T10:39:01.002Z</time></trkpt><trkpt lat="43.87721862936881" lon="10.522094556164962"><ele>30.0</ele><time>2026-04-26T10:39:02.002Z</time></trkpt><trkpt lat="43.877040812092105" lon="10.522097521122657"><ele>30.0</ele><time>2026-04-26T10:39:03.002Z</time></trkpt><trkpt lat="43.876846255338414" lon="10.52210725151476"><ele>30.0</ele><time>2026-04-26T10:39:04.002Z</time></trkpt><trkpt lat="43.876657261495914" lon="10.522072342504762"><ele>33.0</ele><time>2026-04-26T10:39:05.002Z</time></trkpt><trkpt lat="43.876479921737" lon="10.52199097943455"><ele>36.0</ele><time>2026-04-26T10:39:06.002Z</time></trkpt><trkpt lat="43.876291214501556" lon="10.521923979498325"><ele>39.0</ele><time>2026-04-26T10:39:07.002Z</time></trkpt><trkpt lat="43.87612248765966" lon="10.52179781030094"><ele>39.0</ele><time>2026-04-26T10:39:08.002Z</time></trkpt><trkpt lat="43.875958374827675" lon="10.521672114481376"><ele>39.0</ele><time>2026-04-26T10:39:09.002Z</time></trkpt><trkpt lat="43.87579579099803" lon="10.521552020311425"><ele>39.0</ele><time>2026-04-26T10:39:10.002Z</time></trkpt><trkpt lat="43.87563472782974" lon="10.52143587258253"><ele>40.0</ele><time>2026-04-26T10:39:11Z</time></trkpt><trkpt lat="43.875467696931416" lon="10.521307875625961"><ele>41.0</ele><time>2026-04-26T10:39:12Z</time></trkpt><trkpt lat="43.875281633627154" lon="10.521204985507696"><ele>42.0</ele><time>2026-04-26T10:39:13Z</time></trkpt><trkpt lat="43.87507923124567" lon="10.521132947781528"><ele>38.0</ele><time>2026-04-26T10:39:14Z</time></trkpt><trkpt lat="43.874868026499904" lon="10.521065754949584"><ele>34.0</ele><time>2026-04-26T10:39:15Z</time></trkpt><trkpt lat="43.87468016899166" lon="10.520989336565185"><ele>30.0</ele><time>2026-04-26T10:39:16Z</time></trkpt><trkpt lat="43.87449051748269" lon="10.520910564871846"><ele>30.0</ele><time>2026-04-26T10:39:17Z</time></trkpt><trkpt lat="43.87430321183661" lon="10.520833900341556"><ele>30.0</ele><time>2026-04-26T10:39:18Z</time></trkpt><trkpt lat="43.874113260957934" lon="10.520762406669661"><ele>30.0</ele><time>2026-04-26T10:39:19Z</time></trkpt><trkpt lat="43.87393039090364" lon="10.520689737870699"><ele>30.0</ele><time>2026-04-26T10:39:20Z</time></trkpt><trkpt lat="43.87375104424315" lon="10.520615690371374"><ele>30.0</ele><time>2026-04-26T10:39:21Z</time></trkpt><trkpt lat="43.87356473702529" lon="10.520541318370391"><ele>30.0</ele><time>2026-04-26T10:39:22Z</time></trkpt><trkpt lat="43.87338036480523" lon="10.520471836943003"><ele>32.666666666666664</ele><time>2026-04-26T10:39:23Z</time></trkpt><trkpt lat="43.87320220773807" lon="10.520393484351972"><ele>35.33333333333333</ele><time>2026-04-26T10:39:24Z</time></trkpt><trkpt lat="43.87302595333959" lon="10.520316013377977"><ele>38.0</ele><time>2026-04-26T10:39:25Z</time></trkpt><trkpt lat="43.872829941663326" lon="10.52027202215879"><ele>38.0</ele><time>2026-04-26T10:39:26Z</time></trkpt><trkpt lat="43.8726383532322" lon="10.520289801206944"><ele>38.0</ele><time>2026-04-26T10:39:27Z</time></trkpt><trkpt lat="43.87244240157951" lon="10.520344238950653"><ele>38.0</ele><time>2026-04-26T10:39:28Z</time></trkpt><trkpt lat="43.872250048321824" lon="10.520402801170274"><ele>35.0</ele><time>2026-04-26T10:39:29Z</time></trkpt><trkpt lat="43.872067879122774" lon="10.520464401569939"><ele>32.0</ele><time>2026-04-26T10:39:30Z</time></trkpt><trkpt lat="43.87190834241003" lon="10.520515816354738"><ele>29.0</ele><time>2026-04-26T10:39:31Z</time></trkpt><trkpt lat="43.871758507281704" lon="10.52052420629814"><ele>29.0</ele><time>2026-04-26T10:39:32Z</time></trkpt><trkpt lat="43.871606754906686" lon="10.520459646999782"><ele>29.0</ele><time>2026-04-26T10:39:33Z</time></trkpt><trkpt lat="43.87145131149173" lon="10.520347210832309"><ele>29.0</ele><time>2026-04-26T10:39:34Z</time></trkpt><trkpt lat="43.871293733806624" lon="10.520250691554107"><ele>32.666666666666664</ele><time>2026-04-26T10:39:35Z</time></trkpt><trkpt lat="43.87117502593794" lon="10.520100145800074"><ele>36.333333333333336</ele><time>2026-04-26T10:39:36Z</time></trkpt><trkpt lat="43.871077272154174" lon="10.51995093861622"><ele>40.0</ele><time>2026-04-26T10:39:37Z</time></trkpt><trkpt lat="43.87100288482388" lon="10.519748695209278"><ele>36.0</ele><time>2026-04-26T10:39:38Z</time></trkpt><trkpt lat="43.870927408268436" lon="10.519537785948527"><ele>32.0</ele><time>2026-04-26T10:39:39Z</time></trkpt><trkpt lat="43.870872134603786" lon="10.519325776835952"><ele>28.0</ele><time>2026-04-26T10:39:40Z</time></trkpt><trkpt lat="43.870803732611634" lon="10.519115051387425"><ele>28.0</ele><time>2026-04-26T10:39:41Z</time></trkpt><trkpt lat="43.87073670133697" lon="10.518917954272624"><ele>28.0</ele><time>2026-04-26T10:39:42Z</time></trkpt><trkpt lat="43.870668953465696" lon="10.518737197863997"><ele>28.0</ele><time>2026-04-26T10:39:43Z</time></trkpt><trkpt lat="43.870599336266146" lon="10.518562839420522"><ele>28.0</ele><time>2026-04-26T10:39:44Z</time></trkpt><trkpt lat="43.87052367073083" lon="10.518409231145611"><ele>27.75</ele><time>2026-04-26T10:39:45Z</time></trkpt><trkpt lat="43.87044777488097" lon="10.518254900417984"><ele>27.5</ele><time>2026-04-26T10:39:46Z</time></trkpt><trkpt lat="43.87038456392189" lon="10.518110659876044"><ele>27.25</ele><time>2026-04-26T10:39:47Z</time></trkpt><trkpt lat="43.87032871382233" lon="10.517951447707608"><ele>27.0</ele><time>2026-04-26T10:39:48Z</time></trkpt><trkpt lat="43.87027766476227" lon="10.517782066844504"><ele>26.75</ele><time>2026-04-26T10:39:49Z</time></trkpt><trkpt lat="43.87022627223275" lon="10.517600610460054"><ele>26.5</ele><time>2026-04-26T10:39:50Z</time></trkpt><trkpt lat="43.87017690177357" lon="10.517407028576839"><ele>26.25</ele><time>2026-04-26T10:39:51Z</time></trkpt><trkpt lat="43.870124635932015" lon="10.517206513508038"><ele>26.0</ele><time>2026-04-26T10:39:52Z</time></trkpt><trkpt lat="43.87007426387246" lon="10.51700722306822"><ele>25.5</ele><time>2026-04-26T10:39:53Z</time></trkpt><trkpt lat="43.870022542803945" lon="10.516804753079848"><ele>25.0</ele><time>2026-04-26T10:39:54Z</time></trkpt><trkpt lat="43.86998217316492" lon="10.516625759440537"><ele>24.5</ele><time>2026-04-26T10:39:55Z</time></trkpt><trkpt lat="43.86994569972142" lon="10.516462821090355"><ele>24.0</ele><time>2026-04-26T10:39:56Z</time></trkpt><trkpt lat="43.86990979655017" lon="10.516293605499232"><ele>24.0</ele><time>2026-04-26T10:39:57Z</time></trkpt><trkpt lat="43.86987316674053" lon="10.516122215556317"><ele>24.0</ele><time>2026-04-26T10:39:58Z</time></trkpt><trkpt lat="43.86983906243975" lon="10.515952969486925"><ele>24.0</ele><time>2026-04-26T10:39:59Z</time></trkpt><trkpt lat="43.869807907650255" lon="10.515778058192847"><ele>24.0</ele><time>2026-04-26T10:40:00Z</time></trkpt><trkpt lat="43.86977608125827" lon="10.515590475090834"><ele>24.0</ele><time>2026-04-26T10:40:01Z</time></trkpt><trkpt lat="43.86974755497549" lon="10.515413374762582"><ele>24.0</ele><time>2026-04-26T10:40:02Z</time></trkpt><trkpt lat="43.869718439577085" lon="10.515237710782554"><ele>24.0</ele><time>2026-04-26T10:40:03Z</time></trkpt><trkpt lat="43.86968997244031" lon="10.51506580136405"><ele>24.0</ele><time>2026-04-26T10:40:04Z</time></trkpt><trkpt lat="43.86965670708583" lon="10.514891898892703"><ele>24.0</ele><time>2026-04-26T10:40:05Z</time></trkpt><trkpt lat="43.8696224054372" lon="10.514710650657989"><ele>24.0</ele><time>2026-04-26T10:40:06Z</time></trkpt><trkpt lat="43.86958298743367" lon="10.514537000081244"><ele>24.0</ele><time>2026-04-26T10:40:07Z</time></trkpt><trkpt lat="43.86952875941613" lon="10.51438331785779"><ele>24.0</ele><time>2026-04-26T10:40:08.001Z</time></trkpt><trkpt lat="43.86947237646407" lon="10.514231428305804"><ele>24.0</ele><time>2026-04-26T10:40:09.001Z</time></trkpt><trkpt lat="43.86940702064851" lon="10.514072392703481"><ele>24.0</ele><time>2026-04-26T10:40:10.001Z</time></trkpt><trkpt lat="43.86933062764378" lon="10.513910433421218"><ele>24.0</ele><time>2026-04-26T10:40:11.001Z</time></trkpt><trkpt lat="43.8692462214329" lon="10.513750069380926"><ele>24.0</ele><time>2026-04-26T10:40:12.001Z</time></trkpt><trkpt lat="43.86915781523179" lon="10.5135992553829"><ele>23.666666666666668</ele><time>2026-04-26T10:40:13.001Z</time></trkpt><trkpt lat="43.86905797919255" lon="10.513431492017324"><ele>23.333333333333336</ele><time>2026-04-26T10:40:14.001Z</time></trkpt><trkpt lat="43.86895476552629" lon="10.513264566027768"><ele>23.0</ele><time>2026-04-26T10:40:15.001Z</time></trkpt><trkpt lat="43.86885396899573" lon="10.513098888638307"><ele>23.0</ele><time>2026-04-26T10:40:16.001Z</time></trkpt><trkpt lat="43.86875239788516" lon="10.51293306091047"><ele>23.0</ele><time>2026-04-26T10:40:17.001Z</time></trkpt><trkpt lat="43.86864814028297" lon="10.512761258020461"><ele>23.0</ele><time>2026-04-26T10:40:18.001Z</time></trkpt><trkpt lat="43.86854689020244" lon="10.512591889245764"><ele>23.0</ele><time>2026-04-26T10:40:19.001Z</time></trkpt><trkpt lat="43.86844418746388" lon="10.512436866119483"><ele>23.0</ele><time>2026-04-26T10:40:20.001Z</time></trkpt><trkpt lat="43.8683407882392" lon="10.51230038815465"><ele>23.0</ele><time>2026-04-26T10:40:21.001Z</time></trkpt><trkpt lat="43.86822894532351" lon="10.5121890426317"><ele>23.0</ele><time>2026-04-26T10:40:22.001Z</time></trkpt><trkpt lat="43.868110528132775" lon="10.512085916575534"><ele>23.0</ele><time>2026-04-26T10:40:23.001Z</time></trkpt><trkpt lat="43.8679786007521" lon="10.511971108754892"><ele>23.0</ele><time>2026-04-26T10:40:24.001Z</time></trkpt><trkpt lat="43.867836832579776" lon="10.511824197314278"><ele>23.0</ele><time>2026-04-26T10:40:25.001Z</time></trkpt><trkpt lat="43.86768079739646" lon="10.511681241692598"><ele>23.5</ele><time>2026-04-26T10:40:26.001Z</time></trkpt><trkpt lat="43.867496926860944" lon="10.51151983940509"><ele>24.0</ele><time>2026-04-26T10:40:27.001Z</time></trkpt><trkpt lat="43.86728873673234" lon="10.511329447253901"><ele>23.0</ele><time>2026-04-26T10:40:28.001Z</time></trkpt><trkpt lat="43.8670663527328" lon="10.511129239656452"><ele>22.0</ele><time>2026-04-26T10:40:29.001Z</time></trkpt><trkpt lat="43.86683318779707" lon="10.51093684555719"><ele>22.5</ele><time>2026-04-26T10:40:30.001Z</time></trkpt><trkpt lat="43.866616691832945" lon="10.510767262114225"><ele>23.0</ele><time>2026-04-26T10:40:31.001Z</time></trkpt><trkpt lat="43.86643653348406" lon="10.510631829459117"><ele>23.0</ele><time>2026-04-26T10:40:32.001Z</time></trkpt><trkpt lat="43.86627037243" lon="10.510512805380824"><ele>23.0</ele><time>2026-04-26T10:40:33.001Z</time></trkpt><trkpt lat="43.866108879284766" lon="10.510397085966122"><ele>23.0</ele><time>2026-04-26T10:40:34.001Z</time></trkpt><trkpt lat="43.865967885979636" lon="10.510291150189746"><ele>23.25</ele><time>2026-04-26T10:40:35.001Z</time></trkpt><trkpt lat="43.86584917124063" lon="10.510194318411733"><ele>23.5</ele><time>2026-04-26T10:40:36.001Z</time></trkpt><trkpt lat="43.86574750473899" lon="10.510098939807694"><ele>23.75</ele><time>2026-04-26T10:40:37.001Z</time></trkpt><trkpt lat="43.86565520792476" lon="10.510002311768337"><ele>24.0</ele><time>2026-04-26T10:40:38.001Z</time></trkpt><trkpt lat="43.86557497898195" lon="10.509894211555622"><ele>24.0</ele><time>2026-04-26T10:40:39.001Z</time></trkpt><trkpt lat="43.86550079355662" lon="10.509772013783609"><ele>24.0</ele><time>2026-04-26T10:40:40.001Z</time></trkpt><trkpt lat="43.865441611858174" lon="10.509642457619014"><ele>24.0</ele><time>2026-04-26T10:40:41.001Z</time></trkpt><trkpt lat="43.86540216805928" lon="10.509510340127639"><ele>24.0</ele><time>2026-04-26T10:40:42.001Z</time></trkpt><trkpt lat="43.86537596268524" lon="10.509390194333614"><ele>24.0</ele><time>2026-04-26T10:40:43.001Z</time></trkpt><trkpt lat="43.86535768749659" lon="10.509272052561787"><ele>24.2</ele><time>2026-04-26T10:40:44.001Z</time></trkpt><trkpt lat="43.865349483578804" lon="10.509159302605854"><ele>24.4</ele><time>2026-04-26T10:40:45.001Z</time></trkpt><trkpt lat="43.86534753268481" lon="10.509033267400222"><ele>24.6</ele><time>2026-04-26T10:40:46.001Z</time></trkpt><trkpt lat="43.865402252312656" lon="10.508850053299076"><ele>24.8</ele><time>2026-04-26T10:40:48.001Z</time></trkpt><trkpt lat="43.8654690357216" lon="10.508815798118576"><ele>25.0</ele><time>2026-04-26T10:40:50.001Z</time></trkpt><trkpt lat="43.865547470644984" lon="10.508762268947322"><ele>25.0</ele><time>2026-04-26T10:41:03.001Z</time></trkpt><trkpt lat="43.86559824414258" lon="10.508693744587857"><ele>25.0</ele><time>2026-04-26T10:41:04.001Z</time></trkpt><trkpt lat="43.865698210140074" lon="10.508694983393967"><ele>25.0</ele><time>2026-04-26T10:41:05.001Z</time></trkpt><trkpt lat="43.865811034774815" lon="10.508665425974245"><ele>25.0</ele><time>2026-04-26T10:41:06.001Z</time></trkpt><trkpt lat="43.86593059271244" lon="10.50864121972243"><ele>25.0</ele><time>2026-04-26T10:41:07.001Z</time></trkpt><trkpt lat="43.8660688568649" lon="10.508615884695173"><ele>24.333333333333336</ele><time>2026-04-26T10:41:08.001Z</time></trkpt><trkpt lat="43.86623244672067" lon="10.508587312072667"><ele>23.666666666666668</ele><time>2026-04-26T10:41:09.001Z</time></trkpt><trkpt lat="43.86641040360966" lon="10.508564633890316"><ele>23.0</ele><time>2026-04-26T10:41:10.001Z</time></trkpt><trkpt lat="43.86658246982566" lon="10.50853372388535"><ele>23.0</ele><time>2026-04-26T10:41:11.001Z</time></trkpt><trkpt lat="43.86674270909822" lon="10.508499149559249"><ele>23.0</ele><time>2026-04-26T10:41:12.001Z</time></trkpt><trkpt lat="43.86689952905189" lon="10.508447959858419"><ele>23.0</ele><time>2026-04-26T10:41:13.001Z</time></trkpt><trkpt lat="43.86705056483739" lon="10.5083904878639"><ele>23.333333333333336</ele><time>2026-04-26T10:41:14.001Z</time></trkpt><trkpt lat="43.867198565029206" lon="10.508319111456508"><ele>23.666666666666668</ele><time>2026-04-26T10:41:15.002Z</time></trkpt><trkpt lat="43.86734577816102" lon="10.508242050353543"><ele>24.0</ele><time>2026-04-26T10:41:16.002Z</time></trkpt><trkpt lat="43.86748390978298" lon="10.508163121749527"><ele>24.0</ele><time>2026-04-26T10:41:16.999Z</time></trkpt><trkpt lat="43.86762016480622" lon="10.50808121040066"><ele>24.0</ele><time>2026-04-26T10:41:17.999Z</time></trkpt><trkpt lat="43.86775781043601" lon="10.507998962893792"><ele>24.0</ele><time>2026-04-26T10:41:18.999Z</time></trkpt><trkpt lat="43.86788720393163" lon="10.507899221756164"><ele>24.0</ele><time>2026-04-26T10:41:19.999Z</time></trkpt><trkpt lat="43.868014521250274" lon="10.50777380059969"><ele>23.666666666666668</ele><time>2026-04-26T10:41:20.999Z</time></trkpt><trkpt lat="43.86814240031455" lon="10.507652009207158"><ele>23.333333333333336</ele><time>2026-04-26T10:41:21.999Z</time></trkpt><trkpt lat="43.8682732574969" lon="10.507526819311895"><ele>23.0</ele><time>2026-04-26T10:41:22.999Z</time></trkpt><trkpt lat="43.86841775075555" lon="10.507407960861121"><ele>23.333333333333336</ele><time>2026-04-26T10:41:23.999Z</time></trkpt><trkpt lat="43.86858580554533" lon="10.507318984225645"><ele>23.666666666666668</ele><time>2026-04-26T10:41:25Z</time></trkpt><trkpt lat="43.86876171180327" lon="10.507237699172235"><ele>24.0</ele><time>2026-04-26T10:41:26Z</time></trkpt><trkpt lat="43.8689464505618" lon="10.507190271603793"><ele>24.0</ele><time>2026-04-26T10:41:27Z</time></trkpt><trkpt lat="43.86911046848683" lon="10.507166026090594"><ele>24.0</ele><time>2026-04-26T10:41:28Z</time></trkpt><trkpt lat="43.86926139738021" lon="10.507130626355018"><ele>24.0</ele><time>2026-04-26T10:41:29Z</time></trkpt><trkpt lat="43.86941981342622" lon="10.5071139895549"><ele>24.0</ele><time>2026-04-26T10:41:30Z</time></trkpt><trkpt lat="43.86958945950653" lon="10.507091519345241"><ele>24.0</ele><time>2026-04-26T10:41:31Z</time></trkpt><trkpt lat="43.86974286091113" lon="10.507062674098965"><ele>24.0</ele><time>2026-04-26T10:41:32Z</time></trkpt><trkpt lat="43.869898580948345" lon="10.507003173868968"><ele>24.0</ele><time>2026-04-26T10:41:33Z</time></trkpt><trkpt lat="43.87004357587518" lon="10.506912321984808"><ele>24.0</ele><time>2026-04-26T10:41:34Z</time></trkpt><trkpt lat="43.8701724630922" lon="10.506781087097862"><ele>24.0</ele><time>2026-04-26T10:41:35Z</time></trkpt><trkpt lat="43.87028563447813" lon="10.506632123225318"><ele>24.0</ele><time>2026-04-26T10:41:36Z</time></trkpt><trkpt lat="43.870377041643515" lon="10.506459011309323"><ele>24.0</ele><time>2026-04-26T10:41:37Z</time></trkpt><trkpt lat="43.87044849571115" lon="10.506270006040962"><ele>24.0</ele><time>2026-04-26T10:41:38Z</time></trkpt><trkpt lat="43.87048998402418" lon="10.506070902209332"><ele>24.0</ele><time>2026-04-26T10:41:39Z</time></trkpt><trkpt lat="43.87051544302986" lon="10.505886037363476"><ele>24.0</ele><time>2026-04-26T10:41:40Z</time></trkpt><trkpt lat="43.870522349543364" lon="10.505703035294665"><ele>24.0</ele><time>2026-04-26T10:41:41Z</time></trkpt><trkpt lat="43.870499985716236" lon="10.505516393943116"><ele>24.0</ele><time>2026-04-26T10:41:42Z</time></trkpt><trkpt lat="43.870463636271076" lon="10.505349725485672"><ele>24.5</ele><time>2026-04-26T10:41:43Z</time></trkpt><trkpt lat="43.87042690310002" lon="10.505185212783736"><ele>25.0</ele><time>2026-04-26T10:41:44Z</time></trkpt><trkpt lat="43.870387563396186" lon="10.505032946853838"><ele>25.5</ele><time>2026-04-26T10:41:45Z</time></trkpt><trkpt lat="43.870335584930196" lon="10.504874126348"><ele>26.0</ele><time>2026-04-26T10:41:46Z</time></trkpt><trkpt lat="43.87027254058959" lon="10.504699544235994"><ele>26.25</ele><time>2026-04-26T10:41:47Z</time></trkpt><trkpt lat="43.87021131098217" lon="10.504531695687605"><ele>26.5</ele><time>2026-04-26T10:41:48Z</time></trkpt><trkpt lat="43.87016942039806" lon="10.504338654167213"><ele>26.75</ele><time>2026-04-26T10:41:49Z</time></trkpt><trkpt lat="43.870156236673466" lon="10.504123521349392"><ele>27.0</ele><time>2026-04-26T10:41:50Z</time></trkpt><trkpt lat="43.870163577360415" lon="10.503907434557266"><ele>27.0</ele><time>2026-04-26T10:41:51Z</time></trkpt><trkpt lat="43.87019315634741" lon="10.503690635213399"><ele>27.0</ele><time>2026-04-26T10:41:52Z</time></trkpt><trkpt lat="43.870233023776315" lon="10.503479504321572"><ele>27.0</ele><time>2026-04-26T10:41:53Z</time></trkpt><trkpt lat="43.870256285245766" lon="10.503258623202665"><ele>27.0</ele><time>2026-04-26T10:41:54Z</time></trkpt><trkpt lat="43.87026773695385" lon="10.503052912826488"><ele>27.0</ele><time>2026-04-26T10:41:55Z</time></trkpt><trkpt lat="43.87027608766142" lon="10.50285593992263"><ele>27.0</ele><time>2026-04-26T10:41:56Z</time></trkpt><trkpt lat="43.87028276695982" lon="10.502659572532439"><ele>27.0</ele><time>2026-04-26T10:41:57Z</time></trkpt><trkpt lat="43.870283884161104" lon="10.502468245700575"><ele>26.75</ele><time>2026-04-26T10:41:58Z</time></trkpt><trkpt lat="43.870283778181545" lon="10.502274637054883"><ele>26.5</ele><time>2026-04-26T10:41:59Z</time></trkpt><trkpt lat="43.87028767308062" lon="10.502075152922632"><ele>26.25</ele><time>2026-04-26T10:42:00Z</time></trkpt><trkpt lat="43.87029246774703" lon="10.50188222826007"><ele>26.0</ele><time>2026-04-26T10:42:01Z</time></trkpt><trkpt lat="43.87030010672362" lon="10.501689895574428"><ele>26.0</ele><time>2026-04-26T10:42:02Z</time></trkpt><trkpt lat="43.87031519586432" lon="10.501514742651672"><ele>26.0</ele><time>2026-04-26T10:42:03Z</time></trkpt><trkpt lat="43.8703422472984" lon="10.501346181525385"><ele>26.0</ele><time>2026-04-26T10:42:04Z</time></trkpt><trkpt lat="43.870394551728374" lon="10.501177183164947"><ele>26.0</ele><time>2026-04-26T10:42:05Z</time></trkpt><trkpt lat="43.87044652624404" lon="10.501015501951114"><ele>26.75</ele><time>2026-04-26T10:42:06Z</time></trkpt><trkpt lat="43.8705229381043" lon="10.500843810260399"><ele>27.5</ele><time>2026-04-26T10:42:07Z</time></trkpt><trkpt lat="43.87060334941886" lon="10.500671983024796"><ele>28.25</ele><time>2026-04-26T10:42:08Z</time></trkpt><trkpt lat="43.8706763669279" lon="10.500504479105826"><ele>29.0</ele><time>2026-04-26T10:42:09Z</time></trkpt><trkpt lat="43.87074157519344" lon="10.50034068927032"><ele>29.0</ele><time>2026-04-26T10:42:10Z</time></trkpt><trkpt lat="43.8708105831452" lon="10.500170111276804"><ele>29.0</ele><time>2026-04-26T10:42:11Z</time></trkpt><trkpt lat="43.870869025440236" lon="10.499985836905125"><ele>29.0</ele><time>2026-04-26T10:42:12Z</time></trkpt><trkpt lat="43.870933881606895" lon="10.499811849501832"><ele>29.0</ele><time>2026-04-26T10:42:13Z</time></trkpt><trkpt lat="43.87099222600047" lon="10.499634317155923"><ele>29.0</ele><time>2026-04-26T10:42:14Z</time></trkpt><trkpt lat="43.871058549627385" lon="10.499458751947008"><ele>29.0</ele><time>2026-04-26T10:42:15.001Z</time></trkpt><trkpt lat="43.871130742121814" lon="10.499286921608176"><ele>29.0</ele><time>2026-04-26T10:42:16.001Z</time></trkpt><trkpt lat="43.871216277601846" lon="10.499116576145902"><ele>29.0</ele><time>2026-04-26T10:42:17.001Z</time></trkpt><trkpt lat="43.8713047988764" lon="10.498933491760765"><ele>27.666666666666664</ele><time>2026-04-26T10:42:18.001Z</time></trkpt><trkpt lat="43.87139983040281" lon="10.498741254509726"><ele>26.333333333333336</ele><time>2026-04-26T10:42:19.001Z</time></trkpt><trkpt lat="43.87150601536197" lon="10.498536169552205"><ele>25.0</ele><time>2026-04-26T10:42:20.001Z</time></trkpt><trkpt lat="43.8716080740601" lon="10.498335674851138"><ele>25.0</ele><time>2026-04-26T10:42:21.001Z</time></trkpt><trkpt lat="43.87170591114962" lon="10.498137368190516"><ele>25.0</ele><time>2026-04-26T10:42:22.001Z</time></trkpt><trkpt lat="43.871803322585095" lon="10.497939045492979"><ele>25.0</ele><time>2026-04-26T10:42:23.001Z</time></trkpt><trkpt lat="43.87191290608678" lon="10.49769062517401"><ele>26.0</ele><time>2026-04-26T10:42:24.001Z</time></trkpt><trkpt lat="43.87206255020203" lon="10.49741479103066"><ele>27.0</ele><time>2026-04-26T10:42:25.001Z</time></trkpt><trkpt lat="43.87217946641104" lon="10.497087002960418"><ele>27.5</ele><time>2026-04-26T10:42:26.001Z</time></trkpt><trkpt lat="43.872322225151386" lon="10.496748424288588"><ele>28.0</ele><time>2026-04-26T10:42:27.001Z</time></trkpt><trkpt lat="43.872441614605926" lon="10.496425680055038"><ele>28.0</ele><time>2026-04-26T10:42:28.001Z</time></trkpt><trkpt lat="43.872564288762106" lon="10.49615578177748"><ele>28.0</ele><time>2026-04-26T10:42:29.001Z</time></trkpt><trkpt lat="43.87268113323996" lon="10.49590827686487"><ele>28.0</ele><time>2026-04-26T10:42:30.001Z</time></trkpt><trkpt lat="43.87278434376344" lon="10.495706109671788"><ele>28.0</ele><time>2026-04-26T10:42:31.001Z</time></trkpt><trkpt lat="43.87286644669163" lon="10.495511833704846"><ele>28.0</ele><time>2026-04-26T10:42:32.001Z</time></trkpt><trkpt lat="43.87297829993786" lon="10.495332627229809"><ele>28.0</ele><time>2026-04-26T10:42:33.001Z</time></trkpt><trkpt lat="43.873075609089355" lon="10.49514106337213"><ele>28.0</ele><time>2026-04-26T10:42:34.001Z</time></trkpt><trkpt lat="43.87317884738687" lon="10.494932725169143"><ele>28.0</ele><time>2026-04-26T10:42:35.001Z</time></trkpt><trkpt lat="43.87328333270478" lon="10.494711690295457"><ele>28.0</ele><time>2026-04-26T10:42:36.001Z</time></trkpt><trkpt lat="43.873371558420196" lon="10.494450329785149"><ele>28.0</ele><time>2026-04-26T10:42:37.001Z</time></trkpt><trkpt lat="43.87345408800998" lon="10.494181497590242"><ele>28.0</ele><time>2026-04-26T10:42:38.001Z</time></trkpt><trkpt lat="43.873553159537714" lon="10.493928917867443"><ele>28.0</ele><time>2026-04-26T10:42:39.001Z</time></trkpt><trkpt lat="43.87364324288284" lon="10.493679897520781"><ele>28.0</ele><time>2026-04-26T10:42:40.001Z</time></trkpt><trkpt lat="43.87373991838479" lon="10.493468242896062"><ele>28.0</ele><time>2026-04-26T10:42:41.001Z</time></trkpt><trkpt lat="43.87386192664341" lon="10.493262550353817"><ele>28.0</ele><time>2026-04-26T10:42:42.001Z</time></trkpt><trkpt lat="43.87401274967835" lon="10.493050128403853"><ele>27.666666666666668</ele><time>2026-04-26T10:42:43.001Z</time></trkpt><trkpt lat="43.874169814773865" lon="10.492834767641423"><ele>27.333333333333336</ele><time>2026-04-26T10:42:44.001Z</time></trkpt><trkpt lat="43.87432773241601" lon="10.492618719947119"><ele>27.0</ele><time>2026-04-26T10:42:45.001Z</time></trkpt><trkpt lat="43.87448542174255" lon="10.49240682323668"><ele>28.666666666666664</ele><time>2026-04-26T10:42:46.001Z</time></trkpt><trkpt lat="43.874649107508525" lon="10.492201961528796"><ele>30.333333333333332</ele><time>2026-04-26T10:42:47.001Z</time></trkpt><trkpt lat="43.87479051336794" lon="10.492005913461918"><ele>32.0</ele><time>2026-04-26T10:42:48.001Z</time></trkpt><trkpt lat="43.87494452453722" lon="10.491859120874247"><ele>32.0</ele><time>2026-04-26T10:42:49.001Z</time></trkpt><trkpt lat="43.87506520954195" lon="10.491665333756586"><ele>32.0</ele><time>2026-04-26T10:42:50.001Z</time></trkpt><trkpt lat="43.87516941400857" lon="10.4914640335562"><ele>32.0</ele><time>2026-04-26T10:42:51.001Z</time></trkpt><trkpt lat="43.875243483475415" lon="10.491237455936067"><ele>32.666666666666664</ele><time>2026-04-26T10:42:52.001Z</time></trkpt><trkpt lat="43.87532754021547" lon="10.491022459992996"><ele>33.333333333333336</ele><time>2026-04-26T10:42:53.001Z</time></trkpt><trkpt lat="43.87542785175639" lon="10.490826016531624"><ele>34.0</ele><time>2026-04-26T10:42:54.001Z</time></trkpt><trkpt lat="43.875554276567264" lon="10.490658423175551"><ele>34.0</ele><time>2026-04-26T10:42:55.001Z</time></trkpt><trkpt lat="43.87571698583325" lon="10.490531016679265"><ele>34.0</ele><time>2026-04-26T10:42:56.001Z</time></trkpt><trkpt lat="43.87588644978155" lon="10.490421801400572"><ele>34.0</ele><time>2026-04-26T10:42:57.001Z</time></trkpt><trkpt lat="43.87604640414022" lon="10.490321672631223"><ele>33.333333333333336</ele><time>2026-04-26T10:42:58.001Z</time></trkpt><trkpt lat="43.87618142783109" lon="10.490182751120647"><ele>32.666666666666664</ele><time>2026-04-26T10:42:59.001Z</time></trkpt><trkpt lat="43.876313673362276" lon="10.49001103350895"><ele>32.0</ele><time>2026-04-26T10:43:00.001Z</time></trkpt><trkpt lat="43.87642964459866" lon="10.489807530425283"><ele>32.0</ele><time>2026-04-26T10:43:01.001Z</time></trkpt><trkpt lat="43.87652279311393" lon="10.489599191490308"><ele>32.0</ele><time>2026-04-26T10:43:02.001Z</time></trkpt><trkpt lat="43.876581254533725" lon="10.489380791681468"><ele>32.0</ele><time>2026-04-26T10:43:03.001Z</time></trkpt><trkpt lat="43.876612606990385" lon="10.489162700225096"><ele>32.25</ele><time>2026-04-26T10:43:04.001Z</time></trkpt><trkpt lat="43.876645488753944" lon="10.488967350058342"><ele>32.5</ele><time>2026-04-26T10:43:05.001Z</time></trkpt><trkpt lat="43.876705312510275" lon="10.488805553498805"><ele>32.75</ele><time>2026-04-26T10:43:06.001Z</time></trkpt><trkpt lat="43.87676412001377" lon="10.488664940185615"><ele>33.0</ele><time>2026-04-26T10:43:07.001Z</time></trkpt><trkpt lat="43.87683203964606" lon="10.488537204012108"><ele>32.5</ele><time>2026-04-26T10:43:08.001Z</time></trkpt><trkpt lat="43.87691227698655" lon="10.488407264460209"><ele>32.0</ele><time>2026-04-26T10:43:09.001Z</time></trkpt><trkpt lat="43.87698074794191" lon="10.488266962430236"><ele>31.5</ele><time>2026-04-26T10:43:10.001Z</time></trkpt><trkpt lat="43.87705308317515" lon="10.488153085330103"><ele>31.0</ele><time>2026-04-26T10:43:11.001Z</time></trkpt><trkpt lat="43.87712381881353" lon="10.488043842991411"><ele>31.0</ele><time>2026-04-26T10:43:12.001Z</time></trkpt><trkpt lat="43.877193235880085" lon="10.48793627859362"><ele>31.0</ele><time>2026-04-26T10:43:13.001Z</time></trkpt><trkpt lat="43.877265420229996" lon="10.487838930855784"><ele>31.0</ele><time>2026-04-26T10:43:14.001Z</time></trkpt><trkpt lat="43.877351046404584" lon="10.487753645660959"><ele>31.0</ele><time>2026-04-26T10:43:15.001Z</time></trkpt><trkpt lat="43.8774508817584" lon="10.487687348915403"><ele>31.0</ele><time>2026-04-26T10:43:16.002Z</time></trkpt><trkpt lat="43.87755923647626" lon="10.487646596926213"><ele>31.0</ele><time>2026-04-26T10:43:17.002Z</time></trkpt><trkpt lat="43.87767145310734" lon="10.487624702343266"><ele>31.0</ele><time>2026-04-26T10:43:18.002Z</time></trkpt><trkpt lat="43.8777745973334" lon="10.48761198593857"><ele>31.0</ele><time>2026-04-26T10:43:19.002Z</time></trkpt><trkpt lat="43.87786970120875" lon="10.487599664136443"><ele>31.0</ele><time>2026-04-26T10:43:20.002Z</time></trkpt><trkpt lat="43.87795777786754" lon="10.487587061111425"><ele>31.0</ele><time>2026-04-26T10:43:21.002Z</time></trkpt><trkpt lat="43.878049848994834" lon="10.487567439626943"><ele>31.0</ele><time>2026-04-26T10:43:22.002Z</time></trkpt><trkpt lat="43.8781527302395" lon="10.487543847030976"><ele>31.0</ele><time>2026-04-26T10:43:22.999Z</time></trkpt><trkpt lat="43.878268097431906" lon="10.487517881086498"><ele>31.0</ele><time>2026-04-26T10:43:23.999Z</time></trkpt><trkpt lat="43.878391929436326" lon="10.487470536989687"><ele>31.0</ele><time>2026-04-26T10:43:24.999Z</time></trkpt><trkpt lat="43.878511783357496" lon="10.487397517056767"><ele>31.25</ele><time>2026-04-26T10:43:25.999Z</time></trkpt><trkpt lat="43.87861901872296" lon="10.487309457318265"><ele>31.5</ele><time>2026-04-26T10:43:26.999Z</time></trkpt><trkpt lat="43.87870812571992" lon="10.487210797095246"><ele>31.75</ele><time>2026-04-26T10:43:27.999Z</time></trkpt><trkpt lat="43.878781484024906" lon="10.487094699450315"><ele>32.0</ele><time>2026-04-26T10:43:28.999Z</time></trkpt><trkpt lat="43.878843148085764" lon="10.48696960429649"><ele>32.0</ele><time>2026-04-26T10:43:29.999Z</time></trkpt><trkpt lat="43.878903574454725" lon="10.486851926593006"><ele>32.0</ele><time>2026-04-26T10:43:30.999Z</time></trkpt><trkpt lat="43.878974483994824" lon="10.486727535793182"><ele>32.0</ele><time>2026-04-26T10:43:31.999Z</time></trkpt><trkpt lat="43.879051999427965" lon="10.486594839772005"><ele>32.0</ele><time>2026-04-26T10:43:32.999Z</time></trkpt><trkpt lat="43.879130470148425" lon="10.486460721448106"><ele>32.0</ele><time>2026-04-26T10:43:33.999Z</time></trkpt><trkpt lat="43.879206321150434" lon="10.486335324064093"><ele>32.0</ele><time>2026-04-26T10:43:34.999Z</time></trkpt><trkpt lat="43.87928625144216" lon="10.486221192037155"><ele>32.0</ele><time>2026-04-26T10:43:35.999Z</time></trkpt><trkpt lat="43.87937785365878" lon="10.486108448447036"><ele>32.0</ele><time>2026-04-26T10:43:37Z</time></trkpt><trkpt lat="43.87948124688758" lon="10.486003335026021"><ele>31.75</ele><time>2026-04-26T10:43:38Z</time></trkpt><trkpt lat="43.87958927715274" lon="10.485898917667914"><ele>31.5</ele><time>2026-04-26T10:43:39Z</time></trkpt><trkpt lat="43.87969982748673" lon="10.485797685755463"><ele>31.25</ele><time>2026-04-26T10:43:40Z</time></trkpt><trkpt lat="43.87982283679159" lon="10.485691108287067"><ele>31.0</ele><time>2026-04-26T10:43:41Z</time></trkpt><trkpt lat="43.87995220638338" lon="10.485590174699569"><ele>31.0</ele><time>2026-04-26T10:43:42Z</time></trkpt><trkpt lat="43.88007538640972" lon="10.48548516352455"><ele>31.0</ele><time>2026-04-26T10:43:43Z</time></trkpt><trkpt lat="43.88019773100094" lon="10.485382501677604"><ele>31.0</ele><time>2026-04-26T10:43:44Z</time></trkpt><trkpt lat="43.880312409213936" lon="10.485280708284998"><ele>31.0</ele><time>2026-04-26T10:43:45Z</time></trkpt><trkpt lat="43.880425472461305" lon="10.48518144671253"><ele>32.0</ele><time>2026-04-26T10:43:46Z</time></trkpt><trkpt lat="43.880542978929206" lon="10.48508805921703"><ele>33.0</ele><time>2026-04-26T10:43:47Z</time></trkpt><trkpt lat="43.880661453806525" lon="10.485001855830383"><ele>34.0</ele><time>2026-04-26T10:43:48Z</time></trkpt><trkpt lat="43.88078190849747" lon="10.484932794426681"><ele>35.0</ele><time>2026-04-26T10:43:49Z</time></trkpt><trkpt lat="43.88089750565258" lon="10.484861859623875"><ele>35.25</ele><time>2026-04-26T10:43:50Z</time></trkpt><trkpt lat="43.88101539481588" lon="10.48479310515081"><ele>35.5</ele><time>2026-04-26T10:43:51Z</time></trkpt><trkpt lat="43.88113215487309" lon="10.484728007563458"><ele>35.75</ele><time>2026-04-26T10:43:52Z</time></trkpt><trkpt lat="43.88125029500543" lon="10.484669877192358"><ele>36.0</ele><time>2026-04-26T10:43:53Z</time></trkpt><trkpt lat="43.88136788237229" lon="10.484614064290174"><ele>36.0</ele><time>2026-04-26T10:43:54Z</time></trkpt><trkpt lat="43.88149047027198" lon="10.484555767556895"><ele>36.0</ele><time>2026-04-26T10:43:55Z</time></trkpt><trkpt lat="43.881611848227585" lon="10.484506030786843"><ele>36.0</ele><time>2026-04-26T10:43:56Z</time></trkpt><trkpt lat="43.881735010335085" lon="10.48449342088686"><ele>36.0</ele><time>2026-04-26T10:43:57Z</time></trkpt><trkpt lat="43.881853339159996" lon="10.484460551731075"><ele>36.0</ele><time>2026-04-26T10:43:58Z</time></trkpt><trkpt lat="43.88197490410847" lon="10.484406209024124"><ele>36.0</ele><time>2026-04-26T10:43:59Z</time></trkpt><trkpt lat="43.882103311111464" lon="10.484385683457885"><ele>36.0</ele><time>2026-04-26T10:44:00Z</time></trkpt><trkpt lat="43.88224116671791" lon="10.484349037167359"><ele>36.0</ele><time>2026-04-26T10:44:01Z</time></trkpt><trkpt lat="43.882393775318185" lon="10.484295831834078"><ele>36.0</ele><time>2026-04-26T10:44:02Z</time></trkpt><trkpt lat="43.88253853459518" lon="10.484230729124008"><ele>36.0</ele><time>2026-04-26T10:44:03Z</time></trkpt><trkpt lat="43.88267052687" lon="10.48416112264433"><ele>36.0</ele><time>2026-04-26T10:44:04Z</time></trkpt><trkpt lat="43.882807730938325" lon="10.484079117149635"><ele>36.0</ele><time>2026-04-26T10:44:05Z</time></trkpt><trkpt lat="43.88295051316925" lon="10.48398262514419"><ele>36.0</ele><time>2026-04-26T10:44:06Z</time></trkpt><trkpt lat="43.88310876482748" lon="10.483904223362819"><ele>36.0</ele><time>2026-04-26T10:44:07Z</time></trkpt><trkpt lat="43.883259863839385" lon="10.483805357187407"><ele>36.0</ele><time>2026-04-26T10:44:08Z</time></trkpt><trkpt lat="43.883414931822664" lon="10.483703894023746"><ele>36.333333333333336</ele><time>2026-04-26T10:44:09Z</time></trkpt><trkpt lat="43.883583559908715" lon="10.483593558332533"><ele>36.66666666666667</ele><time>2026-04-26T10:44:10Z</time></trkpt><trkpt lat="43.88377043351699" lon="10.483469175006634"><ele>37.0</ele><time>2026-04-26T10:44:11Z</time></trkpt><trkpt lat="43.88396462180282" lon="10.48333749882595"><ele>37.0</ele><time>2026-04-26T10:44:12Z</time></trkpt><trkpt lat="43.884157645372134" lon="10.483206827321018"><ele>37.0</ele><time>2026-04-26T10:44:13Z</time></trkpt><trkpt lat="43.884345490349425" lon="10.483079959530992"><ele>37.0</ele><time>2026-04-26T10:44:14Z</time></trkpt><trkpt lat="43.88453620412669" lon="10.482950767319396"><ele>36.66666666666667</ele><time>2026-04-26T10:44:15Z</time></trkpt><trkpt lat="43.884723595651536" lon="10.482822315298762"><ele>36.333333333333336</ele><time>2026-04-26T10:44:16Z</time></trkpt><trkpt lat="43.88490661135778" lon="10.482702112808017"><ele>36.0</ele><time>2026-04-26T10:44:17Z</time></trkpt><trkpt lat="43.88507545172089" lon="10.482562934420704"><ele>36.333333333333336</ele><time>2026-04-26T10:44:18.001Z</time></trkpt><trkpt lat="43.88524834371523" lon="10.482451809651938"><ele>36.66666666666667</ele><time>2026-04-26T10:44:19.001Z</time></trkpt><trkpt lat="43.88542358618155" lon="10.482341316179436"><ele>37.0</ele><time>2026-04-26T10:44:20.001Z</time></trkpt><trkpt lat="43.88559350922215" lon="10.48222023029376"><ele>37.0</ele><time>2026-04-26T10:44:21.001Z</time></trkpt><trkpt lat="43.88576056731659" lon="10.48210691033484"><ele>37.0</ele><time>2026-04-26T10:44:22.001Z</time></trkpt><trkpt lat="43.885929649761366" lon="10.48199005984102"><ele>37.0</ele><time>2026-04-26T10:44:23.001Z</time></trkpt><trkpt lat="43.88609685133079" lon="10.481867695196946"><ele>37.333333333333336</ele><time>2026-04-26T10:44:24.001Z</time></trkpt><trkpt lat="43.88625766377441" lon="10.481728607654942"><ele>37.666666666666664</ele><time>2026-04-26T10:44:25.001Z</time></trkpt><trkpt lat="43.886413330901306" lon="10.481560549465595"><ele>38.0</ele><time>2026-04-26T10:44:26.001Z</time></trkpt><trkpt lat="43.88657177740742" lon="10.481372908593004"><ele>38.33333333333333</ele><time>2026-04-26T10:44:27.001Z</time></trkpt><trkpt lat="43.88673846732664" lon="10.481177006437026"><ele>38.666666666666664</ele><time>2026-04-26T10:44:28.001Z</time></trkpt><trkpt lat="43.88690895331443" lon="10.480979701850872"><ele>39.0</ele><time>2026-04-26T10:44:29.001Z</time></trkpt><trkpt lat="43.887078286017775" lon="10.480780100334092"><ele>39.333333333333336</ele><time>2026-04-26T10:44:30.001Z</time></trkpt><trkpt lat="43.88724283382804" lon="10.480590998864137"><ele>39.66666666666667</ele><time>2026-04-26T10:44:31.001Z</time></trkpt><trkpt lat="43.88739373132809" lon="10.480410372770113"><ele>40.0</ele><time>2026-04-26T10:44:32.001Z</time></trkpt><trkpt lat="43.88752898698022" lon="10.480213630110207"><ele>40.0</ele><time>2026-04-26T10:44:33.001Z</time></trkpt><trkpt lat="43.88765983445017" lon="10.47998648313632"><ele>40.0</ele><time>2026-04-26T10:44:34.001Z</time></trkpt><trkpt lat="43.887783348973606" lon="10.479756236818343"><ele>40.0</ele><time>2026-04-26T10:44:35.001Z</time></trkpt><trkpt lat="43.88791263200444" lon="10.479532845091454"><ele>40.333333333333336</ele><time>2026-04-26T10:44:36.001Z</time></trkpt><trkpt lat="43.888044574150754" lon="10.479322220609134"><ele>40.666666666666664</ele><time>2026-04-26T10:44:37.001Z</time></trkpt><trkpt lat="43.88818554037875" lon="10.479106016548252"><ele>41.0</ele><time>2026-04-26T10:44:38.001Z</time></trkpt><trkpt lat="43.88833688074163" lon="10.47890889369869"><ele>41.0</ele><time>2026-04-26T10:44:39.001Z</time></trkpt><trkpt lat="43.88849360620162" lon="10.478733573258552"><ele>41.0</ele><time>2026-04-26T10:44:40.001Z</time></trkpt><trkpt lat="43.888652116378324" lon="10.478560362845327"><ele>41.0</ele><time>2026-04-26T10:44:41.001Z</time></trkpt><trkpt lat="43.88881016928284" lon="10.478388122124837"><ele>41.0</ele><time>2026-04-26T10:44:42.001Z</time></trkpt><trkpt lat="43.88897678938055" lon="10.478196173940281"><ele>41.0</ele><time>2026-04-26T10:44:43.001Z</time></trkpt><trkpt lat="43.88915428082464" lon="10.47799881938557"><ele>41.0</ele><time>2026-04-26T10:44:44.001Z</time></trkpt><trkpt lat="43.8893393980618" lon="10.47779331460698"><ele>41.0</ele><time>2026-04-26T10:44:45.001Z</time></trkpt><trkpt lat="43.88952041359983" lon="10.477594511900273"><ele>41.0</ele><time>2026-04-26T10:44:46.001Z</time></trkpt><trkpt lat="43.88969551259913" lon="10.477393169109257"><ele>41.0</ele><time>2026-04-26T10:44:47.001Z</time></trkpt><trkpt lat="43.88986963611906" lon="10.477197867127597"><ele>41.0</ele><time>2026-04-26T10:44:48.001Z</time></trkpt><trkpt lat="43.890048758662346" lon="10.477000466596921"><ele>41.5</ele><time>2026-04-26T10:44:49.001Z</time></trkpt><trkpt lat="43.89023143409276" lon="10.476802967245705"><ele>42.0</ele><time>2026-04-26T10:44:50.001Z</time></trkpt><trkpt lat="43.890413886093754" lon="10.476603009098252"><ele>42.0</ele><time>2026-04-26T10:44:51.001Z</time></trkpt><trkpt lat="43.89059132230646" lon="10.47640885731131"><ele>42.0</ele><time>2026-04-26T10:44:52.001Z</time></trkpt><trkpt lat="43.890768543872355" lon="10.47621555195231"><ele>43.333333333333336</ele><time>2026-04-26T10:44:53.001Z</time></trkpt><trkpt lat="43.8909311607785" lon="10.476034777927149"><ele>44.66666666666667</ele><time>2026-04-26T10:44:54.001Z</time></trkpt><trkpt lat="43.89108656412277" lon="10.4758674360919"><ele>46.0</ele><time>2026-04-26T10:44:55.001Z</time></trkpt><trkpt lat="43.89123303604798" lon="10.475716885029323"><ele>46.0</ele><time>2026-04-26T10:44:56.001Z</time></trkpt><trkpt lat="43.891386424691575" lon="10.475607891312238"><ele>46.0</ele><time>2026-04-26T10:44:57.001Z</time></trkpt><trkpt lat="43.891536546452905" lon="10.475504172425417"><ele>46.0</ele><time>2026-04-26T10:44:58.001Z</time></trkpt><trkpt lat="43.891696185282264" lon="10.475421601517509"><ele>47.333333333333336</ele><time>2026-04-26T10:44:59.001Z</time></trkpt><trkpt lat="43.89186990443487" lon="10.475389536698817"><ele>48.66666666666667</ele><time>2026-04-26T10:45:00.001Z</time></trkpt><trkpt lat="43.89206707850924" lon="10.475374036893875"><ele>50.0</ele><time>2026-04-26T10:45:01.001Z</time></trkpt><trkpt lat="43.892263529767014" lon="10.475457827887327"><ele>50.0</ele><time>2026-04-26T10:45:02.001Z</time></trkpt><trkpt lat="43.892464933759676" lon="10.475567962067045"><ele>50.0</ele><time>2026-04-26T10:45:03.001Z</time></trkpt><trkpt lat="43.89265991231869" lon="10.475699229912422"><ele>50.0</ele><time>2026-04-26T10:45:04.001Z</time></trkpt><trkpt lat="43.89283665946662" lon="10.47579734464167"><ele>49.66666666666667</ele><time>2026-04-26T10:45:05.001Z</time></trkpt><trkpt lat="43.89300849711174" lon="10.475899284007896"><ele>49.33333333333333</ele><time>2026-04-26T10:45:06.001Z</time></trkpt><trkpt lat="43.89317953363443" lon="10.475961135855684"><ele>49.0</ele><time>2026-04-26T10:45:07.001Z</time></trkpt><trkpt lat="43.8933516446894" lon="10.475970367217235"><ele>49.0</ele><time>2026-04-26T10:45:08.001Z</time></trkpt><trkpt lat="43.89352960244827" lon="10.475927264492851"><ele>49.0</ele><time>2026-04-26T10:45:09.001Z</time></trkpt><trkpt lat="43.893697248191565" lon="10.47582827498261"><ele>49.0</ele><time>2026-04-26T10:45:10.001Z</time></trkpt><trkpt lat="43.89385992299993" lon="10.475670694668954"><ele>49.0</ele><time>2026-04-26T10:45:11.001Z</time></trkpt><trkpt lat="43.894017086160076" lon="10.47547188825286"><ele>49.0</ele><time>2026-04-26T10:45:12.001Z</time></trkpt><trkpt lat="43.894167402124694" lon="10.475258641768251"><ele>49.0</ele><time>2026-04-26T10:45:13.002Z</time></trkpt><trkpt lat="43.894325155164566" lon="10.475063795985063"><ele>48.666666666666664</ele><time>2026-04-26T10:45:14.002Z</time></trkpt><trkpt lat="43.894480122066874" lon="10.474843457299068"><ele>48.33333333333333</ele><time>2026-04-26T10:45:15.002Z</time></trkpt><trkpt lat="43.89463574688009" lon="10.474638757673647"><ele>48.0</ele><time>2026-04-26T10:45:16.002Z</time></trkpt><trkpt lat="43.89479905663473" lon="10.474429837363816"><ele>48.0</ele><time>2026-04-26T10:45:17.002Z</time></trkpt><trkpt lat="43.8949602073634" lon="10.474220811759906"><ele>48.0</ele><time>2026-04-26T10:45:18.002Z</time></trkpt><trkpt lat="43.8951227292321" lon="10.473994559662055"><ele>48.33333333333333</ele><time>2026-04-26T10:45:19.002Z</time></trkpt><trkpt lat="43.89527985521241" lon="10.473761112308969"><ele>48.666666666666664</ele><time>2026-04-26T10:45:20.002Z</time></trkpt><trkpt lat="43.895446803034304" lon="10.473566664986551"><ele>49.0</ele><time>2026-04-26T10:45:21.002Z</time></trkpt><trkpt lat="43.895593124028835" lon="10.47336460931235"><ele>49.0</ele><time>2026-04-26T10:45:22.002Z</time></trkpt><trkpt lat="43.89566629745934" lon="10.473102691650938"><ele>49.0</ele><time>2026-04-26T10:45:23.002Z</time></trkpt><trkpt lat="43.89578588594789" lon="10.472902841783977"><ele>49.0</ele><time>2026-04-26T10:45:24.002Z</time></trkpt><trkpt lat="43.89590260856066" lon="10.472702522295485"><ele>50.666666666666664</ele><time>2026-04-26T10:45:25.002Z</time></trkpt><trkpt lat="43.896012154664014" lon="10.472516255871607"><ele>52.33333333333333</ele><time>2026-04-26T10:45:26.002Z</time></trkpt><trkpt lat="43.89611314114878" lon="10.472340585311915"><ele>54.0</ele><time>2026-04-26T10:45:27.002Z</time></trkpt><trkpt lat="43.89621127589254" lon="10.472169470248717"><ele>54.66666666666667</ele><time>2026-04-26T10:45:28.002Z</time></trkpt><trkpt lat="43.89631380370174" lon="10.471996014719625"><ele>55.333333333333336</ele><time>2026-04-26T10:45:28.999Z</time></trkpt><trkpt lat="43.89641353410295" lon="10.471820455567398"><ele>56.0</ele><time>2026-04-26T10:45:29.999Z</time></trkpt><trkpt lat="43.89651880386708" lon="10.471632403401772"><ele>56.0</ele><time>2026-04-26T10:45:30.999Z</time></trkpt><trkpt lat="43.89662877764007" lon="10.471447053795448"><ele>56.0</ele><time>2026-04-26T10:45:31.999Z</time></trkpt><trkpt lat="43.89673955163765" lon="10.471255068726977"><ele>56.0</ele><time>2026-04-26T10:45:32.999Z</time></trkpt><trkpt lat="43.896854521590264" lon="10.471060794132471"><ele>56.66666666666667</ele><time>2026-04-26T10:45:33.999Z</time></trkpt><trkpt lat="43.896970149150285" lon="10.470863421451186"><ele>57.33333333333333</ele><time>2026-04-26T10:45:34.999Z</time></trkpt><trkpt lat="43.897088172278124" lon="10.470659882728159"><ele>58.0</ele><time>2026-04-26T10:45:35.999Z</time></trkpt><trkpt lat="43.897201715601575" lon="10.470459436708913"><ele>57.666666666666664</ele><time>2026-04-26T10:45:36.999Z</time></trkpt><trkpt lat="43.897321891861246" lon="10.470259643873822"><ele>57.33333333333333</ele><time>2026-04-26T10:45:37.999Z</time></trkpt><trkpt lat="43.897425087054295" lon="10.470072283110781"><ele>57.0</ele><time>2026-04-26T10:45:38.999Z</time></trkpt><trkpt lat="43.89753804990834" lon="10.469870801130245"><ele>59.0</ele><time>2026-04-26T10:45:39.999Z</time></trkpt><trkpt lat="43.897669512253785" lon="10.469686619151977"><ele>61.0</ele><time>2026-04-26T10:45:40.999Z</time></trkpt><trkpt lat="43.89779193690341" lon="10.469473101889085"><ele>63.0</ele><time>2026-04-26T10:45:41.999Z</time></trkpt><trkpt lat="43.89790687828136" lon="10.46926705551251"><ele>63.0</ele><time>2026-04-26T10:45:42.999Z</time></trkpt><trkpt lat="43.89801638909115" lon="10.469075793624745"><ele>63.0</ele><time>2026-04-26T10:45:43.999Z</time></trkpt><trkpt lat="43.898122679307235" lon="10.468883315224927"><ele>63.0</ele><time>2026-04-26T10:45:44.999Z</time></trkpt><trkpt lat="43.898217345916166" lon="10.468697698642087"><ele>64.66666666666667</ele><time>2026-04-26T10:45:45.999Z</time></trkpt><trkpt lat="43.89828405306995" lon="10.468483562324476"><ele>66.33333333333334</ele><time>2026-04-26T10:45:46.999Z</time></trkpt><trkpt lat="43.89831153049391" lon="10.468235820845889"><ele>68.0</ele><time>2026-04-26T10:45:47.999Z</time></trkpt><trkpt lat="43.89831452541505" lon="10.468011700183512"><ele>68.5</ele><time>2026-04-26T10:45:48.999Z</time></trkpt><trkpt lat="43.898322023816355" lon="10.467811645648556"><ele>69.0</ele><time>2026-04-26T10:45:49.999Z</time></trkpt><trkpt lat="43.89834247326124" lon="10.467625401841154"><ele>69.5</ele><time>2026-04-26T10:45:51Z</time></trkpt><trkpt lat="43.89837904142221" lon="10.467447383062263"><ele>70.0</ele><time>2026-04-26T10:45:52Z</time></trkpt><trkpt lat="43.89843407614423" lon="10.467272490764238"><ele>73.33333333333333</ele><time>2026-04-26T10:45:53Z</time></trkpt><trkpt lat="43.89851071614749" lon="10.467103608259736"><ele>76.66666666666667</ele><time>2026-04-26T10:45:54Z</time></trkpt><trkpt lat="43.89861849546478" lon="10.466945489262294"><ele>80.0</ele><time>2026-04-26T10:45:55Z</time></trkpt><trkpt lat="43.898720620539436" lon="10.466789594557213"><ele>80.0</ele><time>2026-04-26T10:45:56Z</time></trkpt><trkpt lat="43.89882124399663" lon="10.466617231605014"><ele>80.0</ele><time>2026-04-26T10:45:57Z</time></trkpt><trkpt lat="43.8989174859026" lon="10.466464950350806"><ele>80.0</ele><time>2026-04-26T10:45:58Z</time></trkpt><trkpt lat="43.89901342176794" lon="10.46630404942223"><ele>75.0</ele><time>2026-04-26T10:45:59Z</time></trkpt><trkpt lat="43.89909285387936" lon="10.466106754383603"><ele>70.0</ele><time>2026-04-26T10:46:00Z</time></trkpt><trkpt lat="43.899160426663045" lon="10.46588508901769"><ele>65.0</ele><time>2026-04-26T10:46:01Z</time></trkpt><trkpt lat="43.89922523057357" lon="10.465659333708832"><ele>73.66666666666667</ele><time>2026-04-26T10:46:02Z</time></trkpt><trkpt lat="43.89929225420347" lon="10.465452543074727"><ele>82.33333333333333</ele><time>2026-04-26T10:46:03Z</time></trkpt><trkpt lat="43.899355850260136" lon="10.465225239397077"><ele>91.0</ele><time>2026-04-26T10:46:04Z</time></trkpt><trkpt lat="43.89941654221323" lon="10.46499993682832"><ele>91.0</ele><time>2026-04-26T10:46:05Z</time></trkpt><trkpt lat="43.899476791860124" lon="10.464795898305452"><ele>91.0</ele><time>2026-04-26T10:46:06Z</time></trkpt><trkpt lat="43.89953976896368" lon="10.464599668547352"><ele>91.0</ele><time>2026-04-26T10:46:07Z</time></trkpt><trkpt lat="43.89959114053495" lon="10.464396698327644"><ele>84.0</ele><time>2026-04-26T10:46:08Z</time></trkpt><trkpt lat="43.89965090885155" lon="10.464204084600047"><ele>77.0</ele><time>2026-04-26T10:46:09Z</time></trkpt><trkpt lat="43.89970482437963" lon="10.46400112728291"><ele>70.0</ele><time>2026-04-26T10:46:10Z</time></trkpt><trkpt lat="43.899765184135454" lon="10.463799398353393"><ele>66.66666666666666</ele><time>2026-04-26T10:46:11Z</time></trkpt><trkpt lat="43.89983110060444" lon="10.463589331425311"><ele>63.33333333333333</ele><time>2026-04-26T10:46:12Z</time></trkpt><trkpt lat="43.89989942099652" lon="10.463377832264019"><ele>60.0</ele><time>2026-04-26T10:46:13Z</time></trkpt><trkpt lat="43.899979073516114" lon="10.463162629576354"><ele>59.66666666666667</ele><time>2026-04-26T10:46:14Z</time></trkpt><trkpt lat="43.900064805176115" lon="10.462934677138918"><ele>59.333333333333336</ele><time>2026-04-26T10:46:15Z</time></trkpt><trkpt lat="43.90015536461253" lon="10.462719238610886"><ele>59.0</ele><time>2026-04-26T10:46:16Z</time></trkpt><trkpt lat="43.900245877806526" lon="10.462517435316848"><ele>61.333333333333336</ele><time>2026-04-26T10:46:17Z</time></trkpt><trkpt lat="43.90033842571969" lon="10.46232236525179"><ele>63.66666666666667</ele><time>2026-04-26T10:46:18Z</time></trkpt><trkpt lat="43.90043728792631" lon="10.462125710235092"><ele>66.0</ele><time>2026-04-26T10:46:19Z</time></trkpt><trkpt lat="43.90054056198" lon="10.461932297049305"><ele>66.0</ele><time>2026-04-26T10:46:20Z</time></trkpt><trkpt lat="43.90064999104553" lon="10.461743812309896"><ele>66.0</ele><time>2026-04-26T10:46:21Z</time></trkpt><trkpt lat="43.90076413412803" lon="10.461561132936236"><ele>66.0</ele><time>2026-04-26T10:46:22Z</time></trkpt><trkpt lat="43.90087961874245" lon="10.461384207908859"><ele>67.33333333333333</ele><time>2026-04-26T10:46:23Z</time></trkpt><trkpt lat="43.900996068787315" lon="10.461213463431642"><ele>68.66666666666666</ele><time>2026-04-26T10:46:24Z</time></trkpt><trkpt lat="43.90112111109897" lon="10.461035667084275"><ele>70.0</ele><time>2026-04-26T10:46:25Z</time></trkpt><trkpt lat="43.90125508914656" lon="10.460857523866473"><ele>70.0</ele><time>2026-04-26T10:46:26Z</time></trkpt><trkpt lat="43.901396212763935" lon="10.460669176528226"><ele>70.0</ele><time>2026-04-26T10:46:27Z</time></trkpt><trkpt lat="43.901531184965926" lon="10.46049994829425"><ele>70.0</ele><time>2026-04-26T10:46:28.001Z</time></trkpt><trkpt lat="43.90165236238323" lon="10.460339750880214"><ele>73.66666666666666</ele><time>2026-04-26T10:46:29.001Z</time></trkpt><trkpt lat="43.90176814481469" lon="10.460190396042522"><ele>77.33333333333333</ele><time>2026-04-26T10:46:30.001Z</time></trkpt><trkpt lat="43.90188979361811" lon="10.460037471346444"><ele>81.0</ele><time>2026-04-26T10:46:31.001Z</time></trkpt><trkpt lat="43.90201569122931" lon="10.459878243930975"><ele>81.0</ele><time>2026-04-26T10:46:32.001Z</time></trkpt><trkpt lat="43.90214343412905" lon="10.459712801452023"><ele>81.0</ele><time>2026-04-26T10:46:33.001Z</time></trkpt><trkpt lat="43.90227252512425" lon="10.459551065675022"><ele>81.0</ele><time>2026-04-26T10:46:34.001Z</time></trkpt><trkpt lat="43.902402566314564" lon="10.45938501927371"><ele>77.33333333333333</ele><time>2026-04-26T10:46:35.001Z</time></trkpt><trkpt lat="43.90253241061771" lon="10.459215375245154"><ele>73.66666666666666</ele><time>2026-04-26T10:46:36.001Z</time></trkpt><trkpt lat="43.90266338865342" lon="10.45904378668386"><ele>70.0</ele><time>2026-04-26T10:46:37.001Z</time></trkpt><trkpt lat="43.90280026869042" lon="10.458872420013968"><ele>72.33333333333333</ele><time>2026-04-26T10:46:38.001Z</time></trkpt><trkpt lat="43.902934720951144" lon="10.458701195920932"><ele>74.66666666666667</ele><time>2026-04-26T10:46:39.001Z</time></trkpt><trkpt lat="43.903070951300606" lon="10.45852910408713"><ele>77.0</ele><time>2026-04-26T10:46:40.001Z</time></trkpt><trkpt lat="43.903208139294705" lon="10.458355197099866"><ele>77.0</ele><time>2026-04-26T10:46:41.001Z</time></trkpt><trkpt lat="43.90334937297908" lon="10.458176033686124"><ele>77.0</ele><time>2026-04-26T10:46:42.001Z</time></trkpt><trkpt lat="43.90349330427113" lon="10.45799681849958"><ele>77.0</ele><time>2026-04-26T10:46:43.001Z</time></trkpt><trkpt lat="43.90363788150932" lon="10.457819270768153"><ele>77.0</ele><time>2026-04-26T10:46:44.001Z</time></trkpt><trkpt lat="43.90377725683475" lon="10.457646055140252"><ele>77.0</ele><time>2026-04-26T10:46:45.001Z</time></trkpt><trkpt lat="43.90391117968677" lon="10.457472893031232"><ele>77.0</ele><time>2026-04-26T10:46:46.001Z</time></trkpt><trkpt lat="43.90403946003441" lon="10.457295329883408"><ele>77.0</ele><time>2026-04-26T10:46:47.001Z</time></trkpt><trkpt lat="43.904150853929046" lon="10.457135660315807"><ele>77.0</ele><time>2026-04-26T10:46:48.001Z</time></trkpt><trkpt lat="43.904255675626516" lon="10.456985760423349"><ele>77.0</ele><time>2026-04-26T10:46:49.001Z</time></trkpt><trkpt lat="43.90436735614162" lon="10.456835322874895"><ele>81.33333333333334</ele><time>2026-04-26T10:46:50.001Z</time></trkpt><trkpt lat="43.90447048562795" lon="10.456672929725709"><ele>85.66666666666667</ele><time>2026-04-26T10:46:51.001Z</time></trkpt><trkpt lat="43.904568873718354" lon="10.456516912519094"><ele>90.0</ele><time>2026-04-26T10:46:52.001Z</time></trkpt><trkpt lat="43.9046561989527" lon="10.456337850067419"><ele>86.33333333333333</ele><time>2026-04-26T10:46:53.001Z</time></trkpt><trkpt lat="43.904706641852286" lon="10.456147544754097"><ele>82.66666666666666</ele><time>2026-04-26T10:46:54.001Z</time></trkpt><trkpt lat="43.90474139128061" lon="10.45593628483825"><ele>79.0</ele><time>2026-04-26T10:46:55.001Z</time></trkpt><trkpt lat="43.90476438448421" lon="10.455707206168194"><ele>79.0</ele><time>2026-04-26T10:46:56.001Z</time></trkpt><trkpt lat="43.90478854618955" lon="10.455472089930737"><ele>79.0</ele><time>2026-04-26T10:46:57.001Z</time></trkpt><trkpt lat="43.904819249885726" lon="10.455245886342086"><ele>79.0</ele><time>2026-04-26T10:46:58.001Z</time></trkpt><trkpt lat="43.90484947149266" lon="10.455031429039245"><ele>78.0</ele><time>2026-04-26T10:46:59.001Z</time></trkpt><trkpt lat="43.90488047883286" lon="10.454825961586153"><ele>77.0</ele><time>2026-04-26T10:47:00.001Z</time></trkpt><trkpt lat="43.90490570292514" lon="10.454624405206227"><ele>76.0</ele><time>2026-04-26T10:47:01.001Z</time></trkpt><trkpt lat="43.90492819833866" lon="10.454424102061353"><ele>75.0</ele><time>2026-04-26T10:47:02.001Z</time></trkpt><trkpt lat="43.904962854770616" lon="10.454208201823219"><ele>75.0</ele><time>2026-04-26T10:47:03.001Z</time></trkpt><trkpt lat="43.90499356509929" lon="10.454000928038099"><ele>75.0</ele><time>2026-04-26T10:47:04.001Z</time></trkpt><trkpt lat="43.90502091638191" lon="10.453789633539067"><ele>75.0</ele><time>2026-04-26T10:47:05.001Z</time></trkpt><trkpt lat="43.90504375694809" lon="10.45357529181932"><ele>74.33333333333333</ele><time>2026-04-26T10:47:06.001Z</time></trkpt><trkpt lat="43.905074486386894" lon="10.453358004237515"><ele>73.66666666666666</ele><time>2026-04-26T10:47:07.001Z</time></trkpt><trkpt lat="43.905101210332425" lon="10.453147419451971"><ele>73.0</ele><time>2026-04-26T10:47:08.001Z</time></trkpt><trkpt lat="43.905126111386494" lon="10.45294716720862"><ele>79.33333333333333</ele><time>2026-04-26T10:47:09.001Z</time></trkpt><trkpt lat="43.90516010994078" lon="10.452745252155616"><ele>85.66666666666667</ele><time>2026-04-26T10:47:10.001Z</time></trkpt><trkpt lat="43.905207688912796" lon="10.452542852064836"><ele>92.0</ele><time>2026-04-26T10:47:11.001Z</time></trkpt><trkpt lat="43.90526758683349" lon="10.452337365080695"><ele>92.0</ele><time>2026-04-26T10:47:12.001Z</time></trkpt><trkpt lat="43.90532371561336" lon="10.452136851929808"><ele>92.0</ele><time>2026-04-26T10:47:13.001Z</time></trkpt><trkpt lat="43.90538291838046" lon="10.451926305617327"><ele>92.0</ele><time>2026-04-26T10:47:14.001Z</time></trkpt><trkpt lat="43.905416877939096" lon="10.451696855198128"><ele>91.33333333333334</ele><time>2026-04-26T10:47:15.001Z</time></trkpt><trkpt lat="43.905408150631175" lon="10.451454297381115"><ele>90.66666666666667</ele><time>2026-04-26T10:47:16.002Z</time></trkpt><trkpt lat="43.90536874574973" lon="10.45122547531899"><ele>90.0</ele><time>2026-04-26T10:47:17.002Z</time></trkpt><trkpt lat="43.905317781187115" lon="10.451009916521201"><ele>90.0</ele><time>2026-04-26T10:47:18.002Z</time></trkpt><trkpt lat="43.90528320976136" lon="10.450817040159713"><ele>90.0</ele><time>2026-04-26T10:47:19.002Z</time></trkpt><trkpt lat="43.9052530937821" lon="10.450638131435376"><ele>90.0</ele><time>2026-04-26T10:47:20.002Z</time></trkpt><trkpt lat="43.905227699535565" lon="10.450460495155228"><ele>90.0</ele><time>2026-04-26T10:47:21.002Z</time></trkpt><trkpt lat="43.90520535946445" lon="10.450274539285783"><ele>88.5</ele><time>2026-04-26T10:47:22.002Z</time></trkpt><trkpt lat="43.90518738054509" lon="10.450094696763104"><ele>87.0</ele><time>2026-04-26T10:47:23.002Z</time></trkpt><trkpt lat="43.905191191297675" lon="10.449909024671951"><ele>85.5</ele><time>2026-04-26T10:47:24.002Z</time></trkpt><trkpt lat="43.90520176681308" lon="10.449744523409898"><ele>84.0</ele><time>2026-04-26T10:47:25.002Z</time></trkpt><trkpt lat="43.90523318667515" lon="10.449576429381935"><ele>82.5</ele><time>2026-04-26T10:47:26.002Z</time></trkpt><trkpt lat="43.905284822518645" lon="10.44940149188172"><ele>81.0</ele><time>2026-04-26T10:47:27.002Z</time></trkpt><trkpt lat="43.90535890840345" lon="10.449227762484721"><ele>79.5</ele><time>2026-04-26T10:47:28.002Z</time></trkpt><trkpt lat="43.90545793706892" lon="10.449077234180283"><ele>78.0</ele><time>2026-04-26T10:47:29.002Z</time></trkpt><trkpt lat="43.905559149982196" lon="10.4489345877899"><ele>78.0</ele><time>2026-04-26T10:47:30.002Z</time></trkpt><trkpt lat="43.90566716657058" lon="10.448799911584631"><ele>78.0</ele><time>2026-04-26T10:47:31.002Z</time></trkpt><trkpt lat="43.90578251908049" lon="10.448681898525164"><ele>78.0</ele><time>2026-04-26T10:47:32.002Z</time></trkpt><trkpt lat="43.90590582548535" lon="10.448580848421194"><ele>78.0</ele><time>2026-04-26T10:47:33.002Z</time></trkpt><trkpt lat="43.90605150485912" lon="10.448487821365461"><ele>81.0</ele><time>2026-04-26T10:47:34.002Z</time></trkpt><trkpt lat="43.90620110025166" lon="10.448398034368333"><ele>84.0</ele><time>2026-04-26T10:47:34.999Z</time></trkpt><trkpt lat="43.90632531600909" lon="10.44831699511964"><ele>87.0</ele><time>2026-04-26T10:47:35.999Z</time></trkpt><trkpt lat="43.90644911536087" lon="10.448221848405206"><ele>90.0</ele><time>2026-04-26T10:47:36.999Z</time></trkpt><trkpt lat="43.90657089287877" lon="10.448118122976437"><ele>90.0</ele><time>2026-04-26T10:47:37.999Z</time></trkpt><trkpt lat="43.90667489373842" lon="10.448020765600718"><ele>90.0</ele><time>2026-04-26T10:47:38.999Z</time></trkpt><trkpt lat="43.906768771653944" lon="10.447909952849095"><ele>90.0</ele><time>2026-04-26T10:47:39.999Z</time></trkpt><trkpt lat="43.90684995455809" lon="10.447798502564833"><ele>90.0</ele><time>2026-04-26T10:47:40.999Z</time></trkpt><trkpt lat="43.906916879239795" lon="10.447661505063332"><ele>88.0</ele><time>2026-04-26T10:47:41.999Z</time></trkpt><trkpt lat="43.90695698052094" lon="10.44749852285343"><ele>86.0</ele><time>2026-04-26T10:47:42.999Z</time></trkpt><trkpt lat="43.906979448495825" lon="10.447316801912987"><ele>84.0</ele><time>2026-04-26T10:47:43.999Z</time></trkpt><trkpt lat="43.90697995413491" lon="10.447122894341542"><ele>82.0</ele><time>2026-04-26T10:47:44.999Z</time></trkpt><trkpt lat="43.90696678273291" lon="10.446923184776649"><ele>80.5</ele><time>2026-04-26T10:47:45.999Z</time></trkpt><trkpt lat="43.9069555406353" lon="10.446721215689278"><ele>79.0</ele><time>2026-04-26T10:47:47Z</time></trkpt><trkpt lat="43.90694834154855" lon="10.446525570104724"><ele>77.5</ele><time>2026-04-26T10:47:48Z</time></trkpt><trkpt lat="43.90694178603539" lon="10.446324128001647"><ele>76.0</ele><time>2026-04-26T10:47:49Z</time></trkpt><trkpt lat="43.90693560610171" lon="10.446128962132834"><ele>76.0</ele><time>2026-04-26T10:47:50Z</time></trkpt><trkpt lat="43.90693262445424" lon="10.445942185743169"><ele>76.0</ele><time>2026-04-26T10:47:51Z</time></trkpt><trkpt lat="43.90692812335495" lon="10.445767234564766"><ele>76.0</ele><time>2026-04-26T10:47:52Z</time></trkpt><trkpt lat="43.90693543510102" lon="10.445604044319948"><ele>76.0</ele><time>2026-04-26T10:47:53Z</time></trkpt><trkpt lat="43.906957219852316" lon="10.445451168727656"><ele>76.0</ele><time>2026-04-26T10:47:54Z</time></trkpt><trkpt lat="43.90699852047348" lon="10.445297367783821"><ele>76.0</ele><time>2026-04-26T10:47:55Z</time></trkpt><trkpt lat="43.90705528444337" lon="10.44516129102808"><ele>76.0</ele><time>2026-04-26T10:47:56Z</time></trkpt><trkpt lat="43.907135258079975" lon="10.445033315255591"><ele>76.0</ele><time>2026-04-26T10:47:57Z</time></trkpt><trkpt lat="43.90722366866273" lon="10.44492590293381"><ele>76.0</ele><time>2026-04-26T10:47:58Z</time></trkpt><trkpt lat="43.907307486644726" lon="10.444837056782502"><ele>76.0</ele><time>2026-04-26T10:47:59Z</time></trkpt><trkpt lat="43.90738669381412" lon="10.444764628804966"><ele>76.0</ele><time>2026-04-26T10:48:00Z</time></trkpt><trkpt lat="43.90746224778282" lon="10.444672065568616"><ele>76.0</ele><time>2026-04-26T10:48:01Z</time></trkpt><trkpt lat="43.9075236378707" lon="10.444549808492505"><ele>76.0</ele><time>2026-04-26T10:48:02Z</time></trkpt><trkpt lat="43.90756595758069" lon="10.444398251279006"><ele>76.5</ele><time>2026-04-26T10:48:03Z</time></trkpt><trkpt lat="43.90758467533228" lon="10.444221768991854"><ele>77.0</ele><time>2026-04-26T10:48:04Z</time></trkpt><trkpt lat="43.90760325720309" lon="10.444027551249084"><ele>77.5</ele><time>2026-04-26T10:48:05Z</time></trkpt><trkpt lat="43.90761843334674" lon="10.443828148726142"><ele>78.0</ele><time>2026-04-26T10:48:06Z</time></trkpt><trkpt lat="43.907642764556336" lon="10.443618643323829"><ele>78.66666666666667</ele><time>2026-04-26T10:48:07Z</time></trkpt><trkpt lat="43.907671391135786" lon="10.443397793564694"><ele>79.33333333333334</ele><time>2026-04-26T10:48:08Z</time></trkpt><trkpt lat="43.907704244513795" lon="10.443170938346874"><ele>80.0</ele><time>2026-04-26T10:48:09Z</time></trkpt><trkpt lat="43.90774605715109" lon="10.442940921841721"><ele>80.33333333333334</ele><time>2026-04-26T10:48:10Z</time></trkpt><trkpt lat="43.90780233063218" lon="10.442732276591125"><ele>80.66666666666667</ele><time>2026-04-26T10:48:11Z</time></trkpt><trkpt lat="43.907865747214416" lon="10.442525700510979"><ele>81.0</ele><time>2026-04-26T10:48:12Z</time></trkpt><trkpt lat="43.90792637796531" lon="10.442319095440773"><ele>81.0</ele><time>2026-04-26T10:48:13Z</time></trkpt><trkpt lat="43.90798839561377" lon="10.442092015602721"><ele>81.0</ele><time>2026-04-26T10:48:14Z</time></trkpt><trkpt lat="43.908050561547604" lon="10.441888884886335"><ele>81.0</ele><time>2026-04-26T10:48:15Z</time></trkpt><trkpt lat="43.908103697935125" lon="10.441705710714768"><ele>81.0</ele><time>2026-04-26T10:48:16Z</time></trkpt><trkpt lat="43.90815987354121" lon="10.44152221193306"><ele>81.0</ele><time>2026-04-26T10:48:17Z</time></trkpt><trkpt lat="43.90820632392179" lon="10.441340986203585"><ele>81.0</ele><time>2026-04-26T10:48:18Z</time></trkpt><trkpt lat="43.90824558952295" lon="10.441158545283088"><ele>81.0</ele><time>2026-04-26T10:48:19Z</time></trkpt><trkpt lat="43.90828187926613" lon="10.440976447926266"><ele>81.0</ele><time>2026-04-26T10:48:20Z</time></trkpt><trkpt lat="43.90831993356018" lon="10.440799127469004"><ele>81.0</ele><time>2026-04-26T10:48:21Z</time></trkpt><trkpt lat="43.90835674007853" lon="10.44062232718952"><ele>81.0</ele><time>2026-04-26T10:48:22Z</time></trkpt><trkpt lat="43.90839555945279" lon="10.44045281149291"><ele>81.0</ele><time>2026-04-26T10:48:23.001Z</time></trkpt><trkpt lat="43.90843318889729" lon="10.440268592808748"><ele>81.5</ele><time>2026-04-26T10:48:24.001Z</time></trkpt><trkpt lat="43.90847651658542" lon="10.440084595234127"><ele>82.0</ele><time>2026-04-26T10:48:25.001Z</time></trkpt><trkpt lat="43.908532454043026" lon="10.439898095469262"><ele>82.5</ele><time>2026-04-26T10:48:26.001Z</time></trkpt><trkpt lat="43.90860726219705" lon="10.439708643434402"><ele>83.0</ele><time>2026-04-26T10:48:27.001Z</time></trkpt><trkpt lat="43.90868633499266" lon="10.439512205688036"><ele>83.0</ele><time>2026-04-26T10:48:28.001Z</time></trkpt><trkpt lat="43.908770000352206" lon="10.439320874324485"><ele>83.0</ele><time>2026-04-26T10:48:29.001Z</time></trkpt><trkpt lat="43.90884971173475" lon="10.439137575228761"><ele>83.0</ele><time>2026-04-26T10:48:30.001Z</time></trkpt><trkpt lat="43.90892580301455" lon="10.438967129710052"><ele>83.0</ele><time>2026-04-26T10:48:31.001Z</time></trkpt><trkpt lat="43.90900185820261" lon="10.438807660821348"><ele>83.0</ele><time>2026-04-26T10:48:32.001Z</time></trkpt><trkpt lat="43.90909013448759" lon="10.43864916529625"><ele>83.0</ele><time>2026-04-26T10:48:33.001Z</time></trkpt><trkpt lat="43.90918445647355" lon="10.43848910402456"><ele>83.0</ele><time>2026-04-26T10:48:34.001Z</time></trkpt><trkpt lat="43.909278452719036" lon="10.438322968148432"><ele>83.66666666666667</ele><time>2026-04-26T10:48:35.001Z</time></trkpt><trkpt lat="43.90935687816474" lon="10.438149862528144"><ele>84.33333333333333</ele><time>2026-04-26T10:48:36.001Z</time></trkpt><trkpt lat="43.90941345814318" lon="10.437959368625744"><ele>85.0</ele><time>2026-04-26T10:48:37.001Z</time></trkpt><trkpt lat="43.909458261029854" lon="10.437738454525748"><ele>85.0</ele><time>2026-04-26T10:48:38.001Z</time></trkpt><trkpt lat="43.90949352050617" lon="10.437498881331017"><ele>85.0</ele><time>2026-04-26T10:48:39.001Z</time></trkpt><trkpt lat="43.909523406165015" lon="10.437265935215278"><ele>85.0</ele><time>2026-04-26T10:48:40.001Z</time></trkpt><trkpt lat="43.90955167727879" lon="10.437042056755585"><ele>84.0</ele><time>2026-04-26T10:48:41.001Z</time></trkpt><trkpt lat="43.909575681546386" lon="10.436818770516519"><ele>83.0</ele><time>2026-04-26T10:48:42.001Z</time></trkpt><trkpt lat="43.90959109357191" lon="10.436591064246741"><ele>82.0</ele><time>2026-04-26T10:48:43.001Z</time></trkpt><trkpt lat="43.90959893395453" lon="10.436369024154478"><ele>81.66666666666666</ele><time>2026-04-26T10:48:44.001Z</time></trkpt><trkpt lat="43.90960951231131" lon="10.436151261382129"><ele>81.33333333333333</ele><time>2026-04-26T10:48:45.001Z</time></trkpt><trkpt lat="43.90962106343255" lon="10.435929329309875"><ele>81.0</ele><time>2026-04-26T10:48:46.001Z</time></trkpt><trkpt lat="43.90963358141668" lon="10.43571432020216"><ele>81.0</ele><time>2026-04-26T10:48:47.001Z</time></trkpt><trkpt lat="43.90964817186999" lon="10.43549750875229"><ele>81.0</ele><time>2026-04-26T10:48:48.001Z</time></trkpt><trkpt lat="43.909661590729236" lon="10.435277686473565"><ele>81.0</ele><time>2026-04-26T10:48:49.001Z</time></trkpt><trkpt lat="43.909672680424094" lon="10.435053777927669"><ele>81.5</ele><time>2026-04-26T10:48:50.001Z</time></trkpt><trkpt lat="43.909686861819736" lon="10.434829826348919"><ele>82.0</ele><time>2026-04-26T10:48:51.001Z</time></trkpt><trkpt lat="43.90969483510095" lon="10.434632909323863"><ele>82.5</ele><time>2026-04-26T10:48:52.001Z</time></trkpt><trkpt lat="43.90970979977158" lon="10.434454384153769"><ele>83.0</ele><time>2026-04-26T10:48:53.001Z</time></trkpt><trkpt lat="43.909725673034174" lon="10.434276149451604"><ele>83.0</ele><time>2026-04-26T10:48:54.001Z</time></trkpt><trkpt lat="43.90974532980859" lon="10.434091852783416"><ele>83.0</ele><time>2026-04-26T10:48:55.001Z</time></trkpt><trkpt lat="43.90977033922053" lon="10.433880902941818"><ele>83.0</ele><time>2026-04-26T10:48:56.001Z</time></trkpt><trkpt lat="43.90979747370855" lon="10.433666713068025"><ele>83.0</ele><time>2026-04-26T10:48:57.001Z</time></trkpt><trkpt lat="43.90983202058311" lon="10.433457212977906"><ele>83.25</ele><time>2026-04-26T10:48:58.001Z</time></trkpt><trkpt lat="43.90985752857258" lon="10.433264048442393"><ele>83.5</ele><time>2026-04-26T10:48:59.001Z</time></trkpt><trkpt lat="43.909874099299444" lon="10.433069564620256"><ele>83.75</ele><time>2026-04-26T10:49:00.001Z</time></trkpt><trkpt lat="43.909880945260326" lon="10.432868202402476"><ele>84.0</ele><time>2026-04-26T10:49:01.001Z</time></trkpt><trkpt lat="43.90987044279262" lon="10.432674690024447"><ele>84.0</ele><time>2026-04-26T10:49:02.001Z</time></trkpt><trkpt lat="43.90984432397705" lon="10.432478298071356"><ele>84.0</ele><time>2026-04-26T10:49:03.001Z</time></trkpt><trkpt lat="43.90980095330954" lon="10.43229531524215"><ele>84.0</ele><time>2026-04-26T10:49:04.001Z</time></trkpt><trkpt lat="43.909749421990874" lon="10.432099787646"><ele>84.0</ele><time>2026-04-26T10:49:05.001Z</time></trkpt><trkpt lat="43.909700037387665" lon="10.431895852636028"><ele>83.66666666666667</ele><time>2026-04-26T10:49:06.002Z</time></trkpt><trkpt lat="43.909645841818815" lon="10.431679942684514"><ele>83.33333333333334</ele><time>2026-04-26T10:49:07.002Z</time></trkpt><trkpt lat="43.90959033999632" lon="10.431459802664445"><ele>83.0</ele><time>2026-04-26T10:49:08.002Z</time></trkpt><trkpt lat="43.90953752453484" lon="10.431247174908137"><ele>83.66666666666667</ele><time>2026-04-26T10:49:09.002Z</time></trkpt><trkpt lat="43.90947925153987" lon="10.431021684335844"><ele>84.33333333333333</ele><time>2026-04-26T10:49:10.002Z</time></trkpt><trkpt lat="43.909424081507254" lon="10.43079624097916"><ele>85.0</ele><time>2026-04-26T10:49:11.002Z</time></trkpt><trkpt lat="43.90936671408687" lon="10.430570789408119"><ele>85.0</ele><time>2026-04-26T10:49:12.002Z</time></trkpt><trkpt lat="43.90931364908019" lon="10.430360331381184"><ele>85.0</ele><time>2026-04-26T10:49:13.002Z</time></trkpt><trkpt lat="43.90926200960668" lon="10.430153910909734"><ele>85.0</ele><time>2026-04-26T10:49:14.002Z</time></trkpt><trkpt lat="43.909215222114206" lon="10.42996399029565"><ele>85.0</ele><time>2026-04-26T10:49:15.002Z</time></trkpt><trkpt lat="43.90917947833795" lon="10.429768445908971"><ele>85.0</ele><time>2026-04-26T10:49:16.002Z</time></trkpt><trkpt lat="43.90914677161185" lon="10.429579361734822"><ele>85.0</ele><time>2026-04-26T10:49:17.002Z</time></trkpt><trkpt lat="43.909113743453425" lon="10.429383185923522"><ele>85.0</ele><time>2026-04-26T10:49:18.002Z</time></trkpt><trkpt lat="43.90907717693244" lon="10.429170928667943"><ele>85.0</ele><time>2026-04-26T10:49:19.002Z</time></trkpt><trkpt lat="43.909043459816075" lon="10.428954470877994"><ele>85.0</ele><time>2026-04-26T10:49:20.002Z</time></trkpt><trkpt lat="43.909011300708755" lon="10.42872256154404"><ele>85.0</ele><time>2026-04-26T10:49:21.002Z</time></trkpt><trkpt lat="43.90897795396568" lon="10.428464695787765"><ele>85.0</ele><time>2026-04-26T10:49:22.002Z</time></trkpt><trkpt lat="43.90894432483178" lon="10.428185553625545"><ele>85.0</ele><time>2026-04-26T10:49:23.002Z</time></trkpt><trkpt lat="43.9089201676564" lon="10.427888040438964"><ele>85.0</ele><time>2026-04-26T10:49:24.002Z</time></trkpt><trkpt lat="43.90890138996129" lon="10.427587163109864"><ele>85.66666666666666</ele><time>2026-04-26T10:49:25.002Z</time></trkpt><trkpt lat="43.908904671040666" lon="10.42730793271072"><ele>86.33333333333333</ele><time>2026-04-26T10:49:26.002Z</time></trkpt><trkpt lat="43.90889819102029" lon="10.427024662930101"><ele>87.0</ele><time>2026-04-26T10:49:27.002Z</time></trkpt><trkpt lat="43.90887379192098" lon="10.426748536133287"><ele>87.0</ele><time>2026-04-26T10:49:28.002Z</time></trkpt><trkpt lat="43.90887678132626" lon="10.426476269618131"><ele>87.0</ele><time>2026-04-26T10:49:29.002Z</time></trkpt><trkpt lat="43.90886387643143" lon="10.426211993029796"><ele>87.0</ele><time>2026-04-26T10:49:30.002Z</time></trkpt><trkpt lat="43.908836530852504" lon="10.425966202046286"><ele>87.66666666666667</ele><time>2026-04-26T10:49:31.002Z</time></trkpt><trkpt lat="43.908797097872956" lon="10.425728363053858"><ele>88.33333333333334</ele><time>2026-04-26T10:49:32.002Z</time></trkpt><trkpt lat="43.90875382406269" lon="10.42549803497306"><ele>89.0</ele><time>2026-04-26T10:49:33.002Z</time></trkpt><trkpt lat="43.908700079754105" lon="10.425259848153253"><ele>90.0</ele><time>2026-04-26T10:49:34.002Z</time></trkpt><trkpt lat="43.90863938591937" lon="10.42501756979566"><ele>91.0</ele><time>2026-04-26T10:49:35.002Z</time></trkpt><trkpt lat="43.90856810623754" lon="10.424761646844711"><ele>92.0</ele><time>2026-04-26T10:49:36.002Z</time></trkpt><trkpt lat="43.90848205225134" lon="10.424501294959875"><ele>91.33333333333334</ele><time>2026-04-26T10:49:37.002Z</time></trkpt><trkpt lat="43.90838297270232" lon="10.424229668369229"><ele>90.66666666666667</ele><time>2026-04-26T10:49:38.002Z</time></trkpt><trkpt lat="43.908276492766184" lon="10.423958008830237"><ele>90.0</ele><time>2026-04-26T10:49:39.002Z</time></trkpt><trkpt lat="43.90816457039552" lon="10.423667840114362"><ele>92.0</ele><time>2026-04-26T10:49:40.002Z</time></trkpt><trkpt lat="43.908056700239214" lon="10.423373540074392"><ele>94.0</ele><time>2026-04-26T10:49:41Z</time></trkpt><trkpt lat="43.9079566579634" lon="10.423078974901667"><ele>94.66666666666666</ele><time>2026-04-26T10:49:42Z</time></trkpt><trkpt lat="43.90786687207401" lon="10.422801657685126"><ele>95.33333333333333</ele><time>2026-04-26T10:49:43Z</time></trkpt><trkpt lat="43.907778511232124" lon="10.422540737023342"><ele>96.0</ele><time>2026-04-26T10:49:44Z</time></trkpt><trkpt lat="43.907709840517306" lon="10.422284822158915"><ele>96.33333333333334</ele><time>2026-04-26T10:49:45Z</time></trkpt><trkpt lat="43.90760385741606" lon="10.422047065023834"><ele>96.66666666666667</ele><time>2026-04-26T10:49:46Z</time></trkpt><trkpt lat="43.90748781729403" lon="10.421812822035227"><ele>97.0</ele><time>2026-04-26T10:49:47Z</time></trkpt><trkpt lat="43.90734827727379" lon="10.421590430874598"><ele>95.0</ele><time>2026-04-26T10:49:48Z</time></trkpt><trkpt lat="43.9072019099939" lon="10.421375923023579"><ele>93.0</ele><time>2026-04-26T10:49:49Z</time></trkpt><trkpt lat="43.90705720935892" lon="10.4211690882425"><ele>91.0</ele><time>2026-04-26T10:49:50Z</time></trkpt><trkpt lat="43.906919619978005" lon="10.42094209197806"><ele>91.0</ele><time>2026-04-26T10:49:51Z</time></trkpt><trkpt lat="43.90679589890468" lon="10.420710732601368"><ele>91.0</ele><time>2026-04-26T10:49:52Z</time></trkpt><trkpt lat="43.90667216224036" lon="10.420464686302223"><ele>91.0</ele><time>2026-04-26T10:49:53Z</time></trkpt><trkpt lat="43.90655795602588" lon="10.420211527430583"><ele>90.66666666666666</ele><time>2026-04-26T10:49:54Z</time></trkpt><trkpt lat="43.90644885434163" lon="10.419954561299841"><ele>90.33333333333333</ele><time>2026-04-26T10:49:55Z</time></trkpt><trkpt lat="43.90634200112963" lon="10.419691093831014"><ele>90.0</ele><time>2026-04-26T10:49:56Z</time></trkpt><trkpt lat="43.90623403716141" lon="10.419436600298617"><ele>90.0</ele><time>2026-04-26T10:49:57Z</time></trkpt><trkpt lat="43.90612646119105" lon="10.419183472211602"><ele>90.0</ele><time>2026-04-26T10:49:58Z</time></trkpt><trkpt lat="43.90602005540392" lon="10.418938783228652"><ele>90.0</ele><time>2026-04-26T10:49:59Z</time></trkpt><trkpt lat="43.9059152821476" lon="10.418691444055755"><ele>90.66666666666667</ele><time>2026-04-26T10:50:00Z</time></trkpt><trkpt lat="43.905811636737184" lon="10.418456105887822"><ele>91.33333333333334</ele><time>2026-04-26T10:50:01Z</time></trkpt><trkpt lat="43.90570703556064" lon="10.418207894037867"><ele>92.0</ele><time>2026-04-26T10:50:02Z</time></trkpt><trkpt lat="43.905604402770216" lon="10.417960113424048"><ele>92.66666666666667</ele><time>2026-04-26T10:50:03Z</time></trkpt><trkpt lat="43.90550099397194" lon="10.41772303945187"><ele>93.33333333333333</ele><time>2026-04-26T10:50:04Z</time></trkpt><trkpt lat="43.90539675430859" lon="10.417495399405006"><ele>94.0</ele><time>2026-04-26T10:50:05Z</time></trkpt><trkpt lat="43.90529657479779" lon="10.417278665126139"><ele>94.0</ele><time>2026-04-26T10:50:06Z</time></trkpt><trkpt lat="43.90519641885136" lon="10.417051551602079"><ele>94.0</ele><time>2026-04-26T10:50:07Z</time></trkpt><trkpt lat="43.90510134716272" lon="10.416846908188765"><ele>94.0</ele><time>2026-04-26T10:50:08Z</time></trkpt><trkpt lat="43.90500558114815" lon="10.41663402018844"><ele>94.0</ele><time>2026-04-26T10:50:09Z</time></trkpt><trkpt lat="43.90490921308084" lon="10.41642714161492"><ele>94.0</ele><time>2026-04-26T10:50:10Z</time></trkpt><trkpt lat="43.904812426425735" lon="10.416208892193003"><ele>94.0</ele><time>2026-04-26T10:50:11Z</time></trkpt><trkpt lat="43.90471401772437" lon="10.415992233581202"><ele>94.66666666666666</ele><time>2026-04-26T10:50:12Z</time></trkpt><trkpt lat="43.904609850774776" lon="10.415779821801264"><ele>95.33333333333333</ele><time>2026-04-26T10:50:13Z</time></trkpt><trkpt lat="43.9045137775416" lon="10.415561252107368"><ele>96.0</ele><time>2026-04-26T10:50:14Z</time></trkpt><trkpt lat="43.9044112135542" lon="10.415339320826128"><ele>96.0</ele><time>2026-04-26T10:50:15Z</time></trkpt><trkpt lat="43.904305075557325" lon="10.41511313728963"><ele>96.0</ele><time>2026-04-26T10:50:16Z</time></trkpt><trkpt lat="43.90420069257664" lon="10.414895455861725"><ele>96.0</ele><time>2026-04-26T10:50:17Z</time></trkpt><trkpt lat="43.904096317513286" lon="10.414664633693477"><ele>96.33333333333334</ele><time>2026-04-26T10:50:18Z</time></trkpt><trkpt lat="43.90398877453899" lon="10.414430438339881"><ele>96.66666666666667</ele><time>2026-04-26T10:50:19.001Z</time></trkpt><trkpt lat="43.90387771111611" lon="10.41419362394616"><ele>97.0</ele><time>2026-04-26T10:50:20.001Z</time></trkpt><trkpt lat="43.903761503729726" lon="10.413943390650324"><ele>98.5</ele><time>2026-04-26T10:50:21.001Z</time></trkpt><trkpt lat="43.90364170032465" lon="10.413682184005772"><ele>100.0</ele><time>2026-04-26T10:50:22.001Z</time></trkpt><trkpt lat="43.903516707554544" lon="10.4134159331441"><ele>97.5</ele><time>2026-04-26T10:50:23.001Z</time></trkpt><trkpt lat="43.903387247302696" lon="10.413125721915637"><ele>95.0</ele><time>2026-04-26T10:50:24.001Z</time></trkpt><trkpt lat="43.90325572857883" lon="10.412839214427398"><ele>95.0</ele><time>2026-04-26T10:50:25.001Z</time></trkpt><trkpt lat="43.903124159477635" lon="10.412545744436203"><ele>95.0</ele><time>2026-04-26T10:50:26.001Z</time></trkpt><trkpt lat="43.902999359197985" lon="10.412255226672857"><ele>96.0</ele><time>2026-04-26T10:50:27.001Z</time></trkpt><trkpt lat="43.902876623993514" lon="10.411978015748465"><ele>97.0</ele><time>2026-04-26T10:50:28.001Z</time></trkpt><trkpt lat="43.90275755707396" lon="10.411700148595338"><ele>97.0</ele><time>2026-04-26T10:50:29.001Z</time></trkpt><trkpt lat="43.90264302332113" lon="10.411423435903446"><ele>97.0</ele><time>2026-04-26T10:50:30.001Z</time></trkpt><trkpt lat="43.90253360545053" lon="10.411148150743006"><ele>99.0</ele><time>2026-04-26T10:50:31.001Z</time></trkpt><trkpt lat="43.902429566051744" lon="10.41087882114238"><ele>101.0</ele><time>2026-04-26T10:50:32.001Z</time></trkpt><trkpt lat="43.902329571430506" lon="10.4105960719463"><ele>103.0</ele><time>2026-04-26T10:50:33.001Z</time></trkpt><trkpt lat="43.90223799747517" lon="10.410323149988502"><ele>105.0</ele><time>2026-04-26T10:50:34.001Z</time></trkpt><trkpt lat="43.90213945410519" lon="10.410051020504563"><ele>107.0</ele><time>2026-04-26T10:50:35.001Z</time></trkpt><trkpt lat="43.90203369571352" lon="10.40979860718554"><ele>109.0</ele><time>2026-04-26T10:50:36.001Z</time></trkpt><trkpt lat="43.90193218006605" lon="10.40954511297495"><ele>109.66666666666667</ele><time>2026-04-26T10:50:37.001Z</time></trkpt><trkpt lat="43.90181845791587" lon="10.409294057503686"><ele>110.33333333333334</ele><time>2026-04-26T10:50:38.001Z</time></trkpt><trkpt lat="43.90169810100192" lon="10.409049350098883"><ele>111.0</ele><time>2026-04-26T10:50:39.001Z</time></trkpt><trkpt lat="43.90156473001818" lon="10.408808335595648"><ele>111.0</ele><time>2026-04-26T10:50:40.001Z</time></trkpt><trkpt lat="43.90142938863732" lon="10.408574866758242"><ele>111.0</ele><time>2026-04-26T10:50:41.001Z</time></trkpt><trkpt lat="43.90129216432986" lon="10.408342476316136"><ele>111.0</ele><time>2026-04-26T10:50:42.001Z</time></trkpt><trkpt lat="43.90115969364431" lon="10.40811428112021"><ele>112.66666666666666</ele><time>2026-04-26T10:50:43.001Z</time></trkpt><trkpt lat="43.90101958798207" lon="10.407888257309354"><ele>114.33333333333333</ele><time>2026-04-26T10:50:44.001Z</time></trkpt><trkpt lat="43.90088556696077" lon="10.407652067936263"><ele>116.0</ele><time>2026-04-26T10:50:45.001Z</time></trkpt><trkpt lat="43.90075819568613" lon="10.40741814164933"><ele>114.0</ele><time>2026-04-26T10:50:46.001Z</time></trkpt><trkpt lat="43.90065456769964" lon="10.407173746751697"><ele>112.0</ele><time>2026-04-26T10:50:47.001Z</time></trkpt><trkpt lat="43.90055478161621" lon="10.406957170428974"><ele>110.0</ele><time>2026-04-26T10:50:48.001Z</time></trkpt><trkpt lat="43.900464391590724" lon="10.406747233552341"><ele>110.0</ele><time>2026-04-26T10:50:49.001Z</time></trkpt><trkpt lat="43.900392688075875" lon="10.406510310752806"><ele>110.0</ele><time>2026-04-26T10:50:50.001Z</time></trkpt><trkpt lat="43.900334210037755" lon="10.40622662529617"><ele>110.0</ele><time>2026-04-26T10:50:51.001Z</time></trkpt><trkpt lat="43.90034165760024" lon="10.405902298619319"><ele>111.5</ele><time>2026-04-26T10:50:52.001Z</time></trkpt><trkpt lat="43.90033864849325" lon="10.405559290634423"><ele>113.0</ele><time>2026-04-26T10:50:53.001Z</time></trkpt><trkpt lat="43.90036531737959" lon="10.405197722615812"><ele>113.0</ele><time>2026-04-26T10:50:54.001Z</time></trkpt><trkpt lat="43.90036010721697" lon="10.404849111659543"><ele>113.0</ele><time>2026-04-26T10:50:55.001Z</time></trkpt><trkpt lat="43.90034114129181" lon="10.404515708501249"><ele>114.5</ele><time>2026-04-26T10:50:56.001Z</time></trkpt><trkpt lat="43.90032416393941" lon="10.404185257302574"><ele>116.0</ele><time>2026-04-26T10:50:57.001Z</time></trkpt><trkpt lat="43.90030640468286" lon="10.403854861954082"><ele>116.5</ele><time>2026-04-26T10:50:58.001Z</time></trkpt><trkpt lat="43.90028691555733" lon="10.403526646120982"><ele>117.0</ele><time>2026-04-26T10:50:59.001Z</time></trkpt><trkpt lat="43.90026619638661" lon="10.403206944433755"><ele>118.0</ele><time>2026-04-26T10:51:00.001Z</time></trkpt><trkpt lat="43.90024283896519" lon="10.402881890078637"><ele>119.0</ele><time>2026-04-26T10:51:01.001Z</time></trkpt><trkpt lat="43.90020342342311" lon="10.402549630791652"><ele>119.0</ele><time>2026-04-26T10:51:02.002Z</time></trkpt><trkpt lat="43.900142173202774" lon="10.402206189759331"><ele>119.0</ele><time>2026-04-26T10:51:03.002Z</time></trkpt><trkpt lat="43.90006351359538" lon="10.401853153603625"><ele>116.5</ele><time>2026-04-26T10:51:04.002Z</time></trkpt><trkpt lat="43.8999897738655" lon="10.40151951762609"><ele>114.0</ele><time>2026-04-26T10:51:05.002Z</time></trkpt><trkpt lat="43.89992400105328" lon="10.401185010859203"><ele>114.0</ele><time>2026-04-26T10:51:06.002Z</time></trkpt><trkpt lat="43.899862277989115" lon="10.400855606835547"><ele>114.0</ele><time>2026-04-26T10:51:07.002Z</time></trkpt><trkpt lat="43.899797429155456" lon="10.400527043928786"><ele>117.0</ele><time>2026-04-26T10:51:08.002Z</time></trkpt><trkpt lat="43.899743464598544" lon="10.400215927928144"><ele>120.0</ele><time>2026-04-26T10:51:09.002Z</time></trkpt><trkpt lat="43.89969113188703" lon="10.399909468981132"><ele>121.0</ele><time>2026-04-26T10:51:10.002Z</time></trkpt><trkpt lat="43.89963964551259" lon="10.39959220742495"><ele>122.0</ele><time>2026-04-26T10:51:11.002Z</time></trkpt><trkpt lat="43.899590127095685" lon="10.399279755558007"><ele>122.0</ele><time>2026-04-26T10:51:12.002Z</time></trkpt><trkpt lat="43.89954501134991" lon="10.398966091647136"><ele>122.0</ele><time>2026-04-26T10:51:13.002Z</time></trkpt><trkpt lat="43.89949526062128" lon="10.398649827447882"><ele>120.5</ele><time>2026-04-26T10:51:14.002Z</time></trkpt><trkpt lat="43.89944123088118" lon="10.39833279687492"><ele>119.0</ele><time>2026-04-26T10:51:15.002Z</time></trkpt><trkpt lat="43.89939443420006" lon="10.3980171935795"><ele>120.5</ele><time>2026-04-26T10:51:16.002Z</time></trkpt><trkpt lat="43.89933925520395" lon="10.397686419582051"><ele>122.0</ele><time>2026-04-26T10:51:17.002Z</time></trkpt><trkpt lat="43.899290117109324" lon="10.39737112103808"><ele>116.5</ele><time>2026-04-26T10:51:18.002Z</time></trkpt><trkpt lat="43.899245006650624" lon="10.397055889536793"><ele>111.0</ele><time>2026-04-26T10:51:19.002Z</time></trkpt><trkpt lat="43.89918942088451" lon="10.396739730923812"><ele>111.0</ele><time>2026-04-26T10:51:20.002Z</time></trkpt><trkpt lat="43.899138980105796" lon="10.39642346486009"><ele>111.0</ele><time>2026-04-26T10:51:21.002Z</time></trkpt><trkpt lat="43.899090433043064" lon="10.396107146705635"><ele>111.0</ele><time>2026-04-26T10:51:22.002Z</time></trkpt><trkpt lat="43.899041515685376" lon="10.395792409444875"><ele>111.0</ele><time>2026-04-26T10:51:23.002Z</time></trkpt><trkpt lat="43.89899937251156" lon="10.39547718717621"><ele>110.5</ele><time>2026-04-26T10:51:24.002Z</time></trkpt><trkpt lat="43.898948914003235" lon="10.395167456223735"><ele>110.0</ele><time>2026-04-26T10:51:25.002Z</time></trkpt><trkpt lat="43.89889449349939" lon="10.394859282774872"><ele>110.66666666666666</ele><time>2026-04-26T10:51:26.002Z</time></trkpt><trkpt lat="43.89884265278446" lon="10.394553483602786"><ele>111.33333333333334</ele><time>2026-04-26T10:51:27.002Z</time></trkpt><trkpt lat="43.898796160347125" lon="10.39425160151158"><ele>112.0</ele><time>2026-04-26T10:51:28.002Z</time></trkpt><trkpt lat="43.89876238194464" lon="10.393943585126033"><ele>112.5</ele><time>2026-04-26T10:51:29.002Z</time></trkpt><trkpt lat="43.898744134141424" lon="10.393628421404415"><ele>113.0</ele><time>2026-04-26T10:51:30.002Z</time></trkpt><trkpt lat="43.89872890989349" lon="10.393319560312626"><ele>113.0</ele><time>2026-04-26T10:51:31.002Z</time></trkpt><trkpt lat="43.898711052875115" lon="10.393011093120812"><ele>113.0</ele><time>2026-04-26T10:51:32.002Z</time></trkpt><trkpt lat="43.89868847460907" lon="10.392699385603423"><ele>113.0</ele><time>2026-04-26T10:51:33.002Z</time></trkpt><trkpt lat="43.898663427158965" lon="10.392375080984035"><ele>112.5</ele><time>2026-04-26T10:51:34.002Z</time></trkpt><trkpt lat="43.898630636626244" lon="10.392046238586472"><ele>112.0</ele><time>2026-04-26T10:51:35.002Z</time></trkpt><trkpt lat="43.89860561905152" lon="10.391704389312613"><ele>112.0</ele><time>2026-04-26T10:51:36.002Z</time></trkpt><trkpt lat="43.89859721770589" lon="10.391350050181716"><ele>112.0</ele><time>2026-04-26T10:51:37.002Z</time></trkpt><trkpt lat="43.898600842724214" lon="10.39101654765635"><ele>112.0</ele><time>2026-04-26T10:51:38.002Z</time></trkpt><trkpt lat="43.89860357310259" lon="10.390706137568387"><ele>112.0</ele><time>2026-04-26T10:51:39.002Z</time></trkpt><trkpt lat="43.89860834895928" lon="10.390395986842417"><ele>112.0</ele><time>2026-04-26T10:51:40.002Z</time></trkpt><trkpt lat="43.898623894082654" lon="10.39009225547598"><ele>112.33333333333334</ele><time>2026-04-26T10:51:41.002Z</time></trkpt><trkpt lat="43.89864470868488" lon="10.389784581125902"><ele>112.66666666666666</ele><time>2026-04-26T10:51:42.002Z</time></trkpt><trkpt lat="43.898663446497935" lon="10.389492144141288"><ele>113.0</ele><time>2026-04-26T10:51:43.002Z</time></trkpt><trkpt lat="43.89868296179724" lon="10.389221489391394"><ele>114.33333333333333</ele><time>2026-04-26T10:51:44.002Z</time></trkpt><trkpt lat="43.89871835449368" lon="10.38896617011779"><ele>115.66666666666666</ele><time>2026-04-26T10:51:45.003Z</time></trkpt><trkpt lat="43.898797350587955" lon="10.38871447850957"><ele>117.0</ele><time>2026-04-26T10:51:46.003Z</time></trkpt><trkpt lat="43.89889404688866" lon="10.38845574180327"><ele>117.33333333333334</ele><time>2026-04-26T10:51:47Z</time></trkpt><trkpt lat="43.89899705950944" lon="10.388177867901137"><ele>117.66666666666667</ele><time>2026-04-26T10:51:48Z</time></trkpt><trkpt lat="43.89911885754552" lon="10.387919589322895"><ele>118.0</ele><time>2026-04-26T10:51:49Z</time></trkpt><trkpt lat="43.89922919652129" lon="10.387661127494873"><ele>119.0</ele><time>2026-04-26T10:51:50Z</time></trkpt><trkpt lat="43.89935125933653" lon="10.387390351674135"><ele>120.0</ele><time>2026-04-26T10:51:51Z</time></trkpt><trkpt lat="43.89946604247677" lon="10.387124343808683"><ele>120.0</ele><time>2026-04-26T10:51:52Z</time></trkpt><trkpt lat="43.89958341036183" lon="10.386851878841787"><ele>120.0</ele><time>2026-04-26T10:51:53Z</time></trkpt><trkpt lat="43.89967998416853" lon="10.386556285089664"><ele>121.0</ele><time>2026-04-26T10:51:54Z</time></trkpt><trkpt lat="43.899756124183355" lon="10.386236567988593"><ele>122.0</ele><time>2026-04-26T10:51:55Z</time></trkpt><trkpt lat="43.899829010993614" lon="10.385911980004947"><ele>122.0</ele><time>2026-04-26T10:51:56Z</time></trkpt><trkpt lat="43.89990679328315" lon="10.385580611720938"><ele>122.0</ele><time>2026-04-26T10:51:57Z</time></trkpt><trkpt lat="43.8999891147719" lon="10.385251965033802"><ele>121.5</ele><time>2026-04-26T10:51:58Z</time></trkpt><trkpt lat="43.90007504046513" lon="10.38492293041269"><ele>121.0</ele><time>2026-04-26T10:51:59Z</time></trkpt><trkpt lat="43.900158354867614" lon="10.38460069118615"><ele>124.0</ele><time>2026-04-26T10:52:00Z</time></trkpt><trkpt lat="43.900239679668886" lon="10.384282340341612"><ele>127.0</ele><time>2026-04-26T10:52:01Z</time></trkpt><trkpt lat="43.90031562801863" lon="10.383961987184547"><ele>126.5</ele><time>2026-04-26T10:52:02Z</time></trkpt><trkpt lat="43.9003938831678" lon="10.383646770078345"><ele>126.0</ele><time>2026-04-26T10:52:03Z</time></trkpt><trkpt lat="43.900470591260074" lon="10.383336587880233"><ele>126.0</ele><time>2026-04-26T10:52:04Z</time></trkpt><trkpt lat="43.90055120167688" lon="10.383026051561345"><ele>126.0</ele><time>2026-04-26T10:52:05Z</time></trkpt><trkpt lat="43.90064446891096" lon="10.382715845430718"><ele>126.0</ele><time>2026-04-26T10:52:06Z</time></trkpt><trkpt lat="43.90073686083377" lon="10.38241895042721"><ele>126.0</ele><time>2026-04-26T10:52:07Z</time></trkpt><trkpt lat="43.90083383037287" lon="10.382113237036037"><ele>130.5</ele><time>2026-04-26T10:52:08Z</time></trkpt><trkpt lat="43.90093101042527" lon="10.381809766965356"><ele>135.0</ele><time>2026-04-26T10:52:09Z</time></trkpt><trkpt lat="43.901024701745975" lon="10.381509789517251"><ele>134.0</ele><time>2026-04-26T10:52:10Z</time></trkpt><trkpt lat="43.90112091927055" lon="10.381208154206533"><ele>133.0</ele><time>2026-04-26T10:52:11Z</time></trkpt><trkpt lat="43.90121340835138" lon="10.380906514362735"><ele>133.0</ele><time>2026-04-26T10:52:12Z</time></trkpt><trkpt lat="43.90130625621845" lon="10.38060530268548"><ele>133.0</ele><time>2026-04-26T10:52:13Z</time></trkpt><trkpt lat="43.90139901143942" lon="10.380312049006065"><ele>133.0</ele><time>2026-04-26T10:52:14Z</time></trkpt><trkpt lat="43.90147887746218" lon="10.380012987296578"><ele>133.0</ele><time>2026-04-26T10:52:15.001Z</time></trkpt><trkpt lat="43.90153772362288" lon="10.379721991638553"><ele>133.0</ele><time>2026-04-26T10:52:16.001Z</time></trkpt><trkpt lat="43.90157915488934" lon="10.379456998674081"><ele>134.0</ele><time>2026-04-26T10:52:17.001Z</time></trkpt><trkpt lat="43.90162053400521" lon="10.379187754451"><ele>135.0</ele><time>2026-04-26T10:52:18.001Z</time></trkpt><trkpt lat="43.90166458623319" lon="10.37891933502097"><ele>136.0</ele><time>2026-04-26T10:52:19.001Z</time></trkpt><trkpt lat="43.90170690037905" lon="10.378666655041737"><ele>137.0</ele><time>2026-04-26T10:52:20.001Z</time></trkpt><trkpt lat="43.90174655256322" lon="10.378424460099405"><ele>138.0</ele><time>2026-04-26T10:52:21.001Z</time></trkpt><trkpt lat="43.90178826743206" lon="10.378180370027536"><ele>139.0</ele><time>2026-04-26T10:52:22.001Z</time></trkpt><trkpt lat="43.90183195987243" lon="10.37793329509085"><ele>144.66666666666669</ele><time>2026-04-26T10:52:23.001Z</time></trkpt><trkpt lat="43.90187887013867" lon="10.377677472333172"><ele>150.33333333333334</ele><time>2026-04-26T10:52:24.001Z</time></trkpt><trkpt lat="43.90192516629646" lon="10.377413742454815"><ele>156.0</ele><time>2026-04-26T10:52:25.001Z</time></trkpt><trkpt lat="43.9019704789912" lon="10.37714855111037"><ele>157.0</ele><time>2026-04-26T10:52:26.001Z</time></trkpt><trkpt lat="43.902018241254915" lon="10.3768714211499"><ele>158.0</ele><time>2026-04-26T10:52:27.001Z</time></trkpt><trkpt lat="43.90206319849022" lon="10.376599434513414"><ele>159.0</ele><time>2026-04-26T10:52:28.001Z</time></trkpt><trkpt lat="43.902110744032996" lon="10.37633423667073"><ele>159.0</ele><time>2026-04-26T10:52:29.001Z</time></trkpt><trkpt lat="43.90216629430738" lon="10.376085379138285"><ele>159.0</ele><time>2026-04-26T10:52:30.001Z</time></trkpt><trkpt lat="43.90218774619754" lon="10.375796009348134"><ele>159.0</ele><time>2026-04-26T10:52:31.001Z</time></trkpt><trkpt lat="43.90229123184996" lon="10.37557311580019"><ele>158.66666666666666</ele><time>2026-04-26T10:52:32.001Z</time></trkpt><trkpt lat="43.90239441274039" lon="10.375369235316835"><ele>158.33333333333331</ele><time>2026-04-26T10:52:33.001Z</time></trkpt><trkpt lat="43.90265749900367" lon="10.375296905146909"><ele>158.0</ele><time>2026-04-26T10:52:34.001Z</time></trkpt><trkpt lat="43.90279585494251" lon="10.375124791173393"><ele>157.0</ele><time>2026-04-26T10:52:35.001Z</time></trkpt><trkpt lat="43.90293376946743" lon="10.374944729603444"><ele>156.0</ele><time>2026-04-26T10:52:36.001Z</time></trkpt><trkpt lat="43.90307106530141" lon="10.374770808470883"><ele>155.0</ele><time>2026-04-26T10:52:37.001Z</time></trkpt><trkpt lat="43.903199531330216" lon="10.374597622321676"><ele>155.0</ele><time>2026-04-26T10:52:38.001Z</time></trkpt><trkpt lat="43.903318331938905" lon="10.374422350573639"><ele>155.0</ele><time>2026-04-26T10:52:39.001Z</time></trkpt><trkpt lat="43.90341750522895" lon="10.37422761144576"><ele>155.0</ele><time>2026-04-26T10:52:40.001Z</time></trkpt><trkpt lat="43.90349034161787" lon="10.374005694362081"><ele>159.66666666666666</ele><time>2026-04-26T10:52:41.001Z</time></trkpt><trkpt lat="43.9035452398953" lon="10.373781164016235"><ele>164.33333333333334</ele><time>2026-04-26T10:52:42.001Z</time></trkpt><trkpt lat="43.90359572352716" lon="10.373587225540591"><ele>169.0</ele><time>2026-04-26T10:52:43.001Z</time></trkpt><trkpt lat="43.90364310427644" lon="10.37338176843788"><ele>169.0</ele><time>2026-04-26T10:52:44.001Z</time></trkpt><trkpt lat="43.903660418673574" lon="10.373156926867459"><ele>169.0</ele><time>2026-04-26T10:52:45.001Z</time></trkpt><trkpt lat="43.9036706895821" lon="10.372934173907726"><ele>169.0</ele><time>2026-04-26T10:52:46.001Z</time></trkpt><trkpt lat="43.90367369148775" lon="10.37273510029766"><ele>172.5</ele><time>2026-04-26T10:52:47.001Z</time></trkpt><trkpt lat="43.90368495613179" lon="10.372541116428362"><ele>176.0</ele><time>2026-04-26T10:52:48.001Z</time></trkpt><trkpt lat="43.903692783055966" lon="10.372338444936743"><ele>179.5</ele><time>2026-04-26T10:52:49.001Z</time></trkpt><trkpt lat="43.90370608029539" lon="10.37212187623749"><ele>183.0</ele><time>2026-04-26T10:52:50.001Z</time></trkpt><trkpt lat="43.903710802889314" lon="10.371901034525553"><ele>183.0</ele><time>2026-04-26T10:52:51.001Z</time></trkpt><trkpt lat="43.903720725388226" lon="10.371662725943734"><ele>183.0</ele><time>2026-04-26T10:52:52.001Z</time></trkpt><trkpt lat="43.90373307843291" lon="10.371423465763955"><ele>183.0</ele><time>2026-04-26T10:52:53.001Z</time></trkpt><trkpt lat="43.9037438852964" lon="10.371175826739558"><ele>177.33333333333334</ele><time>2026-04-26T10:52:54.001Z</time></trkpt><trkpt lat="43.90376948736175" lon="10.370920724854093"><ele>171.66666666666669</ele><time>2026-04-26T10:52:55.001Z</time></trkpt><trkpt lat="43.90380190027831" lon="10.370653364022353"><ele>166.0</ele><time>2026-04-26T10:52:56.001Z</time></trkpt><trkpt lat="43.90385488166803" lon="10.370387620886152"><ele>163.66666666666669</ele><time>2026-04-26T10:52:57.001Z</time></trkpt><trkpt lat="43.90391199391569" lon="10.3701409185792"><ele>161.33333333333334</ele><time>2026-04-26T10:52:58.001Z</time></trkpt><trkpt lat="43.90396458810036" lon="10.369912430186156"><ele>159.0</ele><time>2026-04-26T10:52:59.001Z</time></trkpt><trkpt lat="43.90401225343452" lon="10.369705379861518"><ele>159.0</ele><time>2026-04-26T10:53:00.001Z</time></trkpt><trkpt lat="43.9040569537575" lon="10.369505730106836"><ele>159.0</ele><time>2026-04-26T10:53:01.001Z</time></trkpt><trkpt lat="43.904105074941015" lon="10.36930815985334"><ele>159.0</ele><time>2026-04-26T10:53:02.002Z</time></trkpt><trkpt lat="43.904161000068726" lon="10.369110443908294"><ele>159.0</ele><time>2026-04-26T10:53:03.002Z</time></trkpt><trkpt lat="43.90422162100009" lon="10.368896825309008"><ele>159.0</ele><time>2026-04-26T10:53:04.002Z</time></trkpt><trkpt lat="43.90428367115545" lon="10.368695235351272"><ele>159.0</ele><time>2026-04-26T10:53:05.002Z</time></trkpt><trkpt lat="43.904358334079376" lon="10.368489603024914"><ele>163.0</ele><time>2026-04-26T10:53:06.002Z</time></trkpt><trkpt lat="43.90443713832332" lon="10.368284664924904"><ele>167.0</ele><time>2026-04-26T10:53:07.002Z</time></trkpt><trkpt lat="43.90451462477705" lon="10.368086444555578"><ele>171.0</ele><time>2026-04-26T10:53:08.002Z</time></trkpt><trkpt lat="43.904590155586064" lon="10.36789057978336"><ele>171.0</ele><time>2026-04-26T10:53:09.002Z</time></trkpt><trkpt lat="43.904656801104515" lon="10.36769384682085"><ele>171.0</ele><time>2026-04-26T10:53:10.002Z</time></trkpt><trkpt lat="43.90470958610441" lon="10.367489178607324"><ele>171.0</ele><time>2026-04-26T10:53:11.002Z</time></trkpt><trkpt lat="43.90475535777415" lon="10.367273565388315"><ele>172.0</ele><time>2026-04-26T10:53:12.002Z</time></trkpt><trkpt lat="43.90478279345411" lon="10.3670525747987"><ele>173.0</ele><time>2026-04-26T10:53:13.002Z</time></trkpt><trkpt lat="43.9047928011865" lon="10.366843439445915"><ele>174.0</ele><time>2026-04-26T10:53:14.002Z</time></trkpt><trkpt lat="43.904789968727826" lon="10.366635599108173"><ele>174.0</ele><time>2026-04-26T10:53:15.002Z</time></trkpt><trkpt lat="43.90479172691668" lon="10.36641728636677"><ele>174.0</ele><time>2026-04-26T10:53:16.002Z</time></trkpt><trkpt lat="43.90477751501572" lon="10.366209267598808"><ele>174.0</ele><time>2026-04-26T10:53:17.002Z</time></trkpt><trkpt lat="43.904771003988735" lon="10.365996573861311"><ele>176.0</ele><time>2026-04-26T10:53:18.002Z</time></trkpt><trkpt lat="43.90476586573614" lon="10.365789277320067"><ele>178.0</ele><time>2026-04-26T10:53:19.002Z</time></trkpt><trkpt lat="43.90477131938264" lon="10.365570836807988"><ele>180.0</ele><time>2026-04-26T10:53:20.002Z</time></trkpt><trkpt lat="43.90478668712091" lon="10.365348729288874"><ele>181.0</ele><time>2026-04-26T10:53:21.002Z</time></trkpt><trkpt lat="43.90480989346642" lon="10.365128131108852"><ele>182.0</ele><time>2026-04-26T10:53:22.002Z</time></trkpt><trkpt lat="43.90483536310859" lon="10.364913310015801"><ele>183.0</ele><time>2026-04-26T10:53:23.002Z</time></trkpt><trkpt lat="43.90487200633857" lon="10.364696992061834"><ele>181.66666666666666</ele><time>2026-04-26T10:53:24.002Z</time></trkpt><trkpt lat="43.90490873068212" lon="10.364480373242454"><ele>180.33333333333331</ele><time>2026-04-26T10:53:25.002Z</time></trkpt><trkpt lat="43.90494150387889" lon="10.364267779804361"><ele>179.0</ele><time>2026-04-26T10:53:26.002Z</time></trkpt><trkpt lat="43.90498177458562" lon="10.364047465005868"><ele>179.0</ele><time>2026-04-26T10:53:27.002Z</time></trkpt><trkpt lat="43.905018332771" lon="10.363804235560199"><ele>179.0</ele><time>2026-04-26T10:53:28.002Z</time></trkpt><trkpt lat="43.90506245763439" lon="10.363558203902043"><ele>179.0</ele><time>2026-04-26T10:53:29.002Z</time></trkpt><trkpt lat="43.90510212416264" lon="10.363321316384539"><ele>184.66666666666666</ele><time>2026-04-26T10:53:30.002Z</time></trkpt><trkpt lat="43.905145077929184" lon="10.363088241062266"><ele>190.33333333333331</ele><time>2026-04-26T10:53:31.002Z</time></trkpt><trkpt lat="43.90518355984768" lon="10.362861029440266"><ele>196.0</ele><time>2026-04-26T10:53:32.002Z</time></trkpt><trkpt lat="43.90521918377768" lon="10.362642123125381"><ele>196.0</ele><time>2026-04-26T10:53:33.002Z</time></trkpt><trkpt lat="43.9052538264762" lon="10.362429006707329"><ele>196.0</ele><time>2026-04-26T10:53:34.002Z</time></trkpt><trkpt lat="43.90528486183836" lon="10.36222422490322"><ele>196.0</ele><time>2026-04-26T10:53:35.002Z</time></trkpt><trkpt lat="43.90531301639349" lon="10.362024689051522"><ele>195.66666666666666</ele><time>2026-04-26T10:53:36.002Z</time></trkpt><trkpt lat="43.905338085352405" lon="10.36181806158009"><ele>195.33333333333331</ele><time>2026-04-26T10:53:37.002Z</time></trkpt><trkpt lat="43.905355372503614" lon="10.361600911244004"><ele>195.0</ele><time>2026-04-26T10:53:38.002Z</time></trkpt><trkpt lat="43.905359191153124" lon="10.361372020977052"><ele>201.0</ele><time>2026-04-26T10:53:39.002Z</time></trkpt><trkpt lat="43.905348295933656" lon="10.361150465243284"><ele>207.0</ele><time>2026-04-26T10:53:40.002Z</time></trkpt><trkpt lat="43.90532227619758" lon="10.360925866499786"><ele>213.0</ele><time>2026-04-26T10:53:41.002Z</time></trkpt><trkpt lat="43.90528903672766" lon="10.360711390867388"><ele>218.66666666666669</ele><time>2026-04-26T10:53:42.002Z</time></trkpt><trkpt lat="43.90524388774097" lon="10.360502642041778"><ele>224.33333333333334</ele><time>2026-04-26T10:53:43.002Z</time></trkpt><trkpt lat="43.9051913422272" lon="10.360293504155315"><ele>230.0</ele><time>2026-04-26T10:53:44.002Z</time></trkpt><trkpt lat="43.90512403217851" lon="10.360088014531518"><ele>219.66666666666669</ele><time>2026-04-26T10:53:45.002Z</time></trkpt><trkpt lat="43.90505622428463" lon="10.359867956242375"><ele>209.33333333333331</ele><time>2026-04-26T10:53:46.003Z</time></trkpt><trkpt lat="43.90497194757214" lon="10.359648746632285"><ele>199.0</ele><time>2026-04-26T10:53:47.003Z</time></trkpt><trkpt lat="43.90488216688408" lon="10.359425974027905"><ele>199.0</ele><time>2026-04-26T10:53:48.003Z</time></trkpt><trkpt lat="43.9047944428396" lon="10.359194994913324"><ele>199.0</ele><time>2026-04-26T10:53:49.003Z</time></trkpt><trkpt lat="43.90470893233788" lon="10.35896362748701"><ele>199.0</ele><time>2026-04-26T10:53:50.003Z</time></trkpt><trkpt lat="43.90462106345643" lon="10.358719451196778"><ele>201.33333333333331</ele><time>2026-04-26T10:53:51.003Z</time></trkpt><trkpt lat="43.904523453843396" lon="10.358469827279277"><ele>203.66666666666669</ele><time>2026-04-26T10:53:52.003Z</time></trkpt><trkpt lat="43.90442349030544" lon="10.358214228522694"><ele>206.0</ele><time>2026-04-26T10:53:53.001Z</time></trkpt><trkpt lat="43.90433040178811" lon="10.357954432299207"><ele>201.0</ele><time>2026-04-26T10:53:54.001Z</time></trkpt><trkpt lat="43.90423252525866" lon="10.357706814164542"><ele>196.0</ele><time>2026-04-26T10:53:55.001Z</time></trkpt><trkpt lat="43.90414286307941" lon="10.35747063371274"><ele>191.0</ele><time>2026-04-26T10:53:56.001Z</time></trkpt><trkpt lat="43.90405948069187" lon="10.357248263381878"><ele>191.33333333333331</ele><time>2026-04-26T10:53:57.001Z</time></trkpt><trkpt lat="43.90397981372952" lon="10.357022524214475"><ele>191.66666666666666</ele><time>2026-04-26T10:53:58.001Z</time></trkpt><trkpt lat="43.90391345401385" lon="10.356782627909462"><ele>192.0</ele><time>2026-04-26T10:53:59.001Z</time></trkpt><trkpt lat="43.9038639547584" lon="10.356540031919016"><ele>193.33333333333331</ele><time>2026-04-26T10:54:00.001Z</time></trkpt><trkpt lat="43.90383308226469" lon="10.356300897993208"><ele>194.66666666666666</ele><time>2026-04-26T10:54:01.001Z</time></trkpt><trkpt lat="43.90382268199687" lon="10.35607878277206"><ele>196.0</ele><time>2026-04-26T10:54:02.001Z</time></trkpt><trkpt lat="43.903825535974384" lon="10.355850753740926"><ele>196.0</ele><time>2026-04-26T10:54:03.001Z</time></trkpt><trkpt lat="43.903846400670744" lon="10.355624946450238"><ele>196.0</ele><time>2026-04-26T10:54:04.001Z</time></trkpt><trkpt lat="43.90388063124919" lon="10.355395249661418"><ele>196.0</ele><time>2026-04-26T10:54:05.001Z</time></trkpt><trkpt lat="43.90392185798192" lon="10.355173162988313"><ele>196.0</ele><time>2026-04-26T10:54:06Z</time></trkpt><trkpt lat="43.903972504248785" lon="10.354979696963932"><ele>196.0</ele><time>2026-04-26T10:54:07Z</time></trkpt><trkpt lat="43.904032587256445" lon="10.354825363612862"><ele>196.0</ele><time>2026-04-26T10:54:08Z</time></trkpt><trkpt lat="43.90408616046613" lon="10.354710425408411"><ele>196.0</ele><time>2026-04-26T10:54:09.001Z</time></trkpt><trkpt lat="43.90414127621066" lon="10.354616222598285"><ele>195.99999999999997</ele><time>2026-04-26T10:54:11.001Z</time></trkpt><trkpt lat="43.90418392254879" lon="10.354506094872573"><ele>196.0</ele><time>2026-04-26T10:54:13.001Z</time></trkpt><trkpt lat="43.9042246820706" lon="10.3543965336702"><ele>196.0</ele><time>2026-04-26T10:54:14.001Z</time></trkpt><trkpt lat="43.90426966602881" lon="10.35429524153528"><ele>196.0</ele><time>2026-04-26T10:54:15.001Z</time></trkpt><trkpt lat="43.90431890230143" lon="10.35419287907065"><ele>195.99999999999997</ele><time>2026-04-26T10:54:16.001Z</time></trkpt><trkpt lat="43.90437204559402" lon="10.354082542560528"><ele>196.0</ele><time>2026-04-26T10:54:17.001Z</time></trkpt><trkpt lat="43.90442849446748" lon="10.353964776894127"><ele>197.4</ele><time>2026-04-26T10:54:18.001Z</time></trkpt><trkpt lat="43.90448959167961" lon="10.353843417016616"><ele>198.8</ele><time>2026-04-26T10:54:19.001Z</time></trkpt><trkpt lat="43.90455065248659" lon="10.353723046234688"><ele>200.20000000000002</ele><time>2026-04-26T10:54:20.001Z</time></trkpt><trkpt lat="43.90461210506523" lon="10.353606828179279"><ele>201.60000000000002</ele><time>2026-04-26T10:54:21.001Z</time></trkpt><trkpt lat="43.90468502883274" lon="10.353495939298769"><ele>203.0</ele><time>2026-04-26T10:54:22.001Z</time></trkpt><trkpt lat="43.90478954233437" lon="10.353405961526448"><ele>203.0</ele><time>2026-04-26T10:54:23.001Z</time></trkpt><trkpt lat="43.90486966538413" lon="10.353282696823541"><ele>203.0</ele><time>2026-04-26T10:54:24.001Z</time></trkpt><trkpt lat="43.90495712537219" lon="10.3531765849471"><ele>203.0</ele><time>2026-04-26T10:54:25.001Z</time></trkpt><trkpt lat="43.90502851037411" lon="10.353060705040281"><ele>203.0</ele><time>2026-04-26T10:54:26.001Z</time></trkpt><trkpt lat="43.905091688666005" lon="10.352916164955074"><ele>203.75</ele><time>2026-04-26T10:54:27.001Z</time></trkpt><trkpt lat="43.905137465957544" lon="10.352738968739015"><ele>204.5</ele><time>2026-04-26T10:54:28.001Z</time></trkpt><trkpt lat="43.905155194608106" lon="10.35254444826608"><ele>205.25</ele><time>2026-04-26T10:54:29.001Z</time></trkpt><trkpt lat="43.90517005302427" lon="10.3523685849886"><ele>206.0</ele><time>2026-04-26T10:54:30.001Z</time></trkpt><trkpt lat="43.905191715992096" lon="10.35219324422164"><ele>206.0</ele><time>2026-04-26T10:54:31.001Z</time></trkpt><trkpt lat="43.90522421616039" lon="10.352028082439839"><ele>206.0</ele><time>2026-04-26T10:54:32.001Z</time></trkpt><trkpt lat="43.905276883266026" lon="10.351904972442036"><ele>206.0</ele><time>2026-04-26T10:54:33.001Z</time></trkpt><trkpt lat="43.90534557112408" lon="10.351784165886032"><ele>206.0</ele><time>2026-04-26T10:54:34.001Z</time></trkpt><trkpt lat="43.90542570903647" lon="10.351637523557887"><ele>206.0</ele><time>2026-04-26T10:54:35.001Z</time></trkpt><trkpt lat="43.905511243616694" lon="10.351487261790057"><ele>206.0</ele><time>2026-04-26T10:54:36.001Z</time></trkpt><trkpt lat="43.90560384043216" lon="10.351342408313474"><ele>206.0</ele><time>2026-04-26T10:54:37.001Z</time></trkpt><trkpt lat="43.905693455403146" lon="10.35117851757787"><ele>206.0</ele><time>2026-04-26T10:54:38.001Z</time></trkpt><trkpt lat="43.90580641789059" lon="10.351031877504454"><ele>209.0</ele><time>2026-04-26T10:54:39.001Z</time></trkpt><trkpt lat="43.90591278794731" lon="10.350871968065643"><ele>212.0</ele><time>2026-04-26T10:54:40.001Z</time></trkpt><trkpt lat="43.90602038812428" lon="10.350710474983467"><ele>215.0</ele><time>2026-04-26T10:54:41.001Z</time></trkpt><trkpt lat="43.90612795978923" lon="10.350551508350211"><ele>212.5</ele><time>2026-04-26T10:54:42.001Z</time></trkpt><trkpt lat="43.90621299349195" lon="10.350385354862794"><ele>210.0</ele><time>2026-04-26T10:54:43.001Z</time></trkpt><trkpt lat="43.90628011463186" lon="10.3502039046405"><ele>207.5</ele><time>2026-04-26T10:54:44.001Z</time></trkpt><trkpt lat="43.906344161495966" lon="10.350021389401707"><ele>205.0</ele><time>2026-04-26T10:54:45.001Z</time></trkpt><trkpt lat="43.90641752464257" lon="10.349830491891913"><ele>205.0</ele><time>2026-04-26T10:54:46.001Z</time></trkpt><trkpt lat="43.906478650135725" lon="10.349639739286806"><ele>205.0</ele><time>2026-04-26T10:54:47.001Z</time></trkpt><trkpt lat="43.90653938560316" lon="10.349473087489201"><ele>205.0</ele><time>2026-04-26T10:54:48.001Z</time></trkpt><trkpt lat="43.90659897434279" lon="10.34932675261729"><ele>205.0</ele><time>2026-04-26T10:54:49.001Z</time></trkpt><trkpt lat="43.90668636178746" lon="10.349201230940611"><ele>207.33333333333331</ele><time>2026-04-26T10:54:50.001Z</time></trkpt><trkpt lat="43.90678807329245" lon="10.34907658645765"><ele>209.66666666666669</ele><time>2026-04-26T10:54:51.001Z</time></trkpt><trkpt lat="43.90689139601479" lon="10.348930716869539"><ele>212.0</ele><time>2026-04-26T10:54:52.001Z</time></trkpt><trkpt lat="43.90701277673978" lon="10.348753650432005"><ele>212.0</ele><time>2026-04-26T10:54:53.001Z</time></trkpt><trkpt lat="43.90715007992453" lon="10.348535798092996"><ele>212.0</ele><time>2026-04-26T10:54:54.001Z</time></trkpt><trkpt lat="43.90729811141955" lon="10.348276281942129"><ele>212.0</ele><time>2026-04-26T10:54:55.001Z</time></trkpt><trkpt lat="43.90744113866115" lon="10.347988092752036"><ele>216.0</ele><time>2026-04-26T10:54:56.001Z</time></trkpt><trkpt lat="43.907593093384506" lon="10.347735396786701"><ele>220.0</ele><time>2026-04-26T10:54:57.001Z</time></trkpt><trkpt lat="43.9077165164164" lon="10.347506472014787"><ele>224.0</ele><time>2026-04-26T10:54:58.001Z</time></trkpt><trkpt lat="43.9078249986703" lon="10.347293610442085"><ele>222.0</ele><time>2026-04-26T10:54:59.001Z</time></trkpt><trkpt lat="43.907906612339524" lon="10.347076633286651"><ele>220.0</ele><time>2026-04-26T10:55:00.001Z</time></trkpt><trkpt lat="43.90794664953323" lon="10.346809912932551"><ele>218.0</ele><time>2026-04-26T10:55:01.001Z</time></trkpt><trkpt lat="43.907966781514745" lon="10.346503525728476"><ele>213.5</ele><time>2026-04-26T10:55:02.001Z</time></trkpt><trkpt lat="43.908012825867374" lon="10.346183205066719"><ele>209.0</ele><time>2026-04-26T10:55:03.001Z</time></trkpt><trkpt lat="43.9080353702269" lon="10.345870475761362"><ele>209.0</ele><time>2026-04-26T10:55:04.001Z</time></trkpt><trkpt lat="43.908076651629386" lon="10.345580394517112"><ele>209.0</ele><time>2026-04-26T10:55:05.002Z</time></trkpt><trkpt lat="43.9081278500339" lon="10.345297933380012"><ele>209.0</ele><time>2026-04-26T10:55:06.002Z</time></trkpt><trkpt lat="43.908221136099556" lon="10.345033124431223"><ele>208.0</ele><time>2026-04-26T10:55:07.002Z</time></trkpt><trkpt lat="43.90831190375052" lon="10.344770699093411"><ele>207.0</ele><time>2026-04-26T10:55:08.002Z</time></trkpt><trkpt lat="43.90840717639349" lon="10.344512732224011"><ele>206.0</ele><time>2026-04-26T10:55:09.002Z</time></trkpt><trkpt lat="43.90850345671431" lon="10.344246476692026"><ele>208.66666666666669</ele><time>2026-04-26T10:55:10.002Z</time></trkpt><trkpt lat="43.90860023764423" lon="10.343976341381069"><ele>211.33333333333331</ele><time>2026-04-26T10:55:11.002Z</time></trkpt><trkpt lat="43.908683905114025" lon="10.343698583102961"><ele>214.0</ele><time>2026-04-26T10:55:12.002Z</time></trkpt><trkpt lat="43.90878374201192" lon="10.343417057794122"><ele>214.0</ele><time>2026-04-26T10:55:13.002Z</time></trkpt><trkpt lat="43.90888438525856" lon="10.34314677296723"><ele>214.0</ele><time>2026-04-26T10:55:14.002Z</time></trkpt><trkpt lat="43.90898993485683" lon="10.342882344898058"><ele>214.0</ele><time>2026-04-26T10:55:15.002Z</time></trkpt><trkpt lat="43.909086328762065" lon="10.342607821642503"><ele>215.33333333333331</ele><time>2026-04-26T10:55:16.002Z</time></trkpt><trkpt lat="43.909187058419455" lon="10.342340577068647"><ele>216.66666666666669</ele><time>2026-04-26T10:55:17.002Z</time></trkpt><trkpt lat="43.90928529397679" lon="10.342069733445838"><ele>218.0</ele><time>2026-04-26T10:55:18.002Z</time></trkpt><trkpt lat="43.909378751130205" lon="10.341808328042086"><ele>218.0</ele><time>2026-04-26T10:55:19.002Z</time></trkpt><trkpt lat="43.909470370487675" lon="10.34155507493981"><ele>218.0</ele><time>2026-04-26T10:55:20.002Z</time></trkpt><trkpt lat="43.90955747867085" lon="10.341311528783281"><ele>218.0</ele><time>2026-04-26T10:55:21.002Z</time></trkpt><trkpt lat="43.909642478865116" lon="10.341084333034118"><ele>218.0</ele><time>2026-04-26T10:55:22.002Z</time></trkpt><trkpt lat="43.90972191466996" lon="10.340881178733854"><ele>218.0</ele><time>2026-04-26T10:55:23.002Z</time></trkpt><trkpt lat="43.909791959345156" lon="10.340680079094673"><ele>218.0</ele><time>2026-04-26T10:55:24.002Z</time></trkpt><trkpt lat="43.90985318489901" lon="10.340484532769384"><ele>217.5</ele><time>2026-04-26T10:55:25.002Z</time></trkpt><trkpt lat="43.90991767997546" lon="10.34029986450042"><ele>217.0</ele><time>2026-04-26T10:55:26.002Z</time></trkpt><trkpt lat="43.9099734568443" lon="10.340113732487646"><ele>216.5</ele><time>2026-04-26T10:55:27.002Z</time></trkpt><trkpt lat="43.91005366910877" lon="10.339962875106043"><ele>216.0</ele><time>2026-04-26T10:55:28.002Z</time></trkpt><trkpt lat="43.9101278349577" lon="10.33979274818636"><ele>216.75</ele><time>2026-04-26T10:55:29.002Z</time></trkpt><trkpt lat="43.910198451478585" lon="10.33960900070284"><ele>217.5</ele><time>2026-04-26T10:55:30.002Z</time></trkpt><trkpt lat="43.91024988363947" lon="10.339422021299905"><ele>218.25</ele><time>2026-04-26T10:55:31.002Z</time></trkpt><trkpt lat="43.91033215033354" lon="10.339267779888223"><ele>219.0</ele><time>2026-04-26T10:55:32.002Z</time></trkpt><trkpt lat="43.91040125168291" lon="10.339112991438874"><ele>219.0</ele><time>2026-04-26T10:55:33.002Z</time></trkpt><trkpt lat="43.910515047669456" lon="10.339017237160851"><ele>219.0</ele><time>2026-04-26T10:55:34.002Z</time></trkpt><trkpt lat="43.910627801907054" lon="10.338909838875557"><ele>219.0</ele><time>2026-04-26T10:55:35.002Z</time></trkpt><trkpt lat="43.910730219777" lon="10.33879654073477"><ele>219.0</ele><time>2026-04-26T10:55:36.002Z</time></trkpt><trkpt lat="43.91085143861813" lon="10.338774308738525"><ele>211.0</ele><time>2026-04-26T10:55:37.002Z</time></trkpt><trkpt lat="43.910984559846064" lon="10.338738959851543"><ele>203.0</ele><time>2026-04-26T10:55:38.002Z</time></trkpt><trkpt lat="43.911147907117574" lon="10.338721011700917"><ele>195.0</ele><time>2026-04-26T10:55:39.002Z</time></trkpt><trkpt lat="43.91132708523828" lon="10.338720277278789"><ele>195.0</ele><time>2026-04-26T10:55:40.002Z</time></trkpt><trkpt lat="43.911498587182" lon="10.33872663407602"><ele>195.0</ele><time>2026-04-26T10:55:41.002Z</time></trkpt><trkpt lat="43.91164824275015" lon="10.338724173728046"><ele>195.0</ele><time>2026-04-26T10:55:42.002Z</time></trkpt><trkpt lat="43.91177711489949" lon="10.3388284731428"><ele>201.66666666666669</ele><time>2026-04-26T10:55:43.002Z</time></trkpt><trkpt lat="43.91193151258187" lon="10.338923302482913"><ele>208.33333333333334</ele><time>2026-04-26T10:55:44.002Z</time></trkpt><trkpt lat="43.912115774898595" lon="10.339010994237013"><ele>215.0</ele><time>2026-04-26T10:55:45.002Z</time></trkpt><trkpt lat="43.91229421117036" lon="10.33904111700402"><ele>215.0</ele><time>2026-04-26T10:55:46.002Z</time></trkpt><trkpt lat="43.91247258775347" lon="10.339046426195456"><ele>215.0</ele><time>2026-04-26T10:55:47.002Z</time></trkpt><trkpt lat="43.91263905133483" lon="10.33906069210618"><ele>215.0</ele><time>2026-04-26T10:55:48.002Z</time></trkpt><trkpt lat="43.91279689793365" lon="10.339085626152476"><ele>209.66666666666669</ele><time>2026-04-26T10:55:49.002Z</time></trkpt><trkpt lat="43.912952630211386" lon="10.339107433097217"><ele>204.33333333333331</ele><time>2026-04-26T10:55:50.002Z</time></trkpt><trkpt lat="43.91309944456405" lon="10.339212646740961"><ele>199.0</ele><time>2026-04-26T10:55:51.002Z</time></trkpt><trkpt lat="43.91326941416351" lon="10.339294422036211"><ele>191.66666666666666</ele><time>2026-04-26T10:55:52.002Z</time></trkpt><trkpt lat="43.91343399770637" lon="10.339377891138827"><ele>184.33333333333331</ele><time>2026-04-26T10:55:53.003Z</time></trkpt><trkpt lat="43.913583923993855" lon="10.339392247393727"><ele>177.0</ele><time>2026-04-26T10:55:54.003Z</time></trkpt><trkpt lat="43.913715578296916" lon="10.339384423742036"><ele>177.0</ele><time>2026-04-26T10:55:55.003Z</time></trkpt><trkpt lat="43.91382358746348" lon="10.339383872116018"><ele>177.0</ele><time>2026-04-26T10:55:56.003Z</time></trkpt><trkpt lat="43.91390645248523" lon="10.339426893953283"><ele>177.0</ele><time>2026-04-26T10:55:57.003Z</time></trkpt><trkpt lat="43.91397266017955" lon="10.339533667019007"><ele>177.0</ele><time>2026-04-26T10:55:58.003Z</time></trkpt><trkpt lat="43.913989273769594" lon="10.339672739076459"><ele>177.0</ele><time>2026-04-26T10:55:59.001Z</time></trkpt><trkpt lat="43.91393776887092" lon="10.339814870533463"><ele>180.33333333333334</ele><time>2026-04-26T10:56:00.001Z</time></trkpt><trkpt lat="43.913857734207596" lon="10.339964037460138"><ele>183.66666666666669</ele><time>2026-04-26T10:56:01.001Z</time></trkpt><trkpt lat="43.91375402213694" lon="10.340127067059656"><ele>187.0</ele><time>2026-04-26T10:56:02.001Z</time></trkpt><trkpt lat="43.91366947877642" lon="10.340330199532094"><ele>185.66666666666669</ele><time>2026-04-26T10:56:03.001Z</time></trkpt><trkpt lat="43.91361514004926" lon="10.340561143023539"><ele>184.33333333333334</ele><time>2026-04-26T10:56:04.001Z</time></trkpt><trkpt lat="43.91358565301996" lon="10.340774325891784"><ele>183.0</ele><time>2026-04-26T10:56:05.001Z</time></trkpt><trkpt lat="43.91355867887032" lon="10.340945662901154"><ele>183.0</ele><time>2026-04-26T10:56:06.001Z</time></trkpt><trkpt lat="43.91353976776191" lon="10.34108060851643"><ele>183.0</ele><time>2026-04-26T10:56:07.001Z</time></trkpt><trkpt lat="43.913523632023484" lon="10.341199588658277"><ele>183.0</ele><time>2026-04-26T10:56:08.001Z</time></trkpt><trkpt lat="43.913528045406494" lon="10.341291136284648"><ele>183.0</ele><time>2026-04-26T10:56:09.001Z</time></trkpt><trkpt lat="43.913567545892775" lon="10.34136081281256"><ele>183.0</ele><time>2026-04-26T10:56:10.001Z</time></trkpt><trkpt lat="43.913657872076186" lon="10.341385407802903"><ele>183.0</ele><time>2026-04-26T10:56:11.001Z</time></trkpt><trkpt lat="43.913725893226754" lon="10.34135180004891"><ele>183.0</ele><time>2026-04-26T10:56:12.001Z</time></trkpt><trkpt lat="43.913757213190465" lon="10.341237168101344"><ele>183.0</ele><time>2026-04-26T10:56:13.001Z</time></trkpt><trkpt lat="43.91376049938478" lon="10.34108846935234"><ele>183.0</ele><time>2026-04-26T10:56:14.001Z</time></trkpt><trkpt lat="43.91377274960175" lon="10.340897878655358"><ele>183.0</ele><time>2026-04-26T10:56:15.001Z</time></trkpt><trkpt lat="43.91377618680583" lon="10.340680586313642"><ele>184.0</ele><time>2026-04-26T10:56:16.001Z</time></trkpt><trkpt lat="43.913812140331494" lon="10.340482216447285"><ele>185.0</ele><time>2026-04-26T10:56:17.001Z</time></trkpt><trkpt lat="43.913885208280035" lon="10.340329974128364"><ele>186.0</ele><time>2026-04-26T10:56:18.001Z</time></trkpt><trkpt lat="43.91396704483743" lon="10.34021432576288"><ele>187.0</ele><time>2026-04-26T10:56:19.001Z</time></trkpt><trkpt lat="43.9140772794936" lon="10.340156603059999"><ele>187.0</ele><time>2026-04-26T10:56:20.001Z</time></trkpt><trkpt lat="43.91420561974228" lon="10.340145558583226"><ele>187.0</ele><time>2026-04-26T10:56:21.001Z</time></trkpt><trkpt lat="43.91434976839642" lon="10.340219844592578"><ele>187.0</ele><time>2026-04-26T10:56:22.001Z</time></trkpt><trkpt lat="43.91453875943998" lon="10.340270547134365"><ele>184.33333333333334</ele><time>2026-04-26T10:56:23.001Z</time></trkpt><trkpt lat="43.914732425172666" lon="10.34032234676964"><ele>181.66666666666666</ele><time>2026-04-26T10:56:24.001Z</time></trkpt><trkpt lat="43.914928733496545" lon="10.34031009774677"><ele>179.0</ele><time>2026-04-26T10:56:25.001Z</time></trkpt><trkpt lat="43.915091184101655" lon="10.340289517951222"><ele>179.0</ele><time>2026-04-26T10:56:26.001Z</time></trkpt><trkpt lat="43.91522822990488" lon="10.340274193442179"><ele>179.0</ele><time>2026-04-26T10:56:27.001Z</time></trkpt><trkpt lat="43.91534762430311" lon="10.340247024750338"><ele>179.0</ele><time>2026-04-26T10:56:28.001Z</time></trkpt><trkpt lat="43.91545458273432" lon="10.3401351979168"><ele>179.0</ele><time>2026-04-26T10:56:29.001Z</time></trkpt><trkpt lat="43.91557804862299" lon="10.340056669894242"><ele>179.0</ele><time>2026-04-26T10:56:30.001Z</time></trkpt><trkpt lat="43.915682204483154" lon="10.340003712262847"><ele>179.0</ele><time>2026-04-26T10:56:31.001Z</time></trkpt><trkpt lat="43.915790173614624" lon="10.340035133682393"><ele>179.0</ele><time>2026-04-26T10:56:32.001Z</time></trkpt><trkpt lat="43.91591521695693" lon="10.340135870214924"><ele>179.0</ele><time>2026-04-26T10:56:33.001Z</time></trkpt><trkpt lat="43.9160685206267" lon="10.340199542742223"><ele>176.0</ele><time>2026-04-26T10:56:34.001Z</time></trkpt><trkpt lat="43.91619544823843" lon="10.340202753495404"><ele>173.0</ele><time>2026-04-26T10:56:35.001Z</time></trkpt><trkpt lat="43.9163280481862" lon="10.34013785743221"><ele>170.0</ele><time>2026-04-26T10:56:36.001Z</time></trkpt><trkpt lat="43.91646259369498" lon="10.339997953007503"><ele>167.0</ele><time>2026-04-26T10:56:37.001Z</time></trkpt><trkpt lat="43.91663889351691" lon="10.339832518530049"><ele>163.66666666666666</ele><time>2026-04-26T10:56:38.001Z</time></trkpt><trkpt lat="43.91681770265639" lon="10.339649735661531"><ele>160.33333333333334</ele><time>2026-04-26T10:56:39.001Z</time></trkpt><trkpt lat="43.916973967007365" lon="10.339500269187507"><ele>157.0</ele><time>2026-04-26T10:56:40.001Z</time></trkpt><trkpt lat="43.917111970671904" lon="10.33937032337987"><ele>157.0</ele><time>2026-04-26T10:56:41.001Z</time></trkpt><trkpt lat="43.91725996080488" lon="10.339334808628381"><ele>157.0</ele><time>2026-04-26T10:56:42.001Z</time></trkpt><trkpt lat="43.917413255921794" lon="10.339316011463335"><ele>157.0</ele><time>2026-04-26T10:56:43.001Z</time></trkpt><trkpt lat="43.917536416380344" lon="10.339367201783908"><ele>157.0</ele><time>2026-04-26T10:56:44.001Z</time></trkpt><trkpt lat="43.917652668036375" lon="10.339381229806532"><ele>153.6</ele><time>2026-04-26T10:56:45.001Z</time></trkpt><trkpt lat="43.917733511916836" lon="10.339412602936212"><ele>150.2</ele><time>2026-04-26T10:56:46.001Z</time></trkpt><trkpt lat="43.91780209507777" lon="10.339310436509574"><ele>146.8</ele><time>2026-04-26T10:56:47.001Z</time></trkpt><trkpt lat="43.91780039274347" lon="10.339134990710292"><ele>143.4</ele><time>2026-04-26T10:56:48.001Z</time></trkpt><trkpt lat="43.917760283045574" lon="10.338998939337303"><ele>140.0</ele><time>2026-04-26T10:56:49.001Z</time></trkpt><trkpt lat="43.917693508269124" lon="10.33889456986528"><ele>145.66666666666666</ele><time>2026-04-26T10:56:50.001Z</time></trkpt><trkpt lat="43.91753684254476" lon="10.338932267684852"><ele>151.33333333333334</ele><time>2026-04-26T10:56:51.001Z</time></trkpt><trkpt lat="43.917388410750846" lon="10.338979126887368"><ele>157.0</ele><time>2026-04-26T10:56:52.001Z</time></trkpt><trkpt lat="43.91721193600449" lon="10.339044891352001"><ele>157.0</ele><time>2026-04-26T10:56:53.001Z</time></trkpt><trkpt lat="43.91701376813512" lon="10.339100828976482"><ele>157.0</ele><time>2026-04-26T10:56:54.001Z</time></trkpt><trkpt lat="43.9167999284162" lon="10.339148525954124"><ele>157.0</ele><time>2026-04-26T10:56:55.001Z</time></trkpt><trkpt lat="43.91659998627713" lon="10.33920769498764"><ele>157.0</ele><time>2026-04-26T10:56:56.001Z</time></trkpt><trkpt lat="43.916418565449625" lon="10.339244025120918"><ele>157.0</ele><time>2026-04-26T10:56:57.001Z</time></trkpt><trkpt lat="43.916251768141244" lon="10.339247413883763"><ele>157.0</ele><time>2026-04-26T10:56:58.001Z</time></trkpt><trkpt lat="43.91611317749108" lon="10.339174686706858"><ele>157.0</ele><time>2026-04-26T10:56:59.001Z</time></trkpt><trkpt lat="43.91598948973956" lon="10.339058534782295"><ele>157.0</ele><time>2026-04-26T10:57:00.001Z</time></trkpt><trkpt lat="43.91584440191212" lon="10.338982743908247"><ele>157.0</ele><time>2026-04-26T10:57:01.001Z</time></trkpt><trkpt lat="43.91571121228814" lon="10.338925242237279"><ele>157.0</ele><time>2026-04-26T10:57:02.001Z</time></trkpt><trkpt lat="43.91554828469884" lon="10.338924104394373"><ele>158.0</ele><time>2026-04-26T10:57:03.001Z</time></trkpt><trkpt lat="43.915387397207716" lon="10.338962095793336"><ele>159.0</ele><time>2026-04-26T10:57:04.001Z</time></trkpt><trkpt lat="43.915250134023196" lon="10.33903308310505"><ele>160.0</ele><time>2026-04-26T10:57:05.001Z</time></trkpt><trkpt lat="43.91514424344544" lon="10.3390992948762"><ele>161.0</ele><time>2026-04-26T10:57:06.001Z</time></trkpt><trkpt lat="43.91505205321047" lon="10.339126135872439"><ele>161.0</ele><time>2026-04-26T10:57:07.001Z</time></trkpt><trkpt lat="43.91496122879082" lon="10.339073212951972"><ele>161.0</ele><time>2026-04-26T10:57:08.001Z</time></trkpt><trkpt lat="43.914909208402385" lon="10.33891545066666"><ele>161.0</ele><time>2026-04-26T10:57:09.001Z</time></trkpt><trkpt lat="43.91485475774238" lon="10.338728938283204"><ele>161.0</ele><time>2026-04-26T10:57:10.001Z</time></trkpt><trkpt lat="43.914764482362834" lon="10.338528715041342"><ele>156.0</ele><time>2026-04-26T10:57:11.001Z</time></trkpt><trkpt lat="43.914688999348144" lon="10.338329328508468"><ele>151.0</ele><time>2026-04-26T10:57:12.001Z</time></trkpt><trkpt lat="43.91461985011151" lon="10.33817755177712"><ele>146.0</ele><time>2026-04-26T10:57:13.001Z</time></trkpt><trkpt lat="43.914529201795304" lon="10.338074343694002"><ele>141.0</ele><time>2026-04-26T10:57:14.001Z</time></trkpt><trkpt lat="43.91440001813959" lon="10.33802737779476"><ele>139.0</ele><time>2026-04-26T10:57:15.001Z</time></trkpt><trkpt lat="43.914238979196305" lon="10.338027896530868"><ele>137.0</ele><time>2026-04-26T10:57:16.002Z</time></trkpt><trkpt lat="43.91405870191923" lon="10.337953809720611"><ele>135.0</ele><time>2026-04-26T10:57:17.002Z</time></trkpt><trkpt lat="43.91390076620182" lon="10.337823064203365"><ele>135.0</ele><time>2026-04-26T10:57:18.002Z</time></trkpt><trkpt lat="43.913756313600636" lon="10.337678305866175"><ele>135.0</ele><time>2026-04-26T10:57:19.002Z</time></trkpt><trkpt lat="43.91360699637213" lon="10.337612737248126"><ele>135.0</ele><time>2026-04-26T10:57:20.002Z</time></trkpt><trkpt lat="43.9134571564351" lon="10.33759361097988"><ele>135.2</ele><time>2026-04-26T10:57:21.002Z</time></trkpt><trkpt lat="43.913319808190224" lon="10.337589442838038"><ele>135.4</ele><time>2026-04-26T10:57:22.002Z</time></trkpt><trkpt lat="43.913219000916826" lon="10.337519489800066"><ele>135.6</ele><time>2026-04-26T10:57:23.002Z</time></trkpt><trkpt lat="43.913152595354305" lon="10.337440357312426"><ele>135.8</ele><time>2026-04-26T10:57:24.002Z</time></trkpt><trkpt lat="43.91312789307974" lon="10.337330915650053"><ele>136.0</ele><time>2026-04-26T10:57:25.002Z</time></trkpt><trkpt lat="43.91320752637772" lon="10.337201971172169"><ele>136.0</ele><time>2026-04-26T10:57:26.002Z</time></trkpt><trkpt lat="43.91323512906448" lon="10.337025468502324"><ele>136.0</ele><time>2026-04-26T10:57:27.002Z</time></trkpt><trkpt lat="43.9132839211649" lon="10.336884451553974"><ele>136.0</ele><time>2026-04-26T10:57:28.002Z</time></trkpt><trkpt lat="43.9133066449409" lon="10.336755179698766"><ele>136.0</ele><time>2026-04-26T10:57:29.002Z</time></trkpt><trkpt lat="43.913302774245125" lon="10.33663230471556"><ele>136.0</ele><time>2026-04-26T10:57:30.002Z</time></trkpt><trkpt lat="43.91326505221678" lon="10.33651421243433"><ele>136.0</ele><time>2026-04-26T10:57:31.002Z</time></trkpt><trkpt lat="43.913213241768965" lon="10.336407638833604"><ele>136.0</ele><time>2026-04-26T10:57:32.002Z</time></trkpt><trkpt lat="43.91316051381535" lon="10.336309088410545"><ele>136.0</ele><time>2026-04-26T10:57:33.002Z</time></trkpt><trkpt lat="43.9131082093789" lon="10.33622012844643"><ele>136.0</ele><time>2026-04-26T10:57:34.002Z</time></trkpt><trkpt lat="43.91303489467519" lon="10.336164337399962"><ele>136.0</ele><time>2026-04-26T10:57:35.002Z</time></trkpt><trkpt lat="43.912953298871216" lon="10.336130102738352"><ele>136.0</ele><time>2026-04-26T10:57:36.002Z</time></trkpt><trkpt lat="43.91287500516208" lon="10.336103302237692"><ele>134.57142857142856</ele><time>2026-04-26T10:57:37.002Z</time></trkpt><trkpt lat="43.912802898389344" lon="10.336071759164849"><ele>133.14285714285714</ele><time>2026-04-26T10:57:38.002Z</time></trkpt><trkpt lat="43.91274495084257" lon="10.336016410988947"><ele>131.71428571428572</ele><time>2026-04-26T10:57:39.002Z</time></trkpt><trkpt lat="43.912706906089085" lon="10.3359329661074"><ele>130.28571428571428</ele><time>2026-04-26T10:57:40.002Z</time></trkpt><trkpt lat="43.912715648065635" lon="10.33582914871627"><ele>128.85714285714286</ele><time>2026-04-26T10:57:41.002Z</time></trkpt><trkpt lat="43.912744074736906" lon="10.335740069586699"><ele>127.42857142857143</ele><time>2026-04-26T10:57:42.002Z</time></trkpt><trkpt lat="43.912783982618215" lon="10.335650934623871"><ele>126.0</ele><time>2026-04-26T10:57:43.002Z</time></trkpt><trkpt lat="43.91287864151047" lon="10.335634059587587"><ele>126.0</ele><time>2026-04-26T10:57:44.002Z</time></trkpt><trkpt lat="43.912965503987955" lon="10.335640079406254"><ele>126.0</ele><time>2026-04-26T10:57:45.002Z</time></trkpt><trkpt lat="43.91303055197123" lon="10.335735466024735"><ele>126.0</ele><time>2026-04-26T10:57:46.002Z</time></trkpt><trkpt lat="43.91309156392054" lon="10.335845022216581"><ele>126.0</ele><time>2026-04-26T10:57:47.002Z</time></trkpt><trkpt lat="43.91313649696938" lon="10.33593613408238"><ele>126.0</ele><time>2026-04-26T10:57:48.002Z</time></trkpt><trkpt lat="43.91319212345005" lon="10.336010639977724"><ele>126.0</ele><time>2026-04-26T10:57:49.002Z</time></trkpt><trkpt lat="43.913248266043944" lon="10.336084644677957"><ele>126.0</ele><time>2026-04-26T10:57:50.002Z</time></trkpt><trkpt lat="43.91329801080487" lon="10.336165575975457"><ele>126.0</ele><time>2026-04-26T10:57:51.002Z</time></trkpt><trkpt lat="43.91335837399968" lon="10.336247728854971"><ele>126.0</ele><time>2026-04-26T10:57:52.002Z</time></trkpt><trkpt lat="43.91341869653876" lon="10.336345349535012"><ele>126.0</ele><time>2026-04-26T10:57:53.002Z</time></trkpt><trkpt lat="43.91348801957575" lon="10.336460198032723"><ele>126.0</ele><time>2026-04-26T10:57:54.002Z</time></trkpt><trkpt lat="43.91352199622101" lon="10.336605604458354"><ele>124.16666666666667</ele><time>2026-04-26T10:57:55.002Z</time></trkpt><trkpt lat="43.913531808538956" lon="10.33674786074965"><ele>122.33333333333334</ele><time>2026-04-26T10:57:56.002Z</time></trkpt><trkpt lat="43.91353209307797" lon="10.336879191109503"><ele>120.5</ele><time>2026-04-26T10:57:57.002Z</time></trkpt><trkpt lat="43.913538860019614" lon="10.33699895047079"><ele>118.66666666666667</ele><time>2026-04-26T10:57:58.002Z</time></trkpt><trkpt lat="43.913563661929985" lon="10.337100968156374"><ele>116.83333333333334</ele><time>2026-04-26T10:57:59.002Z</time></trkpt><trkpt lat="43.91362456636647" lon="10.33718019172299"><ele>115.0</ele><time>2026-04-26T10:58:00.002Z</time></trkpt><trkpt lat="43.913709155695635" lon="10.337213942924736"><ele>115.0</ele><time>2026-04-26T10:58:01.002Z</time></trkpt><trkpt lat="43.91379417547902" lon="10.337188457533175"><ele>115.0</ele><time>2026-04-26T10:58:02.002Z</time></trkpt><trkpt lat="43.91388675086171" lon="10.337161909101022"><ele>115.0</ele><time>2026-04-26T10:58:03.002Z</time></trkpt><trkpt lat="43.91398198980277" lon="10.337139492844447"><ele>115.0</ele><time>2026-04-26T10:58:04.002Z</time></trkpt><trkpt lat="43.914075339772154" lon="10.337127278694252"><ele>115.0</ele><time>2026-04-26T10:58:05Z</time></trkpt><trkpt lat="43.91417432089738" lon="10.337115133014317"><ele>113.8</ele><time>2026-04-26T10:58:06Z</time></trkpt><trkpt lat="43.91427235579464" lon="10.337125282039908"><ele>112.6</ele><time>2026-04-26T10:58:07Z</time></trkpt><trkpt lat="43.914366887667406" lon="10.337114017285845"><ele>111.4</ele><time>2026-04-26T10:58:08Z</time></trkpt><trkpt lat="43.91446023684013" lon="10.337118041465756"><ele>110.2</ele><time>2026-04-26T10:58:09Z</time></trkpt><trkpt lat="43.914552898200185" lon="10.33713231073297"><ele>109.0</ele><time>2026-04-26T10:58:10Z</time></trkpt><trkpt lat="43.914642136267375" lon="10.337138717790989"><ele>109.00000000000001</ele><time>2026-04-26T10:58:11Z</time></trkpt><trkpt lat="43.91472597260135" lon="10.337160190675199"><ele>109.0</ele><time>2026-04-26T10:58:12Z</time></trkpt><trkpt lat="43.91480481660826" lon="10.33720462342837"><ele>109.0</ele><time>2026-04-26T10:58:13Z</time></trkpt><trkpt lat="43.91487752338725" lon="10.337272203698733"><ele>109.0</ele><time>2026-04-26T10:58:14Z</time></trkpt><trkpt lat="43.91493543955567" lon="10.337376153214471"><ele>109.00000000000001</ele><time>2026-04-26T10:58:15Z</time></trkpt><trkpt lat="43.91498718787083" lon="10.337481539303772"><ele>109.0</ele><time>2026-04-26T10:58:16Z</time></trkpt><trkpt lat="43.915040898888954" lon="10.337566043967628"><ele>109.80000000000001</ele><time>2026-04-26T10:58:17Z</time></trkpt><trkpt lat="43.915117887037" lon="10.337614553723567"><ele>110.60000000000001</ele><time>2026-04-26T10:58:18Z</time></trkpt><trkpt lat="43.91520422262114" lon="10.337608836217896"><ele>111.4</ele><time>2026-04-26T10:58:19Z</time></trkpt><trkpt lat="43.915280277909865" lon="10.337531784358607"><ele>112.2</ele><time>2026-04-26T10:58:20Z</time></trkpt><trkpt lat="43.915335693478504" lon="10.337404043000346"><ele>113.0</ele><time>2026-04-26T10:58:21Z</time></trkpt><trkpt lat="43.915384908089756" lon="10.337250911779366"><ele>111.80000000000001</ele><time>2026-04-26T10:58:22Z</time></trkpt><trkpt lat="43.915435534911694" lon="10.33711574114274"><ele>110.60000000000001</ele><time>2026-04-26T10:58:23Z</time></trkpt><trkpt lat="43.91551469101193" lon="10.3370189192377"><ele>109.39999999999999</ele><time>2026-04-26T10:58:24Z</time></trkpt><trkpt lat="43.915589268889526" lon="10.336924888959407"><ele>108.19999999999999</ele><time>2026-04-26T10:58:25Z</time></trkpt><trkpt lat="43.91567311951576" lon="10.336832350686716"><ele>107.0</ele><time>2026-04-26T10:58:26Z</time></trkpt><trkpt lat="43.915751308714235" lon="10.336744302994724"><ele>107.0</ele><time>2026-04-26T10:58:27Z</time></trkpt><trkpt lat="43.915845601461" lon="10.336708984816743"><ele>106.99999999999999</ele><time>2026-04-26T10:58:28Z</time></trkpt><trkpt lat="43.91594953042314" lon="10.336739847353721"><ele>106.99999999999999</ele><time>2026-04-26T10:58:29Z</time></trkpt><trkpt lat="43.916051778261625" lon="10.336756149783193"><ele>107.0</ele><time>2026-04-26T10:58:30Z</time></trkpt><trkpt lat="43.91615001702492" lon="10.3368196577874"><ele>107.0</ele><time>2026-04-26T10:58:31Z</time></trkpt><trkpt lat="43.91624118112838" lon="10.336876694659908"><ele>107.0</ele><time>2026-04-26T10:58:32Z</time></trkpt><trkpt lat="43.91633208535352" lon="10.336928253416891"><ele>106.99999999999999</ele><time>2026-04-26T10:58:33Z</time></trkpt><trkpt lat="43.916430101280056" lon="10.336978131411515"><ele>106.99999999999999</ele><time>2026-04-26T10:58:34Z</time></trkpt><trkpt lat="43.916531464611396" lon="10.337034491463662"><ele>107.0</ele><time>2026-04-26T10:58:35Z</time></trkpt><trkpt lat="43.916625709484045" lon="10.337092097626394"><ele>107.0</ele><time>2026-04-26T10:58:36Z</time></trkpt><trkpt lat="43.91671802777783" lon="10.337149224683829"><ele>109.39999999999999</ele><time>2026-04-26T10:58:37Z</time></trkpt><trkpt lat="43.91680639934437" lon="10.337197721357287"><ele>111.79999999999998</ele><time>2026-04-26T10:58:38Z</time></trkpt><trkpt lat="43.916892207255245" lon="10.337211782019846"><ele>114.2</ele><time>2026-04-26T10:58:39Z</time></trkpt><trkpt lat="43.91696942291507" lon="10.337158171785301"><ele>116.6</ele><time>2026-04-26T10:58:40Z</time></trkpt><trkpt lat="43.91703971263416" lon="10.33709388603068"><ele>119.0</ele><time>2026-04-26T10:58:41Z</time></trkpt><trkpt lat="43.91703219668726" lon="10.33689464572037"><ele>119.0</ele><time>2026-04-26T10:58:42Z</time></trkpt><trkpt lat="43.91702711640173" lon="10.33674571278131"><ele>119.0</ele><time>2026-04-26T10:58:43.001Z</time></trkpt><trkpt lat="43.91702902938388" lon="10.336595732347872"><ele>119.0</ele><time>2026-04-26T10:58:44.001Z</time></trkpt><trkpt lat="43.91703786258217" lon="10.336433492088187"><ele>119.0</ele><time>2026-04-26T10:58:45.001Z</time></trkpt><trkpt lat="43.91705222451033" lon="10.336278275028258"><ele>119.0</ele><time>2026-04-26T10:58:46.001Z</time></trkpt><trkpt lat="43.91706999442736" lon="10.336133807185995"><ele>116.4</ele><time>2026-04-26T10:58:47.001Z</time></trkpt><trkpt lat="43.917121061795264" lon="10.336010317835687"><ele>113.80000000000001</ele><time>2026-04-26T10:58:48.001Z</time></trkpt><trkpt lat="43.91717975516142" lon="10.335892082003785"><ele>111.19999999999999</ele><time>2026-04-26T10:58:49.001Z</time></trkpt><trkpt lat="43.91726492279815" lon="10.335797433888821"><ele>108.6</ele><time>2026-04-26T10:58:50.001Z</time></trkpt><trkpt lat="43.917368751170365" lon="10.335714192534876"><ele>106.0</ele><time>2026-04-26T10:58:51.001Z</time></trkpt><trkpt lat="43.91752829008767" lon="10.335473767129098"><ele>105.25</ele><time>2026-04-26T10:58:53.001Z</time></trkpt><trkpt lat="43.91760687041951" lon="10.33534974926397"><ele>104.5</ele><time>2026-04-26T10:58:54.001Z</time></trkpt><trkpt lat="43.917695222496626" lon="10.335245685924892"><ele>103.75</ele><time>2026-04-26T10:58:55.001Z</time></trkpt><trkpt lat="43.91777584717274" lon="10.335122119049984"><ele>103.0</ele><time>2026-04-26T10:58:56.001Z</time></trkpt><trkpt lat="43.91785884558718" lon="10.334995983227843"><ele>103.0</ele><time>2026-04-26T10:58:57.001Z</time></trkpt><trkpt lat="43.91793060453509" lon="10.334851900741928"><ele>103.0</ele><time>2026-04-26T10:58:58.001Z</time></trkpt><trkpt lat="43.918016001877746" lon="10.334723665966958"><ele>103.0</ele><time>2026-04-26T10:58:59.001Z</time></trkpt><trkpt lat="43.91809701375924" lon="10.33460187946634"><ele>103.0</ele><time>2026-04-26T10:59:00.001Z</time></trkpt><trkpt lat="43.91819050586697" lon="10.334483031670292"><ele>100.25</ele><time>2026-04-26T10:59:01.001Z</time></trkpt><trkpt lat="43.91831014059052" lon="10.334425564527677"><ele>97.5</ele><time>2026-04-26T10:59:02.001Z</time></trkpt><trkpt lat="43.918434554910384" lon="10.33436203621174"><ele>94.75</ele><time>2026-04-26T10:59:03.001Z</time></trkpt><trkpt lat="43.91857414819381" lon="10.334318513368522"><ele>92.0</ele><time>2026-04-26T10:59:04.001Z</time></trkpt><trkpt lat="43.91874407758868" lon="10.334274193456807"><ele>91.33333333333334</ele><time>2026-04-26T10:59:05.001Z</time></trkpt><trkpt lat="43.9189399376697" lon="10.334210660967816"><ele>90.66666666666667</ele><time>2026-04-26T10:59:06.001Z</time></trkpt><trkpt lat="43.91914677376854" lon="10.334141169061537"><ele>90.0</ele><time>2026-04-26T10:59:07.001Z</time></trkpt><trkpt lat="43.919365872676856" lon="10.334068805481815"><ele>88.33333333333333</ele><time>2026-04-26T10:59:08.001Z</time></trkpt><trkpt lat="43.91958797250733" lon="10.33399889596342"><ele>86.66666666666666</ele><time>2026-04-26T10:59:09.001Z</time></trkpt><trkpt lat="43.91979726460834" lon="10.333950848082774"><ele>85.0</ele><time>2026-04-26T10:59:10.001Z</time></trkpt><trkpt lat="43.919986551524445" lon="10.333902486737589"><ele>85.0</ele><time>2026-04-26T10:59:11.001Z</time></trkpt><trkpt lat="43.920163564621625" lon="10.333854562461317"><ele>85.0</ele><time>2026-04-26T10:59:12.001Z</time></trkpt><trkpt lat="43.920321096043715" lon="10.333813150051578"><ele>85.0</ele><time>2026-04-26T10:59:13.001Z</time></trkpt><trkpt lat="43.92046183160428" lon="10.333779202843749"><ele>85.0</ele><time>2026-04-26T10:59:14.001Z</time></trkpt><trkpt lat="43.92057577998841" lon="10.333730716496571"><ele>85.0</ele><time>2026-04-26T10:59:15.001Z</time></trkpt><trkpt lat="43.92068075318106" lon="10.333636858113218"><ele>85.0</ele><time>2026-04-26T10:59:16.001Z</time></trkpt><trkpt lat="43.9207410728156" lon="10.333485576871198"><ele>85.0</ele><time>2026-04-26T10:59:17.001Z</time></trkpt><trkpt lat="43.92080512964351" lon="10.333284835284356"><ele>83.66666666666666</ele><time>2026-04-26T10:59:18.001Z</time></trkpt><trkpt lat="43.92084584801312" lon="10.333036207889462"><ele>82.33333333333333</ele><time>2026-04-26T10:59:19.001Z</time></trkpt><trkpt lat="43.92090627101554" lon="10.33280076746475"><ele>81.0</ele><time>2026-04-26T10:59:20.001Z</time></trkpt><trkpt lat="43.92098313367579" lon="10.332532999898897"><ele>82.0</ele><time>2026-04-26T10:59:21.001Z</time></trkpt><trkpt lat="43.92105797148433" lon="10.332240851009084"><ele>83.0</ele><time>2026-04-26T10:59:22.001Z</time></trkpt><trkpt lat="43.92111720850522" lon="10.331968504605879"><ele>84.0</ele><time>2026-04-26T10:59:23.001Z</time></trkpt><trkpt lat="43.92118286387433" lon="10.331703809464369"><ele>84.0</ele><time>2026-04-26T10:59:24.001Z</time></trkpt><trkpt lat="43.92124541169922" lon="10.331440291253658"><ele>84.0</ele><time>2026-04-26T10:59:25.001Z</time></trkpt><trkpt lat="43.92131316901777" lon="10.331169957346738"><ele>84.0</ele><time>2026-04-26T10:59:26.001Z</time></trkpt><trkpt lat="43.921384785842356" lon="10.33091144070052"><ele>82.33333333333333</ele><time>2026-04-26T10:59:27.001Z</time></trkpt><trkpt lat="43.92145216021485" lon="10.330644798508246"><ele>80.66666666666666</ele><time>2026-04-26T10:59:28.001Z</time></trkpt><trkpt lat="43.92151883110147" lon="10.330382169803938"><ele>79.0</ele><time>2026-04-26T10:59:29.001Z</time></trkpt><trkpt lat="43.92160125112985" lon="10.33012583535207"><ele>79.0</ele><time>2026-04-26T10:59:30.001Z</time></trkpt><trkpt lat="43.92167351884302" lon="10.329870170833244"><ele>79.0</ele><time>2026-04-26T10:59:31.001Z</time></trkpt><trkpt lat="43.92174044441441" lon="10.329617758707641"><ele>79.0</ele><time>2026-04-26T10:59:32.001Z</time></trkpt><trkpt lat="43.92180197658885" lon="10.329381323321142"><ele>79.0</ele><time>2026-04-26T10:59:33.001Z</time></trkpt><trkpt lat="43.921867830710866" lon="10.32915596389236"><ele>79.0</ele><time>2026-04-26T10:59:34.001Z</time></trkpt><trkpt lat="43.92195165612176" lon="10.328941904583157"><ele>79.0</ele><time>2026-04-26T10:59:35.001Z</time></trkpt><trkpt lat="43.92205751791486" lon="10.328753691289204"><ele>76.0</ele><time>2026-04-26T10:59:36.001Z</time></trkpt><trkpt lat="43.92218517738674" lon="10.328563299465992"><ele>73.0</ele><time>2026-04-26T10:59:37.002Z</time></trkpt><trkpt lat="43.92231813111405" lon="10.328365604683233"><ele>70.0</ele><time>2026-04-26T10:59:38.002Z</time></trkpt><trkpt lat="43.92245066523589" lon="10.328175560393229"><ele>69.66666666666666</ele><time>2026-04-26T10:59:39.002Z</time></trkpt><trkpt lat="43.922585859531154" lon="10.327982966995632"><ele>69.33333333333333</ele><time>2026-04-26T10:59:40.002Z</time></trkpt><trkpt lat="43.92272152460388" lon="10.327785703889653"><ele>69.0</ele><time>2026-04-26T10:59:41.002Z</time></trkpt><trkpt lat="43.9228517234322" lon="10.327583678126837"><ele>69.0</ele><time>2026-04-26T10:59:42.002Z</time></trkpt><trkpt lat="43.922980620023836" lon="10.327391356174026"><ele>69.0</ele><time>2026-04-26T10:59:43.002Z</time></trkpt><trkpt lat="43.9231124989891" lon="10.32719745376074"><ele>69.0</ele><time>2026-04-26T10:59:44.002Z</time></trkpt><trkpt lat="43.923246723419766" lon="10.326999159547654"><ele>68.0</ele><time>2026-04-26T10:59:45.002Z</time></trkpt><trkpt lat="43.92337253562622" lon="10.326779951083335"><ele>67.0</ele><time>2026-04-26T10:59:46.002Z</time></trkpt><trkpt lat="43.92350976108492" lon="10.326582921019675"><ele>66.0</ele><time>2026-04-26T10:59:47.002Z</time></trkpt><trkpt lat="43.92364457680551" lon="10.326383195779739"><ele>64.66666666666667</ele><time>2026-04-26T10:59:48.002Z</time></trkpt><trkpt lat="43.923786123800674" lon="10.326196861569073"><ele>63.333333333333336</ele><time>2026-04-26T10:59:49.002Z</time></trkpt><trkpt lat="43.92391965087234" lon="10.325983124191946"><ele>62.0</ele><time>2026-04-26T10:59:50.002Z</time></trkpt><trkpt lat="43.92406170206044" lon="10.325800866980348"><ele>62.0</ele><time>2026-04-26T10:59:51.002Z</time></trkpt><trkpt lat="43.92420281590113" lon="10.325596956693444"><ele>62.0</ele><time>2026-04-26T10:59:52.002Z</time></trkpt><trkpt lat="43.92432493358779" lon="10.325392068140433"><ele>62.0</ele><time>2026-04-26T10:59:53.002Z</time></trkpt><trkpt lat="43.924452029733914" lon="10.325207793441502"><ele>61.333333333333336</ele><time>2026-04-26T10:59:54.002Z</time></trkpt><trkpt lat="43.92457168825382" lon="10.325011070017549"><ele>60.66666666666667</ele><time>2026-04-26T10:59:55.002Z</time></trkpt><trkpt lat="43.924674813156024" lon="10.32479909850672"><ele>60.0</ele><time>2026-04-26T10:59:56.002Z</time></trkpt><trkpt lat="43.92476858708244" lon="10.324578842582055"><ele>60.0</ele><time>2026-04-26T10:59:57.002Z</time></trkpt><trkpt lat="43.92488347171225" lon="10.324368841656478"><ele>60.0</ele><time>2026-04-26T10:59:58.002Z</time></trkpt><trkpt lat="43.924983449880145" lon="10.324151860540509"><ele>60.0</ele><time>2026-04-26T10:59:59.002Z</time></trkpt><trkpt lat="43.92508722105137" lon="10.323923965838352"><ele>61.33333333333333</ele><time>2026-04-26T11:00:00.002Z</time></trkpt><trkpt lat="43.92519005770292" lon="10.323698123370779"><ele>62.666666666666664</ele><time>2026-04-26T11:00:01.002Z</time></trkpt><trkpt lat="43.92529095680036" lon="10.323481564613004"><ele>64.0</ele><time>2026-04-26T11:00:02.002Z</time></trkpt><trkpt lat="43.9253908906737" lon="10.323268801894681"><ele>62.33333333333333</ele><time>2026-04-26T11:00:03.002Z</time></trkpt><trkpt lat="43.92548580968965" lon="10.323052192059523"><ele>60.66666666666667</ele><time>2026-04-26T11:00:04.002Z</time></trkpt><trkpt lat="43.925577457838344" lon="10.322844493824405"><ele>59.0</ele><time>2026-04-26T11:00:05.002Z</time></trkpt><trkpt lat="43.9256709543582" lon="10.322632711288007"><ele>59.0</ele><time>2026-04-26T11:00:06.002Z</time></trkpt><trkpt lat="43.92576569914202" lon="10.322418425194432"><ele>59.0</ele><time>2026-04-26T11:00:07.002Z</time></trkpt><trkpt lat="43.92585905954752" lon="10.322207270017014"><ele>59.0</ele><time>2026-04-26T11:00:08.002Z</time></trkpt><trkpt lat="43.92594727522765" lon="10.322007992705762"><ele>60.333333333333336</ele><time>2026-04-26T11:00:09.002Z</time></trkpt><trkpt lat="43.926033437773775" lon="10.3218204308726"><ele>61.66666666666667</ele><time>2026-04-26T11:00:10.002Z</time></trkpt><trkpt lat="43.9261169570012" lon="10.321638623799457"><ele>63.0</ele><time>2026-04-26T11:00:10.999Z</time></trkpt><trkpt lat="43.92620628579813" lon="10.321430402621003"><ele>61.0</ele><time>2026-04-26T11:00:11.999Z</time></trkpt><trkpt lat="43.92630020446934" lon="10.321214592385633"><ele>59.0</ele><time>2026-04-26T11:00:12.999Z</time></trkpt><trkpt lat="43.926401874200835" lon="10.320992556256147"><ele>57.0</ele><time>2026-04-26T11:00:13.999Z</time></trkpt><trkpt lat="43.92651172493414" lon="10.320763571131083"><ele>57.66666666666667</ele><time>2026-04-26T11:00:14.999Z</time></trkpt><trkpt lat="43.92661963759037" lon="10.320530408287057"><ele>58.333333333333336</ele><time>2026-04-26T11:00:15.999Z</time></trkpt><trkpt lat="43.9267254665049" lon="10.32030315452656"><ele>59.0</ele><time>2026-04-26T11:00:16.999Z</time></trkpt><trkpt lat="43.9268369849071" lon="10.3200838301314"><ele>59.0</ele><time>2026-04-26T11:00:17.999Z</time></trkpt><trkpt lat="43.92693647639864" lon="10.319851721902957"><ele>59.0</ele><time>2026-04-26T11:00:18.999Z</time></trkpt><trkpt lat="43.92702396898158" lon="10.31960992551859"><ele>59.0</ele><time>2026-04-26T11:00:19.999Z</time></trkpt><trkpt lat="43.92709889109126" lon="10.319364826115304"><ele>58.333333333333336</ele><time>2026-04-26T11:00:20.999Z</time></trkpt><trkpt lat="43.92716448693384" lon="10.319125827504116"><ele>57.66666666666667</ele><time>2026-04-26T11:00:21.999Z</time></trkpt><trkpt lat="43.92722919201511" lon="10.31888291666084"><ele>57.0</ele><time>2026-04-26T11:00:22.999Z</time></trkpt><trkpt lat="43.92729011793093" lon="10.318637407191366"><ele>55.33333333333333</ele><time>2026-04-26T11:00:23.999Z</time></trkpt><trkpt lat="43.92734924565112" lon="10.318393754598494"><ele>53.666666666666664</ele><time>2026-04-26T11:00:24.999Z</time></trkpt><trkpt lat="43.92740822096523" lon="10.31815858388265"><ele>52.0</ele><time>2026-04-26T11:00:25.999Z</time></trkpt><trkpt lat="43.92746418127861" lon="10.317932606754562"><ele>51.666666666666664</ele><time>2026-04-26T11:00:26.999Z</time></trkpt><trkpt lat="43.92751509267368" lon="10.317723924139406"><ele>51.33333333333333</ele><time>2026-04-26T11:00:27.999Z</time></trkpt><trkpt lat="43.92756227183685" lon="10.31752127333272"><ele>51.0</ele><time>2026-04-26T11:00:28.999Z</time></trkpt><trkpt lat="43.92760889645197" lon="10.317321004657503"><ele>51.25</ele><time>2026-04-26T11:00:30Z</time></trkpt><trkpt lat="43.927640465562085" lon="10.31713027524626"><ele>51.5</ele><time>2026-04-26T11:00:31Z</time></trkpt><trkpt lat="43.92768516486728" lon="10.316952087580276"><ele>51.75</ele><time>2026-04-26T11:00:32Z</time></trkpt><trkpt lat="43.92773098558336" lon="10.316779184405664"><ele>52.0</ele><time>2026-04-26T11:00:33Z</time></trkpt><trkpt lat="43.92778048884357" lon="10.316605905345282"><ele>52.0</ele><time>2026-04-26T11:00:34Z</time></trkpt><trkpt lat="43.92784947622311" lon="10.31641927391435"><ele>52.0</ele><time>2026-04-26T11:00:35Z</time></trkpt><trkpt lat="43.92790495503306" lon="10.316197212862665"><ele>52.0</ele><time>2026-04-26T11:00:36Z</time></trkpt><trkpt lat="43.92796252528231" lon="10.315956485046941"><ele>50.666666666666664</ele><time>2026-04-26T11:00:37Z</time></trkpt><trkpt lat="43.9280250128699" lon="10.315703832190456"><ele>49.33333333333333</ele><time>2026-04-26T11:00:38Z</time></trkpt><trkpt lat="43.92808839021589" lon="10.315444526959745"><ele>48.0</ele><time>2026-04-26T11:00:39Z</time></trkpt><trkpt lat="43.92814547021752" lon="10.315207627051642"><ele>47.333333333333336</ele><time>2026-04-26T11:00:40Z</time></trkpt><trkpt lat="43.92821691998217" lon="10.314962280897287"><ele>46.66666666666667</ele><time>2026-04-26T11:00:41Z</time></trkpt><trkpt lat="43.92834912899183" lon="10.314757847594837"><ele>46.0</ele><time>2026-04-26T11:00:42Z</time></trkpt><trkpt lat="43.92848179878907" lon="10.314552857727993"><ele>45.66666666666667</ele><time>2026-04-26T11:00:43Z</time></trkpt><trkpt lat="43.92861997358396" lon="10.314323145168686"><ele>45.333333333333336</ele><time>2026-04-26T11:00:44Z</time></trkpt><trkpt lat="43.92874965234831" lon="10.31410815191784"><ele>45.0</ele><time>2026-04-26T11:00:45Z</time></trkpt><trkpt lat="43.92888072607622" lon="10.313877293691947"><ele>44.666666666666664</ele><time>2026-04-26T11:00:46Z</time></trkpt><trkpt lat="43.92902073787793" lon="10.313644225145568"><ele>44.33333333333333</ele><time>2026-04-26T11:00:47Z</time></trkpt><trkpt lat="43.929154450269316" lon="10.31341524145732"><ele>44.0</ele><time>2026-04-26T11:00:48Z</time></trkpt><trkpt lat="43.929283590617274" lon="10.313194805504299"><ele>43.33333333333333</ele><time>2026-04-26T11:00:49Z</time></trkpt><trkpt lat="43.92941427392894" lon="10.312981880945062"><ele>42.666666666666664</ele><time>2026-04-26T11:00:50Z</time></trkpt><trkpt lat="43.92954724263178" lon="10.31278892133537"><ele>42.0</ele><time>2026-04-26T11:00:51Z</time></trkpt><trkpt lat="43.92967252414675" lon="10.31258440380012"><ele>42.0</ele><time>2026-04-26T11:00:52Z</time></trkpt><trkpt lat="43.92981460749868" lon="10.312410619369803"><ele>42.0</ele><time>2026-04-26T11:00:53Z</time></trkpt><trkpt lat="43.929970868251424" lon="10.312266176545794"><ele>42.0</ele><time>2026-04-26T11:00:54Z</time></trkpt><trkpt lat="43.93011823430204" lon="10.312115127178307"><ele>42.0</ele><time>2026-04-26T11:00:55Z</time></trkpt><trkpt lat="43.93025531357811" lon="10.311955012163963"><ele>42.0</ele><time>2026-04-26T11:00:56Z</time></trkpt><trkpt lat="43.93040542054796" lon="10.31181715351507"><ele>42.0</ele><time>2026-04-26T11:00:57Z</time></trkpt><trkpt lat="43.93056464136025" lon="10.31168754160674"><ele>42.0</ele><time>2026-04-26T11:00:58Z</time></trkpt><trkpt lat="43.93073078304482" lon="10.31156759845386"><ele>42.0</ele><time>2026-04-26T11:00:59Z</time></trkpt><trkpt lat="43.93089860266509" lon="10.311459478163707"><ele>42.0</ele><time>2026-04-26T11:01:00Z</time></trkpt><trkpt lat="43.931072738002015" lon="10.311353177738146"><ele>41.333333333333336</ele><time>2026-04-26T11:01:01Z</time></trkpt><trkpt lat="43.931247799610325" lon="10.31123996635593"><ele>40.66666666666667</ele><time>2026-04-26T11:01:02Z</time></trkpt><trkpt lat="43.93142384645354" lon="10.311119906851596"><ele>40.0</ele><time>2026-04-26T11:01:03Z</time></trkpt><trkpt lat="43.93159746366257" lon="10.310993456775266"><ele>39.66666666666667</ele><time>2026-04-26T11:01:04Z</time></trkpt><trkpt lat="43.93176963646909" lon="10.310851006880256"><ele>39.333333333333336</ele><time>2026-04-26T11:01:05.001Z</time></trkpt><trkpt lat="43.93193092310179" lon="10.310700735452395"><ele>39.0</ele><time>2026-04-26T11:01:06.001Z</time></trkpt><trkpt lat="43.93209475522389" lon="10.310535693030559"><ele>39.0</ele><time>2026-04-26T11:01:07.001Z</time></trkpt><trkpt lat="43.93225108637094" lon="10.310360112266702"><ele>39.0</ele><time>2026-04-26T11:01:08.001Z</time></trkpt><trkpt lat="43.93240464999589" lon="10.3101748926908"><ele>39.0</ele><time>2026-04-26T11:01:09.001Z</time></trkpt><trkpt lat="43.93254918259822" lon="10.309982506788687"><ele>38.333333333333336</ele><time>2026-04-26T11:01:10.001Z</time></trkpt><trkpt lat="43.93269070297855" lon="10.309782685074289"><ele>37.66666666666667</ele><time>2026-04-26T11:01:11.001Z</time></trkpt><trkpt lat="43.93282559033803" lon="10.309577516330922"><ele>37.0</ele><time>2026-04-26T11:01:12.001Z</time></trkpt><trkpt lat="43.93296008897612" lon="10.309367027471032"><ele>37.0</ele><time>2026-04-26T11:01:13.001Z</time></trkpt><trkpt lat="43.93307670290061" lon="10.309152122572968"><ele>37.0</ele><time>2026-04-26T11:01:14.001Z</time></trkpt><trkpt lat="43.93318393791614" lon="10.308937214063166"><ele>37.0</ele><time>2026-04-26T11:01:15.001Z</time></trkpt><trkpt lat="43.93328537772315" lon="10.308725079392858"><ele>37.0</ele><time>2026-04-26T11:01:16.001Z</time></trkpt><trkpt lat="43.93338455874973" lon="10.308516923499875"><ele>37.0</ele><time>2026-04-26T11:01:17.001Z</time></trkpt><trkpt lat="43.933476266877165" lon="10.308324383297066"><ele>37.0</ele><time>2026-04-26T11:01:18.001Z</time></trkpt><trkpt lat="43.93355942409436" lon="10.308146706858533"><ele>36.75</ele><time>2026-04-26T11:01:19.001Z</time></trkpt><trkpt lat="43.93363796950906" lon="10.307975666264058"><ele>36.5</ele><time>2026-04-26T11:01:20.001Z</time></trkpt><trkpt lat="43.933709708798396" lon="10.307821690179697"><ele>36.25</ele><time>2026-04-26T11:01:21.001Z</time></trkpt><trkpt lat="43.93377865164619" lon="10.307681421525487"><ele>36.0</ele><time>2026-04-26T11:01:22.001Z</time></trkpt><trkpt lat="43.933846120523306" lon="10.307542101721014"><ele>36.0</ele><time>2026-04-26T11:01:23.001Z</time></trkpt><trkpt lat="43.93391172052513" lon="10.30740090895179"><ele>36.0</ele><time>2026-04-26T11:01:24.001Z</time></trkpt><trkpt lat="43.93397514694022" lon="10.30726022413976"><ele>36.0</ele><time>2026-04-26T11:01:25.001Z</time></trkpt><trkpt lat="43.93403295653114" lon="10.307134236574672"><ele>36.0</ele><time>2026-04-26T11:01:26.001Z</time></trkpt><trkpt lat="43.93408004856162" lon="10.307030271586722"><ele>36.0</ele><time>2026-04-26T11:01:27.001Z</time></trkpt><trkpt lat="43.93413786915318" lon="10.306923700143576"><ele>37.0</ele><time>2026-04-26T11:01:30.001Z</time></trkpt></trkseg></trk></gpx>